Anda di halaman 1dari 141

FECHA PRODUCTO CANTIDAD PRECIO

8/1/2017 sal de andrews polvo efervescente x 100 unid. medifarma caja sobre 1 0.50
8/1/2017 clindamax 300 mg cápsula x 100 unid. ac farma caja envase blister tab 6 3.50
8/1/2017 condon sensation anillosx3 3 1.00
8/1/2017 dicloxacilina 500 mg cápsula x 100 unid. naturgen caja envase folio cá 4 0.40
8/1/2017 pañal huggies suelto xg 1 1.00
8/1/2017 bencilpenicilina benzatinica 1 200 000 ui polvo para suspensión inyecta 4 3.00
8/1/2017 dexametasona 4 mg/2 ml solución inyectable x 100 unid. labot caja am 1 1.00
8/1/2017 aguja descartable 23g x 1 1/2 2 0.20
8/1/2017 azo baccidal 500 mg + 100 mg tableta recubierta x 100 unid. e.s.c. pha 5 2.00
8/1/2017 pasuma nf 50 mg tableta recubierta x 10 unid. inti caja envase blister 1 4.00
8/1/2017 hojas de bisturi nº 11 4 0.50
8/1/2017 frasco simple 1 1.00
8/1/2017 h&s limpieza x 18ml 3 1.00
8/1/2017 guantes esteriles 7 3 1.50
8/1/2017 aquarius manzana x 500ml 1 1.70
8/1/2017 aquarius naranja x 500ml 1 1.70
8/1/2017 pañal babysec sueltos xg 4 0.80
8/1/2017 frasco vidrio 1 2.00
8/1/2017 babytest x cassette 1 8.00
8/1/2017 dia plus 1.5 mg tableta jc.robri caja envase blister tabletas (ee00494) 4 15.00
8/1/2017 ketorolaco 10 mg tableta x 100 unid. naturgen caja envase blister tabl 1 0.30
8/1/2017 quilxib 200 mg cápsula x 100 unid. quimica suiza caja envase blister ta 1 1.50
8/1/2017 agua esteril para inyeccion solución para inyección x 100 unid. pharm 1 0.50
8/1/2017 jeringa 10ml+aguja 21 x 1 1/2 1 0.60
8/1/2017 aguja descartable 21g x 1 1/2 1 0.20
8/1/2017 rapiler 5 mg tableta recubierta x 100 unid. teva caja envase blister tab 2 3.50
8/1/2017 condon sensation anillosx3 3 1.00
8/1/2017 doloparamidol 25 mg + 500 mg tableta recubierta x 200 unid. markos ca 1 1.00
8/1/2017 dicloxacilina 500 mg cápsula x 100 unid. naturgen caja envase folio cá 1 0.40
8/1/2017 crema blanqueadora faz sobres x 20 1 1.00
8/1/2017 kolynos crema blanco x 25 gr 1 1.50
8/1/2017 ab broncol nf 600 polvo liofilizado para solución inyectable medifarma 5 20.00
8/1/2017 dexametasona 4 mg/2 ml solución inyectable x 100 unid. labot caja am 1 1.00
8/1/2017 jeringa 10ml+aguja 21 x 1 1/2 1 0.60
8/1/2017 aguja descartable 23g x 1 1 0.20
8/1/2017 quilxib 200 mg cápsula x 100 unid. quimica suiza caja envase blister ta 2 1.50
8/1/2017 alcohol 96 x 120ml 1 1.50
8/1/2017 agua esteril para inyeccion solución para inyección x 100 unid. pharm 2 0.50
8/1/2017 papel elite doble hoja x 2 7 0.90
8/1/2017 bahia kids spf50 sobres x 20 1 2.00
8/1/2017 ism360 x 250ml 2 2.50
8/1/2017 sal de andrews polvo efervescente x 100 unid. medifarma caja sobre 1 0.50
8/1/2017 jeringa 20ml+aguja 21 x 1 1/2 1 1.00
8/1/2017 suero fisiologico 9 ‰ solución para inyección medifarma frasco x 1l ( 1 7.00
8/1/2017 nylon azul 3-0 tc 30 1 5.00
8/1/2017 venda elastica 4" x 5 yd 5 2.00
8/1/2017 ZIPRAL 400 mg Cápsula x 10 unid. IQ FARMA Caja Envase Blister Capsu 4 1.50
8/1/2017 naprodel x 550 mg 2 1.00
8/1/2017 paracetamol tabltas x 500mg 10 0.20
8/1/2017 repriman 500mg tab quilab 2 1.00
8/1/2017 ciproplix x 500 mg 2 1.50
8/1/2017 biobroncol x 50 cap iqfarma 1 2.00
8/1/2017 prednisona tab x 50mg quilab 1 1.00
8/1/2017 novalgese x 10 mg 1 1.00
8/1/2017 nastizol compositim forte bago 1 1.50
8/1/2017 sulfa24 tab bios 1 1.50
8/1/2017 sifen x 50 mg 2 0.50
8/1/2017 broncophar unitomas 2 1.00
8/1/2017 azobaccidal tb 1 1.50
8/1/2017 novalgese x 10 mg 1 1.00
8/1/2017 sifen x 50 mg 1 0.50
8/1/2017 marschall cuajo azul 2 1.00
8/1/2017 cloroalergan 4mg sanitas 4 1.50
8/1/2017 meloxican tab 15mg 1 0.50
8/1/2017 novalgese x 10 mg 1 1.00
8/1/2017 cielo x625ml 1 1.00
8/1/2017 aciclovir x 800 mg 1 2.00
8/1/2017 aciclovir crema 5% x5gr 1 4.50
8/1/2017 enalapril tabx20mg 10 0.20
8/1/2017 dermosol bb sachet 50 cooper rosado 1 2.50
8/1/2017 orfenadrina 100mg x 100 tab 2 1.00
8/1/2017 novalgese x 10 mg 2 1.00
8/1/2017 celecoxib tab x 200mg medrock 2 0.50
8/1/2017 lady speed stick des sachet v y m 1 1.00
8/1/2017 ferranin forte x 50 mg 2 37.50
8/1/2017 novalgese x 10 mg 1 1.00
8/1/2017 meloxican tab 15mg 1 0.50
8/1/2017 paracetamol gotas x 10ml portugal 1 2.50
8/1/2017 dexalor tab del farma 2 1.50
8/1/2017 doloteralgex rapid x 50mg/300mg tab 2 1.50
8/1/2017 vaselina reuter frasco x 18g 1 1.50
8/1/2017 nastizol compositum junior tab bago 2 0.70
8/1/2017 dimenhidrinato tab x 50mg quilab 6 0.50
8/1/2017 gel capilaris x 100 gr 1 3.50
8/1/2017 dimenhidrinato tab x 50mg quilab 2 0.50
8/1/2017 alcohol puro x 96° x 120ml duofarama 1 1.50
8/1/2017 sal de andrews triple accion 2 1.00
8/1/2017 aspirina 100 mg x 140 tab bayer 2 0.50
8/1/2017 flatuzin x 100 cap iqfarma 1 1.00
8/1/2017 espasmodel tabletas del farma 1 1.50
8/1/2017 doloneurobion capsulas merck 1 1.50
8/1/2017 celecoxib tab x 200mg medrock 1 0.50
8/1/2017 babysec x u talla m 8 0.60
8/1/2017 marschall cuajo azul 2 1.00
8/1/2017 ibuprofeno tabx400mg farmaindustria 10 0.20
8/1/2017 caramelos buck 2 0.50
8/1/2017 celecoxib tab x 200mg medrock 2 0.50
8/1/2017 orfenadrina 100mg x 100 tab 2 1.00
8/1/2017 sifen x 50 mg 2 0.50
8/1/2017 varimine comprimidos 1 2.50
8/1/2017 jeringa 10cc bendic con/aguja 10 0.70
8/1/2017 jeringa 5mcc 10 0.50
8/1/2017 jeringa tuberculina x 1ml 10 0.50
8/1/2017 dexametazona x 0.5 mg 1 0.50
8/1/2017 azitromac 500mg 1 2.50
8/1/2017 fenazopiridina x 100 mg 20 0.30
8/1/2017 agua san carlos x 630 ml 1 1.00
8/1/2017 polvos ponds cara 1 10.00
8/1/2017 ponds sachets 1 1.00
8/1/2017 aclarat con filtro solar sachet 1 1.00
8/1/2017 complejo b forte cap blandas sherfarma 2 0.00
8/1/2017 electrolaiyg x 800 ml 1 3.50
8/1/2017 migralud tabletas 1 1.50
8/1/2017 ponds sachets 1 1.00
8/1/2017 cielo x625ml 1 1.00
8/1/2017 onicax x 750 mg , cprofloxacino x 750 mg 7 1.50
8/1/2017 mepadol extra forte pharmac 7 1.50
8/1/2017 aclarat con filtro solar sachet 1 1.00
8/1/2017 zalicer tab x 10mg bpm 2 1.00
8/1/2017 endgrip forte x 100 tab del farma 1 1.50
8/1/2017 naproxeno x 550 mg farmaindustria 2 0.50
8/1/2017 amoxicilina x 500 mg cap 3 0.30
8/1/2017 cielo x625ml 1 1.00
8/1/2017 bahia faces 90 sachets 10 2.00
8/1/2017 mepadol extra forte pharmac 1 1.50
8/1/2017 prednisona tab x 50mg quilab 1 1.00
8/1/2017 amoxicilina 250mg susp x 60ml farmaindustria 1 4.50
8/1/2017 cetirizina 5mg jbe x 60 ml 1 5.50
8/1/2017 ibuprofeno jabx100mg/5ml portugal 1 3.50
8/1/2017 rexona des sachet 1 1.00
8/1/2017 sitiderm nf tubo por 10g medifarma 1 8.50
8/1/2017 apronax tab x550mg 2 1.80
8/1/2017 ponds sachets 1 1.00
8/1/2017 complejo b comprimido quilab 10 0.10
8/1/2017 ponds sachets 5 1.00
8/1/2017 vitapyrena forte sobre 2 2.50
8/1/2017 vvick vaporub x 12gr 1 2.50
8/1/2017 sifen x 50 mg 1 0.50
8/1/2017 chao x 100 tabletas genolab 2 1.50
8/1/2017 lesartamine levocetirizina x 5 mg 2 1.50
8/1/2017 caramelos buck 2 0.50
8/1/2017 jabon carbolico con bolsa 1 1.50
8/1/2017 nosotras natural normales alas x10t 1 3.50
8/1/2017 jeringa tuberculina x 1ml 1 0.50
8/1/2017 endgrip forte x 100 tab del farma 1 1.50
8/1/2017 nivea rollon desodorante x 50 ml 2 7.50
8/1/2017 mepadol extra forte pharmac 2 1.50
8/1/2017 dexametazona x 0.5 mg 2 0.50
8/1/2017 endgrip forte x 100 tab del farma 1 1.50
8/1/2017 broncotrifamox capx500mg medifarma 1 1.50
8/1/2017 mepadol extra forte pharmac 1 1.50
8/1/2017 complejo b comprimido quilab 30 0.10
8/1/2017 ibuprofeno tabx400mg farmaindustria 5 0.20
8/1/2017 rexona jabon x 125 gr 1 3.50
8/1/2017 rhino-bb 0,9%gotas x15ml magma 1 11.50
8/1/2017 silenai cl jbe x 120 ml del farma 2 28.50
8/1/2017 complejo b comprimido quilab 25 0.10
8/1/2017 clavuliph ,amoxicilina 500mg / acido clavulanico 125mg 2 2.00
8/1/2017 ibuprofeno tabx400mg farmaindustria 5 0.20
8/1/2017 cuajo verde sobre 1 1.00
8/1/2017 complejo b comprimido quilab 10 0.30
8/1/2017 azitromicina cap x 500mg 3 1.50
8/1/2017 cielo x625ml 1 1.00
8/1/2017 penetro caramelos 4 0.80
8/1/2017 piel preservativo 1 3.50
8/1/2017 broncoclarimac tab 1 3.50
8/1/2017 jeringa 10cc bendic con/aguja 1 0.70
8/1/2017 cuajo verde sobre 1 1.00
8/1/2017 alcohol purode 96° x 60 mlalkofarma 1 1.00
8/1/2017 test de embarazo en tira efective 1 7.00
8/1/2017 rexona des sachet 2 1.00
8/1/2017 mantequilla cacaox barra portugal 1 0.30
8/1/2017 kitadol tab teva 1 1.50
8/1/2017 complejo b forte cap blandas sherfarma 1 0.50
8/1/2017 novalgese x 10 mg 1 1.00
8/1/2017 meloxican tab 15mg 1 0.50
8/1/2017 ampicilina cap x 500mg marfan 2 0.30
8/1/2017 vaselina pura x 5gr 1 1.00
8/1/2017 ponds sachets 1 1.00
8/1/2017 vaselina reuter frasco x 5gr 1 1.00
8/1/2017 dove jab x 90g 1 3.00
8/1/2017 jeringa 10cc bendic con/aguja 3 0.80
8/1/2017 ibuprofeno jabx100mg/5ml portugal 6 3.50
8/1/2017 novalgese x 10 mg 1 1.00
8/1/2017 endgrip forte x 100 tab del farma 1 1.50
8/1/2017 dexametazona x 0.5 mg 5 1.00
TOTAL:
IMPORTE
0.50
21.00
3.00
1.60
1.00
12.00
1.00
0.40
10.00
4.00
2.00
1.00
3.00
4.50
1.70
1.70
3.20
2.00
8.00
60.00
0.30
1.50
0.50
0.60
0.20
7.00
3.00
1.00
0.40
1.00
1.50
100.00
1.00
0.60
0.20
3.00
1.50
1.00
6.30
2.00
5.00
0.50
1.00
7.00
5.00
10.00
6.00
2.00
2.00
2.00
3.00
2.00
1.00
1.00
1.50
1.50
1.00
2.00
1.50
1.00
0.50
2.00
6.00
0.50
1.00
1.00
2.00
4.50
2.00
2.50
2.00
2.00
1.00
1.00
75.00
1.00
0.50
2.50
3.00
3.00
1.50
1.40
3.00
3.50
1.00
1.50
2.00
1.00
1.00
1.50
1.50
0.50
4.80
2.00
2.00
1.00
1.00
2.00
1.00
2.50
7.00
5.00
5.00
0.50
2.50
6.00
1.00
10.00
1.00
1.00
0.00
3.50
1.50
1.00
1.00
10.50
10.50
1.00
2.00
1.50
1.00
0.90
1.00
20.00
1.50
1.00
4.50
5.50
3.50
1.00
8.50
3.60
1.00
1.00
5.00
5.00
2.50
0.50
3.00
3.00
1.00
1.50
3.50
0.50
1.50
15.00
3.00
1.00
1.50
1.50
1.50
3.00
1.00
3.50
11.50
57.00
2.50
4.00
1.00
1.00
3.00
4.50
1.00
3.20
3.50
3.50
0.70
1.00
1.00
7.00
2.00
0.30
1.50
0.50
1.00
0.50
0.60
1.00
1.00
1.00
3.00
2.40
21.00
1.00
1.50
5.00
811.10
FECHA PRODUCTO CANTIDAD PRECIO
8/2/2017 sal de andrews 2 0.50
8/2/2017 medravol (dimenhidrinato) 4 2.00
8/2/2017 buscapina compositum n tb (hioscina) 2 1.50
8/2/2017 ponds sachet 1 1.00
8/2/2017 graflomed tb (dimenhidrinato 50 mg) 3 1.00
8/2/2017 dolodran (diclofenaco + paracetamol) 1 1.00
8/2/2017 bronco medical tb (amoxicilina + bromhexina) 1 1.00
8/2/2017 ponds sachet 1 1.00
8/2/2017 kitadol migraña 1 2.00
8/2/2017 recarga claro 5 1.00
8/2/2017 recarga bitel 5 1.00
8/2/2017 recarga bitel 3 1.00
8/2/2017 dolodran (diclofenaco + paracetamol) 4 1.00
8/2/2017 gatorade 1 2.00
8/2/2017 recarga claro 3 1.00
8/2/2017 dolodran (diclofenaco + paracetamol) 1 1.00
8/2/2017 bactrim forte tb 1 2.00
8/2/2017 zycot compuesto (pargeverina + clonixilato) 1 2.50
8/2/2017 bismutol tb masticable(subsalicilato de bismuto) 1 1.00
8/2/2017 loratadina 10 mg farmindustria 3 0.50
8/2/2017 noble papel higienico 2 0.75
8/2/2017 elite duo papel higienico 2 1.00
8/2/2017 babysec talla m (unidad) 3 0.75
8/2/2017 dolodran (diclofenaco + paracetamol) 1 1.00
8/2/2017 grip total sobres 1 2.00
8/2/2017 loratadina 10 mg farmindustria 1 0.50
8/2/2017 grip total sobres 1 2.00
8/2/2017 old spice spray x 150 ml 1 13.00
8/2/2017 piel condones surtido 1 3.50
8/2/2017 jeringa 10 ml 1 0.50
8/2/2017 ampicilina 500 mg portugal 2 0.33
8/2/2017 vaselina reuter grande 1 2.00
8/2/2017 panadol efervescente sobre x 1 tabla 1 2.50
8/2/2017 sal de andrews triple accion 1 1.00
8/2/2017 hugguies talla m (paq x 64) 1 48.00
8/2/2017 johnson toallas paño humedo x x 1 15.00
8/2/2017 hisopos tuinies x 50 1 3.00
8/2/2017 dolodran (diclofenaco + paracetamol) 2 1.00
8/2/2017 atorvastatina 20 mg medrock 2 0.50
8/2/2017 practipañal plenitud (por unidad) 1 1.00
8/2/2017 practipañal plenitud (por unidad) 1 1.00
8/2/2017 dolodran (diclofenaco + paracetamol) 2 1.00
8/2/2017 naproxeno 550 mg farmindustria 3 0.33
8/2/2017 recarga claro 6 1.00
8/2/2017 dolomeloxic (meloxicam + paracetamol) 2 2.00
8/2/2017 dove jabon 1 3.50
8/2/2017 aspirina forte tb 1 1.50
8/2/2017 loperamida 2 gr 1 1.00
8/2/2017 roxtrim balsamico (sulfamet + guai) 1 1.30
8/2/2017 babysec talla m (unidad) 1 0.75
8/2/2017 multibioticos caramelo (benzocaina) 1 3.00
8/2/2017 recarga claro 5 1.00
8/2/2017 bahia bloqueador fps 70 sachet 1 2.00
8/2/2017 curitas (venditas) 5 0.10
8/2/2017 ponds sachet 1 1.00
8/2/2017 curitas (venditas) 2 0.10
8/2/2017 recarga bitel 5 1.00
8/2/2017 bronco pulmin masticable 1 1.00
8/2/2017 cefalexina 500 tb farmindustria 1 1.00
8/2/2017 gentamicina oftalmica 1 6.00
8/2/2017 trioval nf 1 2.00
8/2/2017 bronco pulmin masticable 1 1.00
8/2/2017 bronco pulmin masticable 1 1.00
8/2/2017 bloqueador bahia kids 70 niños 1 2.00
8/2/2017 uropharma forte ( ciproflox + fenazo) 1 3.00
8/2/2017 mejoral 3 0.50
8/2/2017 recarga claro 3 1.00
8/2/2017 trioval nf 1 2.00
8/2/2017 dolodran (diclofenaco + paracetamol) (gg) 1 1.00
8/2/2017 ponds sachet 1 1.00
8/2/2017 desodorante en sachet 1 1.00
8/2/2017 bloqueador bahia color 90 faces sachet 1 2.50
8/2/2017 recarga claro 6 1.00
8/2/2017 recarga bitel 5 1.00
8/2/2017 dolodran (diclofenaco + paracetamol) (gg) 1 1.00
8/2/2017 enalapril 20 mg farmindustria 3 0.33
8/2/2017 panadol antigripal sobre 1 2.00
8/2/2017 enalapril 20 mg farmindustria 2 0.33
8/2/2017 tdn allergy (cetirizina) 1 3.00
8/2/2017 dolodran (diclofenaco + paracetamol) (gg) 1 1.00
8/2/2017 papel suave papel higienico 1 1.00
8/2/2017 bronco medical tabletas (amoxicilina + bromhexina) 1 1.00
8/2/2017 bronco medical tabletas (amoxicilina + bromhexina) 1 1.00
8/2/2017 tdn allergy (cetirizina) 1 3.00
8/2/2017 trioval nf 1 2.00
8/2/2017 recarga claro 3 1.00
8/2/2017 trioval nf 1 2.00
8/2/2017 trioval nf 1 2.00
8/2/2017 sachet portugal concha de nacar y blanqueadora 1 1.00
8/2/2017 recarga bitel 5 1.00
8/2/2017 recarga claro 5 1.00
8/2/2017 dermosol bloqueador sachet 1 2.50
8/2/2017 recarga bitel 5 1.00
8/2/2017 huggies talla xg (unidad) 5 1.00
8/2/2017 equalax (bisacodilo) (gg) 1 1.50
8/2/2017 kitadol migraña 1 2.00
8/2/2017 nastizol junior comp 2 1.00
8/2/2017 atorvastatina 20 mg portugal 1 0.33
8/2/2017 captopril 25 mg tb (farmindustria) 2 0.33
8/2/2017 atorvastatina 20 mg portugal 1 0.33
8/2/2017 recarga claro 12 1.00
8/2/2017 aceite de olivo 1 5.00
8/2/2017 recarga bitel 3 1.00
8/2/2017 trioval nf 1 2.00
8/2/2017 recarga claro 3 1.00
8/2/2017 recarga bitel 3 1.00
8/2/2017 agua pura vida pequeño 1 1.00
8/2/2017 recarga claro 3 1.00
8/2/2017 lergium plus 1 4.00
8/2/2017 trioval nf 1 2.00
8/2/2017 bronco medical tabletas (amoxicilina + bromhexina) 1 1.00
8/2/2017 dolodran (diclofenaco + paracetamol) (gg) 1 1.00
8/2/2017 recarga claro 6 1.00
8/2/2017 ponstan rd (naproxeno 220 mg) 1 1.50
8/2/2017 bahia bloqueador fps 70 sachet 1 2.00
8/2/2017 jabon liquido aval x 400 ml 1 7.00
8/2/2017 johnson talco para bebe 400g 1 19.50
8/2/2017 alergical sf tb (clorfenamina + pseudoefedrina) 1 2.50
8/2/2017 paracetamol gotas 1 2.50
8/2/2017 recarga claro 5 1.00
8/2/2017 nodial crema (g) 1 10.00
8/2/2017 recarga claro 3 1.00
8/2/2017 bloqueador bahia kids 70 niños 1 2.00
8/2/2017 recarga bitel 3 1.00
8/2/2017 paracetamol 500 mg tb portugal 10 0.25
8/2/2017 kitadol migraña 1 2.00
8/2/2017 kitadol migraña 1 2.00
8/2/2017 plidan compuesto 1 2.00
8/2/2017 papel suave papel higienico 1 1.00
8/2/2017 sulfametoxazol 800 + tmp farmindustria 1 0.50
8/2/2017 hioscina 10 mg medrock 1 1.00
8/2/2017 dolodran (diclofenaco + paracetamol) (gg) 1 1.00
8/2/2017 dolodran (diclofenaco + paracetamol) (gg) 1 1.00
8/2/2017 bahia bloqueador fps 70 sachet 1 2.00
8/2/2017 dolodran (diclofenaco + paracetamol) (gg) 1 1.00
8/2/2017 doloneuropress forte (diclo + vitaminas) (g) 1 2.50
8/2/2017 doloneuropress forte (diclo + vitaminas) (g) 1 2.50
8/2/2017 recarga claro 21 1.00
8/2/2017 curitas (venditas) 6 0.10
8/2/2017 gatorade 1 2.00
8/2/2017 recarga bitel 5 1.00
8/2/2017 aciclovir 400 mg tb medrock 1 1.00
8/2/2017 aciclovir 400 mg tb medrock 1 1.00
8/2/2017 nivea x 30 g lata 1 5.00
8/2/2017 babysec talla m (unidad) 4 0.75
8/2/2017 recarga bitel 3 1.00
8/2/2017 babysec talla xg (por unidad) 2 0.80
8/2/2017 recarga bitel 3 1.00
8/2/2017 kitadol migraña 1 2.00
8/2/2017 recarga bitel 3 1.00
8/2/2017 recarga bitel 5 1.00
8/2/2017 diclofenaco 50 mg tb iq farma 2 0.50
8/2/2017 diclofenaco 50 mg tb iq farma 2 0.50
8/2/2017 recarga claro 3 1.00
8/2/2017 cotidian pañal talla g (unidad) 2 2.00
8/2/2017 recarga claro 3 1.00
8/2/2017 frasco para muestra de orina 1 1.00
8/2/2017 recarga claro 8 1.00
8/2/2017 recarga bitel 5 1.00
8/2/2017 aceite rosado 2 1.00
8/2/2017 antalgina 500 mg tb (metamizol) 2 0.33
8/2/2017 agua cielo 620 ml 1 1.00
8/2/2017 thimolina 1 1.50
8/2/2017 babysec talla xg (por unidad) 2 0.80
8/2/2017 nosotras tela gel x 10 1 3.50
8/2/2017 babysec talla xg (por unidad) 4 0.80
8/2/2017 amoxicilina 250/5ml suspension portugal 1 5.00
8/2/2017 nastizol junior comp 4 0.75
8/2/2017 alergical sf tb (clorfenamina + pseudoefedrina) 1 2.50
8/2/2017 dento pasta dental x 75 ml 1 2.50
8/2/2017 old spice spray x 150 ml 1 13.00
8/2/2017 rexona desodorante en barra x 50 g 1 10.00
8/2/2017 eritromicina 500 mg farmindustria 2 1.00
8/2/2017 sulfametoxazol 800 + tmp farmindustria 2 0.50
8/2/2017 sulfametoxazol 800 + tmp farmindustria 1 0.50
8/2/2017 dolodran (diclofenaco + paracetamol) (gg) 3 1.00
8/2/2017 papel suave papel higienico 2 1.00
8/2/2017 ponds sachet 1 1.00
8/2/2017 thimolina 1 1.50
8/2/2017 alcohol pequeño 1 1.00
8/2/2017 recarga claro 5 1.00
8/2/2017 antalgina 500 mg tb (metamizol) 3 0.33
8/2/2017 recarga claro 5 1.00
8/2/2017 colmar relax (paracetamol + orfenadrina) 1 2.00
8/2/2017 panadol niños masticable 2 0.75
8/2/2017 agua cielo 620 ml 1 1.00
8/2/2017 bronco medical tabletas (amoxicilina + bromhexina) 3 1.00
8/2/2017 bronco pulmin masticable 3 1.00
8/2/2017 tintura de yodo 1 1.00
8/2/2017 nastizol junior comp 2 0.75
8/2/2017 nastizol junior comp 2 0.75
8/2/2017 baby sec talla xg (unidad) 4 0.75
8/2/2017 dayflu antigripal (gg) 1 2.00
8/2/2017 dolodran (diclofenaco + paracetamol) (gg) 1 1.00
8/2/2017 dolodran (diclofenaco + paracetamol) (gg) 1 1.00
8/2/2017 dolodran (diclofenaco + paracetamol) (gg) 1 1.00
8/2/2017 naproxeno 550 mg farmindustria 1 0.33
8/2/2017 bronco magnimox tb (amoxicilina + bronhexina) 1 1.50
8/2/2017 dolodran (diclofenaco + paracetamol) (gg) 1 1.00
8/2/2017 recarga claro 3 1.00
8/2/2017 amoxicilina 500 mg comp farmindustria 6 0.50
8/2/2017 dolodran (diclofenaco + paracetamol) (gg) 2 1.00
8/2/2017 emkit 1 13.00
8/2/2017 electroligth 800 ml 1 3.00
8/2/2017 ampicilina 500 mg portugal 2 0.33
8/2/2017 nastizol junior comp 1 0.75
8/2/2017 recarga bitel 8 1.00
8/2/2017 recarga claro 3 1.00
8/2/2017 dolodran (diclofenaco + paracetamol) (gg) 2 1.00
8/2/2017 antigripina plus 2 1.00
8/2/2017 enalapril 20 mg farmindustria 1 0.33
8/2/2017 broncobutol unitoma (salbutamol + ambroxol) 1 1.50
8/2/2017 enalapril 20 mg farmindustria 5 0.33
8/2/2017 recarga claro 3 1.00
8/2/2017 recarga bitel 5 1.00
8/2/2017 desodorante en sachet 1 1.00
8/2/2017 recarga claro 3 1.00
8/2/2017 cetirizina 10 mg farmindustria 3 0.50
8/2/2017 recarga claro 3 1.00
8/2/2017 recarga claro 3 1.00
8/2/2017 dolodran (diclofenaco + paracetamol) (gg) 2 1.00
8/2/2017 bronco magnimox tb (amoxicilina + bronhexina) 2 1.50
8/2/2017 recarga bitel 3 1.00
8/2/2017 noble papel higienico 2 0.75
8/2/2017 recarga bitel 5 1.00
8/2/2017 recarga bitel 5 1.00
8/2/2017 recarga bitel 5 1.00
8/2/2017 recarga claro 3 1.00
8/2/2017 recarga claro 5 1.00
8/2/2017 aciclovir 5% crema farmindustria 1 5.00
8/2/2017 aciclovir 400 mg tb medrock 1 1.00
8/2/2017 ponds sachet 1 1.00
8/2/2017 dolodran (diclofenaco + paracetamol) (gg) 1 1.00
8/2/2017 odontobiotic 1 2.50
8/2/2017 ketorolaco 10 mg portugal 1 1.00
8/2/2017 doloplus relax (diclo+ paracetamol+ orfenad) 1 2.50
8/2/2017 nosotras invisible 1 4.00
8/2/2017 cepillo dento 1 2.50
8/2/2017 recarga claro 10 1.00
8/2/2017 paracetamol 500 mg tb portugal 5 0.25
8/2/2017 dolomeloxic (meloxicam + paracetamol) 2 2.00
8/2/2017 grip total sobres 1 2.00
8/2/2017 recarga claro 3 1.00
8/2/2017 recarga claro 3 1.00
8/2/2017 uropharma forte ( ciproflox + fenazo) (gg) 2 3.00
8/2/2017 papel suave papel higienico 1 1.00
8/2/2017 sulfametoxazol 800 + tmp farmindustria 2 0.50
8/2/2017 eritromicina 500 mg farmindustria 2 1.00
8/2/2017 ponds sachet 1 1.00
8/2/2017 bloqueador bahia kids 70 niños 1 2.00
8/2/2017 eritromicina 500 mg farmindustria 1 1.00
8/2/2017 dolodran (diclofenaco + paracetamol) (gg) 1 1.00
8/2/2017 saalgrip (g) 1 1.50
8/2/2017 thimolina 1 1.50
8/2/2017 doloplus relax (diclo+ paracetamol+ orfenad) 3 2.50
8/2/2017 doloplus relax (diclo+ paracetamol+ orfenad) 1 2.50
8/2/2017 paracetamol 500 mg tb portugal 2 0.25
8/2/2017 curitas (venditas) 10 0.10
8/2/2017 amoxicilina 250 mg iq farma 2 0.50
8/2/2017 redex (diclofenaco + clorzoxazona) 1 3.50
8/2/2017 ketorolaco 10 mg portugal 1 1.00
8/2/2017 suave rendimax papel higienico 1 1.00
8/2/2017 oral b cepillo 1-2-3 1 3.00
8/2/2017 pampers rn recien nacido x 20 1 11.00
8/2/2017 venda elastica 5x5 1 4.00
8/2/2017 ponds sachet 1 1.00
8/2/2017 hugguies talla m (unidad) 2 0.75
8/2/2017 prednisona 5000 mg farmindustria 1 1.00
8/2/2017 cloro alergan tb (clorfenamina) 1 1.00
8/2/2017 eritromicina 500 mg farmindustria 1 1.00
8/2/2017 hugguies talla xxg (por unidad) 5 1.00
8/2/2017 hugguies x 48 1 9.00
8/2/2017 chao 1 1.50
8/2/2017 dolodran (diclofenaco + paracetamol) (gg) 1 1.00
8/2/2017 frasco para muestra de orina 1 1.00
8/2/2017 vick z 2 2.00
8/2/2017 tioctan plus 2 2.00
8/2/2017 baby sec talla xg (unidad) 2 0.75
8/2/2017 eritromicina 500 mg farmindustria 2 1.00
8/2/2017 sulfametoxazol 800 + tmp farmindustria 2 0.50
8/2/2017 dolodran (diclofenaco + paracetamol) (gg) 2 1.00
8/2/2017 voltaren emulgel 1% (diclofenaco) 1 22.00
8/2/2017 shick extreme 3 1 3.00
8/2/2017 generade 1 2.00
8/2/2017 dolomeloxic (meloxicam + paracetamol) 1 2.00
8/2/2017 dolodran (diclofenaco + paracetamol) (gg) 1 1.00
8/2/2017 odontobiotic 1 2.50
8/2/2017 dolodran (diclofenaco + paracetamol) (gg) 1 1.00
8/2/2017 kitadol migraña 1 2.00
8/2/2017 plidan compuesto 4 2.00
8/2/2017 amoxicilina 250 mg iq farma 1 0.50
8/2/2017 papel suave papel higienico 2 1.00
8/2/2017 aspirina forte tb 1 1.50
8/2/2017 colmar relax (paracetamol + orfenadrina) (gg) 1 2.00
8/2/2017 dolodran (diclofenaco + paracetamol) (gg) 1 1.00
8/2/2017 dayflu antigripal (gg) 1 2.00
8/2/2017 dolodran (diclofenaco + paracetamol) (gg) 1 1.00
8/2/2017 prednisona 5000 mg farmindustria 2 1.00
8/2/2017 dolodran (diclofenaco + paracetamol) (gg) 1 1.00
8/2/2017 eritromicina 500 mg farmindustria 2 1.00
8/2/2017 dolodran (diclofenaco + paracetamol) (gg) 1 1.00
8/2/2017 colgate total 12 grande 2 9.00
8/2/2017 agua pura vida pequeño 1 1.00
8/2/2017 piel condones surtido 1 3.50
8/2/2017 bronco magnimox tb (amoxicilina + bronhexina) 2 1.50
8/2/2017 dolodran (diclofenaco + paracetamol) (gg) 2 1.00
8/2/2017 prednisona 5000 mg farmindustria 2 1.00
8/2/2017 panadol antigripal sobre 1 2.00
8/2/2017 naproxeno 550 mg farmindustria 3 0.33
8/2/2017 ampicilina 500 mg portugal 3 0.33
8/2/2017 dolodran (diclofenaco + paracetamol) (gg) 4 1.00
TOTAL:
IMPORTE
1.00
8.00
3.00
1.00
3.00
1.00
1.00
1.00
2.00
5.00
5.00
3.00
4.00
2.00
3.00
1.00
2.00
2.50
1.00
1.50
1.50
2.00
2.25
1.00
2.00
0.50
2.00
13.00
3.50
0.50
0.66
2.00
2.50
1.00
48.00
15.00
3.00
2.00
1.00
1.00
1.00
2.00
0.99
6.00
4.00
3.50
1.50
1.00
1.30
0.75
3.00
5.00
2.00
0.50
1.00
0.20
5.00
1.00
1.00
6.00
2.00
1.00
1.00
2.00
3.00
1.50
3.00
2.00
1.00
1.00
1.00
2.50
6.00
5.00
1.00
0.99
2.00
0.66
3.00
1.00
1.00
1.00
1.00
3.00
2.00
3.00
2.00
2.00
1.00
5.00
5.00
2.50
5.00
5.00
1.50
2.00
2.00
0.33
0.66
0.33
12.00
5.00
3.00
2.00
3.00
3.00
1.00
3.00
4.00
2.00
1.00
1.00
6.00
1.50
2.00
7.00
19.50
2.50
2.50
5.00
10.00
3.00
2.00
3.00
2.50
2.00
2.00
2.00
1.00
0.50
1.00
1.00
1.00
2.00
1.00
2.50
2.50
21.00
0.60
2.00
5.00
1.00
1.00
5.00
3.00
3.00
1.60
3.00
2.00
3.00
5.00
1.00
1.00
3.00
4.00
3.00
1.00
8.00
5.00
2.00
0.66
1.00
1.50
1.60
3.50
3.20
5.00
3.00
2.50
2.50
13.00
10.00
2.00
1.00
0.50
3.00
2.00
1.00
1.50
1.00
5.00
0.99
5.00
2.00
1.50
1.00
3.00
3.00
1.00
1.50
1.50
3.00
2.00
1.00
1.00
1.00
0.33
1.50
1.00
3.00
3.00
2.00
13.00
3.00
0.66
0.75
8.00
3.00
2.00
2.00
0.33
1.50
1.65
3.00
5.00
1.00
3.00
1.50
3.00
3.00
2.00
3.00
3.00
1.50
5.00
5.00
5.00
3.00
5.00
5.00
1.00
1.00
1.00
2.50
1.00
2.50
4.00
2.50
10.00
1.25
4.00
2.00
3.00
3.00
6.00
1.00
1.00
2.00
1.00
2.00
1.00
1.00
1.50
1.50
7.50
2.50
0.50
1.00
1.00
3.50
1.00
1.00
3.00
11.00
4.00
1.00
1.50
1.00
1.00
1.00
5.00
9.00
1.50
1.00
1.00
4.00
4.00
1.50
2.00
1.00
2.00
22.00
3.00
2.00
2.00
1.00
2.50
1.00
2.00
8.00
0.50
2.00
1.50
2.00
1.00
2.00
1.00
2.00
1.00
2.00
1.00
18.00
1.00
3.50
3.00
2.00
2.00
2.00
0.99
0.99
4.00
921.22
FECHA PRODUCTO CANTIDAD PRECIO IMPORTE
8/3/2017 dentito galaxy cepillo niños 1 3.00 3.00
8/3/2017 rexona desodorante roll on x 30 ml 2 4.50 9.00
8/3/2017 cepillo dento 2 2.50 5.00
8/3/2017 shick extreme 3 1 3.00 3.00
8/3/2017 lipstick lip 1 5.00 5.00
8/3/2017 panadol antigripal sobre 1 2.00 2.00
8/3/2017 miodel relax (paracetamol + orfenadrina + diclo) (gg) 6 4.00 24.00
8/3/2017 dolodran (diclofenaco + paracetamol) (gg) 1 1.00 1.00
8/3/2017 dicloxacilina 500 mg iqfarma 1 0.50 0.50
8/3/2017 ciprofloxacino 500 mg farmindustria 3 0.33 0.99
8/3/2017 diclofenaco 50 mg tb iq farma 3 0.50 1.50
8/3/2017 dexametasona 4 mg tb 3 0.50 1.50
8/3/2017 trioval nf tableta (gg) 1 2.00 2.00
8/3/2017 alergical sf tb (clorfenamina + pseudoefedrina) 1 2.50 2.50
8/3/2017 zycot compuesto (pargeverina + clonixilato) (gg) 2 2.50 5.00
8/3/2017 flatuzym 2 1.50 3.00
8/3/2017 odontobiotic 3 2.50 7.50
8/3/2017 ketorolaco 10 mg portugal 2 1.00 2.00
8/3/2017 dimenhidrinato 50 mg portugal 2 0.50 1.00
8/3/2017 graflomed tb (dimenhidrinato 50 mg) (gg) 2 2.00 4.00
8/3/2017 graflomed tb (dimenhidrinato 50 mg) (gg) 1 2.00 2.00
8/3/2017 aflamax 550 mg tb .3(naproxeno) 2 2.00 4.00
8/3/2017 aciclovir 400 mg tb medrock 2 1.00 2.00
8/3/2017 alcohol pequeño 1 1.00 1.00
8/3/2017 electroral 1 l 3 14.00 42.00
8/3/2017 antalgina 500 mg tb (metamizol) 3 0.33 0.99
8/3/2017 aciclovir 400 mg tb medrock 2 1.00 2.00
8/3/2017 sal de andrews 1 0.50 0.50
8/3/2017 bloqueador bahia color 90 faces sachet 1 2.50 2.50
8/3/2017 ponds sachet 1 1.00 1.00
8/3/2017 ponds sachet 1 1.00 1.00
8/3/2017 dolodran (diclofenaco + paracetamol) (gg) 2 1.00 2.00
8/3/2017 tusquim (dextrom + parac) (gg) 1 2.50 2.50
8/3/2017 trioval nf tableta (gg) 1 2.00 2.00
8/3/2017 broncomax 500 tb (amoxicilina + bromhexina) 2 1.50 3.00
8/3/2017 prednisona 5000 mg farmindustria 2 1.00 2.00
8/3/2017 broncomax 500 tb (amoxicilina + bromhexina) 1 1.50 1.50
8/3/2017 dolodran (diclofenaco + paracetamol) (gg) 1 1.00 1.00
8/3/2017 complejo b cofana 5 0.20 1.00
8/3/2017 nosotras invisible promocion 1 4.00 4.00
8/3/2017 equalax (bisacodilo) (gg) 1 1.50 1.50
8/3/2017 sal de andrews 2 0.50 1.00
8/3/2017 huggies talla xg (unidad) 5 1.00 5.00
8/3/2017 dimens loratadina unitoma (gg) 3 2.00 6.00
8/3/2017 agua oxigenada 120 ml 1 2.00 2.00
8/3/2017 naproxeno 550 mg farmindustria 3 0.33 0.99
8/3/2017 algodol de 25 g 1 2.00 2.00
8/3/2017 zycot compuesto (pargeverina + clonixilato) (gg) 2 2.50 5.00
8/3/2017 bactrim forte tb 2 2.00 4.00
8/3/2017 colmar relax (paracetamol + orfenadrina) (gg) 2 2.00 4.00
8/3/2017 ponstan rd (naproxeno 220 mg) 3 1.50 4.50
8/3/2017 enterophar forte unitoma (gg) 1 2.00 2.00
8/3/2017 dolodran (diclofenaco + paracetamol) (gg) 1 1.00 1.00
8/3/2017 dimenhidrinato 50 mg portugal 1 0.50 0.50
8/3/2017 panadol forte sobre 1 2.50 2.50
8/3/2017 johnson talco x 100g 1 8.00 8.00
8/3/2017 sal de andrews triple accion 1 1.00 1.00
8/3/2017 dolodran (diclofenaco + paracetamol) (gg) 1 1.00 1.00
8/3/2017 ampicilina 500 mg portugal 3 0.33 0.99
8/3/2017 jeringa 1 ml 8 0.30 2.40
8/3/2017 sal de andrews triple accion 2 1.00 2.00
8/3/2017 ampicilina 500 mg portugal 2 0.33 0.66
8/3/2017 ketorolaco 10 mg portugal 3 1.00 3.00
8/3/2017 amoxicilina 500 mg comp farmindustria 2 0.50 1.00
8/3/2017 dolodran (diclofenaco + paracetamol) (gg) 1 1.00 1.00
8/3/2017 antalgina 500 mg tb (metamizol) 1 0.33 0.33
8/3/2017 broncobutol unitoma (salbutamol + ambroxol) 1 1.50 1.50
8/3/2017 dimens loratadina unitoma (gg) 4 2.00 8.00
8/3/2017 dicloxacilina 500 mg iqfarma 1 0.50 0.50
8/3/2017 tusquim (dextrom + parac) (gg) 1 2.50 2.50
8/3/2017 eritromicina 500 mg farmindustria 1 1.00 1.00
8/3/2017 prednisona 5000 mg farmindustria 1 1.00 1.00
8/3/2017 ponstan rd (naproxeno 220 mg) 1 1.50 1.50
8/3/2017 agua cielo 620 ml 1 1.00 1.00
8/3/2017 sal de andrews triple accion 1 1.00 1.00
8/3/2017 dolodran (diclofenaco + paracetamol) (gg) 1 1.00 1.00
8/3/2017 tusquim (dextrom + parac) (gg) 3 2.50 7.50
8/3/2017 bloqueador bahia color 90 faces sachet 1 2.50 2.50
8/3/2017 mantequilla de cacao barra 3 0.33 0.99
8/3/2017 panadol antigripal sobre 1 2.00 2.00
8/3/2017 multibioticos caramelo (benzocaina) 1 3.00 3.00
8/3/2017 sal de andrews triple accion 1 1.00 1.00
8/3/2017 meloxicam 15 mg (ac farma) 4 0.50 2.00
8/3/2017 sal de andrews triple accion 1 1.00 1.00
8/3/2017 colmar relax (paracetamol + orfenadrina) (gg) 1 2.00 2.00
8/3/2017 tusquim (dextrom + parac) (gg) 1 2.50 2.50
8/3/2017 prednisona 5000 mg farmindustria 1 1.00 1.00
8/3/2017 complejo b cofana 5 0.20 1.00
8/3/2017 tioctan plus 1 2.00 2.00
8/3/2017 prednisona jbe (portugal) 1 6.00 6.00
8/3/2017 broncomax 500 tb (amoxicilina + bromhexina) 1 1.50 1.50
8/3/2017 zycot compuesto (pargeverina + clonixilato) (gg) 1 2.50 2.50
8/3/2017 buscapina compositum n tb (hioscina) 1 1.50 1.50
8/3/2017 zycot compuesto (pargeverina + clonixilato) (gg) 1 2.50 2.50
8/3/2017 enterophar forte unitoma (gg) 1 2.00 2.00
8/3/2017 vaselina reuter pequeño 1 1.00 1.00
8/3/2017 ponds sachet 1 1.00 1.00
8/3/2017 concha de nacar portugal 1 4.00 4.00
8/3/2017 vick vaporub x 12g 1 2.50 2.50
8/3/2017 buk 1 0.75 0.75
8/3/2017 sal de andrews triple accion 1 1.00 1.00
8/3/2017 sal de andrews 2 0.50 1.00
8/3/2017 asepxia jabon 1 13.00 13.00
8/3/2017 enterophar forte unitoma (gg) 2 2.00 4.00
8/3/2017 lopefan (loperamida 2mg) (gg) 1 2.00 2.00
8/3/2017 lopefan (loperamida 2mg) (gg) 1 2.00 2.00
8/3/2017 jeringa 10 ml 1 0.50 0.50
8/3/2017 multibioticos caramelo (benzocaina) 1 3.00 3.00
8/3/2017 dolodran (diclofenaco + paracetamol) (gg) 1 1.00 1.00
8/3/2017 prednisona 5000 mg farmindustria 1 1.00 1.00
8/3/2017 baby sec talla xg (unidad) 4 0.75 3.00
8/3/2017 dexametasona 4 mg tb 1 0.50 0.50
8/3/2017 broncomax 500 tb (amoxicilina + bromhexina) 1 1.50 1.50
8/3/2017 baby sec talla xg (unidad) 5 0.75 3.75
8/3/2017 agua florida 1 3.00 3.00
8/3/2017 algodon pequeño 3 1.00 3.00
8/3/2017 agua cielo 620 ml 1 1.00 1.00
8/3/2017 sal de andrews triple accion 1 1.00 1.00
8/3/2017 reuma sol x 32 g 1 10.00 10.00
8/3/2017 eritromicina 500 mg farmindustria 3 1.00 3.00
8/3/2017 sulfametoxazol 800 + tmp farmindustria 3 0.50 1.50
8/3/2017 hioscina 10 mg medrock 1 1.00 1.00
8/3/2017 ahgua san luis x 620 ml 1 1.50 1.50
8/3/2017 uropharma forte ( ciproflox + fenazo) (gg) 1 3.00 3.00
8/3/2017 sinachis 1 1.00 1.00
8/3/2017 panadol antigripal sobre 1 2.00 2.00
8/3/2017 buscapina compositum n tb (hioscina) 1 1.50 1.50
8/3/2017 savital sachet 1 0.75 0.75
8/3/2017 clear shampo sachet 2x1 1 1.00 1.00
8/3/2017 prednisona jbe (portugal) 1 6.00 6.00
8/3/2017 venda elastica 4x5 1 3.00 3.00
8/3/2017 dolodran (diclofenaco + paracetamol) (gg) 1 1.00 1.00
8/3/2017 prednisona 5000 mg farmindustria 1 1.00 1.00
8/3/2017 ahgua san luis x 620 ml 1 1.50 1.50
8/3/2017 sal de andrews 3 0.50 1.50
8/3/2017 colmar relax (paracetamol + orfenadrina) (gg) 3 2.00 6.00
8/3/2017 dolodran (diclofenaco + paracetamol) (gg) 4 1.00 4.00
8/3/2017 doloplus relax (diclo+ paracetamol+ orfenad) 1 2.50 2.50
8/3/2017 reumoflex unguento 30g 6 10.00 60.00
8/3/2017 noble papel higienico 2 0.75 1.50
8/3/2017 pura vida grande 1 3.50 3.50
8/3/2017 sildenafilo 50 mg (caja x 1 tb) marfan (gg) 1 4.00 4.00
8/3/2017 nosotras tela gel x 10 1 3.50 3.50
8/3/2017 cepillo dento 1 2.50 2.50
8/3/2017 recarga claro 100 1.00 100.00
8/3/2017 recarga claro 3 1.00 3.00
8/3/2017 recarga bitel 50 1.00 50.00
8/3/2017 recarga bitel 30 1.00 30.00
8/3/2017 babysec talla g (por unidad) 5 0.75 3.75
8/3/2017 huggies talla xg (unidad) 2 1.00 2.00
8/3/2017 aspirina forte tb 3 1.50 4.50
8/3/2017 clorfenamina 4mg portugal 6 0.50 3.00
8/3/2017 tusquim (dextrom + parac) (gg) 2 2.50 5.00
8/3/2017 eritromicina 500 mg farmindustria 2 1.00 2.00
8/3/2017 pura vida grande 1 3.50 3.50
8/3/2017 noble papel higienico 2 0.75 1.50
8/3/2017 levonorgestrel 0.75 mg blister x 2 1 10.00 10.00
8/3/2017 ketorolaco 10 mg portugal 1 1.00 1.00
8/3/2017 cera dental 1 2.00 2.00
8/3/2017 eritromicina 500 mg farmindustria 1 1.00 1.00
8/3/2017 prednisona 5000 mg farmindustria 1 1.00 1.00
8/3/2017 dolodran (diclofenaco + paracetamol) (gg) 1 1.00 1.00
8/3/2017 dolodran (diclofenaco + paracetamol) (gg) 1 1.00 1.00
8/3/2017 trioval nf tableta (gg) 2 2.00 4.00
8/3/2017 eritromicina 500 mg farmindustria 2 1.00 2.00
8/3/2017 eritromicina 500 mg farmindustria 4 1.00 4.00
8/3/2017 cetirizina 10 mg farmindustria 2 0.50 1.00
8/3/2017 bactrim forte tb 1 2.00 2.00
8/3/2017 zycot compuesto (pargeverina + clonixilato) (gg) 1 2.50 2.50
8/3/2017 recarga claro 3 1.00 3.00
8/3/2017 recarga claro 5 1.00 5.00
8/3/2017 dolodran (diclofenaco + paracetamol) (gg) 1 1.00 1.00
8/3/2017 tusquim (dextrom + parac) (gg) 1 2.50 2.50
8/3/2017 aciclovir 400 mg tb medrock 1 1.00 1.00
8/3/2017 aciclovir 5% crema farmindustria 1 5.00 5.00
8/3/2017 tusquim (dextrom + parac) (gg) 1 2.50 2.50
8/3/2017 prednisona 5000 mg farmindustria 1 1.00 1.00
8/3/2017 cetirizina 10 mg farmindustria 1 0.50 0.50
8/3/2017 levonorgestrel 0.75 mg blister x 2 2 10.00 20.00
8/3/2017 enalapril 20 mg farmindustria 10 0.33 3.30
8/3/2017 pampers rn recien nacido x 20 1 11.00 11.00
8/3/2017 tdn allergy (cetirizina) (gg) 1 3.00 3.00
8/3/2017 trioval nf tableta (gg) 1 2.00 2.00
8/3/2017 emkit 2 13.00 26.00
8/3/2017 ampicilina 500 mg portugal 1 0.33 0.33
8/3/2017 hugguines x 48 1 12.00 12.00
8/3/2017 sedal crema para peinar en sachet 1 1.00 1.00
8/3/2017 flogodisten (paracetamol + clorzoxazona) 1 2.00 2.00
8/3/2017 dento pasta dental x 75 ml 1 2.50 2.50
8/3/2017 recarga claro 29 1.00 29.00
8/3/2017 recarga claro 4 1.00 4.00
8/3/2017 recarga bitel 3 1.00 3.00
8/3/2017 recarga bitel 15 1.00 15.00
8/3/2017 flogodisten (paracetamol + clorzoxazona) 1 2.00 2.00
8/3/2017 uropharma forte ( ciproflox + fenazo) (gg) 1 3.00 3.00
8/3/2017 hugguines x 48 3 12.00 36.00
8/3/2017 babysec talla g (por unidad) 6 0.75 4.50
8/3/2017 mica para documentos 4 0.50 2.00
TOTAL: 914.47
FECHA PRODUCTO CANTIDAD
8/4/2017 ab broncol nf 1200 polvo para suspensión inyectable medifarma caja vial + 4
8/4/2017 doprox 550 mg comprimido x 100 unid. andreu caja envase blister comprim 10
8/4/2017 jeringa 10ml+aguja 21 x 1 1/2 4
8/4/2017 panadol 500 mg tableta x 50 unid. gsk caja envase blister tabletas (e14831) 8
8/4/2017 aguja descartable 18g x 1 1/2 4
8/4/2017 doloaproxol dual forte 50 mg + 500 mg comprimido recubierto x 400 unid. m 2
8/4/2017 papel elite plus x 2 1
8/4/2017 paracetamol 120 mg/5 ml jarabe portugal frasco x 60 ml (en02157) 1
8/4/2017 metagesic 325 mg + 37.5 mg comprimido recubierto x 50 unid. bago caja en 2
8/4/2017 cuajo azul marschall x 100 sobres 1
8/4/2017 peine pescado 2
8/4/2017 peine grande 1
8/4/2017 agua cielo sin gas x 625ml 2
8/4/2017 agua san luis sin gas x 625ml 2
8/4/2017 naproxeno 550 mg tableta x 100 unid. induquimica caja envase blister table 1
8/4/2017 agua san luis sin gas x 500ml 3
8/4/2017 alcohol 96 x 1 lt 1
8/4/2017 electrolight naranja x 475ml 1
8/4/2017 toallas kotex teens x 10 3
8/4/2017 toallas ladysoft normal x 10 1
8/4/2017 volt botella x 300ml 1
8/4/2017 kolynos crema blanco x 25 gr 1
8/4/2017 violeta genciana x 30 ml 1
8/4/2017 miofedrol relax plus comprimido recubierto x 100 unid. markos caja envase 4
8/4/2017 panadol antigripal nf tableta x 100 unid. gsk caja envase blister tabletas (e 1
8/4/2017 lincoplus 600 mg/2 ml inyectable x 5 unid. medifarma ampolla x 2 ml (n162 1
8/4/2017 dexametasona 4 mg/2 ml solución inyectable x 100 unid. labot caja ampolla 1
8/4/2017 jeringa 5ml+aguja 21 x 1 1/2 1
8/4/2017 agua san luis sin gas x 625ml 2
8/4/2017 alcohol 96 x 60 ml 1
8/4/2017 gorro enfermera x 100 caja 1
8/4/2017 papel elite doble hoja x 2 1
8/4/2017 zaldiar 37.5 mg + 325 mg comprimido recubierto x 60 unid. grunenthal caja 2
8/4/2017 enterogermina 2000 millones (2 millardos)/5 solución bebible x 10 unid. sa 3
8/4/2017 cuajo azul marschall x 100 sobres 1
8/4/2017 pañal babysec sueltos m 4
8/4/2017 frasco esteril 1
8/4/2017 feranin fol 1000 gragea x 150 unid. quimica suiza caja grageas (n22248) 1
8/4/2017 nylon azul 3-0 tc 30 1
8/4/2017 pañal cotidian clasico m sueltos 1
8/4/2017 doloaproxol dual forte 50 mg + 500 mg comprimido recubierto x 400 unid. m 2
8/4/2017 toallas kotex teens x 10 1
8/4/2017 droxilar 500 mg cápsula x 48 unid. siegfried caja envase blister capsulas (en 1
8/4/2017 doloaproxol dual forte 50 mg + 500 mg comprimido recubierto x 400 unid. m 1
8/4/2017 bisolvon adultos 8 mg/5 ml jarabe boehringer frasco x 120 ml (e17569) 1
8/4/2017 cefalogen 1 g polvo para solución inyectable eurofarma peru caja vial + so 1
8/4/2017 dexacort 4 mg/2 ml solución para inyección teva caja ampolla x 2 ml (en00 1
8/4/2017 levonelle 750 mg tableta recubierta x 5 unid. iq farma caja envase blister ta 1
8/4/2017 meloxicam 15 mg tableta x 100 unid. naturgen caja envase blister tabletas ( 2
8/4/2017 aguja descartable 18g x 1 1/2 1
8/4/2017 jeringa 10ml+aguja 21 x 1 1/2 1
8/4/2017 papel suave rindemax x 2 1
8/4/2017 pañal huggies suelto xg 1
8/4/2017 cetriler 5 ml comp rec x 100 2
8/4/2017 papel elite doble hoja x 2 1
8/4/2017 aguja descartable 18g x 1 1/2 1
8/4/2017 aguja descartable 20g x 1 1/2 1
8/4/2017 aguja descartable 21g 2
8/4/2017 tuinies biberon transparente x 4oz 1
8/4/2017 papel elite plus x 2 2
8/4/2017 h&s limpieza x 18ml 2
8/4/2017 jabon dove exfoliacion suave x 90 gr 1
8/4/2017 vaso descartable 4
8/4/2017 quemiciclina s 125 mg tableta x 100 unid. teva caja envase blister tabletas 1
8/4/2017 papel suave rindemax x 2 1
8/4/2017 colgate crema triple x 25 gr 1
8/4/2017 quilxib 200 mg cápsula x 100 unid. quimica suiza caja envase blister tableta 2
8/4/2017 ponds clarant seca sachet x 20 1
8/4/2017 agua cielo sin gas x 625ml 1
8/4/2017 papel elite doble hoja x 2 2
8/4/2017 peine pescado 1
8/4/2017 jabon dove go fresh revitalizante x 90 gr 1
8/4/2017 h&s suave manejable x 18ml 2
8/4/2017 vaso descartable 4
8/4/2017 aguja descartable 20g x 1 1/2 1
8/4/2017 kolynos crema blanco x 25 gr 1
8/4/2017 schick 3 hojas xtreme 1
8/4/2017 frasco simple 1
8/4/2017 dento cepillo medio 1
8/4/2017 cipromax 500 mg comprimido recubierto x 100 unid. markos caja envase bli 14
8/4/2017 jeringa 5ml+aguja 21 x 1 1/2 3
8/4/2017 jabon carbolico campeon 1
8/4/2017 papel elite doble hoja x 2 1
8/4/2017 agua cielo sin gas x 625ml 1
8/4/2017 violeta genciana x 30 ml 1
8/4/2017 bahia faces color spf90 sobres x 20 1
8/4/2017 panadol 500 mg tableta x 50 unid. gsk caja envase blister tabletas (e14831) 1
8/4/2017 isoprinosine 500 mg tableta x 24 unid. lukoll caja envase blister tabletas (n2 1
8/4/2017 ponds clarant grasa sachet x 20 1
8/4/2017 paracetamol 100 mg/ml solución portugal frasco x 10 ml (en00670) 1
8/4/2017 bolsa descartable de 0.20 1
8/4/2017 urobiotic forte 400 mg + 100 mg cápsula x 100 unid. siegfried caja envase bl 2
8/4/2017 doloaproxol dual forte 50 mg + 500 mg comprimido recubierto x 400 unid. m 2
8/4/2017 sline limon x 500ml 1
8/4/2017 pañal plenitud x 10 1
8/4/2017 aguja descartable 20g x 1 1/2 2
8/4/2017 guantes esteriles 7 1
8/4/2017 kolynos crema herbal x 90 gr 1
8/4/2017 jabon dove exfoliacion suave x 90 gr 1
8/4/2017 h&s limpieza x 18ml 1
8/4/2017 peine grande 1
8/4/2017 dento cepillo medio 1
8/4/2017 jeringa 5ml+aguja 21 x 1 1/2 1
8/4/2017 nylon azul 5-0 tc 25 2
8/4/2017 flogoral 3 mg tableta x 50 unid. lukoll caja sobre x 4 tabletas (e22770) 4
8/4/2017 vaso descartable 2
8/4/2017 agua san luis sin gas x 625ml 1
8/4/2017 gasa esteril 10 x 10 x 5 1
8/4/2017 algodón sterilab x 25 gr 1
8/4/2017 nisoprex 20 mg comprimido x 100 unid. elifarma caja envase blister compri 6
8/4/2017 benalgin 1000 solución para inyección lusa caja ampolla x 2 ml + accesorio 4
8/4/2017 agua san luis sin gas x 1lt 1
8/4/2017 aguja descartable 20g x 1 1/2 1
8/4/2017 panadol 500 mg tableta x 50 unid. gsk caja envase blister tabletas (e14831) 10
8/4/2017 doprox 550 mg comprimido x 100 unid. andreu caja envase blister comprim 8
8/4/2017 aguja descartable 18g x 1 1/2 1
8/4/2017 jeringa 10ml+aguja 21 x 1 1/2 1
8/4/2017 estomaliv fco x 30ml 1
8/4/2017 labopan 0.5 mg tableta x 100 unid. keyfarm caja envase blister tabletas (n2 1
8/4/2017 urofurin 100 mg tableta x 120 unid. iq farma caja envase blister tabletas (e 2
8/4/2017 doloaproxol dual forte 50 mg + 500 mg comprimido recubierto x 400 unid. m 2
8/4/2017 lincoplus 600 mg/2 ml inyectable x 5 unid. medifarma ampolla x 2 ml (n162 1
8/4/2017 dexametasona 4 mg/2 ml solución inyectable x 100 unid. labot caja ampolla 1
8/4/2017 jeringa 5ml+aguja 21 x 1 1/2 1
8/4/2017 fluconazol 150 mg tableta x 100 unid. naturgen caja envase blister tabletas 1
8/4/2017 gasa esteril 10 x 10 x 5 1
8/4/2017 agua san luis sin gas x 500ml 1
8/4/2017 bencilpenicilina benzatinica 1 200 000 ui polvo para suspensión inyectable x 1
8/4/2017 dexametasona 4 mg/2 ml solución inyectable x 100 unid. labot caja ampolla 1
8/4/2017 jeringa 10ml+aguja 21 x 1 1/2 1
8/4/2017 aguja descartable 21g 1
8/4/2017 agua esteril para inyeccion solución para inyección x 100 unid. pharmagen 1
8/4/2017 agua san luis sin gas x 500ml 1
8/4/2017 enterogermina 2000 millones (2 millardos)/5 solución bebible x 10 unid. sa 4
8/4/2017 jeringa 10ml+aguja 21 x 1 1/2 5
8/4/2017 ketorolaco 10 mg tableta x 100 unid. naturgen caja envase blister tabletas ( 2
8/4/2017 panadol antigripal nf tableta x 100 unid. gsk caja envase blister tabletas (e 1
8/4/2017 depo provera 150 mg/ml suspensión para inyección pfizer caja vial x 1 ml ( 1
8/4/2017 doloaproxol dual forte 50 mg + 500 mg comprimido recubierto x 400 unid. m 2
8/4/2017 jeringa 3 ml+aguja 21 x 1 1/2 1
8/4/2017 aguja descartable 21g 1
8/4/2017 sedal sh+ac ceramidas 1
8/4/2017 tuinies protector lactancia x 12 1
8/4/2017 pañal huggies suelto g 6
8/4/2017 alexcef 500 mg comprimido recubierto x 96 unid. siegfried caja envase blis 2
8/4/2017 ism360 x 250ml 1
8/4/2017 schick 3 hojas xtreme 1
8/4/2017 sitiderm nf crema medifarma caja tubo x 10 g (n27200) 1
8/4/2017 lipsaliv naranja 1
8/4/2017 jeringa 10ml+aguja 21 x 1 1/2 1
8/4/2017 dexametasona 4 mg/2 ml solución inyectable x 100 unid. labot caja ampolla 1
8/4/2017 agua san luis sin gas x 500ml 1
8/4/2017 pañal huggies suelto xg 5
8/4/2017 dicloxacilina 500 mg cápsula x 100 unid. naturgen caja envase folio cápsula 1
8/4/2017 letizia 5 mg tableta recubierta x 10 unid. iq farma caja envase blister tablet 1
8/4/2017 doloaproxol dual forte 50 mg + 500 mg comprimido recubierto x 400 unid. m 2
8/4/2017 dexametasona 4 mg/2 ml solución inyectable x 100 unid. labot caja ampolla 1
8/4/2017 bencilpenicilina benzatinica 1 200 000 ui polvo para suspensión inyectable x 1
8/4/2017 jeringa 10ml+aguja 21 x 1 1/2 1
8/4/2017 agua esteril para inyeccion solución para inyección x 100 unid. pharmagen 1
8/4/2017 bikonor 5 mg tableta de liberación retardada x 100 unid. nordic caja envase 2
8/4/2017 doloaproxol dual forte 50 mg + 500 mg comprimido recubierto x 400 unid. m 20
8/4/2017 dia plus 1.5 mg tableta jc.robri caja envase blister tabletas (ee00494) 1
8/4/2017 pañal huggies suelto xg 1
8/4/2017 dolo neurobion forte dc solución inyectable x 3 unid. merck caja jeringa p 1
8/4/2017 condon sensation anillosx3 3
8/4/2017 exazol forte 800 mg + 160 mg comprimido x 100 unid. andreu caja envase b 1
8/4/2017 furazolidona 100 mg tableta x 100 unid. naturgen caja envase blister tablet 1
8/4/2017 papel elite doble hoja x 2 2
8/4/2017 pañal plenitud x 10 1
8/4/2017 jabon bea lemmon 1
8/4/2017 peine pescado 1
8/4/2017 kolynos crema blanco x 25 gr 1
8/4/2017 colgate cepillo premier 1
8/4/2017 urofurin 100 mg tableta x 120 unid. iq farma caja envase blister tabletas (e 1
8/4/2017 doloaproxol dual forte 50 mg + 500 mg comprimido recubierto x 400 unid. m 1
8/4/2017 panadol antigripal nf tableta x 100 unid. gsk caja envase blister tabletas (e 1
8/4/2017 donalab 2 2 mg tableta x 100 unid. vita pharma caja envase blister tabletas 1
8/4/2017 neo silenai pediatrico jarabe elifarma caja frasco x 120 ml (en01050) 1
8/4/2017 pantocalm 40 mg tableta de liberación retardada x 14 unid. iq farma caja env 1
8/4/2017 flatuzym cápsula x 100 unid. iq farma caja envase blister tabletas (n26017) 1
8/4/2017 frasco simple 1
8/4/2017 frasco simple 1
8/4/2017 agua san luis sin gas x 500ml 1
8/4/2017 warmi capsulas x 90 13
8/4/2017 ab broncol nf 600 polvo liofilizado para solución inyectable medifarma caja 1
8/4/2017 papel elite doble hoja x 2 6
8/4/2017 papel elite plus x 2 4
8/4/2017 agua san luis sin gas x 625ml 1
8/4/2017 frasco simple 1
8/4/2017 peine pescado 1
8/4/2017 aguja descartable 20g x 1 1/2 1
8/4/2017 schick 2 hojas exacta 1
8/4/2017 dexametasona 4 mg/2 ml solución inyectable x 100 unid. labot caja ampolla 2
8/4/2017 bencilpenicilina benzatinica 1 200 000 ui polvo para suspensión inyectable x 1
8/4/2017 vaso descartable 4
8/4/2017 flatuzym cápsula x 100 unid. iq farma caja envase blister tabletas (n26017) 1
8/4/2017 condon sensation liso x 3 3
TOTAL:
PRECIO IMPORTE
21.00 84.00
1.50 15.00
0.60 2.40
1.50 12.00
0.20 0.80
1.00 2.00
2.20 2.20
2.50 2.50
2.00 4.00
1.00 1.00
0.50 1.00
1.00 1.00
1.00 2.00
1.30 2.60
0.50 0.50
1.00 3.00
7.00 7.00
2.00 2.00
3.50 10.50
3.00 3.00
2.00 2.00
1.50 1.50
1.50 1.50
1.70 6.80
2.30 2.30
15.00 15.00
1.00 1.00
0.50 0.50
1.30 2.60
1.00 1.00
16.00 16.00
1.80 1.80
3.60 7.20
3.50 10.50
1.00 1.00
0.60 2.40
1.50 1.50
2.00 2.00
5.00 5.00
2.00 2.00
1.00 2.00
3.50 3.50
3.00 3.00
1.00 1.00
24.00 24.00
18.00 18.00
10.00 10.00
9.00 9.00
0.50 1.00
0.20 0.20
0.60 0.60
1.00 1.00
1.00 1.00
6.40 12.80
0.90 0.90
0.20 0.20
0.20 0.20
0.20 0.40
8.50 8.50
1.30 2.60
1.00 2.00
3.50 3.50
0.10 0.40
1.00 1.00
1.00 1.00
1.50 1.50
1.50 3.00
1.00 1.00
1.00 1.00
0.90 1.80
0.50 0.50
3.50 3.50
1.00 2.00
0.10 0.40
0.20 0.20
1.50 1.50
3.00 3.00
1.00 1.00
2.50 2.50
2.20 30.80
0.50 1.50
2.00 2.00
0.90 0.90
1.00 1.00
1.50 1.50
2.50 2.50
1.50 1.50
3.40 3.40
1.00 1.00
1.50 1.50
0.20 0.20
2.00 4.00
1.00 2.00
1.20 1.20
4.00 4.00
0.20 0.40
1.50 1.50
2.50 2.50
3.50 3.50
1.00 1.00
1.00 1.00
2.50 2.50
0.50 0.50
6.00 12.00
0.80 3.20
0.10 0.20
1.30 1.30
2.00 2.00
1.50 1.50
2.20 13.20
15.00 60.00
2.50 2.50
0.20 0.20
1.50 15.00
1.50 12.00
0.20 0.20
0.60 0.60
1.50 1.50
1.00 1.00
2.00 4.00
1.00 2.00
15.00 15.00
1.00 1.00
0.50 0.50
1.00 1.00
2.00 2.00
1.00 1.00
3.00 3.00
1.00 1.00
0.60 0.60
0.20 0.20
0.50 0.50
1.00 1.00
3.50 14.00
0.60 3.00
0.30 0.60
2.30 2.30
30.00 30.00
1.00 2.00
0.40 0.40
0.20 0.20
1.00 1.00
7.00 7.00
0.90 5.40
2.00 4.00
2.50 2.50
3.00 3.00
8.00 8.00
4.00 4.00
0.60 0.60
1.00 1.00
1.00 1.00
1.00 5.00
0.40 0.40
4.50 4.50
1.00 2.00
1.00 1.00
3.00 3.00
0.60 0.60
0.50 0.50
1.00 2.00
0.70 14.00
12.00 12.00
1.00 1.00
34.00 34.00
1.00 3.00
1.50 1.50
0.50 0.50
0.90 1.80
3.80 3.80
2.00 2.00
0.50 0.50
1.50 1.50
2.50 2.50
2.00 2.00
1.00 1.00
2.30 2.30
1.00 1.00
27.00 27.00
3.30 3.30
1.00 1.00
1.00 1.00
1.00 1.00
1.00 1.00
1.30 16.90
23.00 23.00
0.90 5.40
1.20 4.80
1.30 1.30
1.00 1.00
0.50 0.50
0.20 0.20
2.50 2.50
1.00 2.00
3.00 3.00
0.10 0.40
1.00 1.00
3.00 9.00
889.60
FECHA PRODUCTO CANTIDAD
8/5/2017 doloaproxol dual forte 50 mg + 500 mg comprimido recubierto x 400 uni 2
8/5/2017 bahia faces color spf90 sobres x 20 1
8/5/2017 nodial crema x 10 gr 1
8/5/2017 pañal babysec chico x 26 und 1
8/5/2017 baby test tiras x 1 1
8/5/2017 kitadol migraña 500 mg + 65 mg tableta recubierta x 40 unid. teva caja e 1
8/5/2017 naproxeno 550 mg tableta x 100 unid. induquimica caja envase blister t 3
8/5/2017 pañal babysec g x 62 2
8/5/2017 alcohol 96 x 120ml 1
8/5/2017 sildenafilo 100mg tab x 1 1
8/5/2017 sildenafilo 100mg tab x 1 1
8/5/2017 claritromicina 500 mg tab x 100 3
8/5/2017 dolomarket forte 50 mg + 500 mg tableta recubierta x 200 unid. brand an 3
8/5/2017 cicatricure contorno ojos 1
8/5/2017 dolo benalgin forte tableta con cubierta entérica x 20 unid. lusa caja en 2
8/5/2017 dia plus 1.5 mg tableta jc.robri caja envase blister tabletas (ee00494) 1
8/5/2017 panadol antigripal nf tableta x 100 unid. gsk caja envase blister tableta 1
8/5/2017 aci tip 800 mg + 40 mg tableta x 140 unid. roemmers caja envase bliste 1
8/5/2017 pañal babysec xg x 14 1
8/5/2017 condon sensation pun chocx3 6
8/5/2017 reumo dol forte unguento x 30 gr 1
8/5/2017 dolomax plus tableta recubierta x 100 unid. medifarma caja envase blis 3
8/5/2017 escopolamina butil bromuro 10 mg tableta x 100 unid. induquimica caja 2
8/5/2017 flatuzym cápsula x 100 unid. iq farma caja envase blister tabletas (n260 2
8/5/2017 crema conha nacarx18gr 1
8/5/2017 toallas ladysoft normal x 10 1
8/5/2017 crema conha nacarx18gr 1
8/5/2017 flagyl 500 mg comprimido recubierto x 20 unid. sanofi caja envase blis 2
8/5/2017 alcohol 96 x 120ml 1
8/5/2017 cuajo azul marschall x 100 sobres 3
8/5/2017 cuajo verde hansen x 100 sobres 1
8/5/2017 nisoprex 20 mg comprimido x 100 unid. elifarma caja envase blister co 2
8/5/2017 buk sobres x 4 1
8/5/2017 donamed f 2 mg tableta x 100 unid. medifarma caja envase blister table 2
8/5/2017 roxtrim forte 800 mg + 160 mg comprimido x 100 unid. roxfarma caja en 1
8/5/2017 roxtrim forte 800 mg + 160 mg comprimido x 100 unid. roxfarma caja en 1
8/5/2017 vaselina reuter perfumadax8gr 1
8/5/2017 aspirina 500 mg tableta x 100 unid. bayer caja envase blister tabletas (e 3
8/5/2017 toallas kotex teens x 10 2
8/5/2017 jeringa 10ml+aguja 21 x 1 1/2 1
8/5/2017 aguja descartable 20g x 1 1/2 1
8/5/2017 pañal babysec sueltos g 17
8/5/2017 pañal babysec sueltos g 1
8/5/2017 loratadina 10 mg tableta x 100 unid. naturgen caja envase blister tablet 2
8/5/2017 ism360 x 250ml 1
8/5/2017 dolo benalgin forte tableta con cubierta entérica x 20 unid. lusa caja en 2
8/5/2017 labopan 0.5 mg tableta x 100 unid. keyfarm caja envase blister tabletas 1
8/5/2017 babysec toalla hum ultra x 50 1
8/5/2017 cipronor 500 mg tableta recubierta x 100 unid. nordic caja envase blister 2
8/5/2017 pañal babysec xg x 52 1
8/5/2017 reumo dol forte unguento x 30 gr 1
8/5/2017 urobiotic forte 400 mg + 100 mg cápsula x 100 unid. siegfried caja envase 2
8/5/2017 aci tip 800 mg + 40 mg tableta x 140 unid. roemmers caja envase bliste 3
8/5/2017 esomeprazol 40 mg tab x 30 2
8/5/2017 voxamine 50 mg tableta x 100 unid. e.s.c. pharmed caja envase blister t 2
8/5/2017 volt botella x 300ml 1
8/5/2017 cortafan comprimido recubierto x 100 unid. markos caja envase bliste 3
8/5/2017 bolsa de colostomia coloplast 2
8/5/2017 vick vitapyrena forte sobres x 50 2
8/5/2017 doloaproxol dual forte 50 mg + 500 mg comprimido recubierto x 400 uni 4
8/5/2017 cefadroxilo 500 mg tableta recubierta x 100 unid. farmindustria caja en 2
8/5/2017 dolomarket forte 50 mg + 500 mg tableta recubierta x 200 unid. brand an 2
8/5/2017 depo provera 150 mg/ml suspensión para inyección pfizer caja vial x 1 1
8/5/2017 unique aretes par 1
8/5/2017 espasmosedil tabletas 2
8/5/2017 flatuzym cápsula x 100 unid. iq farma caja envase blister tabletas (n260 2
8/5/2017 cortafan comprimido recubierto x 100 unid. markos caja envase bliste 2
8/5/2017 doloaproxol dual forte 50 mg + 500 mg comprimido recubierto x 400 uni 4
8/5/2017 cefadroxilo 500 mg tableta recubierta x 100 unid. farmindustria caja en 2
8/5/2017 ressfril forte tableta recubierta x 200 unid. brand and marketing caja en 2
8/5/2017 suave papel rindemax naranja x 2 1
8/5/2017 power limalimon x 475 ml 1
8/5/2017 letizia 5 mg tableta recubierta x 10 unid. iq farma caja envase blister ta 1
8/5/2017 ab broncol nf 1200 polvo para suspensión inyectable medifarma caja via 1
8/5/2017 pañal babysec sueltos g 17
8/5/2017 pañal babysec sueltos g 15
8/5/2017 pañal babysec sueltos m 35
8/5/2017 pañal babysec sueltos m 6
8/5/2017 johnson sachet amarillo x 24 1
8/5/2017 dicloxacilina 500 mg cápsula x 100 unid. caja envase folio cápsulas (en0 4
8/5/2017 panadol forte tab x 24 sobres 2
8/5/2017 fluimax 600 mg tableta efervescente elifarma caja tubo x 10 tabletas ( 1
8/5/2017 clenbuvent expectorante jarabe elifarma frasco x 120 ml (n20931) 1
8/5/2017 sildenafilo 100mg tab x 1 1
8/5/2017 cuajo verde hansen x 100 sobres 4
8/5/2017 levonelle 500 mg tableta recubierta x 7 unid. iq farma caja envase bliste 7
8/5/2017 cuajo azul marschall x 100 sobres 2
8/5/2017 panadol antigripal nf tableta x 100 unid. gsk caja envase blister tableta 2
8/5/2017 tusilexil jarabe 2
8/5/2017 depo provera 150 mg/ml suspensión para inyección pfizer caja vial x 1 1
8/5/2017 bahia faces spf90 sobres x 20 1
8/5/2017 buscapina compositun n x 100 1
8/5/2017 sedal sh+ac ceramidas 1
8/5/2017 tuinies protector lactancia x 12 1
8/5/2017 pañal huggies suelto g 6
8/5/2017 alexcef 500 mg comprimido recubierto x 96 unid. siegfried caja envase 2
8/5/2017 ism360 x 250ml 1
8/5/2017 schick 3 hojas xtreme 1
8/5/2017 sitiderm nf crema medifarma caja tubo x 10 g (n27200) 1
8/5/2017 lipsaliv naranja 1
8/5/2017 antalgina tabletas x 100 3
8/5/2017 plenitud pañal x 10 4
8/5/2017 condon sensation pun chocx3 3
8/5/2017 baby test tiras x 1 1
8/5/2017 feranin fol 1000 gragea x 150 unid. quimica suiza caja grageas (n22248) 1
8/5/2017 nonpiron platan0 x 60ml 1
8/5/2017 nivea crema x 30ml 1
8/5/2017 suave papel rindemax naranja x 2 1
8/5/2017 infectrim forte 800 mg + 160 mg tableta x 100 unid. hersil caja envase bl 1
8/5/2017 amoxicilina 500 capsulas x 100 3
8/5/2017 ceftrex 1 g polvo para solución inyectable mks unidos caja vial x 1 g (e2 1
8/5/2017 jeringa 5ml+aguja 21 x 1 1/2 1
8/5/2017 aguja descartable 20g x 1 1/2 1
8/5/2017 toallas kotex normal tela x 10 1
8/5/2017 kitadol migraña 500 mg + 65 mg tableta recubierta x 40 unid. teva caja e 1
8/5/2017 quadriderm extra sp x 10 gr 1
8/5/2017 voxamine 50 mg tableta x 100 unid. e.s.c. pharmed caja envase blister t 6
8/5/2017 donalab 2 2 mg tableta x 100 unid. vita pharma caja envase blister table 2
8/5/2017 venda elastica 3" x 5 yd 1
8/5/2017 droxilar 500 mg cápsula x 48 unid. siegfried caja envase blister capsulas 2
8/5/2017 brimodin 200 mg granulos para suspensión oral x 30 unid. iq farma caja 2
8/5/2017 agua cielo sin gas x 625ml 1
8/5/2017 cefadroxilo 500 mg tableta recubierta x 100 unid. farmindustria caja en 2
8/5/2017 doloaproxol dual forte 50 mg + 500 mg comprimido recubierto x 400 uni 2
8/5/2017 alcohol 96 x 120ml 1
8/5/2017 ponds clarant grasa sachet x 20 2
8/5/2017 kolynos cepillo master 1
8/5/2017 kolynos crema herbal x 90 gr 2
TOTAL
PRECIO IMPORTE
1.00 2.00
2.50 2.50
7.00 7.00
12.00 12.00
5.00 5.00
1.70 1.70
0.50 1.50
35.00 70.00
1.50 1.50
3.00 3.00
3.00 3.00
1.50 4.50
1.00 3.00
48.00 48.00
2.40 4.80
15.00 15.00
2.30 2.30
1.20 1.20
12.00 12.00
3.00 18.00
6.00 6.00
1.50 4.50
1.00 2.00
1.00 2.00
3.00 3.00
3.50 3.50
3.00 3.00
1.50 3.00
1.50 1.50
1.00 3.00
1.00 1.00
2.20 4.40
0.50 0.50
1.00 2.00
1.50 1.50
1.50 1.50
1.00 1.00
0.60 1.80
3.50 7.00
1.80 1.80
0.20 0.20
0.60 10.20
1.80 1.80
0.50 1.00
2.50 2.50
2.50 5.00
1.00 1.00
5.00 5.00
1.50 3.00
35.00 35.00
6.00 6.00
1.50 3.00
1.20 3.60
1.50 3.00
1.00 2.00
2.00 2.00
1.00 3.00
13.00 26.00
2.50 5.00
1.00 4.00
1.00 2.00
1.00 2.00
28.00 28.00
20.00 20.00
1.00 2.00
1.00 2.00
1.00 2.00
1.00 4.00
1.00 2.00
1.00 2.00
1.00 1.00
2.00 2.00
5.00 5.00
21.00 21.00
0.60 10.20
1.80 27.00
0.50 17.50
0.60 3.60
0.70 0.70
0.50 2.00
2.00 4.00
32.00 32.00
27.00 27.00
3.00 3.00
1.00 4.00
5.50 38.50
1.00 2.00
2.30 4.60
32.00 64.00
30.00 30.00
2.50 2.50
1.20 1.20
1.00 1.00
7.00 7.00
0.90 5.40
2.00 4.00
2.50 2.50
3.00 3.00
8.00 8.00
4.00 4.00
0.30 0.90
4.00 16.00
1.00 3.00
5.00 5.00
2.00 2.00
11.00 11.00
3.50 3.50
1.00 1.00
1.20 1.20
0.30 0.90
14.00 14.00
0.50 0.50
0.20 0.20
3.50 3.50
1.70 1.70
16.00 16.00
1.00 6.00
1.00 2.00
1.50 1.50
3.00 6.00
2.00 4.00
1.00 1.00
1.00 2.00
1.00 2.00
1.50 1.50
1.00 2.00
2.50 2.50
2.50 5.00
913.90
FECHA PRODUCTO CANTIDAD PRECIO IMPORTE
8/6/2017 hojas de bisturi nº 11 4 0.50 2.00
8/6/2017 frasco simple 1 1.00 1.00
8/6/2017 h&s limpieza x 18ml 1 1.00 1.00
8/6/2017 guantes esteriles 7 2 1.50 3.00
8/6/2017 aquarius manzana x 500ml 3 1.70 5.10
8/6/2017 aquarius naranja x 500ml 1 1.70 1.70
8/6/2017 pañal babysec sueltos xg 4 0.80 3.20
8/6/2017 frasco vidrio 1 2.00 2.00
8/6/2017 babytest
dia plus 1.5x cassette
mg tableta jc.robri caja envase blister tabletas 1 8.00 8.00
8/6/2017 (ee00494)
ketorolaco 10 mg tableta x 100 unid. naturgen caja envase 5 15.00 75.00
8/6/2017 blister
quilxib tabletas (ng3166)x 100 unid. quimica suiza caja
200 mg cápsula 1 0.30 0.30
8/6/2017 envase blister
agua esteril tabletas
para (n22553)
inyeccion solución para inyección x 100 1 1.50 1.50
8/6/2017 unid. pharmagen caja ampolla x 5 ml (ee01600) 1 0.50 0.50
8/6/2017 jeringa 10ml+aguja 21 x 1 1/2 1 0.60 0.60
8/6/2017 aguja
rapilerdescartable
5 mg tableta 21g x 1 1/2 x 100 unid. teva caja
recubierta 1 0.20 0.20
8/6/2017 envase blister tabletas (n22013) 2 3.50 7.00
8/6/2017 condon sensation anillosx3 1 3.00 3.00
8/6/2017 ponds clarant seca sachet x 20 1 1.00 1.00
8/6/2017 agua cielo sin gas x 625ml 1 1.00 1.00
8/6/2017 papel elite doble hoja x 2 4 0.90 3.60
8/6/2017 peine pescado 1 0.50 0.50
8/6/2017 jabon dove go fresh revitalizante x 90 gr 1 3.50 3.50
8/6/2017 h&s suave manejable x 18ml 2 1.00 2.00
8/6/2017 vaso descartable 4 0.10 0.40
8/6/2017 aguja descartable 20g x 1 1/2 1 0.20 0.20
8/6/2017 kolynos crema blanco x 25 gr 1 1.50 1.50
8/6/2017 schick 3 hojas xtreme 1 3.00 3.00
8/6/2017 frasco simple 1 1.00 1.00
8/6/2017 dento
cipromaxcepillo
500medio
mg comprimido recubierto x 100 unid. 1 2.50 2.50
8/6/2017 markos caja envase blister comprimidos (en19517) 17 2.20 37.40
8/6/2017 jeringa 5ml+aguja 21 x 1 1/2 3 0.50 1.50
8/6/2017 jabon carbolico campeon 2 2.00 4.00
8/6/2017 papel elite doble hoja x 2 1 0.90 0.90
8/6/2017 agua cielo sin gas x 625ml 1 1.00 1.00
8/6/2017 violeta genciana x 30 ml 1 1.50 1.50
8/6/2017 bahia
panadol faces
500color spf90 sobres
mg tableta x 20gsk caja envase blister
x 50 unid. 1 2.50 2.50
8/6/2017 tabletas (e14831)
isoprinosine 500 mg tableta x 24 unid. lukoll caja envase 1 1.50 1.50
8/6/2017 blister tabletas (n21607) 5 3.40 17.00
8/6/2017 ponds clarant100
paracetamol grasa sachet
mg/ml x 20 portugal frasco x 10 ml
solución 1 1.00 1.00
8/6/2017 (en00670) 4 1.50 6.00
8/6/2017 bolsa descartable
urobiotic forte 400de
mg0.20
+ 100 1 0.20 0.20
doloaproxol dual forte 50 mg mg cápsula
+ 500 x 100 unid.
mg comprimido
8/6/2017 siegfried caja envase blister tabletas (n19955)
recubierto x 400 unid. markos caja envase blister 2 2.00 4.00
8/6/2017 comprimidos (n19093) 2 1.00 2.00
8/6/2017 sline limon x 500ml 1 1.20 1.20
8/6/2017 pañal plenitud x 10 1 4.00 4.00
8/6/2017 aguja descartable 20g x 1 1/2 2 0.20 0.40
8/6/2017 guantes esteriles 7 1 1.50 1.50
8/6/2017 kolynos crema herbal x 90 gr 1 2.50 2.50
8/6/2017 jabon dove exfoliacion suave x 90 gr 1 3.50 3.50
8/6/2017 h&s limpieza x 18ml 1 1.00 1.00
8/6/2017 peine grande 1 1.00 1.00
8/6/2017 dento cepillo medio 2 2.50 5.00
8/6/2017 jeringa 5ml+aguja 21 x 1 1/2 6 0.50 3.00
8/6/2017 nylon azul
flogoral 3 mg5-0tableta
tc 25 x 50 unid. lukoll caja sobre x 4 2 6.00 12.00
8/6/2017 tabletas (e22770) 4 0.80 3.20
8/6/2017 vaso descartable 10 0.10 1.00
8/6/2017 agua san luis sin gas x 625ml 1 1.30 1.30
8/6/2017 gasa esteril 10 x 10 x 5 1 2.00 2.00
8/6/2017 algodón
nisoprex sterilab x 25 gr
20 mg comprimido x 100 unid. elifarma caja 1 1.50 1.50
8/6/2017 envase blister comprimidos (en00218)
benalgin 1000 solución para inyección lusa caja ampolla 6 2.20 13.20
8/6/2017 x 2 ml + accesorios (n19779) 4 15.00 60.00
8/6/2017 agua san luis sin gas x 1lt 4 2.50 10.00
8/6/2017 aguja
panadoldescartable 20g x 1x 1/2
500 mg tableta 50 unid. gsk caja envase blister 1 0.20 0.20
8/6/2017 tabletas (e14831)
doprox 550 mg comprimido x 100 unid. andreu caja 10 1.50 15.00
8/6/2017 envase blister comprimidos (n17538) 10 1.50 15.00
8/6/2017 aguja descartable 18g x 1 1/2 1 0.20 0.20
8/6/2017 jeringa 10ml+aguja 21 x 1 1/2 5 0.60 3.00
8/6/2017 estomaliv
labopan 0.5 fcomgx 30ml
tableta x 100 unid. keyfarm caja envase 6 1.50 9.00
8/6/2017 blister tabletas (n20543) 4 1.00 4.00
8/6/2017 vaso descartable 2 0.10 0.20
8/6/2017 peine grande 1 1.00 1.00
8/6/2017 kolynos crema herbal x 90 gr 1 2.50 2.50
8/6/2017 kolynos cepillo master 1 2.50 2.50
8/6/2017 jabon
uropol dove
forteexfoliacion
n cápsula suave
x 100 x 90 gr 1 3.50 3.50
doloaproxol dual forte 50 mgunid.
+ 500hersil caja envase
mg comprimido
8/6/2017 blister tabletas (e12339)
recubierto x 400 unid. markos caja envase blister 1 2.50 2.50
8/6/2017 comprimidos
pamezone 40 (n19093)
40 mg cápsula gastrorresistente x 28 unid. 1 1.00 1.00
8/6/2017 roemmers
cefabroncol 500envase
caja blisterx tabletas
mg cápsula 60 unid.(e20896)
medifarma caja 2 5.50 11.00
8/6/2017 dispensadora (n19680) 1 2.00 2.00
8/6/2017 babytest
naproxeno x cassette
550 mg tableta x 100 unid. induquimica caja 5 8.00 40.00
8/6/2017 envase blister
exazol forte 800 tabletas (en01486)
mg + 160 mg comprimido x 100 unid. 1 0.50 0.50
8/6/2017 andreu caja envase blister
panadol antigripal nf tableta comprimidos
x 100 unid.(n25036)
gsk caja envase 1 1.50 1.50
8/6/2017 blister tabletas (e20318) 1 2.30 2.30
8/6/2017 pañal babysec
lincoplus xg x 56
600 mg/2 ml inyectable x 5 unid. medifarma 2 36.00 72.00
8/6/2017 ampolla x 2 ml (n16288) 4 15.00 60.00
8/6/2017 jeringa 5ml+aguja 21 x 1 1/2 1 0.50 0.50
8/6/2017 papel elite doble hoja x 2 1 0.90 0.90
8/6/2017 fre tee frutos rojos 500ml 1 1.50 1.50
8/6/2017 cetriler 5 ml comp rec x 100 3 3.90 11.70
8/6/2017 cuajo azul marschall x 100 sobres 1 1.00 1.00
diagrin flex polvo oral x 30 unid. iq farma caja sobre
8/6/2017 (n25405) 8 3.50 28.00
8/6/2017 calcio+vitamina d x 30 tab rec 10 0.50 5.00
8/6/2017 gasa esteril 10 x25
doloparamidol 10mg
x 5+ 500 mg tableta recubierta x 200 12 2.00 24.00
8/6/2017 unid. markos caja envase blister tabletas (n22554) 2 1.00 2.00
8/6/2017 frasco simple 4 1.00 4.00
8/6/2017 papel elite doble hoja x 2 2 0.90 1.80
8/6/2017 venda elastica 4" x 5 yd 1 2.00 2.00
8/6/2017 agua san luis sin gas x 1lt 1 2.50 2.50
8/6/2017 gasa esteril 10 x 10 x 5 3 2.00 6.00
8/6/2017 papel toalla scott x 3 3 2.00 6.00
8/6/2017 colgate crema triple x 25 gr 1 1.50 1.50
8/6/2017 dento cepillo medio 1 2.50 2.50
8/6/2017 pañuelos desechables x 10 7 0.50 3.50
8/6/2017 jabon dove go fresh hidratacion x 90 gr 1 3.50 3.50
8/6/2017 papel elite doble hoja x 2 2 0.90 1.80
8/6/2017 kolynos crema herbal x 90 gr 1 2.50 2.50
8/6/2017 vaso descartable 2 0.10 0.20
8/6/2017 chao x 100 tabletas genolab 1 1.00 1.00
8/6/2017 naproxeno x 550 mg farmaindustria 1 0.50 0.50
8/6/2017 prednisona tab x 5mg f 1 0.50 0.50
8/6/2017 medginol cx28tab 5 9.00 45.00
8/6/2017 zycot compuesto,pargeverina clorhidrato x 10 mg clonixinato 2 1.50 3.00
8/6/2017 flatuzin x 100 cap iqfarma 2 1.00 2.00
8/6/2017 bahia faces 90 sachets 1 2.00 2.00
8/6/2017 prednisona tab x 5mg f 2 0.50 1.00
8/6/2017 naproxeno x 550 mg farmaindustria 2 0.50 1.00
8/6/2017 chao x 100 tabletas genolab 2 1.50 3.00
8/6/2017 ponds sachets 3 1.00 3.00
8/6/2017 mentholatum lata x5g 1 1.00 1.00
8/6/2017 alcohol puro x 96° x 120ml duofarama 1 1.50 1.50
8/6/2017 azitromac 500mg 1 2.50 2.50
8/6/2017 aflaxil275 mg tab 1 0.50 0.50
8/6/2017 paracetamol tabltas x 500mg 5 0.30 1.50
8/6/2017 mascarilla descartable 2 0.50 1.00
8/6/2017 ponds sachets 1 1.00 1.00
8/6/2017 drink x 475 ml 1 2.00 2.00
8/6/2017 agua de azahar x120ml 2 1.50 3.00
8/6/2017 sifen x 50 mg 4 0.50 2.00
8/6/2017 dolopres forte 4 1.00 4.00
8/6/2017 alostal acid alendronico x 700 mg 1 3.00 3.00
8/6/2017 calcio mas vitamina d caja x 30 tabs 1 0.70 0.70
8/6/2017 migralivia medrock 2 1.00 2.00
8/6/2017 sifen x 50 mg 12 0.50 6.00
8/6/2017 jeringa 10cc bendic con/aguja 1 0.70 0.70
8/6/2017 aguja hipodermica 21gx1 1/2 1 0.20 0.20
8/6/2017 ampicilina cap x 500mg marfan 5 0.40 2.00
8/6/2017 migralivia medrock 2 1.00 2.00
8/6/2017 sifen x 50 mg 2 0.50 1.00
8/6/2017 meloxican tab 15mg 1 0.50 0.50
8/6/2017 novalgese x 10 mg 1 1.00 1.00
8/6/2017 lady speed stick des sachet v y m 1 1.00 1.00
8/6/2017 curitas cure band 4 0.10 0.40
8/6/2017 ponds sachets 2 1.00 2.00
8/6/2017 aclarat con filtro solar sachet 2 2.00 4.00
8/6/2017 amoxicilina 250mg susp x 60ml farmaindustria 6 4.50 27.00
8/6/2017 cetirizina 5mg jbe x 60 ml 1 4.50 4.50
8/6/2017 ponds sachets 1 1.00 1.00
8/6/2017 sal de andrews sobre medifarma 1 0.50 0.50
8/6/2017 nivea sachet medifarma 1 1.00 1.00
8/6/2017 paracetamol tabltas x 500mg 10 0.10 1.00
8/6/2017 doloteralgex rapid x 50mg/300mg tab 2 1.50 3.00
8/6/2017 sulfa24 tab bios 2 1.50 3.00
8/6/2017 cielo x625ml 1 1.00 1.00
8/6/2017 algodon x 10 gr ckf 1 1.00 1.00
8/6/2017 gyno dexacort plus ovulos 2 4.00 8.00
8/6/2017 clorfenamina 4 mg tab induquimica 8 0.45 3.60
8/6/2017 llave de triple via 1 3.50 3.50
8/6/2017 migralivia medrock 2 1.00 2.00
8/6/2017 endgrip forte x 100 tab del farma 1 1.50 1.50
8/6/2017 dexalor tab del farma 1 1.50 1.50
8/6/2017 flatuzin x 100 cap iqfarma 4 1.50 6.00
8/6/2017 zycot compuesto,pargeverina clorhidrato x 10 mg clonixinato 4 0.00 0.00
8/6/2017 flatuzin x 100 cap iqfarma 1 1.00 1.00
8/6/2017 amoxicilina x 500 mg cap 6 0.50 3.00
8/6/2017 naproxeno x 550 mg farmaindustria 7 0.50 3.50
8/6/2017 miodel relax tab del farma 1 1.50 1.50
8/6/2017 complejo b forte cap blandas sherfarma 1 0.50 0.50
8/6/2017 propanolol 3 0.30 0.90
8/6/2017 dolopres forte 1 1.00 1.00
8/6/2017 dolopres forte 1 1.00 1.00
8/6/2017 sifen x 50 mg 1 0.50 0.50
8/6/2017 llave de triple via 3 3.50 10.50
8/6/2017 cielo x625ml 1 1.00 1.00
8/6/2017 cielo x625ml 1 1.00 1.00
8/6/2017 agua san carlos x 630 ml 1 1.00 1.00
8/6/2017 protex jab x 75g 2 2.50 5.00
8/6/2017 bahia 90 color sachets 1 2.50 2.50
8/6/2017 ponds sachets 1 1.00 1.00
8/6/2017 novalgese x 10 mg 1 1.00 1.00
8/6/2017 profel x 100 meloxianx 15mg 1 1.50 1.50
8/6/2017 tintura de valeriana x30ml oscus 1 1.50 1.50
8/6/2017 silden up x 50 mg 1 2.50 2.50
8/6/2017 mepadol extra forte pharmac 2 1.50 3.00
8/6/2017 ciproplix x 500 mg 2 1.50 3.00
8/6/2017 talco isana para pies triple accionx60g 1 5.00 5.00
8/6/2017 cielo x625ml 1 1.00 1.00
8/6/2017 curitas cure band 1 0.10 0.10
8/6/2017 nosotras natural normales alas x10t 1 3.50 3.50
8/6/2017 dermosol bb sachet 50 cooper rosado 1 2.50 2.50
8/6/2017 aspirina x 500 mg bayer 5 0.80 4.00
8/6/2017 cloroalergan 4mg sanitas 10 1.00 10.00
8/6/2017 novalgese x 10 mg 2 1.00 2.00
8/6/2017 profel x 100 meloxianx 15mg 2 1.50 3.00
8/6/2017 amoxicilina x 500 mg cap 3 0.30 0.90
8/6/2017 paracetamol tabltas x 500mg 10 0.10 1.00
8/6/2017 palmolive jab x 130 gr 5 2.50 12.50
8/6/2017 redex tableta 4 2.50 10.00
8/6/2017 vvick vaporub x 12gr 1 2.50 2.50
8/6/2017 endgrip forte x 100 tab del farma 1 1.50 1.50
8/6/2017 alerxal cetirizina x 10 mg 1 1.00 1.00
8/6/2017 enalapril x 10 mg 10 0.20 2.00
8/6/2017 electrolaiyg x 800 ml 2 3.50 7.00
8/6/2017 sitiderm nf tubo por 10g medifarma 1 8.50 8.50
8/6/2017 broncoclarimac tab 2 3.50 7.00
8/6/2017 hemocyton jab x340ml 1 28.00 28.00
TOTAL 1,042.40
FECHA PRODUCTO CANTIDAD PRECIO IMPORTE
8/7/2017 ampicilina cap x 500mg marfan 3 0.30 0.90
8/7/2017 broncophar unitomas 3 1.00 3.00
8/7/2017 babysec x u talla m 1 0.50 0.50
8/7/2017 cuajo verde sobre 2 1.00 2.00
8/7/2017 novalgese x 10 mg 1 1.00 1.00
8/7/2017 meloxican tab 15mg 1 0.50 0.50
8/7/2017 ponds sachets 2 1.00 2.00
8/7/2017 kotex 10 u mas 2 1 3.50 3.50
8/7/2017 ponds sachets 1 1.00 1.00
8/7/2017 hepabionta grageas merck 2 2.00 4.00
8/7/2017 dexametazona x 0.5 mg 1 0.50 0.50
8/7/2017 azitromac 500mg 1 2.50 2.50
8/7/2017 agua san carlos x 630 ml 1 1.00 1.00
8/7/2017 ibuprofeno tabx400mg farmaindustria 5 0.20 1.00
8/7/2017 ponds sachets 1 1.00 1.00
8/7/2017 caramelos buck 1 0.50 0.50
8/7/2017 mantequilla cacaox barra portugal 3 0.30 0.90
8/7/2017 buscapina comprimido 1 1.50 1.50
8/7/2017 dolopres forte 3 1.00 3.00
8/7/2017 panadol efervecente tab 1 2.00 2.00
8/7/2017 panadol efervecente tab 1 2.00 2.00
8/7/2017 cielo x625ml 1 1.00 1.00
8/7/2017 nivea sachet medifarma 1 0.00 0.00
8/7/2017 colonia fragancia x 500 ml 1 17.00 17.00
8/7/2017 dermosol ecram 70 sachet blanco 1 2.50 2.50
8/7/2017 dexametasona 4mg/2ml ampolla 1 1.50 1.50
8/7/2017 broncoclarimac tab
zycot compuesto,pargeverina clorhidrato x 10 mg 3 3.50 10.50
8/7/2017 clonixinato de lisina 2 1.50 3.00
8/7/2017 cepillo oral b 4 3.00 12.00
8/7/2017 caramelos buck 2 0.50 1.00
8/7/2017 aflaxil275 mg tab 1 1.00 1.00
8/7/2017 test de embarazo en tira efective 1 5.00 5.00
8/7/2017 piel preservativo 1 3.50 3.50
8/7/2017 neoenzimax extra forte x 100cap markos 4 1.50 6.00
8/7/2017 doloteralgex rapid x 50mg/300mg tab 1 1.50 1.50
8/7/2017 dexametazona x 0.5 mg 1 0.50 0.50
8/7/2017 doloteralgex relax tab x 100 2 1.50 3.00
8/7/2017 naproxeno x 550 mg farmaindustria 2 0.50 1.00
8/7/2017 complejo b forte cap blandas sherfarma 2 0.50 1.00
8/7/2017 ponds sachets 1 1.00 1.00
8/7/2017 ponds sachets 1 1.00 1.00
8/7/2017 nivea sachet medifarma 5 1.00 5.00
8/7/2017 nivea sachet medifarma 1 1.00 1.00
8/7/2017 clorfenamina 4 mg tab induquimica 10 0.20 2.00
8/7/2017 dove jab x 90g 1 3.00 3.00
8/7/2017 irrigor plus x 30 tecnofarma 2 3.00 6.00
8/7/2017 panadol azul tab gsk 2 1.50 3.00
8/7/2017 piel preservativo 1 3.50 3.50
8/7/2017 prednisona tab x 50mg quilab 1 1.00 1.00
8/7/2017 chao x 100 tabletas genolab 1 1.50 1.50
8/7/2017 naproxeno x 550 mg farmaindustria 4 0.50 2.00
8/7/2017 miodel relax tab del farma 1 1.50 1.50
8/7/2017 complejo b forte cap blandas sherfarma 1 0.50 0.50
8/7/2017 tapsin dia y noche 1 2.00 2.00
8/7/2017 chao x 100 tabletas genolab 1 1.50 1.50
8/7/2017 paracetamol tabltas x 500mg 10 0.10 1.00
8/7/2017 agua san carlos x 630 ml 1 1.00 1.00
8/7/2017 curitas cure band 5 0.10 0.50
8/7/2017 exalax laxante 1 1.00 1.00
8/7/2017 ceftriaxon terbol 4 12.50 50.00
8/7/2017 paracetamol gotas x 10ml portugal 1 2.50 2.50
8/7/2017 complejo b forte cap blandas sherfarma 10 0.50 5.00
8/7/2017 piel preservativo 1 3.50 3.50
8/7/2017 miodel relax tab del farma 1 1.50 1.50
8/7/2017 complejo b forte cap blandas sherfarma 1 0.50 0.50
8/7/2017 penicilina benzatinica x 1200ui 1 3.50 3.50
8/7/2017 jeringa 10cc bendic con/aguja 1 0.70 0.70
8/7/2017 aguja hipodermica 18gx11/2 nipro 2 0.20 0.40
8/7/2017 dexametasona 4mg/2ml ampolla 1 1.50 1.50
8/7/2017 clorfenamina 10mg/1ml amp labot
zycot compuesto,pargeverina clorhidrato x 10 mg 1 2.50 2.50
8/7/2017 clonixinato de lisina 2 1.50 3.00
8/7/2017 enjoy condones 1 3.00 3.00
8/7/2017 asepxia polvos maquillaje 1 32.90 32.90
8/7/2017 marschall cuajo azul 2 1.00 2.00
8/7/2017 aspirina forte tabletas 2 1.50 3.00
8/7/2017 dolopres forte 2 1.00 2.00
8/7/2017 rexona des sachet 2 1.00 2.00
8/7/2017 kolinos super blanco x 108 .8 gr 1 3.50 3.50
8/7/2017 prestobarba schick 4 hojasultra barba 3 4.00 12.00
8/7/2017 cielo x625ml 1 1.00 1.00
8/7/2017 agua san carlos x 630 ml 1 1.00 1.00
8/7/2017 lactulosa jbe 1 13.00 13.00
8/7/2017 naproxeno x 550 mg farmaindustria 2 0.50 1.00
8/7/2017 dexa-benalgin 5000 amp 1 19.50 19.50
8/7/2017 aguja hipodermica 23gx1(25x6) 1 0.20 0.20
8/7/2017 gatoradex 475ml 1 2.00 2.00
8/7/2017 tioctan plus tabletas 1 1.50 1.50
8/7/2017 etiquet des sachets 3 1.00 3.00
8/7/2017 emkits ds 1 15.00 15.00
8/7/2017 rexona des sachet 1 1.00 1.00
8/7/2017 aclarat con filtro solar sachet 1 1.00 1.00
8/7/2017 aciclovir x400 mg medrock 2 1.00 2.00
8/7/2017 sal de andrews sobre medifarma 3 0.50 1.50
8/7/2017 acnomel jab x 100g 1 5.30 5.30
8/7/2017 concha de nacar crema x 25mg 1 3.50 3.50
8/7/2017 piel preservativo 3 3.50 10.50
8/7/2017 bahia faces 90 sachets 1 2.00 2.00
8/7/2017 penicilina benzatinica x 1200ui 1 3.50 3.50
8/7/2017 dexametasona 4mg/2ml ampolla 4 1.50 6.00
8/7/2017 jeringa 10cc bendic con/aguja 1 0.70 0.70
8/7/2017 aguja hipodermica 23gx1(25x6) 1 0.20 0.20
8/7/2017 clavuliph
clorfenamina 10mg/1ml
,amoxicilina amp /labot
500mg acido clavulanico 1 2.50 2.50
8/7/2017 125mg 2 2.00 4.00
8/7/2017 meloxican tab 15mg 2 0.50 1.00
8/7/2017 jeringa 10cc bendic con/aguja 1 0.70 0.70
8/7/2017 novalgese x 10 mg 2 1.00 2.00
8/7/2017 cielo x625ml 1 1.00 1.00
8/7/2017 cielo x625ml 1 1.00 1.00
8/7/2017 sal de andrews triple accion 1 1.00 1.00
8/7/2017 cielo x625ml 1 1.00 1.00
8/7/2017 multibiotico caramelos x 50 sobres 1 3.00 3.00
8/7/2017 bahia faces 90 sachets 1 2.00 2.00
8/7/2017 dolopres forte 2 1.00 2.00
8/7/2017 ponds sachets 1 1.00 1.00
8/7/2017 ibuprofeno tabx400mg farmaindustria 10 0.20 2.00
8/7/2017 dolopres forte 2 1.00 2.00
8/7/2017 energisante 360 1 2.50 2.50
8/7/2017 chao x 100 tabletas genolab 3 1.50 4.50
8/7/2017 meloxican tab 15mg 3 0.50 1.50
8/7/2017 ponds sachets 1 1.00 1.00
8/7/2017 miofedrol relax tab 1 2.00 2.00
8/7/2017 cielo x625ml 1 1.00 1.00
8/7/2017 kitadol tab teva 2 1.50 3.00
8/7/2017 bahia 90 color sachets 1 2.50 2.50
8/7/2017 endgrip forte x 100 tab del farma 2 1.50 3.00
8/7/2017 alerxal cetirizina x 10 mg 2 1.00 2.00
8/7/2017 jhonson jabon x 75 gr 1 2.50 2.50
8/7/2017 ampicilina cap x 500mg marfan 2 0.30 0.60
8/7/2017 miodel relax tab del farma 12 1.50 18.00
8/7/2017 nosotras nocturna x10t 1 6.00 6.00
8/7/2017 agua oxigenada x 60 ml 1 1.00 1.00
8/7/2017 dexametasona 4mg/2ml ampolla 4 1.50 6.00
8/7/2017 gentamicina 80mg/2ml amp lusa 1 3.00 3.00
8/7/2017 condones click 1 3.50 3.50
8/7/2017 agua san carlos x 630 ml 1 1.00 1.00
8/7/2017 meloxican tab 15mg 2 0.50 1.00
8/7/2017 novalgese x 10 mg 2 1.00 2.00
8/7/2017 doloral gotas 1 11.90 11.90
8/7/2017 piel preservativo 1 3.50 3.50
8/7/2017 always normal x 8toallas rosado 1 4.00 4.00
8/7/2017 naproxeno x 550 mg farmaindustria 2 0.50 1.00
8/7/2017 chao x 100 tabletas genolab 2 1.50 3.00
8/7/2017 prednisona tab x 5mg f 2 0.50 1.00
8/7/2017 kitadol tab teva 1 1.50 1.50
8/7/2017 hys x 400ml frasco 1 17.00 17.00
8/7/2017 dexametasona 4mg/2ml ampolla 1 1.50 1.50
8/7/2017 ladysoft nocturna 1 4.50 4.50
8/7/2017 naprodel x 550 mg 1 1.50 1.50
8/7/2017 babysec talla gx 58 u 1 0.70 0.70
8/7/2017 caramelos buck 1 0.50 0.50
8/7/2017 quemiciclina 2 1.50 3.00
8/7/2017 ponds sachets 4 1.00 4.00
8/7/2017 mantequilla cacaox barra portugal 3 0.30 0.90
8/7/2017 sulfa24 tab bios 1 1.50 1.50
8/7/2017 cielo x625ml 1 1.00 1.00
8/7/2017 urodixil extra forte sanitas 1 1.50 1.50
8/7/2017 mepadol extra forte pharmac 1 1.50 1.50
8/7/2017 nodial tobo x 10g quilab 1 8.50 8.50
8/7/2017 amoxicilina x 500 mg cap 6 0.30 1.80
8/7/2017 mantequilla cacaox barra portugal 3 0.30 0.90
8/7/2017 mepadol extra forte pharmac 1 1.50 1.50
8/7/2017 dexametazona x 0.5 mg 1 0.50 0.50
8/7/2017 piel preservativo 1 3.50 3.50
8/7/2017 penetro caramelos 1 0.80 0.80
8/7/2017 novalgese x 10 mg 2 1.00 2.00
8/7/2017 meloxican tab 15mg 6 0.50 3.00
8/7/2017 biberon transparente x8oz tuinies 1 10.00 10.00
8/7/2017 clavuliph
panadol azul tab gsk 500mg / acido clavulanico
,amoxicilina 1 1.50 1.50
8/7/2017 125mg 2 2.00 4.00
8/7/2017 naproxeno x 550 mg farmaindustria 1 0.50 0.50
8/7/2017 prednisona tab x 5mg f 1 0.50 0.50
8/7/2017 chao x 100 tabletas genolab 1 1.50 1.50
8/7/2017 omepral cap medco 4 2.00 8.00
8/7/2017 omeprazol cap 20mg farmaindustria 3 0.30 0.90
8/7/2017 electroral adultos nfx1000ml 1 9.50 9.50
8/7/2017 pañitos humedos ninet x2 x 140 u 6 7.00 42.00
8/7/2017 panadol antigripal nf tab gsk 1 2.00 2.00
8/7/2017 gatoradex 475ml 2 2.00 4.00
8/7/2017 hipoglos tubo x20g grunental 1 12.30 12.30
8/7/2017 pañitos huggies x48 rn celeste 2 10.00 20.00
8/7/2017 sildennafilo x 100mg x1tab marfan 1 3.00 3.00
8/7/2017 caramelos buck 5 0.70 3.50
8/7/2017 multibiotico caramelos x 50 sobres 2 3.00 6.00
8/7/2017 ponds s x 100 gr crema azul 1 14.90 14.90
8/7/2017 panadol antigripal nf tab gsk 1 2.00 2.00
8/7/2017 piel preservativo 1 3.50 3.50
8/7/2017 caramelos buck 1 0.50 0.50
8/7/2017 aquafresh triple accion x 85 gr 1 4.50 4.50
8/7/2017 broncoclarimac tab 14 3.00 42.00
8/7/2017 doloteralgex rapid x 50mg/300mg tab 3 1.50 4.50
8/7/2017 vaselina reuter frasco x 18g 1 1.50 1.50
8/7/2017 jeringa 10ml+aguja 21 x 1 1/2 45 0.80 36.00
8/7/2017 agua esteril para inyeccion solución para inyección 1 0.50 0.50
8/7/2017 bikonor 5 mg tableta de liberación retardada x 100 uni 2 1.00 2.00
8/7/2017 doloaproxol dual forte 50 mg + 500 mg comprimido re 12 0.70 8.40
8/7/2017 dia plus 1.5 mg tableta jc.robri caja envase blister t 3 12.00 36.00
8/7/2017 pañal huggies suelto xg 1 1.00 1.00
8/7/2017 dolo neurobion forte dc solución inyectable x 3 unid 3 34.00 102.00
8/7/2017 condon sensation anillosx3 12 3.00 36.00
8/7/2017 exazol forte 800 mg + 160 mg comprimido x 100 unid. 1 1.50 1.50
8/7/2017 furazolidona 100 mg tableta x 100 unid. naturgen caja 1 0.50 0.50
TOTAL 981.50
FECHA PRODUCTO CANTIDAD PRECIO IMPORTE
8/8/2017 migralud tabletas 5 1.50 7.50
8/8/2017 piel preservativo 1 3.50 3.50
8/8/2017 broncoclarimac tab 2 3.50 7.00
8/8/2017 chao x 100 tabletas genolab 1 1.50 1.50
8/8/2017 amoxicilina x 500 mg cap 6 0.30 1.80
8/8/2017 paracetamol tabltas x 500mg 10 0.10 1.00
8/8/2017 dermosol bb sachet 50 cooper rosado 1 2.50 2.50
8/8/2017 vitamina e 1 0.50 0.50
8/8/2017 caramelos buck 2 0.50 1.00
8/8/2017 penetro caramelos 2 0.50 1.00
8/8/2017 tapsin dia y noche 1 2.00 2.00
8/8/2017 clorfenamina 4 mg tab induquimica 5 0.20 1.00
8/8/2017 complejo b forte cap blandas sherfarma 4 0.50 2.00
8/8/2017 piel preservativo 1 3.50 3.50
8/8/2017 ponds sachets 4 1.00 4.00
8/8/2017 agua san carlos x 630 ml 1 1.00 1.00
8/8/2017 cielo x625ml 1 1.00 1.00
8/8/2017 diclofenaco gel genfar al 1% 1 8.00 8.00
8/8/2017 levonogestrel x 0.75 mg x 50 tab 1 10.00 10.00
8/8/2017 aciclav amoxicilna /acido clavulanico 10 2.50 25.00
8/8/2017 axe aer sprayx 152 ml 1 12.50 12.50
8/8/2017 clinda c 300mg capsulas 2 1.50 3.00
8/8/2017 meloxican tab 15mg 1 0.50 0.50
8/8/2017 sifen x 50 mg 1 0.50 0.50
8/8/2017 alcohol purode 96° x 60 mlalkofarma 1 1.00 1.00
8/8/2017 curitas cure band 3 0.10 0.30
8/8/2017 pañitos babysec x 50 u celeste 1 5.00 5.00
8/8/2017 complejo b forte cap blandas sherfarma 2 0.50 1.00
8/8/2017 furazal x 100mg tableta 3 1.00 3.00
8/8/2017 dimenhidrinato tab x 50mg quilab 1 0.50 0.50
8/8/2017 paracetamol tabltas x 500mg 10 0.10 1.00
8/8/2017 gents condones 4 3.50 14.00
8/8/2017 babysec talla gx 58 u 4 0.70 2.80
8/8/2017 agua san carlos x 630 ml 2 1.00 2.00
8/8/2017 sal de andrews triple accion 2 1.00 2.00
8/8/2017 apronax tab x550mg 1 2.00 2.00
8/8/2017 amoxicilina x 500 mg cap 10 0.30 3.00
8/8/2017 flatuzin x 100 cap iqfarma 2 1.00 2.00
8/8/2017 complejo b forte cap blandas sherfarma 1 0.50 0.50
8/8/2017 miodel relax tab del farma 1 1.50 1.50
8/8/2017 ketoconazolx 200 mg 2 0.50 1.00
8/8/2017 naproxeno x 550 mg farmaindustria 3 0.50 1.50
8/8/2017 vitapyrena forte sobre 2 2.50 5.00
8/8/2017 redex tableta 1 2.50 2.50
8/8/2017 repelente floresta x sachet 1 1.50 1.50
8/8/2017 dexalor tab del farma 2 1.50 3.00
8/8/2017 endgrip forte x 100 tab del farma 2 1.50 3.00
8/8/2017 profel x 100 meloxianx 15mg 2 1.50 3.00
8/8/2017 meloxican tab 15mg 2 0.50 1.00
8/8/2017 dicloxacilina tab x 500mg 2 0.50 1.00
8/8/2017 oral b 123 crema dental x 50ml 1 3.00 3.00
8/8/2017 dento gel crema dental x 90 gr 1 3.00 3.00
8/8/2017 sulfa 12 balsamico x 60 ml jbe 1 13.00 13.00
8/8/2017 broncotrifamox capx500mg medifarma 2 1.50 3.00
8/8/2017 naproxeno x 550 mg farmaindustria 2 0.50 1.00
8/8/2017 test de embarazo en tira baby test 1 5.00 5.00
8/8/2017 bahia super block x 55 sachet 1 2.00 2.00
8/8/2017 algodon x 25 gr 1 1.50 1.50
8/8/2017 agua florida x 270 ml 4 8.50 34.00
8/8/2017 albendazol
ceregen forte jab x susp
100mg 180ml 20mlfarmaindustria 1 34.90 34.90
8/8/2017 farmaindustria 2 3.50 7.00
8/8/2017 microgynon grageas bayer 1 11.00 11.00
8/8/2017 cielo x625ml 1 1.00 1.00
8/8/2017 tioctan plus tabletas 1 1.50 1.50
8/8/2017 miodel relax tab del farma 2 1.50 3.00
8/8/2017 caramelos buck 1 0.50 0.50
8/8/2017 clinda c 300mg capsulas 2 1.50 3.00
8/8/2017 miodel relax tab del farma 1 1.50 1.50
8/8/2017 dermosol ecran 70 tubo x 70 gr 1 25.00 25.00
8/8/2017 prestobarba schick 4 hojasultra barba 1 4.00 4.00
8/8/2017 agua oxigenada x 60 ml 1 1.00 1.00
8/8/2017 jabon heno de pravia x 150 gr 1 4.00 4.00
8/8/2017 enterophar unitoma 2 1.00 2.00
8/8/2017 ibuprofeno tabx400mg farmaindustria 6 0.20 1.20
8/8/2017 rexona desodorante roll on x 30 ml 2 4.50 9.00
8/8/2017 cepillo dento 2 2.50 5.00
8/8/2017 shick extreme 3 1 3.00 3.00
8/8/2017 lipstick lip 1 5.00 5.00
8/8/2017 miodel
panadolrelax
antigripal sobre + orfenadrina
(paracetamol 1 2.00 2.00
8/8/2017 dolodran
+ diclo) (gg)
(diclofenaco + paracetamol) 6 4.00 24.00
8/8/2017 (gg) 2 1.00 2.00
8/8/2017 dicloxacilina 500 mg iqfarma 1 0.50 0.50
8/8/2017 ciprofloxacino 500 mg farmindustria 3 0.33 0.99
8/8/2017 diclofenaco 50 mg tb iq farma 3 0.50 1.50
8/8/2017 dexametasona
clamoval 500 mg 4 mg tb mg tableta
+ 125 3 0.50 1.50
8/8/2017 recubierta
trioval nf tableta
x 10 unid.(gg) alpharma caja 1 2.00 2.00
8/8/2017 envase blister forte
dolo benalgin tabletas (en00487)
tableta con cubierta 1 3.00 3.00
8/8/2017 entérica
agua cielo x 20sinunid.
gas xlusa
625ml
caja envase 1 1.00 1.00
8/8/2017 blister tabletas
fluconazol 150 mg (n26538)
tableta x 100 unid. 2 2.50 5.00
8/8/2017 naturgen
jeringa 1ml+aguja
caja envase
losartan 50 mg tableta 26gx12
blister tabletas
recubierta x 30 1 0.50 0.50
8/8/2017 unid.
(ng5260)
genfar caja envase blister tabletas 2 1.00 2.00
8/8/2017 (eg3795) 3 0.30 0.90
8/8/2017 metoclopramida
pañal babysec
flatuzym cápsula sueltosmgxgunid.
x 100
10 tableta iq xfarma
100 1 0.80 0.80
8/8/2017 unid.
caja envase
iq farmablister
caja tabletas
x envase(n26017)
blister 2 1.00 2.00
8/8/2017 tabletas
clavoxilin(en00104)
plus 875 mg + 125 mg 4 0.30 1.20
8/8/2017 comprimido
frasco simplerecubierto x 16 unid. 1 0.80 0.80
8/8/2017 pharbal
agua cielocajasin gas x blister
envase 625ml comprimido 1 1.00 1.00
8/8/2017 (e15824)
lincoplus
doloaproxol dual forte 50 xmg
500 mg cápsula 60+unid.
500 mg 3 6.50 19.50
8/8/2017 comprimido
fre tee limonx
medifarma caja 500ml
envase blister
recubierto tabletas
x 400 unid. 3 1.50 4.50
8/8/2017 markos
(n16287)caja envase blister comprimidos 1 2.50 2.50
8/8/2017 (n19093)
escopolamina butil bromuro 10 mg 1 1.00 1.00
8/8/2017 depo
peineprovera
tableta pescado
x 100 unid. induquimica
150 mg/ml caja
suspensión 2 0.50 1.00
8/8/2017 para
envase blister tabletas
inyección (en03734)
pfizer caja vial x 1 ml 2 1.00 2.00
8/8/2017 (e2507) 1 38.00 38.00
8/8/2017 power limalimon x 475 ml 1 2.00 2.00
8/8/2017 panadol
jeringa 3antigripal
ml+aguja nf 21 tableta
x 1 1/2 x 100 unid. 1 0.50 0.50
8/8/2017 gsk caja envase blister tabletas (e20318) 2 2.30 4.60
8/8/2017 sedal sh+ac ceramidas 1 1.00 1.00
8/8/2017 huggies pañal recien nacido x 20 2 10.00 20.00
8/8/2017 aspirina
papel toalla
100scott
100 mg x 3 tableta x 140 unid. 1 2.00 2.00
8/8/2017 bayer
cyzonecaja
colonia
envase dancing
blisterx tabletas
100ml 1 30.00 30.00
8/8/2017 (e7139) 1 0.50 0.50
dolo benalgin forte tableta con cubierta
entérica
aspirina 100 x 20100
unid. mglusa caja envase
tableta x 140 unid.
8/8/2017 bayer
blistercaja
tabletas
envase (n26538)
blister tabletas 1 2.40 2.40
8/8/2017 (e7139) 2 0.50 1.00
8/8/2017 mascarilla simple sueltos 2 0.50 1.00
8/8/2017 condon sensation anillosx3 1 1.00 1.00
8/8/2017 condon sensation liso x 3 2 1.00 2.00
8/8/2017 suave papel rindemax naranja x 2 1 1.00 1.00
8/8/2017 suave papel rindemax naranja x 2 1 1.00 1.00
8/8/2017 protec diarios carefree brisa x 15 1 3.00 3.00
8/8/2017 esika
oxacilinaprobador youpara solución
1 g polvo 1 3.50 3.50
8/8/2017 inyectable
pañal babysec x 50sueltos m
unid. pharmagen vial 1 0.60 0.60
8/8/2017 (eg5855) 12 5.00 60.00
8/8/2017 papel
gravol elite
cb 50ultra morado blanda
mg cápsula x2 x 100 2 1.20 2.40
8/8/2017 unid.
sporade tropical x 475ml
doloaproxol dual forte 50 mg blister
medifarma caja envase + 500 mg 1 2.10 2.10
8/8/2017 tabletas
comprimido (en00353)
recubierto x 400 unid. 2 3.00 6.00
8/8/2017 markos
bronco amoxiclin
caja envase 500 mg tab
blister x 100
comprimidos 3 1.00 3.00
8/8/2017 (n19093) 3 1.00 3.00
8/8/2017 huggies pañal recien nacido x 20 1 10.00 10.00
8/8/2017 tuinies
droxilarbiberon
500 mgtransparente
cápsula x 48 unid. x 8oz 1 10.50 10.50
8/8/2017 siegfried
bahia faces cajacolor
envasespf90 sobres
blister x 20
capsulas 2 2.50 5.00
8/8/2017 (en01223) 1 3.00 3.00
8/8/2017 h&s
mejorallimpieza
500 mg x 18ml
+ 30 mg tableta x 200 3 1.00 3.00
8/8/2017 unid.
cuajo verde
medifarma
dalmatrol plus 325hansen caja x 100
mg envasesobres
+ 37.5 blister
mg tableta 2 1.00 2.00
8/8/2017 recubierta
tabletas (n759) x 50 unid. iq farma caja 12 0.30 3.60
8/8/2017 envase
voxamine blister
50 mg tabletas
tableta(n23224)
x 100 unid. 1 2.00 2.00
8/8/2017 e.s.c.
toallaspharmed
ladysoft cajanormal envasex 10blister 1 3.50 3.50
8/8/2017 tabletas (en00904) 2 1.00 2.00
8/8/2017 micolis
algodón
fluconazol 1sterilab
%150
cremamgx 25 gr x 100
roemmers
tableta caja tubo x
unid. 1 1.50 1.50
8/8/2017 naturgen
30 g (ee01907)caja envase blister tabletas 1 30.00 30.00
8/8/2017 (ng5260) 4 1.00 4.00
8/8/2017 cuajo azul marschall x 100 sobres 2 1.00 2.00
8/8/2017 venda
naproxeno elastica
5502" mgx 5tableta
yd x 100 unid. 1 1.00 1.00
8/8/2017 induquimica
llave de triple via
caja envase
plidan compuesto nf comprimido blister tabletas 1 2.50 2.50
8/8/2017 recubierto
(en01486) x 100 unid. roe1mmers caja 9 0.50 4.50
8/8/2017 envase
doprox blister
550 mgcomprimidos
comprimido (e10971)x 100 unid. 2 1.30 2.60
8/8/2017 andreu
sildenafilocaja100mg
envasetab x 1 comprimidos
blister 3 3.00 9.00
8/8/2017 (n17538)
doloparamidol 25 mg + 500 mg tableta 2 1.50 3.00
8/8/2017 urobiotic
toallas
recubiertakotex
doloaproxol fortemalla
x dual
200 400 xmg
unid.
forte10markos
+ 100
50 +caja
mg mg cápsula
500 mg 1 4.00 4.00
8/8/2017 comprimido
xenvase
100 blister
unid. tabletas
siegfried
recubierto (n22554)
caja
doloaproxol dual forte 50 mg + 500 x envase
400 blister
unid. mg 2 1.00 2.00
8/8/2017 comprimido
tabletascaja
markos (n19955)
envase
recubierto blister comprimidos
x 400 unid. 4 1.50 6.00
8/8/2017 markos
(n19093)caja envase blister comprimidos 2 1.00 2.00
8/8/2017 (n19093)
dia plus 1.5 mg tableta jc.robri caja 2 1.00 2.00
8/8/2017 envase blister tabletas (ee00494) 1 15.00 15.00
8/8/2017 cetirizina
doloaproxol 10 dual
mg tab fortex 100
50 mgnaturgen
+ 500 mg 3 0.30 0.90
8/8/2017 comprimido
bronco amoxiclin 500 mg
recubierto tab xunid.
x 400 100 2 1.00 2.00
8/8/2017 markos
plenitudcajapañal m sueltos
envase blister comprimidos 4 2.50 10.00
8/8/2017 (n19093)
panadol antigripal nf tableta x 100 unid. 3 1.00 3.00
8/8/2017 dolomax
gsk caja envase blisterrecubierta
plus tableta tabletas (e20318)
x 100 1 2.30 2.30
8/8/2017 unid.
nonpiron platan0caja
medifarma x 60mlenvase blister 1 11.00 11.00
8/8/2017 urobiotic
tabletas
doloaproxol(en02654)
forte
dual400 mg 50
forte + 100
mg mg cápsula
+ 500 mg 12 1.50 18.00
8/8/2017 comprimido
xhuggies pañal
100 unid. recien caja
siegfried
recubierto nacido x unid.
envase
x 400 20 blister 1 10.00 10.00
8/8/2017 urobiotic
tabletascaja
markos (n19955)
envase
forte 400 mg blister
+ 100comprimidos
mg cápsula 1 1.50 1.50
8/8/2017 x(n19093)
100 unid. siegfried caja envase blister 2 1.00 2.00
8/8/2017 tabletas (n19955)
doloaproxol dual forte 50 mg + 500 mg 8 1.50 12.00
8/8/2017 comprimido
cetirizina 10 mg tab x 100
recubierto naturgen
x 400 unid. 1 0.30 0.30
8/8/2017 markos
nodial crema x 10 grblister comprimidos
caja envase 1 7.00 7.00
8/8/2017 (n19093) 2 1.00 2.00
8/8/2017 bahia faces color spf90 sobres x 20 1 2.50 2.50
8/8/2017 nodial crema x 10 gr 2 7.00 14.00
8/8/2017 pañal
kitadolbabysec
migrañachico x 26+und
500 mg 65 mg tableta 1 12.00 12.00
8/8/2017 recubierta
baby test tiras
x 40x 1
unid.
naproxeno 550 mg tabletateva caja envase
x 100 unid. 4 5.00 20.00
8/8/2017 induquimica
blister tabletas (n26449)
caja envase blister tabletas 2 1.70 3.40
8/8/2017 (en01486) 3 0.50 1.50
8/8/2017 pañal babysec g x 62 1 35.00 35.00
TOTAL 934.39
FECHA PRODUCTO CANTIDAD PRECIO
8/9/2017 aquarius limon x 500ml 2 1.70
8/9/2017 neurobion gragea x 100 unid. merck caja grageas (n4007) 2 2.00
8/9/2017 hanalgeze
buk sobres10 x 4mg tableta recubierta x 50 unid. hersil caja 1 0.50
8/9/2017 envase blister tabletas (n27202)
xanax 0.5 mg tableta x 100 unid. pfizer caja envase blister 1 3.00
8/9/2017 tabletas (e21293) 2 4.00
8/9/2017 antalgina gotas 1 9.50
8/9/2017 escobilla uñas x 2 3 1.00
8/9/2017 paracetamol 500 mg tab x 100
paracetamol 100 mg/ml solución portugal frasco x 10 ml 6 0.10
8/9/2017 (en00670) 2 1.50
8/9/2017 esclavas niñas 2 1.00
8/9/2017 peine pescado 3 0.50
8/9/2017 norfloxacino
peine pescado 400 mg tableta x 14 unid. genfar caja envase 4 0.50
8/9/2017 blister tabletas (eg646) 4 0.80
8/9/2017 peine pescado 2 1.00
8/9/2017 AGUA SAN LUIS CON GAS X 625ML 6 2.00
8/9/2017 PARACETAMOL
ab amoxidal 1 g 500 MGinyectable
+ 4 mg TAB X 100 roemmers caja vial+ 5 0.30
8/9/2017 solvente (e21492) 7 22.00
8/9/2017 chaleco
zipral 400cero
mg cápsula x 10 unid. iq farma caja envase blister 1 40.00
8/9/2017 capsulas (en00310)
apronax 275 mg tableta x 200 unid. bayer caja envase blister 10 6.40
8/9/2017 tabletas (n12845) 5 2.00
8/9/2017 PARACETAMOL 500 MG TAB X 100 10 0.30
8/9/2017 cureband 6 2.00
8/9/2017 peine pescado 5 0.50
8/9/2017 schick 3 hojas xtreme 2 3.50
8/9/2017 escobilla uñas x 2 2 1.00
8/9/2017 corta uña grande 1 2.50
8/9/2017 peine pescado 12 0.50
8/9/2017 cureband 5 0.10
8/9/2017 peine pescado 4 0.50
8/9/2017 cureband 6 0.10
8/9/2017 pinza simple 3 0.50
8/9/2017 schick 2 hojas exacta 3 2.50
8/9/2017 cureband 4 0.10
8/9/2017 cureband
BENALGIN 1000 Solución para Inyección LUSA Caja Ampolla 6 0.10
8/9/2017 X 2 mL + Accesorios (N19779) 4 1.00
8/9/2017 esclavas niñas 2 1.00
8/9/2017 bateria 9v 10 10.00
8/9/2017 bateria 9v 10 10.00
8/9/2017 agua cielo sin gas x 1lt 1 2.00
8/9/2017 cureband 2 0.10
8/9/2017 peine
ZIPRALgrande
400 mg Cápsula x 10 unid. IQ FARMA Caja Envase 1 1.00
8/9/2017 Blister Capsulas polvo
sal de andrews (EN00310)
efervescente x 100 unid. medifarma 4 1.50
8/9/2017 caja sobre (n4133)
clindamax 300 mg cápsula x 100 unid. ac farma caja envase 1 0.50
8/9/2017 blister tabletas (n19005) 5 3.50
8/9/2017 condon sensation
dicloxacilina 500 mg anillosx3
cápsula x 100 unid. naturgen caja envase 3 1.00
8/9/2017 folio cápsulas (en02864) 4 0.40
8/9/2017 pañal huggies suelto
bencilpenicilina xg
benzatinica 1 200 000 ui polvo para 1 1.00
8/9/2017 suspensión inyectable x 25
dexametasona 4 mg/2 ml solución unid. dany caja vialx 100
inyectable (ee01636)
unid. 1 3.00
8/9/2017 labot caja ampolla x 2ml (ee01141) 3 1.00
8/9/2017 aguja descartable
azo baccidal 500 mg23g+ x100
1 1/2
mg tableta recubierta x 100 unid. 2 0.20
8/9/2017 e.s.c. pharmed caja envase
pasuma nf 50 mg tableta recubiertablister tabletas (n24313)
x 10 unid. inti caja 5 2.00
8/9/2017 envase blister tabletas (ee02332) 1 4.00
8/9/2017 hojas de bisturi nº 11 2 0.50
8/9/2017 frasco simple 2 1.00
8/9/2017 h&s limpieza x 18ml 1 1.00
8/9/2017 guantes esteriles 7 5 1.50
8/9/2017 aquarius manzana x 500ml 2 1.70
8/9/2017 aquarius naranja x 500ml 1 1.70
8/9/2017 pañal babysec sueltos xg 4 0.80
8/9/2017 frasco vidrio 1 2.00
8/9/2017 babytest x cassette
dia plus 1.5 mg tableta jc.robri caja envase blister tabletas 3 8.00
8/9/2017 (ee00494)
ketorolaco 10 mg tableta x 100 unid. naturgen caja envase 1 15.00
8/9/2017 blister
quilxib tabletas (ng3166)x 100 unid. quimica suiza caja envase
200 mg cápsula 5 0.30
8/9/2017 blister tabletas
agua esteril (n22553)
para inyeccion solución para inyección x 100 1 1.50
8/9/2017 unid. pharmagen caja ampolla x 5 ml (ee01600) 6 0.50
8/9/2017 jeringa 10ml+aguja 21 x 1 1/2 1 0.60
8/9/2017 aguja
rapilerdescartable
5 mg tableta 21g x 1 1/2 x 100 unid. teva caja envase
recubierta 1 0.20
8/9/2017 blister tabletas (n22013) 2 3.50
8/9/2017 condon sensation
doloparamidol 25 anillosx3
mg + 500 mg tableta recubierta x 200 unid. 3 3.00
8/9/2017 markos
dicloxacilina 500 mgblister
caja envase cápsula tabletas (n22554)
x 100 unid. naturgen caja envase 2 1.00
8/9/2017 folio cápsulas (en02864) 1 0.40
8/9/2017 crema blanqueadora faz sobres x 20 2 1.00
8/9/2017 kolynos
ab broncolcrema blanco
nf 600 x 25
polvo gr
liofilizado para solución inyectable 3 1.50
8/9/2017 medifarma caja vial + solvente x 5 ml (n25384) 4 20.00
8/9/2017 cielo x625ml 1 1.00
8/9/2017 caramelos buck 2 0.50
8/9/2017 pinzas merheje ploma 1 0.50
8/9/2017 plidan compuestio roemmers 1 1.50
8/9/2017 omeprazol cap 20mg farmaindustria 1 0.30
8/9/2017 babysec x u talla m 2 0.50
8/9/2017 babysesc talla xg x u 4 0.80
8/9/2017 gingisona b pastillas 2 2.50
8/9/2017 dexametasona 4mg/2ml ampolla 1 1.50
8/9/2017 diclofenaco 75mg/3ml amp labot 2 2.00
8/9/2017 jeringa 5mcc 1 0.50
8/9/2017 aguja hipodermica 23gx1(25x6) 1 0.20
8/9/2017 timolina x 75ml 2 1.50
8/9/2017 dexametasona tab 4mg induquimica 1 0.50
8/9/2017 cielo x625ml 1 1.00
8/9/2017 doloteralgex rapid x 50mg/300mg tab 4 1.50
8/9/2017 voxamine 50mg 2 1.50
8/9/2017 prednisona tab 20mg quilab 2 0.50
8/9/2017 mepadol extra forte pharmac 2 1.50
8/9/2017 vivarex propifenazona 125 mg 2 2.00
8/9/2017 dexametasona tab 4mg induquimica 2 0.50
8/9/2017 ambroxol 15mg/5m susp x120ml 2 7.00
TOTAL
IMPORTE
3.40
4.00
0.50
3.00
8.00
9.50
3.00
0.60
3.00
2.00
1.50
2.00
3.20
2.00
12.00
1.50
154.00
40.00
64.00
10.00
3.00
12.00
2.50
7.00
2.00
2.50
6.00
0.50
2.00
0.60
1.50
7.50
0.40
0.60
4.00
2.00
100.00
100.00
2.00
0.20
1.00
6.00
0.50
17.50
3.00
1.60
1.00
3.00
3.00
0.40
10.00
4.00
1.00
2.00
1.00
7.50
3.40
1.70
3.20
2.00
24.00
15.00
1.50
1.50
3.00
0.60
0.20
7.00
9.00
2.00
0.40
2.00
4.50
80.00
1.00
1.00
0.50
1.50
0.30
1.00
3.20
5.00
1.50
4.00
0.50
0.20
3.00
0.50
1.00
6.00
3.00
1.00
3.00
4.00
1.00
14.00
863.20
FECHA PRODUCTO CANTIDAD PRECIO IMPORTE
8/10/2017 prestobarba schick xtreme 3 2 3.50 7.00
8/10/2017 rexona des sachet 2 1.00 2.00
8/10/2017 naprodel x 550 mg 1 1.00 1.00
8/10/2017 dimenhidrinato tab x 50mg quilab 2 0.50 1.00
8/10/2017 novalgese x 10 mg 1 1.00 1.00
8/10/2017 meloxican tab 15mg 2 0.50 1.00
8/10/2017 sildennafilo x 100mg x1tab marfan 10 2.30 23.00
8/10/2017 bactrin forte x100 com roche 3 1.50 4.50
8/10/2017 furazal x 100mg tableta 3 1.00 3.00
8/10/2017 dermosol bb sachet 50 cooper rosado 1 2.50 2.50
8/10/2017 bahia 90 color sachets 1 2.50 2.50
8/10/2017 complejo b forte cap blandas sherfarma 10 0.50 5.00
8/10/2017 levonogestrel x 0.75 mg x 50 tab 1 10.00 10.00
8/10/2017 miodel relax tab del farma 4 1.50 6.00
8/10/2017 omeprazol cap 20mg farmaindustria 3 0.30 0.90
8/10/2017 colados de fruta 1 2.50 2.50
8/10/2017 sal de andrews triple accion 2 1.00 2.00
8/10/2017 mepadol extra forte pharmac 1 1.50 1.50
8/10/2017 dexametasona tab 4mg induquimica 3 0.50 1.50
8/10/2017 doloneuropres forte 1 2.00 2.00
8/10/2017 omeprazol cap 20mg farmaindustria 3 0.30 0.90
8/10/2017 azitromicina 200mg/5ml jbe 1 13.50 13.50
8/10/2017 dexametasona tab 4mg induquimica 2 0.50 1.00
8/10/2017 alostal acid alendronico x 700 mg 1 3.00 3.00
8/10/2017 calcio mas vitamina d caja x 30 tabs 2 0.70 1.40
8/10/2017 piel preservativo 1 3.50 3.50
8/10/2017 sal de andrews triple accion 1 1.00 1.00
8/10/2017 apronax tab x550mg 2 2.00 4.00
8/10/2017 piel con retardante verde 1 4.50 4.50
8/10/2017 caramelos buck 3 0.50 1.50
8/10/2017 dermosol bb sachet 50 cooper rosado 2 2.50 5.00
8/10/2017 diclofenaco x 50 mg tab genfar 5 0.20 1.00
8/10/2017 baby sec xxg x 44 u 3 0.90 2.70
8/10/2017 gingisona b pastillas 1 2.50 2.50
8/10/2017 complejo b comprimido quilab 2 0.10 0.20
8/10/2017 zycot
bactrin forte x100 com roche clorhidrato x 10
compuesto,pargeverina 1 1.50 1.50
8/10/2017 mg clonixinato de lisina 1 1.00 1.00
8/10/2017 furazal x 100mg tableta 21 1.00 21.00
8/10/2017 colgate maxima proteccion x60ml 1 4.00 4.00
8/10/2017 jeringa 5mcc 1 0.50 0.50
8/10/2017 pañitos babysec x 50 u celeste 2 5.50 11.00
8/10/2017 doloteralgex rapid x 50mg/300mg tab 1 1.50 1.50
8/10/2017 azitromicina cap x 500mg 1 1.50 1.50
8/10/2017 endgrip forte x 100 tab del farma 2 1.50 3.00
8/10/2017 novalgese x 10 mg 2 1.00 2.00
8/10/2017 pert plus shampoo x700ml 1 20.00 20.00
8/10/2017 mantequilla cacaox barra portugal 3 0.30 0.90
8/10/2017 dextrometorfano 15mg /5ml medrock 1 7.50 7.50
8/10/2017 sulfa24 tab bios 3 1.50 4.50
8/10/2017 chao x 100 tabletas genolab 3 1.00 3.00
8/10/2017 prednisona tab 20mg quilab 3 0.50 1.50
8/10/2017 ketaxal 1 1.50 1.50
8/10/2017 sifen x 50 mg 1 0.50 0.50
8/10/2017 omeprazol cap 20mg farmaindustria 3 0.30 0.90
8/10/2017 huggies recien nacido x 20 u 2 10.00 20.00
8/10/2017 repelente floresta x sachet 1 1.50 1.50
8/10/2017 azitromac 500mg 2 2.00 4.00
8/10/2017 doloteralgex rapid x 50mg/300mg tab 2 1.50 3.00
8/10/2017 sulfa24 tab bios 2 1.50 3.00
8/10/2017 prednisona tab x 5mg f 1 0.50 0.50
8/10/2017 gel capilaris x 100 gr 4 3.50 14.00
8/10/2017 varimine comprimidos 1 2.50 2.50
8/10/2017 doloneurobion capsulas merck 3 1.50 4.50
8/10/2017 cielo x625ml 1 1.00 1.00
8/10/2017 timolina x 75ml 1 1.50 1.50
8/10/2017 clindamicina x 300mg tabletas 6 0.50 3.00
8/10/2017 cielo x625ml 1 1.00 1.00
8/10/2017 concha de nacar crema x 25mg 2 3.50 7.00
8/10/2017 bicarbonato de 100 mg 2 4.00 8.00
8/10/2017 agua de azahar x120ml 1 1.50 1.50
8/10/2017 losartan tab x 50mg marfan 50 0.40 20.00
8/10/2017 sildennafilo x 100mg x1tab marfan 1 3.00 3.00
8/10/2017 bahia faces 90 sachets 1 2.00 2.00
8/10/2017 doloteralgex rapid x 50mg/300mg tab 1 1.50 1.50
8/10/2017 aguja descartable 20g x 1 1/2 2 0.20 0.40
8/10/2017 guantes esteriles 7 1 1.50 1.50
8/10/2017 kolynos crema herbal x 90 gr 1 2.50 2.50
8/10/2017 jabon dove exfoliacion suave x 90 gr 3 3.50 10.50
8/10/2017 h&s limpieza x 18ml 1 1.00 1.00
8/10/2017 peine grande 4 1.00 4.00
8/10/2017 dento cepillo medio 1 2.50 2.50
8/10/2017 jeringa 5ml+aguja 21 x 1 1/2 2 0.50 1.00
8/10/2017 flogoral
nylon azul
3 mg5-0tableta
tc 25 x 50 unid. lukoll caja sobre 2 6.00 12.00
8/10/2017 x 4 tabletas (e22770) 4 0.80 3.20
8/10/2017 vaso descartable 2 0.10 0.20
8/10/2017 agua san luis sin gas x 625ml 2 1.30 2.60
8/10/2017 nisoprex
gasa esteril
20 10
mgxcomprimido
10 x 5 x 100 unid. 4 2.00 8.00
8/10/2017 algodón
elifarma sterilab x 25 blister
caja envase gr comprimidos 1 1.50 1.50
8/10/2017 (en00218)
benalgin 1000 solución para inyección lusa 6 2.20 13.20
8/10/2017 caja ampolla x 2 ml + accesorios (n19779) 4 15.00 60.00
8/10/2017 agua san luis sin gas x 1lt 1 2.50 2.50
8/10/2017 panadol
aguja descartable 20g x 1x 1/2
500 mg tableta 50 unid. gsk caja 2 0.20 0.40
8/10/2017 doprox
envase blister
550 mgtabletas (e14831)
comprimido x 100 unid. andreu 10 1.50 15.00
8/10/2017 caja envase blister comprimidos (n17538) 8 1.50 12.00
8/10/2017 aguja descartable 18g x 1 1/2 2 0.20 0.40
8/10/2017 jeringa 10ml+aguja 21 x 1 1/2 1 0.60 0.60
8/10/2017 labopan
estomaliv0.5fcomg
x 30ml
tableta x 100 unid. keyfarm caja 2 1.50 3.00
8/10/2017 doloaproxol
envase blister
urofurin 100dual
mgtabletas
tableta (n20543)
forte 50 x mg
120+unid. iq farma
500 mg 12 1.00 12.00
8/10/2017 comprimido
caja envase blister tabletas
recubierto x 400(en01957)
unid. markos caja 4 2.00 8.00
8/10/2017 lincoplus
envase blister comprimidos
600 mg/2 (n19093)
ml inyectable x 5 unid. 2 1.00 2.00
8/10/2017 dexametasona
medifarma ampolla 4 mg/2 x 2ml
mlsolución
(n16288)inyectable x 1 15.00 15.00
8/10/2017 100 unid. labot caja ampolla x 2ml (ee01141) 2 1.00 2.00
8/10/2017 fluconazol
jeringa 5ml+aguja
150 mg 21 x 1 1/2
tableta x 100 unid. naturgen 3 0.50 1.50
8/10/2017 caja envase blister tabletas (ng5260) 3 1.00 3.00
8/10/2017 gasa esteril 10 x 10 x 5 4 2.00 8.00
8/10/2017 venda elastica 3" x 5 yd 12 1.50 18.00
8/10/2017 droxilar 500 mg cápsula x 48 unid. siegfried caja 2 3.00 6.00
8/10/2017 brimodin 200 mg granulos para suspensión oral x 4 2.00 8.00
8/10/2017 agua cielo sin gas x 625ml 5 1.00 5.00
8/10/2017 cefadroxilo 500 mg tableta recubierta x 100 unid 7 1.00 7.00
8/10/2017 doloaproxol dual forte 50 mg + 500 mg comprimid 2 1.00 2.00
8/10/2017 alcohol 96 x 120ml 1 1.50 1.50
8/10/2017 ponds clarant grasa sachet x 20 2 1.00 2.00
8/10/2017 kolynos cepillo master 3 2.50 7.50
8/10/2017 kolynos crema herbal x 90 gr 6 2.50 15.00
8/10/2017 hisopo santole x 100u 1 2.00 2.00
8/10/2017 curitas cure band 3 0.10 0.30
8/10/2017 plidan compuestio roemmers 1 1.50 1.50
8/10/2017 exalax laxante 1 1.00 1.00
8/10/2017 neoenzimax extra forte x 100cap markos 1 1.50 1.50
8/10/2017 endgrip forte x 100 tab del farma 2 1.50 3.00
8/10/2017 metformina 850mg medrock 4 0.50 2.00
8/10/2017 vitapyrena forte sobre 12 2.50 30.00
8/10/2017 bactrin forte x100 com roche 3 1.50 4.50
8/10/2017 zaltrin compuesto 23 1.50 34.50
8/10/2017 bactrin forte x100 com roche 1 1.50 1.50
8/10/2017 zaltrin compuesto 1 1.50 1.50
8/10/2017 celecoxib tab x 200mg medrock 45 0.50 22.50
8/10/2017 orfenadrina 100mg x 100 tab 2 1.00 2.00
8/10/2017 dolodran forte x 100 tab portugal 2 0.50 1.00
8/10/2017 huggies recien nacido x 20 u 1 10.00 10.00
8/10/2017 dolodran forte x 100 tab portugal 20 0.50 10.00
8/10/2017 paracetamol tabltas x 500mg 20 0.10 2.00
8/10/2017 gents condones 12 3.50 42.00
8/10/2017 brillantina 1 1.50 1.50
8/10/2017 caramelos buck 3 0.50 1.50
8/10/2017 aflaxil275 mg tab 4 1.00 4.00
8/10/2017 lesartamine levocetirizina x 5 mg 1 1.50 1.50
8/10/2017 caramelos buck 3 0.70 2.10
8/10/2017 aquafresh triple accion x 85 gr 1 4.50 4.50
8/10/2017 broncoclarimac tab 4 3.00 12.00
8/10/2017 doloteralgex rapid x 50mg/300mg tab 3 1.50 4.50
8/10/2017 vaselina reuter frasco x 18g 1 1.50 1.50
8/10/2017 jeringa 10ml+aguja 21 x 1 1/2 24 0.80 19.20
8/10/2017 agua esteril para inyeccion solución para inyec 2 0.50 1.00
8/10/2017 bikonor 5 mg tableta de liberación retardada x 10 4 1.00 4.00
8/10/2017 nongrip 3 1.00 3.00
8/10/2017 metformina 850mg medrock 2 0.50 1.00
8/10/2017 novalgese x 10 mg 13 1.00 13.00
8/10/2017 profel x 100 meloxianx 15mg 1 1.50 1.50
8/10/2017 aciclovir tab x 800mg marfan 12 1.50 18.00
8/10/2017 levonogestrel x 0.75 mg x 50 tab 1 10.00 10.00
8/10/2017 jeringa 10cc bendic con/aguja 12 0.70 8.40
8/10/2017 tapsin dia y noche 1 2.00 2.00
8/10/2017 bactrin forte x100 com roche 1 1.50 1.50
8/10/2017 enterol tab 100mg bios 3 1.00 3.00
8/10/2017 elixer estomacal x 30 ml d- leos 1 1.50 1.50
8/10/2017 papel elite clasico x 2 naranja 4 2.00 8.00
8/10/2017 bronco amoxiclin tabletas 2 1.50 3.00
8/10/2017 plidan compuestio roemmers 1 1.50 1.50
8/10/2017 ladysoft normal c/a 1 3.00 3.00
8/10/2017 aspirina 100 mg x 140 tab bayer 2 0.50 1.00
8/10/2017 dibrolax 5mg farmaindustria 2 1.50 3.00
8/10/2017 bronco amoxiclin tabletas 2 1.50 3.00
8/10/2017 apronax tab x550mg 4 2.00 8.00
8/10/2017 fluconazol 150mg farmaindustria 2 1.00 2.00
TOTAL 922.40
FECHA PRODUCTO CANTIDAD PRECIO IMPORTE
8/11/2017 orfenadrina 100mg x 100 tab 1 1.00 1.00
8/11/2017 cetirizina tab x 10mg farmaindustria 25 0.20 5.00
8/11/2017 mantequilla cacaox barra portugal 3 0.30 0.90
8/11/2017 gents condones 1 3.50 3.50
8/11/2017 ciprofloxacino tabx500mg 4 0.50 2.00
8/11/2017 emkits ds 1 15.00 15.00
8/11/2017 dento anticaries x90 ml 1 2.00 2.00
8/11/2017 naproxeno x 550 mg farmaindustria 3 0.50 1.50
8/11/2017 amoxicilina x 500 mg cap 3 0.30 0.90
8/11/2017 omeprazol cap 20mg farmaindustria 3 0.30 0.90
8/11/2017 chao x 100 tabletas genolab 1 1.50 1.50
8/11/2017 naproxeno x 550 mg farmaindustria 1 0.50 0.50
8/11/2017 prednisona tab 20mg quilab 1 0.50 0.50
8/11/2017 fenazopiridina x 100 mg 2 0.30 0.60
8/11/2017 ciprofloxacino tabx500mg 2 0.50 1.00
8/11/2017 omeprazol cap 20mg farmaindustria 3 0.30 0.90
8/11/2017 voxamine 50mg 1 1.50 1.50
8/11/2017 plidan compuestio roemmers 2 1.50 3.00
8/11/2017 bactrin forte x100 com roche 2 1.50 3.00
8/11/2017 ab broncol x 1200 mg 1 23.00 23.00
8/11/2017 dexametasona 4mg/2ml ampolla 1 1.00 1.00
8/11/2017 diclofenaco 75mg/3ml amp labot 1 1.00 1.00
8/11/2017 clorfenamina 10mg/1ml amp labot 1 1.00 1.00
8/11/2017 papel elite oplus doble hoja 1 2.50 2.50
8/11/2017 buscapina comprimido 3 1.50 4.50
8/11/2017 repriman 500mg tab quilab 1 0.50 0.50
8/11/2017 dermosol bb sachet 50 cooper rosado 1 2.50 2.50
8/11/2017 mantequilla cacaox barra portugal 3 0.30 0.90
8/11/2017 babysec talla gx 58 u 7 0.70 4.90
8/11/2017 chao x 100 tabletas genolab 2 1.50 3.00
8/11/2017 lesartamine levocetirizina x 5 mg 2 1.00 2.00
8/11/2017 nosotras invisible clasica tela x 10 toallas 1 4.00 4.00
8/11/2017 naproxeno x 550 mg farmaindustria 2 0.50 1.00
8/11/2017 cotidian pañal adulto x unidad 1 2.50 2.50
8/11/2017 marschall cuajo azul 1 1.00 1.00
8/11/2017 babysesc talla xg x u 4 35.00 140.00
8/11/2017 ibuprofeno tabx400mg farmaindustria 5 0.20 1.00
8/11/2017 asepxia jabon 1 9.50 9.50
8/11/2017 jeringa tuberculina x 1ml 2 0.50 1.00
8/11/2017 doxiciclina hiclato tab x 100mg medrock 2 0.50 1.00
8/11/2017 repriman 500mg tab quilab 1 0.50 0.50
8/11/2017 miodel relax tab del farma 3 1.50 4.50
8/11/2017 miodel relax tab del farma 1 1.50 1.50
8/11/2017 metronidazol x 500 mg 1 0.50 0.50
8/11/2017 paracetamol tabltas x 500mg 2 0.10 0.20
8/11/2017 aflaxil275 mg tab 2 1.00 2.00
8/11/2017 babysec talla gx 58 u 3 0.70 2.10
8/11/2017 agua para inyeccion /5mlx10 1 1.00 1.00
8/11/2017 aciclovir tab x 800mg marfan 1 1.50 1.50
8/11/2017 reuma frost frasco x 60gportugal 1 10.00 10.00
8/11/2017 chao x 100 tabletas genolab 1 1.50 1.50
8/11/2017 prednisona tab 20mg quilab 1 0.50 0.50
8/11/2017 naproxeno x 550 mg farmaindustria 1 0.50 0.50
8/11/2017 bahia 365 sachet 1 2.00 2.00
8/11/2017 chao x 100 tabletas genolab 3 1.50 4.50
8/11/2017 prednisona tab 20mg quilab 3 0.50 1.50
8/11/2017 naproxeno x 550 mg farmaindustria 3 0.50 1.50
8/11/2017 condones click 1 3.50 3.50
8/11/2017 amoxicilina 250mg susp x 60ml farmaindustria 1 4.50 4.50
8/11/2017 nastizol compositum junior tab bago 2 0.70 1.40
8/11/2017 chao x 100 tabletas genolab 2 1.50 3.00
8/11/2017 naproxeno x 550 mg farmaindustria 2 0.50 1.00
8/11/2017 prednisona tab 20mg quilab 2 0.50 1.00
8/11/2017 anaflex cap x25mg 1 1.50 1.50
8/11/2017 aceite de oliva x 90 ml 1 4.50 4.50
8/11/2017 chao x 100 tabletas genolab 2 1.50 3.00
8/11/2017 nosotras natural normales alas x10t 1 3.50 3.50
8/11/2017 losartan tab x 50mg marfan 5 0.40 2.00
8/11/2017 gatoradex 475ml 1 2.00 2.00
8/11/2017 chupon con protector tuinies 1 7.50 7.50
8/11/2017 azitromicina cap x 500mg 1 1.50 1.50
8/11/2017 gents condones 1 3.50 3.50
8/11/2017 papel higienol naranja 1 1.80 1.80
8/11/2017 otidol gotas x 5ml lansier 1 14.00 14.00
8/11/2017 naproxeno x 550 mg farmaindustria 5 0.50 2.50
8/11/2017 clavuliph ,amoxicilina 500mg / acido clavulanico 2 2.00 4.00
8/11/2017 quemiciclina 1 1.50 1.50
8/11/2017 bronco amoxiclin tabletas 1 1.50 1.50
8/11/2017 piel preservativo 1 3.50 3.50
8/11/2017 rexona men x 50 gr barra 1 10.50 10.50
8/11/2017 lipstick portugal x 7 unid surtido 1 5.00 5.00
8/11/2017 endgrip forte x 100 tab del farma 1 1.50 1.50
8/11/2017 zaltrin compuesto 1 1.50 1.50
8/11/2017 novalgese x 10 mg 1 1.00 1.00
8/11/2017 metformina 850mg medrock 2 0.50 1.00
8/11/2017 bactrin forte x100 com roche 1 1.50 1.50
8/11/2017 endgrip forte x 100 tab del farma 1 1.50 1.50
8/11/2017 zalicer tab x 10mg bpm 1 1.00 1.00
8/11/2017 metformina 850mg medrock 6 0.50 3.00
8/11/2017 dove rollon x 50ml 1 8.50 8.50
8/11/2017 miodel relax tab del farma 1 1.50 1.50
8/11/2017 sifen x 50 mg 1 0.50 0.50
8/11/2017 cetirizina tab x 10mg farmaindustria 2 0.40 0.80
8/11/2017 dexametasona tab 4mg induquimica 2 0.50 1.00
8/11/2017 nastizol compositum junior tab bago 2 0.70 1.40
8/11/2017 agua del carmen x30ml oscus 1 1.50 1.50
8/11/2017 san luis x 500 ml 1 1.00 1.00
8/11/2017 endgrip forte x 100 tab del farma 1 1.50 1.50
8/11/2017 padrax x1.65g sobre medifarma 1 1.00 1.00
8/11/2017 zalicer tab x 10mg bpm 1 1.00 1.00
8/11/2017 electrolaiyg x 800 ml 1 3.50 3.50
8/11/2017 warmi capsulas x 90 7 1.30 9.10
8/11/2017 ab broncol nf 600 polvo liofilizado para solución 1 23.00 23.00
8/11/2017 papel elite doble hoja x 2 6 0.90 5.40
8/11/2017 papel elite plus x 2 4 1.20 4.80
8/11/2017 agua san luis sin gas x 625ml 1 1.30 1.30
8/11/2017 frasco simple 1 1.00 1.00
8/11/2017 peine pescado 1 0.50 0.50
8/11/2017 aguja descartable 20g x 1 1/2 1 0.20 0.20
8/11/2017 schick 2 hojas exacta 1 2.50 2.50
8/11/2017 dexametasona 4 mg/2 ml solución inyectable x 100 2 1.00 2.00
8/11/2017 bencilpenicilina benzatinica 1 200 000 ui polvo pa 1 3.00 3.00
8/11/2017 vaso descartable 4 0.10 0.40
8/11/2017 flatuzym cápsula x 100 unid. iq farma caja envase 1 1.00 1.00
8/11/2017 condon sensation liso x 3 3 1.00 3.00
8/11/2017 vickzzz 50 mg tableta recubierta x 40 unid. teva c 1 1.80 1.80
8/11/2017 dolo benalgin forte tableta con cubierta entérica 2 2.50 5.00
8/11/2017 repriman 250 mg/5 ml jarabe quimica suiza frasc 1 11.00 11.00
8/11/2017 eritromicina 250 mg/5 ml suspensión genfar frasc 1 8.00 8.00
8/11/2017 papel elite doble hoja x 2 2 0.90 1.80
8/11/2017 pañal plenitud x 10 1 4.00 4.00
8/11/2017 frasco simple 1 1.00 1.00
8/11/2017 guantes esteriles 6 1/2 1 1.50 1.50
8/11/2017 vaso descartable 2 0.10 0.20
8/11/2017 peine grande 1 1.00 1.00
8/11/2017 kolynos crema herbal x 90 gr 1 2.50 2.50
8/11/2017 neurobion gragea x 100 unid. merck caja gragea 1 2.00 2.00
8/11/2017 doloaproxol dual forte 50 mg + 500 mg comprimid 2 1.00 2.00
8/11/2017 cefalexina 500 mg cápsula x 100 unid. farmindustri 2 1.00 2.00
8/11/2017 nat 100 diabetico x 900 gr 1 104.00 104.00
8/11/2017 pro cepillo suave x 2 1 9.00 9.00
8/11/2017 colgate crema herbal x 90 gr 1 2.50 2.50
8/11/2017 cefalexina 500 mg cápsula x 100 unid. farmindustri 1 1.00 1.00
8/11/2017 pañal babysec rn x 20 1 10.00 10.00
8/11/2017 apronax 275 mg tableta x 200 unid. bayer caja env 1 2.00 2.00
8/11/2017 esika shampoo vital 2 en 1 x 1 lt 1 24.00 24.00
8/11/2017 zafin 325 mg + 37.5 mg comprimido recubierto x 7 1 2.00 2.00
8/11/2017 donamed f 2 mg tableta x 100 unid. medifarma caj 2 1.00 2.00
8/11/2017 escopolamina butil bromuro 10 mg tableta x 100 u 3 1.00 3.00
8/11/2017 cortafan comprimido recubierto x 100 unid. mark 3 1.00 3.00
8/11/2017 donamed f 2 mg tableta x 100 unid. medifarma caj 1 1.00 1.00
8/11/2017 apronax 275 mg tableta x 200 unid. bayer caja env 6 1.50 9.00
8/11/2017 labopan 0.5 mg tableta x 100 unid. keyfarm caja e 2 1.00 2.00
8/11/2017 flogoral 3 mg tableta x 50 unid. lukoll caja sobre 4 0.80 3.20
8/11/2017 fre tee vidrio x 450ml 1 1.80 1.80
8/11/2017 agua cielo sin gas x 625ml 1 1.00 1.00
8/11/2017 biolactol probiotico acidophilus solución bebible 2 4.50 9.00
8/11/2017 power mora x 473ml 2 2.00 4.00
8/11/2017 ciruelax forte tab x 60 2 1.00 2.00
8/11/2017 aquarius manzana x 500ml 1 1.70 1.70
8/11/2017 agua cielo sin gas x 625ml 1 1.00 1.00
8/11/2017 bahia faces color spf90 sobres x 20 1 2.50 2.50
8/11/2017 cetriler 5 ml comp rec x 100 1 3.00 3.00
8/11/2017 peine grande 1 1.00 1.00
8/11/2017 jabon neko extra proteccion x 75 gr 1 2.50 2.50
8/11/2017 h&s suave manejable x 18ml 1 1.00 1.00
8/11/2017 frasco simple 1 1.00 1.00
8/11/2017 vaso descartable 4 0.10 0.40
8/11/2017 aguja descartable 20g x 1 1/2 1 0.20 0.20
8/11/2017 dento cepillo medio 1 2.50 2.50
8/11/2017 colgate cepillo premier 4 2.50 10.00
8/11/2017 corta uña grande 1 2.50 2.50
8/11/2017 pañal babysec m x 22 und 1 12.00 12.00
8/11/2017 miofedrol relax plus comprimido recubierto x 10 3 1.70 5.10
8/11/2017 mejoral 500 mg + 30 mg tableta x 200 unid. medifa 8 0.30 2.40
8/11/2017 miofedrol relax plus comprimido recubierto x 10 3 1.70 5.10
8/11/2017 urobiotic forte 400 mg + 100 mg cápsula x 100 unid 2 1.50 3.00
8/11/2017 doloparamidol 25 mg + 500 mg tableta recubierta 2 1.00 2.00
8/11/2017 sedal shampoo duo x 350 ml 1 15.00 15.00
8/11/2017 jabon dove delicious karite x 90 gr 1 3.50 3.50
8/11/2017 electrolight naranja x 475ml 1 2.00 2.00
8/11/2017 agua cielo sin gas x 625ml 1 1.00 1.00
8/11/2017 schick 3 hojas xtreme 1 3.00 3.00
8/11/2017 plidan compuesto nf comprimido recubierto x 10 2 1.30 2.60
8/11/2017 estomaliv fco x 30ml 1 1.50 1.50
8/11/2017 panadol antigripal nf tableta x 100 unid. gsk caja 4 2.30 9.20
8/11/2017 ritmocor
urobiotic 150
fortemg
400 mg + 100 mg
comprimido cápsula xx 100
recubierto unidfarmindustria
20 unid. 2 caja envase
1.50 blister comprimidos
3.00 (e21323)
8/11/2017 24 3.50 84.00
8/11/2017 droxilar 500 mg cápsula x 48 unid. siegfried caja 1 3.00 3.00
8/11/2017 dolomarket forte 50 mg + 500 mg tableta recubiert 1 1.00 1.00
8/11/2017 plidan compuesto nf comprimido recubierto x 10 3 1.50 4.50
8/11/2017 dolo benalgin solución para inyección lusa caja a 1 21.00 21.00
8/11/2017 h&s limpieza x 18ml 2 1.00 2.00
8/11/2017 doloaproxol dual forte 50 mg + 500 mg comprimid 2 1.00 2.00
8/11/2017 pañal huggies recien nacido x 20 1 10.00 10.00
8/11/2017 pañal huggies suelto g 2 0.90 1.80
8/11/2017 cetriler 5 ml comp rec x 100 2 3.00 6.00
8/11/2017 panadol 500 mg tableta x 50 unid. gsk caja envase 2 1.50 3.00
8/11/2017 agua cielo sin gas x 625ml 1 1.00 1.00
8/11/2017 pañal babysec sueltos xg 1 0.80 0.80
8/11/2017 agua cielo sin gas x 625ml 2 1.00 2.00
8/11/2017 toalla ladysoft ultradelgada x 8 1 3.50 3.50
8/11/2017 dorixina relax 125 mg + 5 mg comprimido recubie 1 3.00 3.00
8/11/2017 dolomax plus tableta recubierta x 100 unid. medi 2 1.50 3.00
8/11/2017 agua cielo sin gas x 625ml 1 1.00 1.00
8/11/2017 h&s limpieza x 18ml 1 1.00 1.00
8/11/2017 dobrix 100 mg cápsula x 100 unid. siegfried caja 1 1.00 1.00
8/11/2017 zafin 325 mg + 37.5 mg comprimido recubierto x 7 2 2.50 5.00
8/11/2017 agua san mateo x 600ml 1 1.50 1.50
8/11/2017 dentito crema chicle x 90 gr 1 3.00 3.00
8/11/2017 dentito cepillo galaxy 1 2.00 2.00
8/11/2017 jabon bea orange 1 2.00 2.00
8/11/2017 papel noble morado x 2 2 0.70 1.40
8/11/2017 naproxeno 550 mg tableta x 100 unid. induquimica 4 0.50 2.00
8/11/2017 cureband 5 0.10 0.50
8/11/2017 ponds clarant seca sachet x 20 2 1.00 2.00
8/11/2017 venda elastica 3" x 5 yd 2 1.50 3.00
8/11/2017 droxilar 500 mg cápsula x 48 unid. siegfried caja 6 3.00 18.00
8/11/2017 brimodin 200 mg granulos para suspensión oral x 5 2.00 10.00
8/11/2017 agua cielo sin gas x 625ml 3 1.00 3.00
8/11/2017 cefadroxilo 500 mg tableta recubierta x 100 unid. 1 1.00 1.00
8/11/2017 doloaproxol dual forte 50 mg + 500 mg comprimid 1 1.00 1.00
8/11/2017 alcohol 96 x 120ml 2 1.50 3.00
8/11/2017 ponds clarant grasa sachet x 20 4 1.00 4.00
8/11/2017 kolynos cepillo master 2 2.50 5.00
8/11/2017 kolynos crema herbal x 90 gr 2 2.50 5.00
TOTAL 1,034.90
FECHA PRODUCTO CANTIDAD PRECIO IMPORTE
8/12/2017 naproxeno x 550 mg farmaindustria 1 0.50 0.50
8/12/2017 pregnon pastilla del dia siguiente 2 13.00 26.00
8/12/2017 varimine comprimidos 1 2.50 2.50
8/12/2017 penetro caramelos 1 0.80 0.80
8/12/2017 test de embarazo en tira baby test 3 5.00 15.00
8/12/2017 cotidian pañal adulto x unidad 1 2.50 2.50
8/12/2017 crema blanqueadora sachet portugal 1 1.00 1.00
8/12/2017 repelente floresta x sachet 1 1.50 1.50
8/12/2017 nosotras natural normales alas x10t 1 3.50 3.50
8/12/2017 endgrip forte x 100 tab del farma 1 1.50 1.50
8/12/2017 bactrin forte x100 com roche 1 1.50 1.50
8/12/2017 naproxeno x 550 mg farmaindustria 4 0.50 2.00
8/12/2017 clorfenamina unitomas 2 1.00 2.00
8/12/2017 asepxia jabon 1 9.50 9.50
8/12/2017 jeringa tuberculina x 1ml 1 0.50 0.50
8/12/2017 piel preservativo 1 3.50 3.50
8/12/2017 calcio mas vitamina d caja x 30 tabs 6 0.70 4.20
8/12/2017 alostal acid alendronico x 700 mg 1 3.00 3.00
8/12/2017 curitas cure band 1 0.10 0.10
8/12/2017 clinda c 300mg capsulas 6 1.50 9.00
8/12/2017 concha de nacar crema x18 gr 1 3.50 3.50
8/12/2017 kolinos herbal x 90gr 2 3.00 6.00
8/12/2017 sedal shampo sachetxx10ml 1 0.80 0.80
8/12/2017 rejuvenece plus p sachets color fuccia 3 1.00 3.00
8/12/2017 biobroncol x 50 cap iqfarma 1 2.50 2.50
8/12/2017 nosotras invisible clasica tela x 10 toallas 1 4.00 4.00
8/12/2017 ibuprofeno tabx400mg farmaindustria 5 0.20 1.00
8/12/2017 paracetamol tabltas x 500mg 10 0.10 1.00
8/12/2017 novalgese x 10 mg 1 1.00 1.00
8/12/2017 nastizol compositum junior tab bago 2 0.70 1.40
8/12/2017 bactrin forte x100 com roche 1 1.50 1.50
8/12/2017 doxiciclina hiclato tab x 100mg medrock 2 0.50 1.00
8/12/2017 mantequilla cacaox barra portugal 1 0.30 0.30
8/12/2017 babysec x u talla m 3 0.60 1.80
8/12/2017 dento gel crema dental x 90 gr 1 2.00 2.00
8/12/2017 hys x 90 ml 1 5.00 5.00
8/12/2017 doxiciclina hiclato tab x 100mg medrock 15 0.50 7.50
8/12/2017 pampers rn 1 11.00 11.00
8/12/2017 uren forte tab 5 1.50 7.50
8/12/2017 doloteralgex relax tab x 100 5 1.50 7.50
8/12/2017 doloteralgex rapid x 50mg/300mg tab 1 1.50 1.50
8/12/2017 tibex 1 20.00 20.00
8/12/2017 pregnon pastilla del dia siguiente 2 13.00 26.00
8/12/2017 gingisona b pastillas 1 2.50 2.50
8/12/2017 gents condones 2 3.50 7.00
8/12/2017 biobroncol x 50 cap iqfarma 2 2.50 5.00
8/12/2017 aspirina forte tabletas 5 1.50 7.50
8/12/2017 dibrolax 5mg farmaindustria 5 1.50 7.50
8/12/2017 trioval tabletas nf tabletas saval 2 1.50 3.00
8/12/2017 curitas cure band 5 0.10 0.50
8/12/2017 azitromac 500mg 1 2.50 2.50
8/12/2017 dexametazona x 0.5 mg 1 0.50 0.50
8/12/2017 novalgese x 10 mg 14 1.00 14.00
8/12/2017 tapsin dia y noche 2 2.00 4.00
8/12/2017 atorvastatina x 20 mg farmaindustria 1 1.00 1.00
8/12/2017 panadol niños en pastilla 6 0.70 4.20
8/12/2017 pregnon pastilla del dia siguiente 1 13.00 13.00
8/12/2017 dermosol ecram 70 sachet blanco 1 2.50 2.50
8/12/2017 paracetamol tabltas x 500mg 10 0.10 1.00
8/12/2017 gorros tipo gusano 1 0.50 0.50
8/12/2017 jabon carbolico con bolsa 1 1.50 1.50
8/12/2017 bactrin forte x100 com roche 2 1.50 3.00
8/12/2017 foralit 100 2 1.00 2.00
8/12/2017 babysesc talla xg x u 3 0.80 2.40
8/12/2017 bactrin forte x100 com roche 2 1.50 3.00
8/12/2017 foralit 100 2 1.00 2.00
8/12/2017 alostal acid alendronico x 700 mg 1 3.00 3.00
8/12/2017 pregnon pastilla del dia siguiente 1 13.00 13.00
8/12/2017 enterol tab 100mg bios 1 1.00 1.00
8/12/2017 bactrin forte x100 com roche 1 1.50 1.50
8/12/2017 clorfenamina tab x 4mg medrock 15 1.00 15.00
8/12/2017 aciclovir crema 5% x5gr 1 4.50 4.50
8/12/2017 naproxeno x 550 mg farmaindustria 4 0.50 2.00
8/12/2017 crol desodorante rollonx 50 ml 1 7.00 7.00
8/12/2017 dibrolax 5mg farmaindustria 3 1.50 4.50
8/12/2017 chao x 100 tabletas genolab 2 1.50 3.00
8/12/2017 tapsin dia y noche 1 2.00 2.00
8/12/2017 floril 0,03% gotas x 8ml 1 10.00 10.00
8/12/2017 cuajo verde sobre 4 1.00 4.00
8/12/2017 cloroalergan 4mg sanitas 5 1.00 5.00
8/12/2017 vitathon cap unidades farmaindustria 2 1.50 3.00
8/12/2017 chao x 100 tabletas genolab 1 1.50 1.50
8/12/2017 tioctan plus tabletas 2 1.50 3.00
8/12/2017 bactrin forte x100 com roche 2 1.50 3.00
8/12/2017 foralit 100 1 1.00 1.00
8/12/2017 cefabroncol x 60 cap 2 2.00 4.00
8/12/2017 quemiciclina 2 1.50 3.00
8/12/2017 rexona men des x 150 ml spray 1 12.40 12.40
8/12/2017 dove rollon x 50ml 1 8.50 8.50
8/12/2017 apronax tab x550mg 12 2.00 24.00
8/12/2017 repriman 500mg tab quilab 1 1.00 1.00
8/12/2017 coluquim100mg susp x 60ml 1 32.00 32.00
8/12/2017 broncophar unitomas 2 1.00 2.00
8/12/2017 ibuprofeno tabx400mg farmaindustria 5 0.20 1.00
8/12/2017 novalgese x 10 mg 1 1.00 1.00
8/12/2017 ibuprofeno tabx400mg farmaindustria 5 0.20 1.00
8/12/2017 pregnon pastilla del dia siguiente 1 13.00 13.00
8/12/2017 albendazol 100mg susp 20ml farmaindustria 1 4.50 4.50
8/12/2017 papel noble 2 1.50 3.00
8/12/2017 paracetamol tabltas x 500mg 22 0.10 2.20
8/12/2017 enjoy condones 1 3.00 3.00
8/12/2017 cepillo colgate premier clearadulto 1 2.50 2.50
8/12/2017 camay x90g 1 1.50 1.50
8/12/2017 clorfenamina tab x 4mg medrock 10 0.20 2.00
8/12/2017 ibuprofeno tabx400mg farmaindustria 10 0.20 2.00
8/12/2017 endgrip forte x 100 tab del farma 1 1.50 1.50
8/12/2017 levonogestrel x 0.75 mg x 50 tab 1 10.00 10.00
8/12/2017 paracetamol tabltas x 500mg 10 0.10 1.00
8/12/2017 levonogestrel x 0.75 mg x 50 tab 1 10.00 10.00
8/12/2017 enterophar unitoma 2 1.00 2.00
8/12/2017 floresta jabon x 100g 1 3.00 3.00
8/12/2017 lindiol 1.5 mg x 1tab 1 15.00 15.00
8/12/2017 doxiciclina hiclato tab x 100mg medrock 5 0.50 2.50
8/12/2017 uren forte tab 3 1.50 4.50
8/12/2017 nastiflu tab sanitas 2 1.50 3.00
8/12/2017 doxiciclina hiclato tab x 100mg medrock 2 0.50 1.00
8/12/2017 agua florida x 270 ml 1 8.50 8.50
8/12/2017 doloral gotas 1 11.90 11.90
8/12/2017 piel preservativo 1 3.50 3.50
8/12/2017 always normal x 8toallas rosado 1 4.00 4.00
8/12/2017 naproxeno x 550 mg farmaindustria 2 0.50 1.00
8/12/2017 chao x 100 tabletas genolab 2 1.50 3.00
8/12/2017 prednisona tab x 5mg f 2 0.50 1.00
8/12/2017 kitadol tab teva 1 1.50 1.50
8/12/2017 hys x 400ml frasco 1 17.00 17.00
8/12/2017 dexametasona 4mg/2ml ampolla 1 1.50 1.50
8/12/2017 ladysoft nocturna 5 4.50 22.50
8/12/2017 naprodel x 550 mg 1 1.50 1.50
8/12/2017 babysec talla gx 58 u 1 0.70 0.70
8/12/2017 caramelos buck 1 0.50 0.50
8/12/2017 quemiciclina 2 1.50 3.00
8/12/2017 ponds sachets 4 1.00 4.00
8/12/2017 mantequilla cacaox barra portugal 3 0.30 0.90
8/12/2017 sulfa24 tab bios 1 1.50 1.50
8/12/2017 cielo x625ml 1 1.00 1.00
8/12/2017 urodixil extra forte sanitas 1 1.50 1.50
8/12/2017 transamin 250 mg cápsula x 12 unid. eurofarma per 4 6.00 24.00
8/12/2017 pañal babysec chico x 26 und 1 12.00 12.00
8/12/2017 urobiotic forte 400 mg + 100 mg cápsula x 100 unid 2 1.50 3.00
8/12/2017 dolomarket forte 50 mg + 500 mg tableta recubiert 1 2.00 2.00
8/12/2017 cetriler 5 ml comp rec x 100 1 3.00 3.00
8/12/2017 miofedrol relax plus comprimido recubierto x 100 3 1.70 5.10
8/12/2017 urobiotic forte 400 mg + 100 mg cápsula x 100 unid 2 1.50 3.00
8/12/2017 agua cielo sin gas x 625ml 1 1.00 1.00
8/12/2017 panadol antigripal nf tableta x 100 unid. gsk caja 12 2.30 27.60
8/12/2017 medicortil solución medifarma caja frasco gotero 4 12.00 48.00
8/12/2017 supositorio de glicerina niños 1 0.50 0.50
8/12/2017 bikonor 5 mg tableta de liberación retardada x 100 4 1.00 4.00
8/12/2017 electroral pediatrico sabor a fresa solución medi 1 11.00 11.00
8/12/2017 enterogermina 2000 millones (2 millardos)/5 solu 2 3.50 7.00
TOTAL 802.30
FECHA PRODUCTO CANTIDAD PRECIO IMPORTE
8/13/2017 aguja hipodermica 18gx11/2 nipro 12 0.20 2.40
8/13/2017 medginol cx28tab 1 9.00 9.00
8/13/2017 aspirina 100 mg x 140 tab bayer 3 0.50 1.50
8/13/2017 lady speed stick des sachet v y m 1 1.00 1.00
8/13/2017 nosotras natural normales alas x10t 1 3.50 3.50
8/13/2017 eritromicina tabx500mg 3 1.00 3.00
8/13/2017 doloteralgex rapid x 50mg/300mg tab 3 1.50 4.50
8/13/2017 penetro caramelos 2 0.80 1.60
8/13/2017 caramelos buck 1 0.50 0.50
8/13/2017 paracetamol tabltas x 500mg 30 0.20 6.00
8/13/2017 kotex 10 u mas 2 1 3.50 3.50
8/13/2017 gripa c junior tab 2 0.70 1.40
8/13/2017 panadol antigripal nf tab gsk 1 2.00 2.00
8/13/2017 tapsin dia y noche 2 2.00 4.00
8/13/2017 urotan - d x100 caps 4 2.00 8.00
8/13/2017 gents condones 1 3.50 3.50
8/13/2017 celecoxib tab x 200mg medrock 2 0.50 1.00
8/13/2017 orfenadrina 100mg x 100 tab 2 1.00 2.00
8/13/2017 pregnon pastilla del dia siguiente 1 13.00 13.00
8/13/2017 uren forte tab 2 1.50 3.00
8/13/2017 celecoxib tab x 200mg medrock 4 0.50 2.00
8/13/2017 orfenadrina 100mg x 100 tab 4 1.00 4.00
8/13/2017 diclofenaco gel 1% 1 6.00 6.00
8/13/2017 cepillo dento adultos 3 2.00 6.00
8/13/2017 frasco para analisis blanco 1 1.00 1.00
8/13/2017 plidan compuestio roemmers 2 1.50 3.00
8/13/2017 celecoxib tab x 200mg medrock 2 0.50 1.00
8/13/2017 orfenadrina 100mg x 100 tab 2 1.00 2.00
8/13/2017 nastizol compositum junior tab bago 2 0.70 1.40
8/13/2017 sildennafilo x 100mg x1tab marfan 3 3.00 9.00
8/13/2017 cetirizina tab x 10mg farmaindustria 3 0.30 0.90
8/13/2017 quemiciclina 2 1.50 3.00
8/13/2017 orfenadrina 100mg x 100 tab 2 1.00 2.00
8/13/2017 novagrip antigripal 2 1.00 2.00
8/13/2017 quemiciclina 3 1.50 4.50
8/13/2017 clorfenamina 10mg/1ml amp labot 1 2.50 2.50
8/13/2017 migradorixina tab 2 2.00 4.00
8/13/2017 dove jab x 90g 1 3.50 3.50
8/13/2017 migradorixina tab 1 2.00 2.00
8/13/2017 ibuprofeno tabx400mg farmaindustria 10 0.20 2.00
8/13/2017 cetirizina tab x 10mg farmaindustria 10 0.30 3.00
8/13/2017 tintura de valeriana x30ml oscus 1 1.50 1.50
8/13/2017 bahia super block x 55 sachet 2 2.50 5.00
8/13/2017 diclofenaco 75mg/3ml amp labot 1 1.00 1.00
8/13/2017 jeringa 5mcc 12 0.50 6.00
8/13/2017 gasa 1mt x 10cm 1 0.80 0.80
8/13/2017 alcohol purode 96° x 60 mlalkofarma 1 1.00 1.00
8/13/2017 aspirador nasal tuinies 1 9.50 9.50
8/13/2017 aspirina x 500 mg bayer 5 0.80 4.00
8/13/2017 agua oxigenada x 60 ml 1 1.00 1.00
8/13/2017 clinda c 300mg capsulas 3 1.50 4.50
8/13/2017 paltomiel jbe .inf x125mg 1 19.50 19.50
8/13/2017 framidex nf 2,5ml gotas lansier 2 10.00 20.00
8/13/2017 omepral cap medco 1 2.00 2.00
8/13/2017 clorfenamina tab x 4mg medrock 5 0.20 1.00
8/13/2017 azitromac 500mg 1 2.50 2.50
8/13/2017 dove jab x 90g 6 3.50 21.00
8/13/2017 kolinos herbal x 90gr 1 3.00 3.00
8/13/2017 cepillo pro 2x 1 1 4.50 4.50
8/13/2017 jabon heno de pravia x 150 gr 2 4.00 8.00
8/13/2017 novagrip antigripal 2 1.00 2.00
8/13/2017 prednisona tab 20mg quilab 2 0.50 1.00
8/13/2017 naproxeno tabx550mg 2 0.50 1.00
8/13/2017 test de embarazo en tira baby test 1 5.00 5.00
8/13/2017 lindiol 1.5 mg x 1tab 1 15.00 15.00
8/13/2017 orfenadrina 100mg x 100 tab 3 1.00 3.00
8/13/2017 celecoxib tab x 200mg medrock 1 0.50 0.50
8/13/2017 celecoxib tab x 200mg medrock 6 0.50 3.00
8/13/2017 orfenadrina 100mg x 100 tab 12 1.50 18.00
8/13/2017 bahia super block x 55 sachet 1 2.50 2.50
8/13/2017 ibuprofeno tabx400mg farmaindustria 5 0.20 1.00
8/13/2017 dexametazona x 0.5 mg 2 0.50 1.00
8/13/2017 electrolaiyg x 800 ml 1 3.50 3.50
8/13/2017 ibuprofeno tabx400mg farmaindustria 5 0.20 1.00
8/13/2017 plidan compuestio roemmers 1 1.50 1.50
8/13/2017 bactrin forte x100 com roche 3 1.50 4.50
8/13/2017 foralit 100 3 1.00 3.00
8/13/2017 electroral adultos nfx1000ml 1 12.00 12.00
8/13/2017 aneurin ampx 1000/3ml 1 19.50 19.50
8/13/2017 floratil polvo 1 3.50 3.50
8/13/2017 bactrin forte x100 com roche 1 1.50 1.50
8/13/2017 nastizol compositum junior tab bago 2 0.70 1.40
8/13/2017 frasco para analisis blanco 1 1.00 1.00
8/13/2017 caramelos buck 1 0.50 0.50
8/13/2017 nosotras invisible clasica tela x 10 toallas 3 4.00 12.00
8/13/2017 sildennafilo x 100mg x1tab marfan 1 3.00 3.00
8/13/2017 naproxeno tabx550mg 2 0.50 1.00
8/13/2017 albendazol tabx200mg 6 0.50 3.00
8/13/2017 dolopres forte 2 1.00 2.00
8/13/2017 aflaxil275 mg tab 1 1.00 1.00
8/13/2017 mantequilla cacaox barra portugal 3 0.30 0.90
8/13/2017 ceftriaxon terbol 1 13.00 13.00
8/13/2017 diclofenaco 75mg/3ml amp labot 1 1.00 1.00
8/13/2017 jeringa
donamed 10cc
f 2bendic con/aguja
mg tableta x 100 unid. medifarma caja 1 0.70 0.70
8/13/2017 envase blister tabletas (en01906) 1 1.50 1.50
panadol antigripal nf tableta x 100 unid. gsk caja
8/13/2017 donamed
envase blisterf 2800
mgtabletas
tableta(e20318) 4 2.30 9.20
exazol forte mg + 160x 100 unid. medifarma
mg comprimido x 100caja
8/13/2017 envase blister tabletas (en01906)
unid. andreu caja envase blister comprimidos 2 1.00 2.00
8/13/2017 (n25036)
dolo benalgin forte tableta con cubierta entérica x 2 1.50 3.00
8/13/2017 20 unid. lusa caja envase blister tabletas (n26538) 2 2.50 5.00
8/13/2017 kolynos crema blanco x 25 gr 1 1.50 1.50
8/13/2017 kolynos cepillo master 1 2.50 2.50
8/13/2017 protex jabon limpieza profunda x 75 gr 1 2.50 2.50
8/13/2017 sedal sh+ac ceramidas 2 1.00 2.00
8/13/2017 suave papel rindemax naranja x 2 2 1.00 2.00
8/13/2017 lactulosa
sildenafilo3.33100mgg/5 tab x1
ml solución oral farmindustria 10 2.50 25.00
8/13/2017 frasco x 100 ml (en00247) 3 11.00 33.00
8/13/2017 amoxicilina
ketorolaco 10 500mgcapsulas
tableta xx 100
100 unid. naturgen caja 21 0.30 6.30
8/13/2017 envase
clinomin solución para(ng3166)
blister tabletas inyección unidas del peru 9 0.30 2.70
8/13/2017 vial x 1 ml (e20775) 1 15.00 15.00
pamezone 40 40 mg cápsula gastrorresistente x 28
8/13/2017 jeringa 3 ml+aguja
unid. roemmers 21envase
caja x 1 1/2blister tabletas 1 0.50 0.50
8/13/2017 (e20896)
flatuzym cápsula x 100 unid. iq farma caja envase 1 5.50 5.50
8/13/2017 blister tabletas (n26017) 1 1.50 1.50
dorixina relax 125 mg + 5 mg comprimido
8/13/2017 johnson
recubierto aceite
x 100x 300ml
unid. roemmers caja envase blister 1 23.00 23.00
8/13/2017 comprimidos (e10848) 1 3.00 3.00
8/13/2017 quemacuran
evadol 500 mg l pomada
cápsula xinti
104tubo
unid.x 30
tevag (e19204)
caja envase 1 13.00 13.00
8/13/2017 blister tabletas (n24641)
dextro lusa 33.3 % solución para inyección x 25 24 2.10 50.40
8/13/2017 unid. lusa caja ampolla x 20 ml (n587) 1 3.00 3.00
8/13/2017 jeringa
vitacose20ml+aguja
inyectable 21 x 1 ampolla
albis 1/2 x 2 ml + 1 1.00 1.00
8/13/2017 accesorios (n19404)
vitacose inyectable albis ampolla x 2 ml + 1 15.00 15.00
8/13/2017 accesorios
dextro lusa(n19404)
33.3 % solución para inyección x 25 1 15.00 15.00
8/13/2017 unid. lusa caja ampolla x 20 ml (n587) 5 3.00 15.00
8/13/2017 jeringa 20ml+aguja 21 x 1 1/2 1 1.00 1.00
8/13/2017 panadol forte tab x 24 sobres 1 2.00 2.00
8/13/2017 reumafrost crema x 100 gr 1 13.00 13.00
plidan compuesto nf comprimido recubierto x 100
8/13/2017 aguja descartable caja
unid. roe1mmers 23g envase
x1 blister comprimidos 2 0.20 0.40
8/13/2017 (e10971)
quemiciclina 1 1.30 1.30
doloaproxol dual forte 50 mg +x500
s 125 mg tableta 100mg unid. teva caja
comprimido
8/13/2017 envase blister tabletas (n25489)
recubierto x 400 unid. markos caja envase blister 2 1.00 2.00
8/13/2017 comprimidos
cefalexina 500(n19093)
mg cápsula x 100 unid. farmindustria 5 1.00 5.00
8/13/2017 caja
naproxeno 550 mg tabletas
envase blister tableta x(ng4488)
100 unid. induquimica 2 1.00 2.00
8/13/2017 caja envase blister tabletas (en01486) 2 0.50 1.00
8/13/2017 baby test50
vodravol tiras
mgx tableta
1 x 100 unid. vita pharma caja 1 5.00 5.00
8/13/2017 envase blister tabletas (n24107) 6 1.00 6.00
8/13/2017 espasmosedil
donamed f 2 mg tabletas
tableta x 100 unid. medifarma caja 1 1.00 1.00
8/13/2017 envase blister tabletas
dolo benalgin forte tableta (en01906)
con cubierta entérica x 1 1.50 1.50
8/13/2017 20 unid. lusa caja envase blister tabletas (n26538) 2 2.40 4.80
8/13/2017 hugguies talla xxg (por unidad) 5 1.00 5.00
8/13/2017 hugguies x 48 1 9.00 9.00
8/13/2017 chao 1 1.50 1.50
8/13/2017 dolodran (diclofenaco + paracetamol) (gg) 12 1.00 12.00
8/13/2017 frasco para muestra de orina 1 1.00 1.00
8/13/2017 vick z 2 2.00 4.00
8/13/2017 tioctan plus 2 2.00 4.00
8/13/2017 baby sec talla xg (unidad) 6 0.75 4.50
8/13/2017 eritromicina 500 mg farmindustria 2 1.00 2.00
8/13/2017 sulfametoxazol 800 + tmp farmindustria 2 0.50 1.00
8/13/2017 dolodran (diclofenaco + paracetamol) (gg) 2 1.00 2.00
8/13/2017 voltaren emulgel 1% (diclofenaco) 2 22.00 44.00
8/13/2017 shick extreme 3 1 3.00 3.00
8/13/2017 generade 1 2.00 2.00
8/13/2017 dolomeloxic (meloxicam + paracetamol) 1 2.00 2.00
8/13/2017 dolodran (diclofenaco + paracetamol) (gg) 1 1.00 1.00
8/13/2017 odontobiotic 1 2.50 2.50
8/13/2017 dolodran (diclofenaco + paracetamol) (gg) 1 1.00 1.00
8/13/2017 kitadol migraña 1 2.00 2.00
8/13/2017 plidan compuesto 12 2.00 24.00
8/13/2017 amoxicilina 250 mg iq farma 1 0.50 0.50
8/13/2017 papel suave papel higienico 2 1.00 2.00
8/13/2017 aspirina forte tb 1 1.50 1.50
8/13/2017 colmar relax (paracetamol + orfenadrina) (gg) 1 2.00 2.00
8/13/2017 dolodran (diclofenaco + paracetamol) (gg) 1 1.00 1.00
8/13/2017 dayflu antigripal (gg) 1 2.00 2.00
8/13/2017 dolodran (diclofenaco + paracetamol) (gg) 1 1.00 1.00
8/13/2017 prednisona 5000 mg farmindustria 2 1.00 2.00
8/13/2017 dolodran (diclofenaco + paracetamol) (gg) 4 1.00 4.00
8/13/2017 eritromicina 500 mg farmindustria 6 1.00 6.00
TOTAL 853.10
FECHA PRODUCTO CANTIDAD PRECIO IMPORTE
8/14/2017 mantequilla de cacao x 100 1 0.50 0.50
8/14/2017 jabon protex complete b 12 x 75 gr 1 2.50 2.50
8/14/2017 suave papel rindemax naranja x 2 2 1.00 2.00
8/14/2017 aguja descartable 21g x 1 1/2 1 0.20 0.20
8/14/2017 peine pescado 1 0.50 0.50
8/14/2017 vaso descartable 2 0.10 0.20
8/14/2017 pañuelos desechables elite x 10 1 0.50 0.50
8/14/2017 huggies pañal suelto xg 5 1.00 5.00
8/14/2017 dolo benalgin forte tableta con cubierta 1 2.40 2.40
8/14/2017 urobiotic forte 400 mg + 100 mg cápsula x 1 1.50 1.50
8/14/2017 doloaproxol dual forte 50 mg + 500 mg c 1 1.00 1.00
8/14/2017 mantequilla de cacao x 100 1 0.30 0.30
8/14/2017 plenitud pañal x 10 1 4.00 4.00
8/14/2017 peine pescado 1 0.50 0.50
8/14/2017 kolynos cepillo master 1 2.50 2.50
8/14/2017 kolynos crema blanco x 25 gr 1 1.50 1.50
8/14/2017 h&s suave manejable x 18ml 1 1.00 1.00
8/14/2017 papel noble morado x 2 2 0.70 1.40
8/14/2017 jabon bea grape 1 1.60 1.60
8/14/2017 glidiabet 5 mg comprimido x 100 unid. al 3 1.20 3.60
8/14/2017 tetraciclina 500 mg tableta x 100 unid. n 3 0.30 0.90
8/14/2017 vaso descartable 1 0.10 0.10
8/14/2017 suave papel rindemax naranja x 2 2 1.00 2.00
8/14/2017 labopan 0.5 mg tableta x 100 unid. keyfa 1 1.00 1.00
8/14/2017 schick 3 hojas xtreme 1 3.50 3.50
8/14/2017 suave papel rindemax naranja x 2 1 1.00 1.00
8/14/2017 frasco simple 1 1.00 1.00
8/14/2017 medicortil solución medifarma caja fra 1 12.00 12.00
8/14/2017 pañal cotidian clasico m sueltos 2 2.00 4.00
8/14/2017 papel noble morado x 2 1 0.70 0.70
8/14/2017 pañal babysec sueltos g 2 0.70 1.40
8/14/2017 pañal babysec sueltos g 1 0.70 0.70
8/14/2017 pañal babysec g x 62 1 35.00 35.00
8/14/2017 bencilpenicilina benzatinica 1 200 000 ui 1 3.00 3.00
8/14/2017 agua esteril para inyeccion solución pa 1 0.50 0.50
8/14/2017 jeringa 10ml+aguja 21 x 1 1/2 1 0.60 0.60
8/14/2017 aguja descartable 21g x 1 1/2 1 0.20 0.20
8/14/2017 nitaxid 500 mg tableta recubierta x 6 uni 6 4.00 24.00
8/14/2017 betametasona crema 0.05% farmindustri 1 3.00 3.00
8/14/2017 vaso descartable 1 12.90 12.90
8/14/2017 doxiciclina 100 mg cápsula x 100 unid. na 3 0.50 1.50
8/14/2017 pañal cotidian clasico m sueltos 2 2.00 4.00
8/14/2017 dolo benalgin forte tableta con cubierta 5 2.40 12.00
8/14/2017 pasuma nf 50 mg tableta recubierta x 10 u 1 4.00 4.00
8/14/2017 agua san luis sin gas x 500ml 1 1.00 1.00
8/14/2017 cuajo azul marschall x 100 sobres 1 1.00 1.00
8/14/2017 sorbamin 30 nf con electrolitos solució 2 130.00 260.00
8/14/2017 cloranfenicol 500 mg cápsula x 100 unid. 5 0.80 4.00
8/14/2017 alcohol 96 x 60 ml 1 1.00 1.00
8/14/2017 equipo venoclisis 2 2.50 5.00
8/14/2017 pañal cotidian clasico g sueltos 4 2.50 10.00
8/14/2017 clavutrim cl 500mg/125mg tab x 10 6 3.00 18.00
8/14/2017 ceftrex 1 g polvo para solución inyectabl 2 14.00 28.00
8/14/2017 jeringa 5ml+aguja 21 x 1 1/2 2 0.50 1.00
8/14/2017 gentamicina 160 mg x 10 1 2.00 2.00
8/14/2017 esomeprazol 40 mg tab x 30 14 1.50 21.00
8/14/2017 aguja descartable 20g x 1 1/2 2 0.20 0.40
8/14/2017 cuajo verde hansen x 100 sobres 3 1.00 3.00
8/14/2017 bahia faces color spf90 sobres x 20 1 2.50 2.50
8/14/2017 ciprofloxacino 500 mg farmindustria 3 0.33 0.99
8/14/2017 diclofenaco 50 mg tb iq farma 3 0.50 1.50
8/14/2017 dexametasona 4 mg tb 3 0.50 1.50
8/14/2017 trioval nf tableta (gg) 1 2.00 2.00
8/14/2017 clamoval 500 mg + 125 mg tableta recubie 1 3.00 3.00
8/14/2017 agua cielo sin gas x 625ml 1 1.00 1.00
8/14/2017 dolo benalgin forte tableta con cubierta 2 2.50 5.00
8/14/2017 jeringa 1ml+aguja 26gx12 1 0.50 0.50
8/14/2017 fluconazol 150 mg tableta x 100 unid. na 2 1.00 2.00
8/14/2017 losartan 50 mg tableta recubierta x 30 un 3 0.30 0.90
8/14/2017 pañal babysec sueltos xg 1 0.80 0.80
8/14/2017 flatuzym cápsula x 100 unid. iq farma ca 2 1.00 2.00
8/14/2017 metoclopramida 10 mg tableta x 100 unid. 4 0.30 1.20
8/14/2017 frasco simple 1 0.80 0.80
8/14/2017 agua cielo sin gas x 625ml 1 1.00 1.00
8/14/2017 clavoxilin plus 875 mg + 125 mg comprim 3 6.50 19.50
8/14/2017 fre tee limonx 500ml 3 1.50 4.50
8/14/2017 lincoplus 500 mg cápsula x 60 unid. medi 1 2.50 2.50
8/14/2017 zafin 325 mg + 37.5 mg comprimido recub 2 2.00 4.00
8/14/2017 doloaproxol dual forte 50 mg + 500 mg c 2 1.00 2.00
8/14/2017 mantequilla de cacao x 100 3 0.30 0.90
8/14/2017 ab broncol nf 1200 polvo para suspensió 1 21.00 21.00
8/14/2017 diclofenaco ampolla 1 1.00 1.00
8/14/2017 jeringa 10ml+aguja 21 x 1 1/2 1 0.60 0.60
8/14/2017 aguja descartable 21g 1 0.20 0.20
8/14/2017 johnson hilo expansion plus x 50mt 1 8.00 8.00
8/14/2017 schick ultrabarba x 1 1 1.50 1.50
8/14/2017 agua
suavesan luisrindemax
papel sin gas x 1lt
verde rosado x2 1 2.50 2.50
8/14/2017 2 1.10 2.20
8/14/2017 mantequilla de cacao x 100 1 0.30 0.30
8/14/2017 sporade tropical x 475ml 1 2.00 2.00
8/14/2017 medicortil solución medifarma caja fra 1 12.00 12.00
8/14/2017 panadol forte tab x 24 sobres 2 2.00 4.00
8/14/2017 mantequilla de cacao x 100 3 0.30 0.90
8/14/2017 vodravol 50 mg tableta x 100 unid. vita 1 1.00 1.00
8/14/2017 aquarius pera x 500ml 1 1.70 1.70
8/14/2017 condon sensation pun fresx3 3 1.00 3.00
8/14/2017 papel noble morado x 2 2 0.70 1.40
8/14/2017 ryna del 5 mg tableta recubierta x 100 un 2 2.00 4.00
8/14/2017 doloaproxol dual forte 50 mg + 500 mg c 2 1.00 2.00
8/14/2017 cefadroxilo 500 mg tableta recubierta x 1 1.00 1.00
8/14/2017 doloaproxol dual forte 50 mg + 500 mg c 1 1.00 1.00
8/14/2017 furazolidona 100 mg tableta x 100 unid. 1 0.50 0.50
8/14/2017 exazol forte 800 mg + 160 mg comprimido 1 1.50 1.50
8/14/2017 toall humedas hugg onex48 1 9.50 9.50
8/14/2017 betametasona crema 0.05% farmindustri 1 3.00 3.00
8/14/2017 alcohol 96 x 1 lt 2 7.50 15.00
8/14/2017 huggies pañal suelto m 1 0.80 0.80
8/14/2017 jabon johnson baby avena x 75 gr 1 2.50 2.50
8/14/2017 johnson sachet amarillo x 24 1 0.70 0.70
8/14/2017 dentito cepillo galaxy 1 2.00 2.00
8/14/2017 peine pescado 1 0.50 0.50
8/14/2017 kolynos crema blanco x 25 gr 1 1.50 1.50
8/14/2017 power multifrutas x 473ml 1 2.00 2.00
8/14/2017 papel noble morado x 2 2 0.70 1.40
8/14/2017 toallas ladysoft normal sueltas 2 0.50 1.00
8/14/2017 biliox cápsula x 100 unid. iq farma caja 1 1.50 1.50
8/14/2017 dolomax plus tableta recubierta x 20 un 1 1.50 1.50
8/14/2017 toall humedas hugg onex48 1 9.50 9.50
8/14/2017 huggies pañal recien nacido x 20 1 10.00 10.00
8/14/2017 cuajo verde hansen x 100 sobres 2 1.00 2.00
8/14/2017 plenitud pañal x 10 1 4.00 4.00
8/14/2017 huggies pañal recien nacido x 20 2 10.00 20.00
8/14/2017 toall humedas hugg onex48 1 9.50 9.50
8/14/2017 suave papel rindemax naranja x 2 1 1.00 1.00
8/14/2017 frasco simple 1 1.00 1.00
8/14/2017 aguja descartable 20g x 1 1/2 4 0.20 0.80
8/14/2017 dento cepillo medio 1 2.50 2.50
8/14/2017 colgate cepillo premier 2 2.50 5.00
8/14/2017 corta uña grande 1 2.50 2.50
8/14/2017 pañal babysec m x 22 und 3 12.00 36.00
8/14/2017 miofedrol relax plus comprimido recubi 3 1.70 5.10
8/14/2017 mejoral 500 mg + 30 mg tableta x 200 uni 4 0.30 1.20
8/14/2017 miofedrol relax plus comprimido recubi 3 1.70 5.10
8/14/2017 urobiotic forte 400 mg + 100 mg cápsula x 2 1.50 3.00
8/14/2017 doloparamidol 25 mg + 500 mg tableta rec 2 1.00 2.00
8/14/2017 sedal shampoo duo x 350 ml 2 15.00 30.00
8/14/2017 jabon dove delicious karite x 90 gr 1 3.50 3.50
8/14/2017 electrolight naranja x 475ml 2 2.00 4.00
8/14/2017 agua cielo sin gas x 625ml 1 1.00 1.00
8/14/2017 schick 3 hojas xtreme 4 3.00 12.00
8/14/2017 plidan compuesto nf comprimido recubi 9 1.30 11.70
8/14/2017 estomaliv fco x 30ml 2 1.50 3.00
8/14/2017 panadol antigripal nf tableta x 100 unid. 2 2.30 4.60
TOTAL 883.39
FECHA PRODUCTO CANTIDAD PRECIO IMPORTE
8/15/2017 kolynos crema herbal x 90 gr 1 2.50 2.50
8/15/2017 kolynos cepillo master 1 2.50 2.50
8/15/2017 h&s limpieza x 18ml 6 1.00 6.00
8/15/2017 vaso descartable 2 1.00 2.00
8/15/2017 diclofenaco
ketoprofenoampolla
100 mg/2 ml inyectable x 6 1 1.00 1.00
8/15/2017 unid. genfar vial (eg1813) 1 3.00 3.00
8/15/2017 gentamicina 160 mg x 10 2 2.00 4.00
8/15/2017 jeringa 10ml+aguja 21 x 1 1/2 1 0.60 0.60
8/15/2017 doloaproxol dual forte
aguja descartable 21g 50 mg + 500 mg 2 0.20 0.40
comprimido recubierto x 400 unid.
8/15/2017 doloral
markos suspencion
caja envase xblister
60 ml comprimidos 1 13.00 13.00
cefalexina 500 mg cápsula x 100 unid.
8/15/2017 (n19093)
farmindustria caja envase blister tabletas 5 1.00 5.00
8/15/2017 (ng4488) 5 0.50 2.50
8/15/2017 huggies pañal suelto xxg 2 1.10 2.20
8/15/2017 pañal babysec g x 62 1 35.00 35.00
dolomax plus tableta recubierta x 100
8/15/2017 bismutol tabletascaja
unid. medifarma x80envase blister 2 1.30 2.60
8/15/2017 tabletas (en02654) 2 1.50 3.00
carbamazepina 200 mg tableta x 200
8/15/2017 papel noble
unid. teva morado
caja envasex 2blister tabletas 1 0.70 0.70
8/15/2017 (en00996) 50 0.20 10.00
8/15/2017 jeringa 1ml+aguja 26gx12 1 0.50 0.50
8/15/2017 ism360 x 250ml 1 2.50 2.50
8/15/2017 immuvit plus q 10 cap x 30 1 2.00 2.00
8/15/2017 cotidian toalla multiuso x 10 1 3.80 3.80
8/15/2017 toallas kotex normal tela x 10 6 3.50 21.00
8/15/2017 alcohol
panadol 96 x 120mlnf tableta x 100 unid.
antigripal 1 1.50 1.50
carbamazepina 200 mg tableta x 200
8/15/2017 gsk caja
unid. tevaenvase blister blister
tabletas (e20318) 1 2.30 2.30
ryna del 5 caja envase
mg tableta tabletas
recubierta x 100
8/15/2017 (en00996)
unid. delfarma caja envase blister 35 0.20 7.00
8/15/2017 tabletas (n26181) 2 2.00 4.00
8/15/2017 pañal babysec sueltos g 2 0.70 1.40
8/15/2017 toallas
tusilexilkotex
gotasnormal tela xfrasco
roemmers 10 x 25 ml 1 3.50 3.50
8/15/2017 (e15371) 1 30.00 30.00
miofedrol relax plus comprimido
8/15/2017 cuajo azul marschall
recubierto x 100 unid.x 100 sobres
markos caja x 120 2 1.00 2.00
apronax 550 mg tableta recubierta
8/15/2017 envase blister
unid. bayer comprimidos
caja envase blister(n22404)
tabletas 1 2.00 2.00
8/15/2017 (en01992) 1 2.00 2.00
8/15/2017 schick 3 hojas xtreme 5 3.00 15.00
8/15/2017 cefasabal polvo x 400 gr 1 58.00 58.00
8/15/2017 tuinies biberon transparente x 4oz 1 8.50 8.50
8/15/2017 pañal cotidian clasico g sueltos 3 2.50 7.50
8/15/2017 power multifrutas x 473ml 1 2.00 2.00
8/15/2017 infectrin 200mg/4 mg x 60ml 1 13.00 13.00
8/15/2017 huggies pañal suelto xg 2 1.00 2.00
labopan 0.5 mg tableta x 100 unid.
8/15/2017 mantequilla
keyfarm cajade cacaoblister
envase x 100 tabletas 3 0.30 0.90
8/15/2017 (n20543) 1 1.00 1.00
dia plus 1.5 mg tableta jc.robri caja
8/15/2017 envase blister tabletas (ee00494) 1 15.00 15.00
8/15/2017 violeta
tinizol genciana
ovulo x 30 ml hersil caja
x 100 1 2.00 2.00
exazol forte 800 mgunid.
+ 160 mg
8/15/2017 envase blisterx ovulos
comprimido (e22066) caja 2 3.30 6.60
donalab 2 2 mg tableta xandreu
100 unid. 100 unid. vita
8/15/2017 envase
pharmablister comprimidos
caja envase (n25036)
blister tabletas 1 1.50 1.50
8/15/2017 (en00930) 1 1.00 1.00
8/15/2017 vaso descartable 2 0.10 0.20
8/15/2017 doloaproxol
bahia faces spf90dual forte
sobres 50xmg20 + 500 mg 1 2.50 2.50
comprimido recubierto x 400 unid.
8/15/2017 toall
markoshumedas
caja babysec x 60comprimidos 1 6.00 6.00
cipromax 500envase blister
mg comprimido recubierto
8/15/2017 (n19093)
x 100 unid. markos caja envase blister 2 1.00 2.00
8/15/2017 comprimidos (en19517) 2 2.20 4.40
8/15/2017 prostal capsulas x 100 2 2.20 4.40
8/15/2017 sporade tropical x 475ml 1 2.00 2.00
8/15/2017 mantequilla de cacao x 100 3 0.30 0.90
exazol forte 800 mg + 160 mg
8/15/2017 vaso descartable
comprimido x 100 unid.xandreu cajavita 1 0.10 0.10
vodravol 50 mg tableta 100 unid.
8/15/2017 envase blister comprimidos
pharma caja envase blister tabletas (n25036) 1 1.50 1.50
8/15/2017 (n24107)
panadol 500 mg tableta x 50 unid. gsk 5 1.00 5.00
8/15/2017 caja envase blister tabletas (e14831) 1 1.50 1.50
azo baccidal 500 mg + 100 mg tableta
8/15/2017 asepxia
recubierta toallitas unid.
x 10 e.s.c. pharmed caja 1 10.00 10.00
pasuma nf x50100 mg tableta recubierta x 10
8/15/2017 envase blister
unid. inti tabletasblister
caja envase (n24313)
tabletas 5 2.00 10.00
8/15/2017 (ee02332) 1 4.00 4.00
8/15/2017 hojas de bisturi nº 11 2 0.50 1.00
8/15/2017 frasco simple 1 1.00 1.00
8/15/2017 h&s limpieza x 18ml 1 1.00 1.00
8/15/2017 guantes esteriles 7 12 1.50 18.00
8/15/2017 aquarius manzana x 500ml 1 1.70 1.70
8/15/2017 aquarius naranja x 500ml 1 1.70 1.70
8/15/2017 pañal babysec sueltos xg 4 0.80 3.20
8/15/2017 frasco vidrio 1 2.00 2.00
8/15/2017 babytest
dia plus 1.5x cassette
mgmg tableta 1 8.00 8.00
ketorolaco 10 tabletajc.robri caja
x 100 unid.
8/15/2017 envase
naturgen blister
caja tabletas (ee00494) 1 15.00 15.00
quilxib 200 mgenvase
cápsulablister
x 100tabletas
unid.
8/15/2017 (ng3166)
quimica suiza caja envase blister tabletas 1 0.30 0.30
agua esteril para inyeccion solución para
8/15/2017 (n22553)
inyección x 100 unid. pharmagen caja 4 1.50 6.00
8/15/2017 ampolla x 5 ml (ee01600) 1 0.50 0.50
8/15/2017 jeringa 10ml+aguja 21 x 1 1/2 1 0.60 0.60
rapiler 5 mg tableta recubierta x 100
8/15/2017 aguja descartable
unid. teva 21g xblister
caja envase 1 1/2tabletas 1 0.20 0.20
8/15/2017 (n22013) 2 3.50 7.00
doloparamidol 25 mg + 500 mg tableta
8/15/2017 condon
recubiertasensation
x 200 anillosx3 3 1.00 3.00
dicloxacilina 500 unid. markosx caja
mg cápsula envase
100 unid.
8/15/2017 blister tabletas (n22554)
naturgen caja envase folio cápsulas 1 1.00 1.00
8/15/2017 (en02864) 1 0.40 0.40
8/15/2017 crema blanqueadora faz sobres x 20 1 1.00 1.00
ab broncol nf 600 polvo liofilizado para
8/15/2017 kolynos
solución crema blanco
inyectable x 25 gr caja vial +
medifarma 2 1.50 3.00
dexametasona 4 mg/2 ml solución
8/15/2017 solvente
inyectable x 5x 100
ml (n25384)
unid. labot caja ampolla 1 20.00 20.00
8/15/2017 x 2ml (ee01141) 3 1.00 3.00
8/15/2017 jeringa 10ml+aguja 21 x 1 1/2 1 0.60 0.60
quilxib 200 mg cápsula x 100 unid.
8/15/2017 aguja
quimicadescartable
suiza caja 23g x 1 blister tabletas
envase 3 0.20 0.60
8/15/2017 (n22553) 2 1.50 3.00
agua esteril para inyeccion solución para
8/15/2017 alcohol
inyección 96xx100
120mlunid. pharmagen caja 1 1.50 1.50
8/15/2017 ampolla x 5 ml (ee01600) 2 0.50 1.00
8/15/2017 papel elite doble hoja x 2 7 0.90 6.30
8/15/2017 bahia kids spf50 sobres x 20 1 2.00 2.00
8/15/2017 ism360 x 250ml polvo efervescente x 100
sal de andrews 2 2.50 5.00
8/15/2017 unid. medifarma caja sobre (n4133) 1 0.50 0.50
8/15/2017 jeringa 20ml+aguja 21 x 1 1/2 1 1.00 1.00
8/15/2017 jabon carbolico campeon 2 2.00 4.00
8/15/2017 papel elite doble hoja x 2 4 0.90 3.60
8/15/2017 agua cielo sin gas x 625ml 1 1.00 1.00
8/15/2017 violeta genciana x 30 ml 1 1.50 1.50
8/15/2017 bahia
panadol faces
500color spf90 sobres
mg tableta x 20gsk
x 50xunid. 4 2.50 10.00
isoprinosine 500 mg tableta 24 unid.
8/15/2017 caja
lukollenvase blisterblister
caja envase tabletas (e14831)
tabletas 1 1.50 1.50
8/15/2017 (n21607) 1 3.40 3.40
8/15/2017 ponds clarant100
paracetamol grasa sachet
mg/ml x 20
solución 4 1.00 4.00
8/15/2017 portugal frasco x 10 ml (en00670) 1 1.50 1.50
urobiotic forte 400 mg 50
+ 100
mg mg cápsula
8/15/2017 doloaproxol
bolsa
xcomprimido
dual
100 descartable
unid. siegfried
forte
de caja
0.20envase + 500 mg
blister 6 0.20 1.20
recubierto x 400 unid.
8/15/2017 tabletas (n19955)
markos caja envase blister comprimidos 2 2.00 4.00
8/15/2017 (n19093) 2 1.00 2.00
8/15/2017 sline limon x 500ml 4 1.20 4.80
8/15/2017 pañal plenitud x 10 1 4.00 4.00
8/15/2017 aguja descartable 20g x 1 1/2 2 0.20 0.40
8/15/2017 guantes esteriles 7 1 1.50 1.50
8/15/2017 kolynos crema herbal x 90 gr 1 2.50 2.50
8/15/2017 jabon dove exfoliacion suave x 90 gr 4 3.50 14.00
8/15/2017 h&s limpieza x 18ml 1 1.00 1.00
8/15/2017 peine grande 1 1.00 1.00
8/15/2017 dento cepillo medio 2 2.50 5.00
8/15/2017 jeringa 5ml+aguja 21 x 1 1/2 1 0.50 0.50
8/15/2017 nylon azul
flogoral 5-0tableta
3 mg tc 25 x 50 unid. lukoll caja 5 6.00 30.00
8/15/2017 sobre x 4 tabletas (e22770) 4 0.80 3.20
8/15/2017 vaso descartable 2 0.10 0.20
8/15/2017 agua san luis sin gas x 625ml 1 1.30 1.30
8/15/2017 gasa esteril 10 x 10 x 5 4 2.00 8.00
nisoprex 20 mg comprimido x 100 unid.
8/15/2017 algodón
elifarma sterilab x 25 blister
gr 1 1.50 1.50
benalgin caja
1000envase
solución paracomprimidos
inyección
8/15/2017 (en00218)
lusa caja ampolla x 2 ml + accesorios 6 2.20 13.20
8/15/2017 (n19779) 4 15.00 60.00
8/15/2017 agua san luis sin gas x 1lt 1 2.50 2.50
8/15/2017 aguja descartable
panadol 20g x 1x 1/2
500 mg tableta 50 unid. gsk 1 0.20 0.20
8/15/2017 caja envase blister tabletas (e14831) 10 1.50 15.00
doprox 550 mg comprimido x 100 unid.
andreu caja envase blister comprimidos
8/15/2017 (n17538) 8 1.50 12.00
8/15/2017 aguja descartable 18g x 1 1/2 1 0.20 0.20
8/15/2017 alcohol purode 96° x 60 mlalkofarma 2 1.00 2.00
8/15/2017 aspirador nasal tuinies 1 9.50 9.50
8/15/2017 aspirina x 500 mg bayer 5 0.80 4.00
8/15/2017 agua oxigenada x 60 ml 1 1.00 1.00
8/15/2017 clinda c 300mg capsulas 3 1.50 4.50
8/15/2017 paltomiel jbe .inf x125mg 1 19.50 19.50
8/15/2017 framidex nf 2,5ml gotas lansier 2 10.00 20.00
8/15/2017 omepral cap medco 1 2.00 2.00
8/15/2017 clorfenamina tab x 4mg medrock 5 0.20 1.00
8/15/2017 azitromac 500mg 1 2.50 2.50
8/15/2017 dove jab x 90g 6 3.50 21.00
8/15/2017 kolinos herbal x 90gr 1 3.00 3.00
8/15/2017 cepillo pro 2x 1 1 4.50 4.50
8/15/2017 jabon heno de pravia x 150 gr 2 4.00 8.00
8/15/2017 novagrip antigripal 6 1.00 6.00
8/15/2017 prednisona tab 20mg quilab 2 0.50 1.00
8/15/2017 doloral gotas 1 11.90 11.90
8/15/2017 piel preservativo 2 3.50 7.00
8/15/2017 always normal x 8toallas rosado 1 4.00 4.00
8/15/2017 naproxeno x 550 mg farmaindustria 2 0.50 1.00
8/15/2017 chao x 100 tabletas genolab 3 1.50 4.50
8/15/2017 prednisona tab x 5mg f 2 0.50 1.00
8/15/2017 kitadol tab teva 1 1.50 1.50
8/15/2017 hys x 400ml frasco 2 17.00 34.00
8/15/2017 dexametasona 4mg/2ml ampolla 1 1.50 1.50
8/15/2017 ladysoft nocturna 2 4.50 9.00
8/15/2017 naprodel x 550 mg 1 1.50 1.50
8/15/2017 babysec talla gx 58 u 2 0.70 1.40
8/15/2017 caramelos buck 1 0.50 0.50
8/15/2017 quemiciclina 2 1.50 3.00
8/15/2017 ponds sachets 4 1.00 4.00
8/15/2017 mantequilla cacaox barra portugal 3 0.30 0.90
8/15/2017 sulfa24 tab bios 1 1.50 1.50
8/15/2017 cielo x625ml 1 1.00 1.00
8/15/2017 urodixil extra forte sanitas 10 1.50 15.00
TOTAL 923.50
FECHA droxilar 500 mg cápsula PRODUCTO caja CANTIDAD PRECIO IMPORTE
doloaproxol dual forte 50x mg 48 unid.
+ 500siegfried
mg
8/16/2017 envase
comprimidoblister capsulas (en01223) 1 3.00 3.00
pamezone 40recubierto
40 mg cápsulax 400gastrorresistente
unid. markos cajax
8/16/2017 envase
28 unid.blister
roemmerscomprimidos
caja envase (n19093)
blister tabletas 1 1.00 1.00
8/16/2017 (e20896)
clorfenamina maleato 2 mg/5 ml jarabe 10 5.00 50.00
8/16/2017 portugal caja frasco x 60 ml (ng2815) 1 4.00 4.00
8/16/2017 papel noble verde x 2 3 0.60 1.80
8/16/2017 corega sin sabor x 20 gr 1 26.00 26.00
8/16/2017 mantequilla de cacao x 100 3 0.30 0.90
escopolamina butil bromuro 10 mg tableta x
8/16/2017 pañal babysec
100 unid. xg x 52 caja envase blister
induquimica 1 35.00 35.00
8/16/2017 tabletas
flatuzym(en03734)
cápsula x 100 unid. iq farma caja 1 1.00 1.00
8/16/2017 envase blister tabletas (n26017) 1 1.00 1.00
8/16/2017 cureband 10 0.10 1.00
8/16/2017 pañal babysec g x 18 1 12.00 12.00
8/16/2017 agua san luis con gas x 625ml 1 1.30 1.30
8/16/2017 pañal babysec m x 72 1 35.00 35.00
8/16/2017 sildenafilo 100mg tab x 1 10 2.50 25.00
8/16/2017 bronco amoxiclin 500 mg tab x 100 1 1.00 1.00
8/16/2017 nastizol
ryna junior tabletasrecubierta
x 150 4 0.80 3.20
zafin del
3255mg mg+tableta
37.5 mg comprimido x 100 unid.
recubierto
8/16/2017 delfarma
70 unid.caja
xescopolamina envase
farmaval blister
caja envase tabletas (n26181) 1 2.00 2.00
butil bromuro 10 blister
mg tableta x
8/16/2017 comprimidos
100 (e18957) caja envase blister
unid. induquimica 2 2.50 5.00
ab broncol nf 600 polvo liofilizado para solución
8/16/2017 tabletas
inyectable (en03734)
medifarma caja vial + solvente x 5 ml 2 1.00 2.00
8/16/2017 (n25384) 1 21.00 21.00
8/16/2017 jeringa 10ml+aguja 21 x 1 1/2 1 0.60 0.60
cipromax 500 mg comprimido recubierto x 100
8/16/2017 aguja
unid. descartable
markos 21g x 1 blister
cajaforte
envase 1/2 comprimidos 1 0.40 0.40
doloaproxol dual 50 mg + 500 mg
8/16/2017 (en19517)
comprimido recubierto x 400 unid. markos caja 2 2.20 4.40
8/16/2017 envase blister comprimidos (n19093) 2 1.00 2.00
8/16/2017 pañal babysec g x 62 1 35.00 35.00
8/16/2017 pañal babysec g x 62 1 35.00 35.00
8/16/2017 toall humedas hugg
broncopulmoxil onex48
cápsula x 100 unid. markos caja 1 9.50 9.50
8/16/2017 envase blistermg
loratadina tabletas (n23389) 3 1.50 4.50
doloaproxol10dual tableta
forte 50xmg 100+ unid.
500 mg naturgen
8/16/2017 caja envase blister
comprimido tabletas
recubierto x 400(ng6371)
unid. markos caja 3 0.30 0.90
8/16/2017 envase blister comprimidos (n19093) 3 1.00 3.00
8/16/2017 suave papel rindemax naranja x 2 1 1.00 1.00
8/16/2017 pañal babysec g x 18 1 12.00 12.00
8/16/2017 panadol forte tab x 24 sobres 2 2.00 4.00
8/16/2017 esika talco momentos x 140 gr 1 13.00 13.00
8/16/2017 venda elastica
ketorolaco 10 mg2" xtableta
5 yd x 100 unid. naturgen 1 1.00 1.00
8/16/2017 caja envase
vodravol 50 blister tabletas
mg tableta x 100 (ng3166)
unid. vita pharma 6 0.30 1.80
8/16/2017 caja envase blister tabletas (n24107) 1 1.00 1.00
miofedrol relax solución para inyección x 2
8/16/2017 papel noble morado
unid. markos x 2 x 3 ml + ampolla x 2
caja ampolla 2 0.70 1.40
8/16/2017 ml (e21355) 1 13.00 13.00
exazol forte 800 mg + 160 mg comprimido x 100
8/16/2017 jeringa 10ml+aguja
unid. andreu 21 x 1blister
caja envase 1/2 comprimidos 1 0.60 0.60
8/16/2017 (n25036) 4 1.50 6.00
donalab 2 2 mg tableta x 100 unid. vita pharma
8/16/2017 caja envase160
gentagram blister
mg/2tabletas (en00930)
ml solución inyectable 4 1.00 4.00
8/16/2017 lusa caja ampolla x 1 ml (en00730) 1 20.00 20.00
8/16/2017 jeringa 5ml+aguja 21 x 1 1/2 2 0.50 1.00
8/16/2017 estomaliv fco x 30ml 1 1.50 1.50
8/16/2017 cetriler 5 ml comp rec x 100 4 3.50 14.00
cefadroxilo 500 mg tableta recubierta x 100
8/16/2017 dexametasona 4 mgcaja
unid. farmindustria tab envase
x 100 blister 1 0.50 0.50
8/16/2017 comprimidos (ng3452) 2 1.00 2.00
8/16/2017 toallas kotex teens x 10 1 3.50 3.50
8/16/2017 cuajo azul marschall x 100 sobres 5 1.00 5.00
8/16/2017 cetriler 5 ml comp rec x 100 4 3.50 14.00
8/16/2017 bronco amoxiclin 500 mg tab x 100 4 1.00 4.00
miofedrol relax plus comprimido recubierto x
8/16/2017 esika
100 colonia
unid. comando
markos caja aromaxblister
envase x 100ml 1 14.00 14.00
exazol forte 800 mg + 160 mg comprimido x 100
8/16/2017 comprimidos (n22404)
unid. andreu caja envase blister comprimidos 2 1.70 3.40
8/16/2017 (n25036)
furazolidona 100 mg tableta x 100 unid. 2 1.50 3.00
8/16/2017 naturgen
flatuzym caja envase
cápsula blister
x 100 unid.tabletas
iq farma(en00265)
caja 2 0.50 1.00
8/16/2017 envase blister tabletas (n26017)
mejoral 500 mg + 30 mg tableta x 200 unid. 10 0.90 9.00
8/16/2017 medifarma caja envase blister tabletas (n759) 100 0.30 30.00
8/16/2017 nastiflux 60 sobres
aspirina 500 mg tableta x 100 unid. bayer caja 38 1.30 49.40
8/16/2017 envase blister tabletas (e23170) 10 0.50 5.00
8/16/2017 pañal
azofloxbabysec
400 mg g x50
62mg cápsula x 100 unid. 2 35.00 70.00
doloaproxol dual+ forte 50 mg + 500 mg
8/16/2017 hersil caja envase
comprimido blisterxtabletas
recubierto 400 unid. (n20155)
markos caja 2 2.00 4.00
8/16/2017 envase blister comprimidos (n19093) 2 1.00 2.00
8/16/2017 corta uña grande 1 2.50 2.50
8/16/2017 jabon protex complete b 12 x 75 gr 1 2.50 2.50
dolo benalgin forte tableta con cubierta
8/16/2017 cuajo azul
entérica marschall
x 20 x 100
unid. lusa cajasobres
envase blister 2 1.00 2.00
8/16/2017 tabletas (n26538) 4 2.40 9.60
8/16/2017 betametasona
apronax 550 mgcrema tableta0.05% farmindustria
recubierta x 120 unid. 2 3.00 6.00
8/16/2017 bayer caja envase blister tabletas (en01992) 6 2.00 12.00
8/16/2017 dexametasona 4 mg tab x 100 12 0.50 6.00
8/16/2017 papel suave papel higienico 2 1.00 2.00
8/16/2017 aspirina forte tb 1 1.50 1.50
8/16/2017 colmar relax (paracetamol + orfenadrina) (gg) 4 2.00 8.00
8/16/2017 dolodran (diclofenaco + paracetamol) (gg) 1 1.00 1.00
8/16/2017 dayflu antigripal (gg) 2 2.00 4.00
8/16/2017 dolodran (diclofenaco + paracetamol) (gg) 1 1.00 1.00
8/16/2017 prednisona 5000 mg farmindustria 2 1.00 2.00
8/16/2017 dolodran (diclofenaco + paracetamol) (gg) 4 1.00 4.00
8/16/2017 eritromicina
broncopulmoxil 500 cápsula
mg farmindustria
x 100 unid. markos caja 6 1.00 6.00
8/16/2017 envase blister tabletas (n23389) 3 1.50 4.50
doloaproxol dual forte 50 mg + 500 mg
8/16/2017 dexametasona 4 mg tabxx400
comprimido recubierto 100unid. markos caja 3 0.50 1.50
8/16/2017 envase
panadolblister comprimidos
antigripal nf tableta(n19093)
x 100 unid. gsk 3 1.00 3.00
8/16/2017 caja envase blister tabletas (e20318) 1 2.30 2.30
8/16/2017 babytest x cassette 2 8.00 16.00
8/16/2017 baby test tiras400
norfloxacino x 1mg tableta x 14 unid. genfar 1 5.00 5.00
doloaproxol dual forte 50 mg + 500 mg
8/16/2017 caja envase blister
comprimido tabletas
recubierto (eg646)
x 400 unid. markos caja 3 0.80 2.40
8/16/2017 envase blister comprimidos (n19093) 3 1.20 3.60
8/16/2017 ponds clarant seca sachet x 20 1 1.00 1.00
8/16/2017 bahia faces spf90 sobres x 20 1 2.50 2.50
8/16/2017 mantequilla de cacao x 100 3 0.30 0.90
8/16/2017 vaso descartable 1 0.10 0.10
8/16/2017 bahia faces spf90 sobres x 20 1 2.50 2.50
8/16/2017 mantequilla de cacao x 100 6 0.30 1.80
8/16/2017 toallas kotex normal tela x 10 1 3.50 3.50
8/16/2017 toallas
donalabladysoft
2 2 mg normal
tableta xx 10
100 unid. vita pharma 1 3.50 3.50
8/16/2017 caja envase blister tabletas (en00930) 2 1.00 2.00
dolo benalgin forte tableta con cubierta
8/16/2017 dento herbal
entérica x 180 lusa
x 20 unid. gr+cepillo
caja envase blister 1 5.00 5.00
8/16/2017 tabletas (n26538) 2 2.50 5.00
8/16/2017 dexametasona 4 mg tab x 100 2 0.50 1.00
8/16/2017 colgate cepillo premier 1 2.50 2.50
8/16/2017 pañal babysec g x 18 1 12.00 12.00
8/16/2017 alcohol 96 x 60 ml 1 1.00 1.00
dolomax plus tableta recubierta x 100 unid.
8/16/2017 agua oxigenada
medifarma cajamgx 60ml blister tabletas
envase 1 1.00 1.00
cefalexina 500 cápsula x 100 unid.
8/16/2017 (en02654)
farmindustria caja envase blister tabletas 3 1.50 4.50
8/16/2017 (ng4488) 3 1.00 3.00
8/16/2017 huggies pañal recien nacido x 20 3 10.00 30.00
8/16/2017 toall humedas hugg limpx 48 1 7.50 7.50
8/16/2017 cotidian toalla multiuso x 10 3 4.00 12.00
8/16/2017 condon sensation pun chocx3 2 3.00 6.00
8/16/2017 pantene shampoo cuidaso clasico x 400ml 1 18.00 18.00
TOTAL 877.30
lincoplus 600 mg/2 ml inyectable x 5
FECHA unid. medifarma PRODUCTO
ampolla CANTIDAD PRECIO IMPORTE
dexametasona 4 mg/2 ml xsolución
2 ml
8/17/2017 (n16288)
inyectable x 100 unid. labot caja 1 15.00 15.00
8/17/2017 ampolla x 2ml (ee01141) 1 1.00 1.00
fluconazol 150 mg tableta x 100 unid.
8/17/2017 jeringa
naturgen 5ml+aguja
caja envase 21 xblister
1 1/2 tabletas 1 0.50 0.50
8/17/2017 (ng5260) 1 1.00 1.00
8/17/2017 gasa esteril 10 x 10 x 5 1 2.00 2.00
bencilpenicilina benzatinica 1 200 000
8/17/2017 agua
ui san luis sin gas
polvo para suspensión x 500ml 1 1.00 1.00
dexametasona 4 mg/2 mlinyectable
solución x
8/17/2017 25 unid. dany
inyectable x 100caja viallabot
unid. (ee01636)
caja 1 3.00 3.00
8/17/2017 ampolla x 2ml (ee01141) 1 1.00 1.00
8/17/2017 jeringa 10ml+aguja 21 x 1 1/2 1 0.60 0.60
agua esteril para inyeccion solución
8/17/2017 aguja descartable 21g
para inyección x 100 unid. pharmagen 1 0.20 0.20
enterogermina 2000 millones
8/17/2017 caja ampolla x 5 ml (ee01600) (2 1 0.50 0.50
millardos)/5 solución bebible x 10
8/17/2017 agua
unid. san
sanofiluiscaja
sin gas x 500ml
ampolla x 5 ml 1 1.00 1.00
8/17/2017 (be00409) 4 3.50 14.00
ketorolaco 10 mg tableta x 100 unid.
8/17/2017 jeringa
naturgen 10ml+aguja
caja envase 21 x 1 1/2 5 0.60 3.00
panadol antigripal nf blister
tabletatabletas
x 100
8/17/2017 (ng3166)
unid. gsk caja 150
envase blister tabletas 2 0.30 0.60
depo provera
doloaproxol dual mg/ml
forte 50 suspensión
mg + 500 mg
8/17/2017 (e20318)
para inyección pfizer caja vialunid.
x 1 ml 1 2.30 2.30
comprimido recubierto x 400
8/17/2017 (e2507)
markos caja envase blister 1 30.00 30.00
8/17/2017 comprimidos (n19093) 2 1.00 2.00
8/17/2017 jeringa 3 ml+aguja 21 x 1 1/2 1 0.40 0.40
8/17/2017 aguja descartable 21g 1 0.20 0.20
8/17/2017 sedal sh+ac ceramidas 1 1.00 1.00
8/17/2017 tuinies protector lactancia x 12 1 7.00 7.00
alexcef 500 mg comprimido recubierto
8/17/2017 pañal huggies
x 96 unid. sueltocaja
siegfried g envase blister 6 0.90 5.40
8/17/2017 comprimidos (e22551) 2 2.00 4.00
8/17/2017 ism360 x 250ml 1 2.50 2.50
8/17/2017 schick 3 hojas xtreme
sitiderm nf crema medifarma caja 1 3.00 3.00
8/17/2017 tubo x 10 g (n27200) 1 8.00 8.00
8/17/2017 lipsaliv naranja 1 4.00 4.00
dexametasona 4 mg/2 ml solución
8/17/2017 jeringa 10ml+aguja
inyectable x 100 unid. 21 labot
x 1 1/2 caja 1 0.60 0.60
8/17/2017 ampolla x 2ml (ee01141) 1 1.00 1.00
8/17/2017 agua san luis sin gas x 500ml 1 1.00 1.00
dicloxacilina 500 mg cápsula x 100
8/17/2017 pañal
unid. huggies suelto
naturgen xg
caja recubierta
envase folio 5 1.00 5.00
letizia 5 mg tableta
doloaproxol dual forte 50 mg +x500
10 mg
8/17/2017 cápsulas
unid. (en02864)
iq farma caja envase blister 1 0.40 0.40
comprimido recubierto x 400 unid.
8/17/2017 tabletas
markos (n25649)
caja envase blister 1 4.50 4.50
dexametasona 4 mg/2 ml solución
8/17/2017 comprimidos
inyectable (n19093)
x 100 unid. labot 1caja 2 1.00 2.00
bencilpenicilina benzatinica 200 000
8/17/2017 ampolla x 2mlsuspensión
ui polvo para (ee01141) inyectable x 1 1.00 1.00
8/17/2017 25 unid. dany caja vial (ee01636) 1 3.00 3.00
agua esteril para inyeccion solución
8/17/2017 jeringa
para 10ml+aguja
inyección 21 x
x 100 unid. 1 1/2
pharmagen 1 0.60 0.60
bikonor 5 mgdual
doloaproxol tableta
fortede50liberación
mg + 500 mg
8/17/2017 caja ampolla
retardada x 5 unid.
x 100 ml (ee01600)
nordic 1 0.50 0.50
comprimido recubierto x 400caja
unid.
8/17/2017 envase
markos blister tabletas
caja envase (e22350)
blister 2 1.00 2.00
8/17/2017 comprimidos
dia plus 1.5 mg (n19093)
tableta jc.robri caja 20 0.70 14.00
8/17/2017 dolo
envaseneurobion forte dc(ee00494)
blister tabletas solución 1 12.00 12.00
inyectable x 3 unid. merck caja jeringa
8/17/2017 pañal huggies
prellenada doblesuelto xg x 3 ml +
cámara 1 1.00 1.00
8/17/2017 accesorio (ee03297) 1 34.00 34.00
exazol forte 800 mg + 160 mg
8/17/2017 condon
comprimidosensation anillosx3 3 1.00 3.00
furazolidona x100 100mg unid. andreu
tableta caja
x 100
8/17/2017 envase blister comprimidos
unid. naturgen caja envase blister (n25036) 1 1.50 1.50
8/17/2017 tabletas (en00265) 1 0.50 0.50
8/17/2017 papel elite doble hoja x 2 2 0.90 1.80
8/17/2017 pañal plenitud x 10 1 3.80 3.80
8/17/2017 jabon bea lemmon 1 2.00 2.00
8/17/2017 peine pescado 1 0.50 0.50
8/17/2017 kolynos crema blanco x 25 gr 1 1.50 1.50
urofurin 100dual mg tableta
forte 50x mg120+unid. iq
8/17/2017 doloaproxol
colgate
farma cepillo
caja envasepremier
blister
500 mg
tabletas 1 2.50 2.50
comprimido recubierto x 400 unid.
8/17/2017 (en01957)
markos 1 2.00 2.00
panadolcaja envasenfblister
antigripal tableta x 100
8/17/2017 comprimidos
unid. gsk caja (n19093)
envase blister 1 1.00 1.00
donalab 2 2 mg tableta x 100tabletas
unid. vita
8/17/2017 (e20318)
pharma caja envase blister tabletas 1 2.30 2.30
8/17/2017 (en00930)
neo silenai 40pediatrico jarabe elifarma 1 1.00 1.00
pantocalm mg tableta de liberación
8/17/2017 caja frasco x 120 ml (en01050)
retardada x 14 unid. iq farma caja 1 27.00 27.00
8/17/2017 envase
flatuzymblister tabletas
cápsula x 100(n26979)
unid. iq farma 1 3.30 3.30
8/17/2017 caja envase blister tabletas (n26017) 1 1.00 1.00
8/17/2017 frasco simple 1 1.00 1.00
8/17/2017 frasco simple 1 1.00 1.00
8/17/2017 agua san luis sin gas x 500ml 1 1.00 1.00
ab broncol nf 600 polvo liofilizado
8/17/2017 warmi capsulas
para solución x 90
inyectable medifarma 13 1.30 16.90
8/17/2017 caja vial + solvente x 5 ml (n25384) 1 23.00 23.00
8/17/2017 papel elite doble hoja x 2 6 0.90 5.40
8/17/2017 papel elite plus x 2 4 1.20 4.80
8/17/2017 agua san luis sin gas x 625ml 1 1.30 1.30
8/17/2017 frasco simple 1 1.00 1.00
8/17/2017 peine pescado 1 0.50 0.50
8/17/2017 aguja descartable 20g x 1 1/2 1 0.20 0.20
dexametasona 4 mg/2 ml solución
8/17/2017 schick 2 hojas
inyectable x 100exacta
unid. labot 1caja 1 2.50 2.50
bencilpenicilina benzatinica 200 000
8/17/2017 ampolla x 2ml (ee01141)
ui polvo para suspensión inyectable x 2 1.00 2.00
8/17/2017 25 unid. dany caja vial (ee01636) 1 3.00 3.00
8/17/2017 vaso descartable
flatuzym cápsula x 100 unid. iq farma 4 0.10 0.40
8/17/2017 caja envase blister tabletas (n26017) 1 1.00 1.00
8/17/2017 condon sensation liso x 3 3 1.00 3.00
8/17/2017 pañal babysec chico x 26 und 1 12.00 12.00
8/17/2017 pañal cotidian clasico m x 8 1 15.00 15.00
8/17/2017 pañal
eliton babysec
forte jarabeg x 62elifarma frasco x 1 35.00 35.00
8/17/2017 340 ml + accesorio (en02670) 1 32.00 32.00
sal de andrews polvo efervescente x
8/17/2017 paracetamol
100 unid. 500 mg caja
medifarma tab xsobre
100 10 0.10 1.00
sal de andrews polvo efervescente x
8/17/2017 (n4133)
100 unid.500medifarma cajarecubierta
sobre 6 0.50 3.00
cipronor mg tableta x
8/17/2017 (n4133)
100 unid.1000
nordicsolución
caja envase 3 0.50 1.50
benalgin para blister
inyección
8/17/2017 tabletas (e18757)
lusa caja ampolla x 2 ml + accesorios 6 1.50 9.00
8/17/2017 (n19779) 1 15.00 15.00
8/17/2017 baby test tiras x 1 1 5.00 5.00
8/17/2017 pañal cotidian clasico g x 8 1 16.00 16.00
8/17/2017 prostal capsulas x 100 1 2.20 2.20
8/17/2017 toallas kotex normal tela x 10 1 3.50 3.50
8/17/2017 amoxicilina 500 capsulas x 100 10 0.30 3.00
dolomax plus tableta recubierta x 100
8/17/2017 baby
unid. test tiras x 1caja envase blister
medifarma 1 5.00 5.00
8/17/2017 tabletas (en02654) 2 1.50 3.00
8/17/2017 pañal cotidian clasico g sueltos 1 2.50 2.50
8/17/2017 tuinies biberon transparente x 8oz 1 10.50 10.50
dolomax plus tableta recubierta x 100
8/17/2017 condon
unid. sensationcaja
medifarma punenvase
fresx3 blister 3 1.00 3.00
norfloxacino 400 mg tableta recubierta
8/17/2017 tabletas
x 10 unid. (en02654)
medrock caja envase blister 1 1.50 1.50
8/17/2017 tabletas
evacuol (ng2628)
enema medifarma frasco x 1 0.50 0.50
8/17/2017 130 ml (n13702) 1 25.00 25.00
dolomax plus tableta recubierta x 100
8/17/2017 dexametasona
unid. medifarma 4 mg
cajatab x 100blister
envase 2 0.50 1.00
8/17/2017 tabletas (en02654) 2 1.50 3.00
dolomax plus tableta recubierta x 100
8/17/2017 dexametasona
unid. medifarma 4 mg tab x 100blister
cajatableta
envase 1 0.50 0.50
dolo benalgin forte con
8/17/2017 tabletas
cubierta (en02654)
entérica x 20 unid. lusa caja 1 1.50 1.50
8/17/2017 envase blister tabletas (n26538) 12 2.40 28.80
8/17/2017 pañal babysec m xmg/ml
paracetamol 22 undsolución 1 12.00 12.00
nexium 40 mg100 comprimido x 14 unid.
8/17/2017 portugal
astrazeneca frasco
caja x envase
10 ml (en00670)
blister 1 2.00 2.00
plidan compuesto nf comprimido
8/17/2017 comprimidos
recubierto x 100 (e18943)
unid. roe1mmers caja 10 10.00 100.00
8/17/2017 envase blister
flatuzym cápsula comprimidos
x 100 unid.(e10971)
iq farma 6 1.30 7.80
8/17/2017 caja envase blister tabletas (n26017) 15 1.00 15.00
aspirina 500 mg tableta x 100 unid.
8/17/2017 toallas ladysoft
bayer caja envase normal
blisterx 10
tabletas 1 4.50 4.50
8/17/2017 (e23170) 1 0.60 0.60
8/17/2017 suave papel rindemax naranja x 2 2 1.00 2.00
cipronor 500 mg tableta recubierta x
8/17/2017 peine
100 pescado
unid. 1 0.50 0.50
glancin 0.4nordic
0.4 mg caja envase
cápsula deblister
8/17/2017 tabletas
liberación (e18757)
prolongada x 30 unid. nordic 14 1.50 21.00
miofedrol relax plus comprimido
8/17/2017 caja envase blister tabletas
recubierto x 100 unid. markos (e23201)
caja 8 2.00 16.00
8/17/2017 envase blister comprimidos (n22404) 2 1.70 3.40
fluconazol 150 mg tableta x 100 unid.
8/17/2017 jabon neko
naturgen aloe
caja x 75 gr
envase blister tabletas 1 2.50 2.50
8/17/2017 (ng5260)
ibuprofeno 400mg mgtableta
tab x 100 1 1.00 1.00
fluconazol 150 x 100 unid.
8/17/2017 farmindustria
naturgen caja envase blister tabletas 1 0.10 0.10
8/17/2017 (ng5260) 1 1.00 1.00
8/17/2017 lipsaliv uva 1 4.50 4.50
8/17/2017 h&s limpieza x 18ml 2 1.00 2.00
8/17/2017 agua cielo sin gas x 625ml 12 1.00 12.00
8/17/2017 agua vida sin gas x 625 ml 1 1.00 1.00
8/17/2017 vaso descartable 4 0.10 0.40
8/17/2017 frasco simple 1 1.00 1.00
8/17/2017 pañal babysec sueltos xg 1 0.80 0.80
8/17/2017 aguja descartable 20g x 1 1/2 1 0.20 0.20
8/17/2017 dento cepillo medio 1 2.50 2.50
8/17/2017 kolynos crema herbal x 90 gr 1 2.50 2.50
8/17/2017 jabon floresta miel x 100gr 1 2.00 2.00
8/17/2017 bajalenguas sueltas 5 0.20 1.00
dolo benalgin forte tableta con
8/17/2017 vick vaporub
cubierta lata xx 12
entérica 20 gr
unid. lusa caja 1 2.50 2.50
8/17/2017 envase blister tabletas (n26538) 1 2.50 2.50
quemiciclina s 125 mg tableta x 100
8/17/2017 sildenafilo
unid. 100mg
teva caja tab xblister
envase 1 1 3.00 3.00
ab broncol nf 1200 polvo paratabletas
8/17/2017 (n25489)
suspensión inyectable medifarma caja 1 1.00 1.00
8/17/2017 vial + solvente x 5 ml (n25382) 2 21.00 42.00
8/17/2017 panadol forte tab x 24 sobres 1 2.00 2.00
ketorolaco 10 mg tableta x 100 unid.
8/17/2017 schick
naturgen3 hojas xtreme blister tabletas
caja mg
envase 1 3.50 3.50
lincoplus
doloaproxol 500dual cápsula
forte 50 xmg60+unid.
500 mg
8/17/2017 (ng3166)
medifarma caja envase blister tabletas 5 0.50 2.50
comprimido recubierto x 400 unid.
8/17/2017 (n16287)
markos caja envase blister 1 2.50 2.50
8/17/2017 comprimidos (n19093) 1 1.00 1.00
8/17/2017 jeringa 5ml+aguja 21 x 1 1/2 1 0.50 0.50
8/17/2017 aguja descartable 20g x 1 1/2 1 0.20 0.20
8/17/2017 schick 3 hojas xtreme 1 3.00 3.00
8/17/2017 schick
simevetquattro titanium
80 mg/ml suspensión oral 1 4.00 4.00
8/17/2017 portugal frasco x 15 ml (en00702) 1 9.00 9.00
panadol antigripal nf tableta x 100
8/17/2017 colgate
unid. cepillo premier 1 2.50 2.50
dobrixgsk100caja
mgenvase
cápsula blister
x 100tabletas
unid.
8/17/2017 (e20318)
siegfried caja envase blister cápsulas 1 2.30 2.30
8/17/2017 doloaproxol
(en01408) dual forte 50 mg + 500 mg 1 1.00 1.00
comprimido recubierto x 400 unid.
8/17/2017 dexametasona
markos caja envase 4 mgblister
tab x 100 1 0.50 0.50
8/17/2017 comprimidos (n19093) 1 1.00 1.00
8/17/2017 agua oxigenada
huggies pañal p xsueltos
60ml 1 1.00 1.00
8/17/2017 5 0.70 3.50
8/17/2017 gorro enfermera sueltos 1 0.50 0.50
8/17/2017 mascarilla simple sueltos 2 0.50 1.00
miofedrol relax plus comprimido
8/17/2017 frasco simple
recubierto x 100 unid. markos caja 1 1.00 1.00
8/17/2017 envase blister comprimidos (n22404) 2 2.00 4.00
8/17/2017 dento menta natural x 25ml 1 1.50 1.50
8/17/2017 kolynos cepillo master 1 2.50 2.50
8/17/2017 peine pescado 4 0.50 2.00
8/17/2017 jabon johnson baby avena x 75 gr 1 2.50 2.50
exazol forte 800 mg + 160 mg
8/17/2017 mascarilla
comprimido simple sueltos 1 0.50 0.50
donamed f 2xmg 100tableta
unid. andreu caja
x 100 unid.
8/17/2017 envase blister comprimidos (n25036)
medifarma caja envase blister tabletas 3 1.50 4.50
8/17/2017 (en01906) 3 1.00 3.00
8/17/2017 vaso
henodescartable
de pravia jabon x 85 gr 1 137.00 137.00
8/17/2017 doloaproxol dual forte 50 mg + 500 mg 1 3.00 3.00
comprimido recubierto x 400 unid.
8/17/2017 cetriler
markos 5caja
ml envase
comp rec x 100
blister 2 3.00 6.00
dimenhidrinato 50 mg comprimido x
8/17/2017 comprimidos
100 (n19093)
unid. quimica 1 1.00 1.00
cefadroxilo 500 mgsuiza cajarecubierta
tableta envase
8/17/2017 blister comprimidos (ng3022)
x 100 unid. farmindustria caja envase 2 0.50 1.00
8/17/2017 blister comprimidos (ng3452) 1 1.00 1.00
salbuvent expectorante jarabe
8/17/2017 frasco
elifarmasimple
caja frasco x 150 ml 1 1.00 1.00
8/17/2017 (en01334) 1 23.00 23.00
8/17/2017 gasa esteril 10 x 10 x 5 4 2.00 8.00
8/17/2017 aguja descartable 20g x 1 1/2 1 0.20 0.20
8/17/2017 frasco simple 1 1.00 1.00
8/17/2017 cotidian toalla multiuso x 10 1 4.00 4.00
8/17/2017 red bull x 250ml 1 7.00 7.00
8/17/2017 suave papel rindemax naranja x 2 1 1.00 1.00
dolomax plus tableta recubierta x 100
8/17/2017 vaso
unid.descartable
medifarma caja envase blister 1 0.10 0.10
8/17/2017 tabletas (en02654) 2 1.50 3.00
TOTAL 1,089.10
agua esteril para inyeccion solución para inyección
FECHA x 100 unid. pharmagen PRODUCTO
caja ampolla x 5 ml CANTIDAD PRECIO IMPORTE
8/18/2017 (ee01600) 12 0.50 6.00
8/18/2017 jeringa 10ml+aguja 21 x 1 1/2 1 0.60 0.60
8/18/2017 jeringa 5ml+aguja 21 x 1 1/2 7 0.50 3.50
8/18/2017 aguja descartable 21g x 1 1/2
metamizol sodico 1 g/2 ml solución inyectable iv x 1 0.20 0.20
8/18/2017 100 unid. sanderson caja ampolla (eg2005) 1 1.50 1.50
8/18/2017 vaso descartable 2 0.10 0.20
miofedrol relax plus comprimido recubierto x 100
8/18/2017 asepxia jaboncaja
unid. markos azufre x 100blister
envase gr comprimidos 1 10.00 10.00
8/18/2017 (n22404) 1 1.70 1.70
8/18/2017 vaso descartable
panadol antigripal nf tableta x 100 unid. gsk caja 3 0.10 0.30
8/18/2017 envase blister tabletas (e20318) 1 2.30 2.30
8/18/2017 condon sensation
dolo benalgin pun chocx3
solución para inyección lusa caja 3 3.00 9.00
8/18/2017 meloxicam
ampolla i x 1 15mlmg + ampolla
tableta xii100
x 2 unid.
ml (n23586)
naturgen caja 2 21.00 42.00
8/18/2017 envase blister tabletas (ng6196) 1 0.50 0.50
8/18/2017 suero
gorro enfermera
fisiologico 9sueltos
‰ solución para inyección 4 0.50 2.00
8/18/2017 medifarma frasco x 1l (n3169) 1 7.00 7.00
8/18/2017 gasa esteril 10 x 10 x 5 3 2.00 6.00
8/18/2017 cetriler 5 ml comp rec x 100 1 3.00 3.00
8/18/2017 dexametasona 4 mg tab x 100 1 1.00 1.00
8/18/2017 jeringa 5ml+aguja 21 x 1 1/2 12 0.50 6.00
8/18/2017 vaselina sin perfume x 7 gr 1 1.00 1.00
8/18/2017 ponds clarant grasa sachet x 20 1 1.00 1.00
8/18/2017 papel elite ultra morado x 2
loratadina 10 mg tableta x 100 unid. naturgen caja 2 1.20 2.40
8/18/2017 envase blister tabletas (ng6371) 10 0.30 3.00
8/18/2017 agua san luis sin gas x 500ml
vickzzz 50 mg tableta recubierta x 40 unid. teva 1 1.00 1.00
8/18/2017 caja envase blister tabletas (en00769) 1 1.80 1.80
8/18/2017 paracetamol
magal 500 mg tab x 100 1 0.20 0.20
plidan dcompuesto
suspensión nf oral hersil frasco
comprimido x 200 ml
recubierto x 100
8/18/2017 (n18742)
unid. roe1mmers 1 25.00 25.00
ab broncol nf 1200caja envase
polvo parablister comprimidos
suspensión
8/18/2017 (e10971)
inyectable medifarma caja vial + solvente x 5 ml 3 1.30 3.90
8/18/2017 (n25382) 1 21.00 21.00
8/18/2017 jeringa 10ml+aguja 21 x 1 1/2 1 0.60 0.60
8/18/2017 aguja descartable 20g x 1 1/2
enalapril 10 mg tableta x 100 unid. induquimica 1 0.20 0.20
8/18/2017 caja envase blister tabletas (ng2298) 10 0.20 2.00
8/18/2017 schick 3 hojas xtreme 1 3.50 3.50
8/18/2017 plenitud pañal x 10 5 4.00 20.00
8/18/2017 baby test tiras x 1 1 5.00 5.00
8/18/2017 suave papel rindemax naranja x 2 1 1.00 1.00
8/18/2017 papel noble morado x 2 2 0.70 1.40
8/18/2017 bolsa descartable de 0.20 1 0.20 0.20
8/18/2017 agua vida sin gas x 625 ml 2 1.00 2.00
8/18/2017 nivea deso women invisible x 20 1 1.00 1.00
8/18/2017 bolsa descartable
lexflonor de 0.20x 100 unid. novartis caja
750 mg tableta 5 0.20 1.00
8/18/2017 envase blister tabletas (e22325)
fluimax 600 mg tableta efervescente elifarma caja 10 6.00 60.00
8/18/2017 tubo x 10 tabletas (ee02742) 1 32.00 32.00
8/18/2017 dolo meloxic tab x 60 3 1.50 4.50
8/18/2017 toallas ladysoft normal sueltas 1 0.50 0.50
8/18/2017 pañal babysec sueltos m 22 0.50 11.00
8/18/2017 vaso descartable 1 1.00 1.00
8/18/2017 pañal babysec sueltos m 10 0.60 6.00
8/18/2017 dolo meloxic
electroral tab x 60sabor uva solución
pediatrico 4 1.50 6.00
8/18/2017 medifarma frasco x 1 l (n20104)
donamed f 2 mg tableta x 100 unid. medifarma 1 11.00 11.00
8/18/2017 caja envase blister tabletas (en01906) 2 1.00 2.00
8/18/2017 huggies toalla hig onex48 1 9.50 9.50
8/18/2017 huggies toalla limpx 48 3 7.50 22.50
8/18/2017 venda elastica 2" x 5 yd 1 1.00 1.00
8/18/2017 alcohol 96 x 60 ml 1 1.00 1.00
8/18/2017 guantes esteriles 6 1/2 6 1.50 9.00
8/18/2017 bajalenguas sueltas 1 0.20 0.20
8/18/2017 plenitud pañal x 10 6 4.00 24.00
8/18/2017 jabon protex complete b 12 x 75 gr 2 2.50 5.00
8/18/2017 peine pescado 1 0.50 0.50
8/18/2017 papel noble morado x 2 2 0.70 1.40
8/18/2017 vaso descartable 4 0.10 0.40
8/18/2017 kolynos crema blanco x 25 gr 1 1.50 1.50
8/18/2017 h&s limpieza x 18ml 2 1.00 2.00
8/18/2017 kolynos cepillo master 2 2.50 5.00
8/18/2017 vaso descartable 5 0.10 0.50
8/18/2017 pañal cotidian clasico g sueltos 7 2.50 17.50
8/18/2017 pañal cotidian clasico m sueltos 4 2.00 8.00
8/18/2017 plenitud pañal x 10 1 4.00 4.00
8/18/2017 cotidian toalla multiuso x 10 1 4.00 4.00
8/18/2017 aquarius granadilla x 500ml 5 1.70 8.50
8/18/2017 aquarius manzana x 500ml 1 1.70 1.70
8/18/2017 aquarius naranja x 500ml 2 1.70 3.40
8/18/2017 sline limon x 500ml 1 1.20 1.20
8/18/2017 volt botella x 300ml 6 2.00 12.00
8/18/2017 pañal babysec sueltos m 2 0.60 1.20
8/18/2017 bolsa descartable de 0.20 1 0.20 0.20
8/18/2017 pañal babysec sueltos m 22 0.60 13.20
8/18/2017 h&s suave manejable x 18ml 1 1.00 1.00
8/18/2017 droxilar 500 mg cápsula x 48 unid. siegfried caja en 12 3.00 36.00
8/18/2017 brimodin 200 mg granulos para suspensión oral x 30 1 2.00 2.00
8/18/2017 agua cielo sin gas x 625ml 2 1.20 2.40
8/18/2017 cefadroxilo 500 mg tableta recubierta x 100 unid. f 1 1.00 1.00
8/18/2017 doloaproxol dual forte 50 mg + 500 mg comprimido r 1 1.00 1.00
8/18/2017 alcohol 96 x 120ml 2 1.50 3.00
8/18/2017 ponds clarant grasa sachet x 20 5 1.00 5.00
8/18/2017 kolynos cepillo master 4 2.50 10.00
8/18/2017 kolynos crema herbal x 90 gr 1 2.50 2.50
8/18/2017 cetriler 5 ml comp rec x 100 1 3.90 3.90
8/18/2017 cuajo
diagrinazul
flexmarschall x 100
polvo oral x 30sobres
unid. iq farma caja 1 1.00 1.00
8/18/2017 sobre (n25405) 8 3.50 28.00
8/18/2017 calcio+vitamina d x 30 tab rec 10 0.50 5.00
8/18/2017 gasa esteril 10 x 10 x 5 2 2.00 4.00
doloparamidol 25 mg + 500 mg tableta recubierta x
200 unid. markos caja envase blister tabletas
8/18/2017 (n22554) 2 1.00 2.00
8/18/2017 frasco simple 1 1.00 1.00
8/18/2017 papel elite doble hoja x 2 2 0.90 1.80
8/18/2017 venda elastica 4" x 5 yd 1 2.00 2.00
8/18/2017 agua san luis sin gas x 1lt 4 2.50 10.00
8/18/2017 gasa esteril 10 x 10 x 5 3 2.00 6.00
8/18/2017 papel toalla scott x 3 3 2.00 6.00
8/18/2017 colgate crema triple x 25 gr 1 1.50 1.50
8/18/2017 dento cepillo medio 1 2.50 2.50
8/18/2017 pañuelos desechables x 10 3 0.50 1.50
8/18/2017 jabon dove go fresh hidratacion x 90 gr 1 3.50 3.50
8/18/2017 papel elite doble hoja x 2 2 0.90 1.80
8/18/2017 kolynos crema herbal x 90 gr 1 2.50 2.50
8/18/2017 vaso descartable 2 0.10 0.20
8/18/2017 h&s suave manejable x 18ml 1 1.00 1.00
8/18/2017 pañal plenitud x 10 1 4.00 4.00
8/18/2017 papel elite doble hoja x 2 6 0.90 5.40
8/18/2017 papel elite doble hoja x 2 1 1.40 1.40
8/18/2017 agua san luis
amigdazol nf sin gas x 625ml
trocisco 2 1.30 2.60
febriflam 300 mg + 275x mg
120tableta
unid. markos caja x
recubierta
8/18/2017 envase
100 blister
unid.500
ludbertabletas (n14139) 12 1.00 12.00
clamoval mg caja envase
+ 125 blisterrecubierta
mg tableta tabletas x 10
8/18/2017 (n26957)
unid. alpharma caja envase blister tabletas 6 1.50 9.00
8/18/2017 (en00487) 1 3.00 3.00
8/18/2017 doloaproxol dual forte 50 mg + 500 mg comprimido r 2 1.00 2.00
8/18/2017 cefadroxilo 500 mg tableta recubierta x 100 unid. f 1 1.00 1.00
8/18/2017 doloaproxol dual forte 50 mg + 500 mg comprimido r 1 1.00 1.00
8/18/2017 furazolidona 100 mg tableta x 100 unid. naturgen caj 12 0.50 6.00
8/18/2017 exazol forte 800 mg + 160 mg comprimido x 100 unid 1 1.50 1.50
8/18/2017 toall humedas hugg onex48 2 9.50 19.00
8/18/2017 betametasona crema 0.05% farmindustria 1 3.00 3.00
8/18/2017 alcohol 96 x 1 lt 2 7.50 15.00
8/18/2017 huggies pañal suelto m 1 0.80 0.80
8/18/2017 jabon johnson baby avena x 75 gr 2 2.50 5.00
8/18/2017 johnson sachet amarillo x 24 2 0.70 1.40
8/18/2017 dentito cepillo galaxy 2 2.00 4.00
8/18/2017 peine pescado 3 0.50 1.50
8/18/2017 kolynos crema blanco x 25 gr 2 1.50 3.00
8/18/2017 power multifrutas x 473ml 1 2.00 2.00
8/18/2017 papel noble morado x 2 2 0.70 1.40
8/18/2017 toallas ladysoft normal sueltas 2 0.50 1.00
8/18/2017 biliox cápsula x 100 unid. iq farma caja envase blist 1 1.50 1.50
8/18/2017 dolomax plus tableta
panadol antigripal recubierta
nf tableta x 100x 20 unid.
unid. gskmedifarm
caja 1 1.50 1.50
ritmocor
8/18/2017 envase 150
blistermg comprimido
tabletas (e20318)recubierto x 20 unid. 1 2.30 2.30
urobiotic fortecaja
farmindustria 400envase
mg + 100 mg cápsula
blister x 100
comprimidos
8/18/2017 unid. siegfried caja envase blister tabletas (n19955)
(e21323) 2 1.50 3.00
8/18/2017 droxilar 500 mg cápsula x 48 unid. siegfried caja 45 3.50 157.50
8/18/2017 envase blister capsulas (en01223) 1 3.00 3.00
dolomarket forte 50 mg + 500 mg tableta
recubierta x 200 unid.
plidan compuesto brand and marketing
nf comprimido recubiertocaja
x 100
8/18/2017 envase blister tabletas (n25115)
unid. roe1mmers caja envase blister comprimidos 1 1.00 1.00
8/18/2017 (e10971)
dolo benalgin solución para inyección lusa caja 3 1.50 4.50
8/18/2017 ampolla i x 1 ml + ampolla ii x 2 ml (n23586) 1 21.00 21.00
doloaproxol dual forte 50 mg + 500 mg
8/18/2017 h&s limpiezarecubierto
comprimido x 18ml x 400 unid. markos caja 2 1.00 2.00
8/18/2017 envase blister comprimidos (n19093) 2 1.00 2.00
8/18/2017 pañal huggies recien nacido x 20 1 10.00 10.00
8/18/2017 pañal huggies suelto g 2 0.90 1.80
8/18/2017 cetriler
panadol5500ml comp rec x 100
mg tableta x 50 unid. gsk caja envase 2 3.00 6.00
8/18/2017 blister tabletas (e14831) 2 1.50 3.00
8/18/2017 agua cielo sin gas x 625ml 1 1.00 1.00
8/18/2017 pañal babysec sueltos xg 1 0.80 0.80
8/18/2017 agua cielo sin gas x 625ml 2 1.00 2.00
dorixina relax 125 mg + 5 mg comprimido
8/18/2017 toalla ladysoft
recubierto ultradelgada
x 100 x 8 caja envase
unid. roemmers 1 3.50 3.50
8/18/2017 blister
dolomax comprimidos
plus tableta(e10848)
recubierta x 100 unid. 1 3.00 3.00
8/18/2017 medifarma caja envase blister tabletas (en02654) 2 1.50 3.00
8/18/2017 agua cielo sin gas x 625ml 1 1.00 1.00
8/18/2017 h&s limpieza
dobrix 100 x 18ml 1 1.00 1.00
zafin 325 mgmg cápsula
+ 37.5 mg xcomprimido
100 unid. siegfried cajax
recubierto
8/18/2017 envase blister cápsulas (en01408)
70 unid. farmaval caja envase blister comprimidos 1 1.00 1.00
8/18/2017 (e18957) 2 2.50 5.00
8/18/2017 agua san mateo x 600ml 1 1.50 1.50
8/18/2017 dentito crema chicle x 90 gr 1 3.00 3.00
8/18/2017 dentito cepillo galaxy 1 2.00 2.00
8/18/2017 jabon bea orange 1 2.00 2.00
8/18/2017 papel noble550
naproxeno morado x 2 x 100 unid. induquimica
mg tableta 2 0.70 1.40
8/18/2017 caja envase blister tabletas (en01486) 4 0.50 2.00
8/18/2017 cureband 5 0.10 0.50
plidan compuesto nf comprimido recubierto x 100
8/18/2017 ponds clarant secacaja
unid. roe1mmers sachet x 20blister comprimidos
envase 1 1.00 1.00
8/18/2017 (e10971)
donalab 2 2 mg tableta x 100 unid. vita pharma 2 1.30 2.60
8/18/2017 caja envase blister tabletas (en00930) 2 1.00 2.00
8/18/2017 agua cielo sin gas x 625ml 1 1.00 1.00
8/18/2017 agua san mateo x 600ml 2 1.50 3.00
TOTAL 1,011.90
FECHA PRODUCTO CANTIDAD PRECIO IMPORTE
8/19/2017 h&s limpieza x 18ml
plidan compuesto nf comprimido 2 1.00 2.00
8/19/2017 sedal sh+ac co
recubierto x 10050
dimenhidrinato creations
unid.
mg roe1mmers
comprimidocaja x 100 1 1.00 1.00
8/19/2017 envase blister comprimidos (e10971)
unid. quimica suiza caja envase blister 3 1.30 3.90
8/19/2017 comprimidos (ng3022) 2 0.50 1.00
8/19/2017 agua san luis sin gas x 1lt 1 2.50 2.50
8/19/2017 dexametasona 4 mg tab x 100 1 0.50 0.50
8/19/2017 mantequilla de cacao x 100
ketorolaco 10 mg tableta x 100 unid. 3 0.30 0.90
8/19/2017 cetriler 5 ml comp rec x 100
naturgen caja envase blister tabletas 2 3.00 6.00
8/19/2017 (ng3166) 2 0.30 0.60
8/19/2017 pañal babysec sueltos xxg 6 0.90 5.40
8/19/2017 lipsaliv mantequilla de cacao 1 4.50 4.50
8/19/2017 huggies pañal suelto m 4 0.80 3.20
8/19/2017 cureband 2 0.10 0.20
8/19/2017 paracetamol 500 mg tab x 100 6 0.10 0.60
8/19/2017 huggies pañal suelto m 7 0.80 5.60
8/19/2017 paracetamol 500 mg tab x 100 5 0.10 0.50
8/19/2017 huggies pañal suelto m 1 0.80 0.80
8/19/2017 paracetamol 500 mg tab x 100 6 0.10 0.60
8/19/2017 frasco simple 1 1.00 1.00
8/19/2017 suave papel rindemax naranja x 2 2 1.00 2.00
8/19/2017 condon sensation liso x 3 1 1.00 1.00
8/19/2017 condon sensation anillosx3
loratadina 10 mg tableta x 100 unid. 2 1.00 2.00
8/19/2017 naturgen
paracetamolcaja500
envasemg tab x 100
blister tabletas 24 0.30 7.20
8/19/2017 (ng6371) 4 0.30 1.20
8/19/2017 vaso descartable 1 0.10 0.10
8/19/2017 mantequilla de cacao x 100 2 0.30 0.60
8/19/2017 mantequilla de cacao x 100 2 0.40 0.80
8/19/2017 agua san luis sin gas x 500ml 1 1.00 1.00
8/19/2017 bahia faces
benalgin 1000
neurobion color spf90
1000solución
soluciónsobres
para x 20
parainyección
inyecciónlusa
x3 6 2.50 15.00
8/19/2017 caja ampolla x 2 ml + accesorios
unid. merck caja ampolla x 3 ml + (n19779) 3 15.00 45.00
8/19/2017 accesorios (e20684) 1 20.00 20.00
8/19/2017 elegya 75 mg 6 3.50 21.00
8/19/2017 aciclovir 400 mg tab 6 1.00 6.00
8/19/2017 jeringa 5ml+aguja 21 x 1 1/2 1 1.00 1.00
8/19/2017 jeringa 5ml+aguja 21 x 1 1/2 1 1.00 1.00
8/19/2017 condon sensation anillosx3 3 1.00 3.00
8/19/2017 vaso descartable 5 0.10 0.50
8/19/2017 jeringa 50 ml con pico 1 3.50 3.50
8/19/2017 vaso descartable 4 0.10 0.40
8/19/2017 kolynos crema herbal x 90 gr 1 3.00 3.00
8/19/2017 corta uña grande 1 2.50 2.50
8/19/2017 peine pescado 1 0.50 0.50
8/19/2017 sedal sh+ac ceramidas 2 1.00 2.00
8/19/2017 vaso descartable 5 0.10 0.50
8/19/2017 norfloxacino
cotidian toalla400multiuso x 10 x 14 unid.
mg tableta 1 4.00 4.00
8/19/2017 genfar caja envase blister tabletas
doloaproxol dual forte 50 mg + 500 mg (eg646) 10 0.80 8.00
8/19/2017 dexametasona
comprimido
ryna 4 mg tab
del 5 mgrecubierto
tableta xx400
100unid.
recubierta markos
x 100 unid. 1 0.50 0.50
8/19/2017 delfarma
caja envase blister
caja envase comprimidos (n19093)
blister tabletas 1 1.00 1.00
8/19/2017 (n26181)
cortafan comprimido recubierto x 100 6 2.00 12.00
8/19/2017 unid.
peine pescado
markos caja envase blister
escopolamina butil bromuro 10 mg tableta 1 0.50 0.50
8/19/2017 comprimidos (en01970)
x 100 unid. induquimica caja envase blister 1 1.00 1.00
8/19/2017 tabletas (en03734) 1 1.00 1.00
donamed f 2 mg tableta x 100 unid.
medifarma caja envase blister tabletas
8/19/2017 (en01906) 1 1.00 1.00
8/19/2017 peine
apronax pescado
550 mg tableta recubierta x 120 1 0.50 0.50
8/19/2017 unid.
mantequilla de cacao
bayer caja envase x 100
blister tabletas 2 0.30 0.60
8/19/2017 (en01992) 1 2.00 2.00
8/19/2017 nastizol junior tabletas x 150 2 0.80 1.60
8/19/2017 betasporina
decorten
silenai 1 gr im
4 mg/2
expectorante ml ampolla
solución inyectable
jarabe elifarma frasco 3 15.00 45.00
8/19/2017 elifarma
x 120 ml (en00823) x 2 ml (en03637)
caja ampolla 1 10.00 10.00
8/19/2017 ab broncol nf 1200 polvo para suspensión 1 30.00 30.00
8/19/2017 inyectable
jeringa 5ml+aguja
medifarma 21 x caja
1 1/2vial + solvente x 6 0.50 3.00
8/19/2017 letizia
5 ml (n25382)
5 mg tableta recubierta x 10 unid. iq 4 21.00 84.00
8/19/2017 farma
panadol caja
500envase blisterxtabletas
mg tableta 50 unid.(n25649)
gsk caja 7 5.00 35.00
8/19/2017 envase blister tabletas (e14831) 10 1.50 15.00
8/19/2017 jeringa 10ml+aguja 21 x 1 1/2 4 0.60 2.40
8/19/2017 flatuzym
aguja
plidandescartable
cápsula x21g
compuesto nf100 x unid.
1 1/2 iq farma caja
comprimido 4 0.20 0.80
8/19/2017 recubierto
envase blister
x 100tabletas
unid. (n26017)
roe1mmers
nexium 40 mg comprimido x 14 unid. caja 12 1.20 14.40
8/19/2017 astrazeneca
envase blister comprimidos
caja envase blister(e10971) 6 1.30 7.80
8/19/2017 comprimidos (e18943)tópica deutsche
moviflex 1% solución 3 10.00 30.00
8/19/2017 pharma
benalgin
ab broncolcaja
10000frasco
nf 1200 xpolvo
30 mlpara
inyectable (en01348)
lusasuspensión
ampolla x 2 1 43.00 43.00
8/19/2017 ab
ml broncol
+ accesorios
inyectable (n23591)
medifarma
nf 600 polvocaja vial + solvente
liofilizado para x 2 18.50 37.00
8/19/2017 solución
5 ml (n25382)
inyectable medifarma caja vial + 3 21.00 63.00
8/19/2017 solvente
lexflonor x5005 ml500(n25384)
mg tableta recubierta x 1 21.00 21.00
8/19/2017 vaso descartable
10 unid. nordic
broadcef cajapara
1 g polvo envase blisterinyectable
solución tabletas 1 2.80 2.80
8/19/2017 (ee02651)
mks unidos caja benzatinica
bencilpenicilina vial + ampolla 1 200x 3.5 mlui
000 4 5.00 20.00
8/19/2017 (ee01241)
polvo para suspensión inyectable x 25 unid. 4 17.20 68.80
8/19/2017 quimizol
dany
clinfolcaja vial
100(ee01636)
duocrema mgvaginal
+ 400quimica
mg cápsula suizablanda
tubo 1 5.20 5.20
8/19/2017 vaginal
x 60 g (n26329)
x 7 unid. tecnofarma caja envase 1 36.00 36.00
8/19/2017 blister tabletas (e17915) 7 15.00 105.00
8/19/2017 gentamicina 160 mg x 10 3 2.50 7.50
8/19/2017 jeringa 3 ml+aguja 21 x 1 1/2 3 0.50 1.50
8/19/2017 jeringa 10ml+aguja 21 x 1 1/2 5 0.60 3.00
8/19/2017 aguja descartable 20g x 1 1/2 2 0.20 0.40
8/19/2017 ceftrex
vaso descartable
1 g polvo para solución inyectable 1 14.00 14.00
8/19/2017 mks
oxacilina 1 gcaja
unidos polvo vialpara
x 1 gsolución
(e21215) inyectable 2 14.00 28.00
8/19/2017 x 50 unid. pharmagen vial (eg5855) 2 5.00 10.00
8/19/2017 betametasona crema 0.05% farmindustria 3 3.00 9.00
8/19/2017 jeringa 10ml+aguja 21 x 1 1/2 4 0.60 2.40
8/19/2017 aguja descartable 21g 4 0.20 0.80
8/19/2017 bronco trifamox 250mg/5ml fco 1 14.00 14.00
8/19/2017 dentito cepillo galaxy 1 2.00 2.00
8/19/2017 bahia kids spf70 sobres x 20 3 2.00 6.00
8/19/2017 doloral suspencion x 60 ml 1 11.00 11.00
8/19/2017 toalla ladysoft ultradelgada x 8 1 3.50 3.50
8/19/2017 panadol
pañal babysec sueltos
antigripal xg
nf tableta x 100 unid. 5 0.80 4.00
8/19/2017 gsk caja envase blister tabletas (e20318) 1 2.30 2.30
8/19/2017 amoxicilina 500 capsulas x 100 3 0.30 0.90
8/19/2017 plenitud
micolis 1 pañal
fluconazol %150
cremaxmg10tableta
roemmers x 100 caja tubo x 30
unid. 1 4.00 4.00
8/19/2017 naturgen
g (ee01907) caja envase blister tabletas 1 29.00 29.00
8/19/2017 (ng5260)
esika mascarilla revitalizadora docile x 4 1.00 4.00
8/19/2017 120gr 1 12.00 12.00
8/19/2017 condon sensation
sal de andrews anillosx3
polvo efervescente x 100 3 1.00 3.00
8/19/2017 unid. medifarma caja sobre (n4133) 2 0.50 1.00
8/19/2017 sal
panadol gotas polvo efervescente x 100
de andrews 1 17.00 17.00
8/19/2017 unid. medifarma caja sobre (n4133) 2 0.50 1.00
clavoxilin plus 875 mg + 125 mg
comprimido recubierto x 16 unid. pharbal
8/19/2017 caja envase cápsula
frutenzima blister comprimido
x 120 unid. (e15824) 4 6.00 24.00
8/19/2017 electrolight maracuya
farmindustria caja envase x 475ml
blister tabletas 1 2.00 2.00
8/19/2017 (n12416) 4 1.50 6.00
8/19/2017 frasco simple 1 1.00 1.00
8/19/2017 aguja descartable 20g x 1 1/2 1 0.20 0.20
8/19/2017 jabon bea orange 3 2.00 6.00
8/19/2017 asepxia jabon forte x 100 gr 1 10.00 10.00
8/19/2017 red bull x 250ml 3 7.00 21.00
8/19/2017 dia
schick
plus2 1.5
hojas
mgexacta
tableta jc.robri caja envase 1 2.50 2.50
8/19/2017 panadol
blister tabletas (ee00494)
antigripal nf tableta x 100 unid. 1 15.00 15.00
8/19/2017 gsk caja envase blister tabletas (e20318) 2 2.30 4.60
8/19/2017 paracetamol 500
droxilar 500 dual
doloaproxol mg mg tab
cápsula
forte 50x xmg
48100
unid.
+ 500siegfried
mg 10 0.10 1.00
8/19/2017 caja
comprimido recubierto x 400(en01223)
envase blister capsulas unid. markos 1 3.00 3.00
8/19/2017 caja envase blister comprimidos (n19093) 1 1.00 1.00
8/19/2017 betametasona
naproxeno 550crema 0.05%x 100
mg tableta farmindustria
unid. 1 3.00 3.00
8/19/2017 induquimica
dexametasona 4 mg tab x 100
cloro alergan 4 mg comprimido xtabletas
caja envase blister 200 unid. 10 0.50 5.00
8/19/2017 (en01486)
teva caja envase
doloaproxol dual blister
forte 50comprimido
mg + 500 mg 10 0.50 5.00
8/19/2017 (e23172)
comprimido recubierto x 400 unid. markos 4 0.60 2.40
8/19/2017 caja envase blister comprimidos (n19093) 2 1.00 2.00
8/19/2017 cetriler 5 ml comp rec x 100 2 3.00 6.00
8/19/2017 babysec x u talla m 2 0.50 1.00
8/19/2017 babysesc talla xg x u 4 0.80 3.20
8/19/2017 gingisona b pastillas 2 2.50 5.00
8/19/2017 dexametasona 4mg/2ml ampolla 12 1.50 18.00
8/19/2017 diclofenaco 75mg/3ml amp labot 2 2.00 4.00
8/19/2017 jeringa 5mcc 1 0.50 0.50
8/19/2017 aguja hipodermica 23gx1(25x6) 5 0.20 1.00
8/19/2017 timolina x 75ml 2 1.50 3.00
8/19/2017 dexametasona tab 4mg induquimica 1 0.50 0.50
8/19/2017 cielo x625ml 1 1.00 1.00
8/19/2017 doloteralgex rapid x 50mg/300mg tab 4 1.50 6.00
8/19/2017 voxamine 50mg 2 1.50 3.00
8/19/2017 prednisona tab 20mg quilab 2 0.50 1.00
8/19/2017 mepadol extra forte pharmac 12 1.50 18.00
8/19/2017 vivarex propifenazona 125 mg 6 2.00 12.00
8/19/2017 dexametasona tab 4mg induquimica 6 0.50 3.00
8/19/2017 ambroxol 15mg/5m susp x120ml 1 7.00 7.00
TOTAL 1,293.70
doloaproxol dual forte 50 mg + 500 mg
FECHA comprimido recubierto PRODUCTO x 400 unid. markos CANTIDAD PRECIO IMPORTE
8/20/2017 caja envase blister comprimidos (n19093) 1 1.00 1.00
8/20/2017 volt botella
plidan x 300ml
compuesto nf comprimido recubierto x 1 2.00 2.00
8/20/2017 power multifrutas x 473ml
100 unid. roe1mmers caja envase blister 1 2.00 2.00
8/20/2017 comprimidos (e10971) 2 1.30 2.60
8/20/2017 condon sensation anillosx3 3 1.00 3.00
8/20/2017 bahia sunblock spf70 sobres x 20 1 2.00 2.00
8/20/2017 rexona
donalab deso
infectrim2forte nutritive
2 mg800 tableta sobres
mg +x 160 x
100 mg 20
unid. vita x 100
tableta 1 0.80 0.80
8/20/2017 unid.
pharma cajacaja
hersil envase
envase blister tabletas
blister (en00930)
tabletas 2 1.00 2.00
8/20/2017 (n18860)
dimenhidrinato 50 mg tableta x 100 unid. 2 1.20 2.40
8/20/2017 medrock caja envase blister tabletas (ng5437) 2 0.30 0.60
8/20/2017 toallas ladysoft normal sueltas 1 0.50 0.50
8/20/2017 papel elite ultra morado x 2 2 1.20 2.40
8/20/2017 suave papel500
cefadroxilo rindemax
mg tabletanaranja x2
recubierta x 100 1 1.00 1.00
8/20/2017 baby test tiras
unid. farmindustria
doloaproxol x 1
dual forte caja50envase
mg + 500blister
mg 2 5.00 10.00
8/20/2017 comprimidos (ng3452)
comprimido recubierto x 400 unid. markos 1 1.00 1.00
8/20/2017 quemiciclina
caja envase blister
s 125 comprimidos
mg tableta x 100 (n19093)
unid. teva 1 1.00 1.00
8/20/2017 caja envase blister tabletas (n25489) 1 1.00 1.00
8/20/2017 jeringa 5ml+aguja 21 x 1 1/2 6 0.50 3.00
8/20/2017 venda elastica
azoflox 400 mg
doloaproxol 2" x
dual+ forte5 yd
50 mg50cápsulamg + 500x 100mgunid. 4 1.00 4.00
8/20/2017 hersil caja envase blister tabletas
comprimido recubierto x 400 unid. markos (n20155) 2 2.00 4.00
8/20/2017 caja envase blister comprimidos (n19093) 2 1.00 2.00
8/20/2017 dento menta natural x 25ml
dolo benalgin forte tableta con cubierta 1 1.50 1.50
8/20/2017 guantes esteriles 6 1/2
entérica x 20 unid. lusa caja envase blister 1 1.50 1.50
8/20/2017 tabletas (n26538) 12 2.40 28.80
8/20/2017 frasco heces 2 1.00 2.00
8/20/2017 mica
miofedrol relax plus comprimido recubierto x 1 1.00 1.00
8/20/2017 peine pescado
100 unid. markos caja envase blister 1 0.50 0.50
8/20/2017 comprimidos (n22404)
miofedrol relax plus comprimido recubierto x 2 2.00 4.00
8/20/2017 100
toallas
unid.kotex normal
markos cajatela x 10 blister
envase 1 3.50 3.50
8/20/2017 comprimidos (n22404) 1 1.70 1.70
8/20/2017 peine grande 1 1.00 1.00
8/20/2017 suave papel rindemax naranja x 2 2 1.00 2.00
8/20/2017 jabon protex complete b 12 x 75 gr 1 2.50 2.50
8/20/2017 vaso descartable 4 0.10 0.40
8/20/2017 frasco simple
dolo benalgin forte tableta con cubierta 1 1.00 1.00
8/20/2017 aguja
entéricadescartable
maximusxplus 20 unid. 20g
1500lusa x 1
mg +caja 1/2
10 envase
µg + 70blister
mg tableta 1 0.20 0.20
8/20/2017 tabletas (n26538)
hersil caja postablister tabletas (1 + 7) 6 2.40 14.40
8/20/2017 (n23870) 3 24.00 72.00
8/20/2017 papel toalla scott x 3 1 2.00 2.00
8/20/2017 jeringa 1ml+aguja 26gx12 2 0.50 1.00
8/20/2017 huggies
cipronor
dolo toalla
500 mg
benalgin hig onex48
tableta
forte recubierta
tableta x 100 unid.
con cubierta 1 9.50 9.50
8/20/2017 entérica
nordic caja envase
x 20 unid. blister
lusa caja tabletas
envase(e18757)
blister 14 2.00 28.00
8/20/2017 tabletas (n26538)
eliton cip ap jarabe elifarma frasco x 340 ml 7 2.40 16.80
8/20/2017 (n19625)
neurobion 1000 solución para inyección x 3 1 28.00 28.00
8/20/2017 unid.
dolo meloxic
merck caja tab xampolla
60 x 3 ml + accesorios 8 1.50 12.00
8/20/2017 (e20684)
loratadina 10 mg tableta x 100 unid. naturgen 4 20.00 80.00
8/20/2017 caja envase blister tabletas (ng6371) 3 0.30 0.90
8/20/2017 ketorolaco
ibuprofeno10 400 mg mg tab x 100
tableta x 100 farmindustria
unid. naturgen 5 0.10 0.50
8/20/2017 caja envase blister tabletas (ng3166) 2 0.30 0.60
8/20/2017 bahia
sorbaminkids30spf50
nf consobres x 20
electrolitos solución para 1 2.00 2.00
8/20/2017 hirudoid
inyección0.3% medifarma
pomadabolsa x 1l (n13787)
deutsche pharma caja 1 140.00 140.00
8/20/2017 tubo x 14 g (en01337)
fluimucil oraldual
doloaproxol 200forte
mg granulos
50 mg +x500 30 unid.
mg lukoll 1 14.00 14.00
8/20/2017 comprimido
caja sobre x 1g (e20809)x 400 unid. markos
recubierto 3 2.60 7.80
8/20/2017 caja envase
cinageron
assis 400 400 blister
mg +comprimidos
cápsula x3060mg/5
unid.ml (n19093)caja
grunenthal
suspensión oral 3 1.00 3.00
8/20/2017 envase blister tabletas (e16901)
elifarma caja frasco x 220 ml+ accesorios 4 2.80 11.20
8/20/2017 (en03301) 1 30.00 30.00
8/20/2017 gasa esteril 5 x 5 x 5 1 1.00 1.00
8/20/2017 pañal babysec
doloaproxol dualsueltos
forte xg50 mg + 500 mg 12 0.80 9.60
8/20/2017 comprimido
quita esmalterecubierto
limon x 30x ml 400 unid. markos 1 1.50 1.50
8/20/2017 caja envase blister comprimidos
doloaproxol dual forte 50 mg + 500 (n19093)
mg 1 1.00 1.00
8/20/2017 comprimido
amoxicilina 500 capsulasx x400
recubierto 100unid. markos 3 0.30 0.90
8/20/2017 caja envase blister comprimidos (n19093) 2 1.00 2.00
8/20/2017 jabon protex complete b 12 x 75 gr 1 2.50 2.50
8/20/2017 h&s limpieza x 18ml 2 1.00 2.00
8/20/2017 esomeprazol 40 mg tab x 30 5 1.50 7.50
8/20/2017 suave
vodravolpapel rindemax
50 mg tabletanaranja x 2 vita pharma
x 100 unid. 2 1.00 2.00
8/20/2017 caja envase blister tabletas (n24107) 3 1.00 3.00
8/20/2017 algodón sterilab
dicloxacilina 500 xmg 25cápsula
gr x 100 unid. 1 1.50 1.50
8/20/2017 naturgen caja envase folio
bencilpenicilina benzatinica 1 200 000cápsulas (en02864)
ui polvo 4 0.40 1.60
8/20/2017 pañal huggies suelto xg
para suspensión inyectable x 25 unid. dany 1 1.00 1.00
8/20/2017 caja vial (ee01636)
dexametasona 4 mg/2 ml solución inyectable x 1 3.00 3.00
8/20/2017 100
azo baccidal 500caja
unid. labot mg ampolla
+ 100 mgx 2ml (ee01141)
tableta 3 1.00 3.00
8/20/2017 aguja descartable 23g x 1 1/2
recubierta x 100 unid. e.s.c. pharmed caja 2 0.20 0.40
8/20/2017 envase
pasumablister
nf 50 mgtabletas
tableta(n24313)
recubierta x 10 unid. 2 2.00 4.00
8/20/2017 inti caja envase blister tabletas (ee02332) 1 4.00 4.00
8/20/2017 hojas de bisturi nº 11 2 0.50 1.00
8/20/2017 frasco simple 2 1.00 2.00
8/20/2017 h&s limpieza x 18ml 1 1.00 1.00
8/20/2017 guantes esteriles 7 5 1.50 7.50
8/20/2017 aquarius manzana x 500ml 2 1.70 3.40
8/20/2017 aquarius naranja x 500ml 1 1.70 1.70
8/20/2017 pañal babysec sueltos xg 4 0.80 3.20
8/20/2017 frasco vidrio 1 2.00 2.00
8/20/2017 babytest
dia plus 1.5x cassette
dimenhidrinato mg tableta
50 mg/5jc.robri caja envase
ml solución 3 8.00 24.00
8/20/2017 inyectable
blister tabletas
x 25 (ee00494)
unid. dany caja ampolla x 5 ml 1 15.00 15.00
8/20/2017 (en01814) 1 3.00 3.00
8/20/2017 jeringa 3 ml+aguja 21 x 1 1/2 1 0.40 0.40
8/20/2017 cipronor
aguja descartable 21g recubierta x 100 unid.
500 mg tableta 1 0.20 0.20
8/20/2017 nordic
otozambon
nexium caja
40 mgenvase
solución blister
comprimido oticatabletas
lukoll (e18757)
frasco
x 14 unid. gotero 6 1.50 9.00
8/20/2017 xastrazeneca
10 ml (n21919)caja envase blister comprimidos 1 21.50 21.50
8/20/2017 (e18943) 6 10.00 60.00
8/20/2017 bahia faces spf90
doloaproxol sobres
dual forte 50xmg 20 + 500 mg 2 2.50 5.00
8/20/2017 comprimido
algodón
cefalexina sterilab
500 x 25
recubierto
mg grx 400
cápsula unid.
x 100 markos
unid. 1 1.50 1.50
8/20/2017 caja envase blister comprimidos
farmindustria caja envase blister tabletas (n19093) 1 1.00 1.00
8/20/2017 (ng4488) 0 0.50 0.00
8/20/2017 plenitud pañal x 10 1 4.00 4.00
8/20/2017 schick 2 hojas exacta 1 2.50 2.50
8/20/2017 suave papel rindemax naranja x 2 2 1.00 2.00
8/20/2017 pañal babysec sueltos xg 5 0.80 4.00
8/20/2017 dento crema menta x 34gr 1 2.00 2.00
8/20/2017 power multifrutas x 473ml 1 2.00 2.00
8/20/2017 h&s suave manejable x 18ml 1 1.00 1.00
8/20/2017 jeringa 10ml+aguja 21 x 1 1/2 1 0.60 0.60
8/20/2017 aguja descartable 21g 6 0.20 1.20
8/20/2017 peine pescado
dalmatrol plus 325 mg + 37.5 mg tableta 1 0.50 0.50
8/20/2017 recubierta
electrolightxnaranja
50 unid.x iq475ml
farma caja envase 1 2.00 2.00
8/20/2017 blister tabletas (n23224)
doloaproxol dual forte 50 mg + 500 mg 5 2.00 10.00
8/20/2017 dexametasona 4 mg tabxx400
comprimido recubierto 100unid. markos 1 0.50 0.50
8/20/2017 caja envase blister comprimidos (n19093) 1 1.00 1.00
8/20/2017 colgate cepillo premier 1 2.50 2.50
8/20/2017 papel elite naranja
dolo benalgin doblepara
solución hojainyección
x2 lusa 2 0.90 1.80
8/20/2017 mascarilla simple sueltos
caja ampolla i x 1 ml + ampolla ii x 2 ml 2 0.50 1.00
8/20/2017 (n23586)
cipronor 500 mg tableta
silenai expectorante recubierta
jarabe elifarma x 100 unid.
frasco x 4 21.00 84.00
8/20/2017 120
nordic
mlcaja envase blister tabletas (e18757)
(en00823) 6 1.50 9.00
8/20/2017 1 30.00 30.00
8/20/2017 aquarius pera x 500ml 1 1.70 1.70
8/20/2017 suave papel
infectrim rindemax
forte 800 mgnaranja
+ 160 mg x 2tableta x 100 2 1.00 2.00
8/20/2017 paracetamol 500 mg tab x 100
unid. hersil caja envase blister tabletas 5 0.10 0.50
8/20/2017 (n18860)
donalab 2 2 mg tableta x 100 unid. vita 1 1.20 1.20
8/20/2017 pharma caja envase blister tabletas (en00930) 1 1.00 1.00
8/20/2017 papel elite celeste duo x 2 1 1.10 1.10
8/20/2017 quilxib
suave papel rindemax
200 mg cápsulanaranja x 2 quimica
x 100 unid. 1 1.00 1.00
8/20/2017 suiza caja envase blister tabletas
quilxib 200 mg cápsula x 100 unid. (n22553)
quimica 2 1.50 3.00
8/20/2017 suiza caja envase blister tabletas (n22553)
cefadroxilo 500 mg tableta recubierta x 100 2 1.50 3.00
8/20/2017 unid.
peinefarmindustria
pescado caja envase blister 1 0.50 0.50
8/20/2017 comprimidos
brimodin 200dual
doloaproxol (ng3452)
mg forte
granulos
50 mgpara suspensión
+ 500 mg 1 1.00 1.00
8/20/2017 comprimido
oral x 30 unid. iq farma caja
recubierto x 400sobre
unid.(en00969)
markos 6 2.00 12.00
8/20/2017 caja envase blister comprimidos (n19093) 1 1.00 1.00
8/20/2017 vaso descartable 3 0.10 0.30
8/20/2017 sedal sh+ac ceramidas 1 1.00 1.00
8/20/2017 huggies pañal recien nacido x 20 1 10.00 10.00
TOTAL 989.40
FECHA PRODUCTO CANTIDAD PRECIO IMPORTE
8/21/2017 biolactol probiotico acidophilus solución bebible x 25 unid 2 4.50 9.00
8/21/2017 power mora x 473ml 2 2.00 4.00
8/21/2017 ciruelax forte tab x 60 2 1.00 2.00
8/21/2017 aquarius manzana x 500ml 1 1.70 1.70
8/21/2017 agua cielo sin gas x 625ml 1 1.00 1.00
8/21/2017 bahia faces color spf90 sobres x 20 1 2.50 2.50
8/21/2017 cetriler 5 ml comp rec x 100 12 3.00 36.00
8/21/2017 peine grande 1 1.00 1.00
8/21/2017 jabon neko extra proteccion x 75 gr 1 2.50 2.50
8/21/2017 h&s suave manejable x 18ml 2 1.00 2.00
8/21/2017 frasco simple 1 1.00 1.00
8/21/2017 vaso descartable 4 0.10 0.40
8/21/2017 vaso descartable 4 0.10 0.40
8/21/2017 super papel x 2 1 0.50 0.50
8/21/2017 schick 3 hojas xtreme
quemiciclina s 125 mg tableta x 100 unid. teva caja envase 1 3.50 3.50
8/21/2017 fluconazol
blister tabletas (n25489)
150 mg tableta x 100 unid. naturgen caja envase 2 1.00 2.00
8/21/2017 blister tabletas (ng5260) 4 1.00 4.00
8/21/2017 agua san luis sin gas x 500ml 1 1.00 1.00
8/21/2017 suave papel rindemax verde rosado x2 1 1.10 1.10
8/21/2017 bahia kids spf50 sobres x 20 2 2.00 4.00
8/21/2017 protex jabon fresh x 75 gr 1 2.50 2.50
8/21/2017 kolynos cepillo master 2 2.50 5.00
8/21/2017 kolynos crema herbal x 90 gr 1 2.50 2.50
8/21/2017 h&s limpieza x 18ml 1 1.00 1.00
8/21/2017 vaso descartable 2 0.10 0.20
suave papel rindemax verde rosado x2
8/21/2017 exazol forte 800 mg + 160 mg comprimido x 100 unid. 2 1.10 2.20
8/21/2017 andreu caja envase blister comprimidos (n25036)
flatuzym cápsula x 100 unid. iq farma caja envase blister 10 1.50 15.00
8/21/2017 tabletas (n26017) 6 1.00 6.00
8/21/2017 espasmosedil tabletas 3 1.00 3.00
8/21/2017 repriman tab
electroral pediatrico sabor anis solución medifarma frasco 2 0.50 1.00
8/21/2017 xoxacilina
1 l (n20382)
1 g polvo para solución inyectable x 50 unid. 1 11.00 11.00
8/21/2017 pharmagen vial (eg5855) 4 5.00 20.00
8/21/2017 mantequilla de cacao x 100 3 0.30 0.90
8/21/2017 enterogermina
vaso descartable 2000 millones (2 millardos)/5 solución 1 0.10 0.10
8/21/2017 bebible x 10 unid. sanofi caja ampolla x 5 ml (be00409) 2 3.50 7.00
8/21/2017 toallas ladysoft normal sueltas 12 0.50 6.00
8/21/2017 sildenafilo 100mg tab x 1 1 3.00 3.00
8/21/2017 guantes de examen l par
dolo benalgin solución para inyección lusa caja ampolla i x 2 0.50 1.00
8/21/2017 1 ml + ampolla ii x 2 ml (n23586)
miofedrol relax plus comprimido recubierto x 100 unid. 3 21.00 63.00
8/21/2017 markos caja envase blister comprimidos (n22404) 5 1.70 8.50
8/21/2017 betasporina 1 gr im ampolla 5 15.00 75.00
8/21/2017 jeringa 10ml+aguja 21jarabe
silenai expectorante x 1 1/2elifarma frasco x 120 ml 5 0.80 4.00
8/21/2017 aguja descartable
(en00823) 20g x 1 1/2 5 0.20 1.00
8/21/2017 1 30.00 30.00
8/21/2017 panadol
magal d 500suspensión oralx hersil
mg tableta frasco
50 unid. gsk xcaja
200envase
ml (n18742)
blister 1 25.00 25.00
8/21/2017 tabletas (e14831) 10 1.50 15.00
8/21/2017 jeringa 50 ml con pico 1 3.50 3.50
8/21/2017 jeringa 5ml+aguja 21 x 1 1/2 1 0.50 0.50
8/21/2017 pañal babysec sueltos xxg 2 0.90 1.80
8/21/2017 esika deso roll cardigan x 50ml 1 8.50 8.50
8/21/2017 mantequilla
miofedrol relaxde cacao x 100
plus comprimido recubierto x 100 unid. 3 0.30 0.90
8/21/2017 markos caja envase blister comprimidos
rapiler 5 mg tableta recubierta x 100 unid. (n22404)
teva caja envase 2 1.70 3.40
8/21/2017 blister tabletas (n22013)
aciclovir 200 mg tableta x 25 unid. genfar caja envase 6 3.50 21.00
8/21/2017 blister tabletas (eg1461) 4 0.50 2.00
doloaproxol dual forte 50 mg + 500 mg comprimido
8/21/2017 agua san luis
recubierto sin gas
x 400 x 500ml
unid. markos caja envase blister 2 1.00 2.00
8/21/2017 comprimidos (n19093) 1 1.00 1.00
8/21/2017 dexametasona 4 mg tab x 100 1 0.50 0.50
8/21/2017 baby test tiras
ketorolaco x1
30 mg/ml inyectable x 5 unid. genfar vial 2 5.00 10.00
8/21/2017 (eg1270)
paracetamol 100 mg/ml solución portugal frasco x 10 ml 2 2.00 4.00
8/21/2017 (en00670) 1 1.50 1.50
8/21/2017 volt botella x 300ml 3 2.00 6.00
8/21/2017 betametasona crema 0.05% farmindustria 5 3.00 15.00
8/21/2017 mantequilla de cacao x 100 1 0.30 0.30
8/21/2017 mantequilla
labopan 0.5 mg de cacao
tableta x 100
x 100 unid. keyfarm caja envase 2 0.30 0.60
8/21/2017 blister tabletas (n20543) 3 1.00 3.00
8/21/2017 fluconazol
volt botella150
x 300ml
mg tableta x 100 unid. naturgen caja envase 1 2.00 2.00
8/21/2017 blister tabletas
cefadroxilo (ng5260) 4 1.00 4.00
doloaproxol500 dualmg tableta
forte 50 mgrecubierta
+ 500 mgx comprimido
100 unid.
8/21/2017 recubierto
farmindustria cajaunid.
x 400 envase blister
markos comprimidos
caja (ng3452)
envase blister 2 1.00 2.00
8/21/2017 comprimidos (n19093) 2 1.00 2.00
8/21/2017 toallas kotex500
cefadroxilo normaltableta
tela x 10 1 3.50 3.50
doloaproxol dualmgforte 50 mg recubierta
+ 500 mgx comprimido
100 unid.
8/21/2017 farmindustria caja envase
recubierto x 400 unid. markos blister comprimidos
caja (ng3452)
envase blister 2 1.00 2.00
8/21/2017 comprimidos (n19093) 2 1.00 2.00
8/21/2017 dexametasona 4 mg tab x 100 2 0.50 1.00
8/21/2017 corta uña grande 2 2.50 5.00
doloaproxol dual forte 50 mg + 500 mg comprimido
8/21/2017 recubierto
volt botellaxx400
300mlunid. markos caja envase blister 1 2.00 2.00
8/21/2017 comprimidos (n19093) 1 1.00 1.00
8/21/2017 jeringa
miofedrol10ml+aguja
relax plus21comprimido
x 1 1/2 recubierto x 100 unid. 10 0.60 6.00
8/21/2017 markos caja envase blister comprimidos (n22404) 2 1.70 3.40
8/21/2017 cureband 10 0.10 1.00
8/21/2017 power multifrutas x 473ml 1 2.00 2.00
8/21/2017 suave papel rindemax naranja x 2 2 1.00 2.00
doloaproxol dual forte 50 mg + 500 mg comprimido
8/21/2017 esika aretesx x400
recubierto parunid. markos caja envase blister 1 6.00 6.00
8/21/2017 comprimidos
coluquim 500(n19093)
mg tableta recubierta x 6 unid. quimica suiza 5 1.00 5.00
8/21/2017 miofedrol
caja envaserelax
blister tabletas (en00734) 1 27.00 27.00
doloaproxol dualplus comprimido
forte 50 mg + 500 recubierto x 100 unid.
mg comprimido
8/21/2017 markos caja envase blister comprimidos (n22404)
recubierto x 400 unid. markos caja envase blister 1 1.70 1.70
8/21/2017 comprimidos (n19093) 1 1.00 1.00
8/21/2017 frasco simple 4 1.00 4.00
8/21/2017 babytest x cassette 1 8.00 8.00
8/21/2017 alcohol
dolofenac96 flex
x 60 tableta
ml x 20 unid. medifarma caja envase 1 1.00 1.00
8/21/2017 blister tabletas (en02690)
tioctan forte gragea x 100 unid. farmindustria caja grageas 1 3.00 3.00
8/21/2017 (n4664) 4 1.60 6.40
8/21/2017 espasmosedil tabletas 4 1.00 4.00
8/21/2017 frasco simple 5 1.00 5.00
8/21/2017 suave papel rindemax naranja x 2 2 1.00 2.00
8/21/2017 babytest x cassette 1 8.00 8.00
8/21/2017 jabon protex complete b 12 x 75 gr 2 2.50 5.00
8/21/2017 kolynos cepillo master 1 2.50 2.50
8/21/2017 dia
dento
plusmenta
1.5 mgnatural x 25ml
tableta jc.robri caja envase blister tabletas 2 2.00 4.00
8/21/2017 (ee00494)
dolomax plus tableta recubierta x 100 unid. medifarma 1 13.00 13.00
8/21/2017 caja envase blister tabletas (en02654) 2 1.50 3.00
8/21/2017 h&s limpieza x 18ml 1 1.00 1.00
8/21/2017 h&s suave manejable x 18ml 1 1.00 1.00
8/21/2017 colgate crema herbal x 90 gr 1 2.50 2.50
8/21/2017 baby test tiras 5x mg
desloratadina 1 tableta recubierta x 10 unid. quimica 1 5.00 5.00
8/21/2017 dolomax
suiza cajaplus
envase blister
tableta tabletas (eg5298)
recubierta x 100 unid. medifarma 2 1.00 2.00
8/21/2017 caja envase blister tabletas (en02654)
dorixina relax 125 mg + 5 mg comprimido recubierto x 100 2 1.50 3.00
8/21/2017 unid. roemmers caja envase blister comprimidos (e10848) 4 3.50 14.00
8/21/2017 ponds clarant seca sachet x 20 1 1.00 1.00
8/21/2017 frasco simple 1 1.00 1.00
8/21/2017 aguja
ab descartable
broncol nf 600 20g x 1liofilizado
polvo 1/2 para solución 1 0.20 0.20
silenai expectorante jarabe elifarma frasco x 120inyectable
ml
8/21/2017 medifarma
(en00823) caja vial + solvente x 5 ml (n25384) 5 21.00 105.00
8/21/2017 1 30.00 30.00
8/21/2017 jeringa 10ml+aguja 21 x 1 1/2 5 0.60 3.00
8/21/2017 aguja descartable 21g x 1 1/2 5 0.20 1.00
8/21/2017 frasco
voxaminesimple
50 mg tableta x 100 unid. e.s.c. pharmed caja 1 1.00 1.00
8/21/2017 flapex
envaseeblister
cápsulatabletas
x 120 (en00904)
unid. grunenthal caja envase blister 1 1.00 1.00
8/21/2017 tabletas
infectrim (e16872)
forte 800 6 1.00 6.00
dolomarket forte 50mgmg++160500mg mgtableta
tabletax recubierta
100 unid. hersil
x 200
8/21/2017 caja envase blister tabletas (n18860)
unid. brand and marketing caja envase blister tabletas 1 1.20 1.20
8/21/2017 (n25115) 1 1.30 1.30
8/21/2017 pañal babysec
hanalgeze 10 mg rn tableta
x 20 recubierta x 50 unid. hersil caja 1 10.00 10.00
8/21/2017 envase blister tabletas (n27202) 11 3.00 33.00
8/21/2017 suave papel rindemax naranja x 2 3 1.00 3.00
8/21/2017 gentagram 0.03%gotas oftalmicas 2 30.00 60.00
TOTAL 910.70
FECHA donamed f 2 mg tableta PRODUCTO
x 100 unid. medifarma caja CANTIDAD PRECIO IMPORTE
8/22/2017 envase blister tabletas (en01906) 2 1.00 2.00
8/22/2017 frasco simple 1 1.00 1.00
8/22/2017 gorro enfermera sueltos 2 0.50 1.00
8/22/2017 huggies
donamed pañal
f 2 mgsuelto xg x 100 unid. medifarma caja
tableta 10 1.00 10.00
8/22/2017 envase blister tabletas (en01906) 6 1.00 6.00
8/22/2017 peine pescado 1 0.50 0.50
8/22/2017 h&s suave manejable x 18ml 2 1.00 2.00
8/22/2017 vaso descartable 4 0.10 0.40
8/22/2017 aguja descartable 20g x 1 1/2 1 0.20 0.20
8/22/2017 colgate cepillo premier 1 2.50 2.50
8/22/2017 colgate
tinidazolcrema
500 mg herbal x 90recubierta
tableta gr x 8 unid. genfar caja 1 2.50 2.50
8/22/2017 envase
levonelle blister
500 mg tabletas
tableta(eg531)
recubierta x 7 unid. iq farma 12 1.50 18.00
8/22/2017 caja envase
ceftrex blisterpara
1 g polvo tabletas (n25086)
solución inyectable mks unidos 5 5.50 27.50
8/22/2017 caja vial x 1 g (e21215) 1 14.00 14.00
8/22/2017 jeringa 10ml+aguja 21 x 1 1/2 1 0.60 0.60
8/22/2017 toallas ladysoft normal x 10 3 3.50 10.50
8/22/2017 gentamicina 160 mg x 10 3 2.00 6.00
8/22/2017 jeringa 3 ml+aguja 21 x 1 1/2 3 0.40 1.20
8/22/2017 agua
bikonorcielo
5 mgsintableta
gas x 1lt
de liberación retardada x 100 1 2.00 2.00
8/22/2017 unid. nordic caja envase blister tabletas (e22350) 1 1.00 1.00
dolomarket forte 50 mg + 500 mg tableta recubierta x
8/22/2017 bahia faces color spf90 sobres x 20
200 unid. brand and marketing caja envase blister 3 2.50 7.50
8/22/2017 tabletas (n25115) 2 1.00 2.00
8/22/2017 bismutol tabletas x80 1 1.30 1.30
8/22/2017 esomeprazol 40 mg tab x 30 4 1.50 6.00
dolo neurobion forte dc solución inyectable x 3 unid.
8/22/2017 kolynos
merck caja cepillo master
jeringa prellenada doble cámara x 3 ml + 1 2.50 2.50
8/22/2017 accesorio (ee03297) 3 35.00 105.00
8/22/2017 jeringa 50 ml con pico 1 3.50 3.50
8/22/2017 suave papel rindemax naranja x 2 2 1.00 2.00
8/22/2017 vaso descartable 5 0.10 0.50
8/22/2017 huggies pañal suelto xg 3 1.00 3.00
8/22/2017 huggies pañal recien
sal de andrews polvonacido x 20 x 100 unid.
efervescente 1 10.00 10.00
8/22/2017 medifarma caja sobre (n4133) 2 0.50 1.00
8/22/2017 betametasona crema 0.05% farmindustria 1 3.00 3.00
8/22/2017 papel noble verde x 2 2 0.60 1.20
8/22/2017 sline limon x 500ml 2 1.20 2.40
8/22/2017 ism360
miofedrol x 250ml
relax plus comprimido recubierto x 100 unid. 1 2.50 2.50
8/22/2017 markos
fluoxetinacaja20envase blisterx comprimidos
mg cápsula 10 unid. genfar(n22404)
caja envase 2 1.70 3.40
8/22/2017 blister tabletas (eg2261) 1 0.80 0.80
8/22/2017 guantes
rapiler 5 esteriles
mg dual 6 1/2
tableta recubierta 1 1.50 1.50
doloaproxol forte 50 mg + x500100mgunid. teva caja
comprimido
8/22/2017 envase
recubiertoblister
x 400tabletas (n22013)
unid. markos caja envase blister 2 3.50 7.00
8/22/2017 comprimidos (n19093) 2 1.00 2.00
8/22/2017 suave papel rindemax verde rosado x2 1 1.10 1.10
8/22/2017 sildenafilo 100mg tab x 1 2 3.50 7.00
8/22/2017 toallas kotex teens x 10 1 3.50 3.50
8/22/2017 vaso descartable 2 0.20 0.40
8/22/2017 suave papel rindemax verde rosado x2 2 0.00 0.00
8/22/2017 suave papel rindemax verde rosado x2 2 1.10 2.20
8/22/2017 pañal huggies suelto g 2 0.90 1.80
8/22/2017 cetriler
panadol5500 ml comp rec x 100
mg tableta x 50 unid. gsk caja envase 2 3.00 6.00
8/22/2017 blister tabletas (e14831) 2 1.50 3.00
8/22/2017 agua cielo sin gas x 625ml 1 1.00 1.00
8/22/2017 pañal babysec sueltos xg 1 0.80 0.80
8/22/2017 agua cielo sin gas x 625ml 3 1.00 3.00
dorixina relax 125 mg + 5 mg comprimido recubierto x
8/22/2017 toalla ladysoft
100 unid. ultradelgada
roemmers x 8 blister comprimidos
caja envase 1 3.50 3.50
8/22/2017 (e10848)
dolomax plus tableta recubierta x 100 unid. medifarma 1 3.00 3.00
8/22/2017 caja envase blister tabletas (en02654) 2 1.50 3.00
8/22/2017 agua cielo sin gas x 625ml 2 1.00 2.00
8/22/2017 h&s limpieza
dobrix 100 x 18ml 1 1.00 1.00
zafin 325 mgmg cápsula
+ 37.5 mg xcomprimido
100 unid. siegfried
recubiertocajax envase
70
8/22/2017 blister cápsulas (en01408)
unid. farmaval caja envase blister comprimidos 1 1.00 1.00
8/22/2017 (e18957) 2 2.50 5.00
8/22/2017 agua san mateo x 600ml 1 1.50 1.50
8/22/2017 dentito crema chicle x 90 gr 1 3.00 3.00
8/22/2017 dentito cepillo galaxy 2 2.00 4.00
8/22/2017 jabon bea orange 1 2.00 2.00
8/22/2017 papel noble550
naproxeno morado x 2 x 100 unid. induquimica caja
mg tableta 2 0.70 1.40
8/22/2017 envase blister tabletas (en01486) 4 0.50 2.00
8/22/2017 cureband 5 0.20 1.00
plidan compuesto nf comprimido recubierto x 100
8/22/2017 ponds clarant secacaja
unid. roe1mmers sachet x 20blister comprimidos
envase 1 1.00 1.00
8/22/2017 (e10971)
donalab 2 2 mg tableta x 100 unid. vita pharma caja 2 1.30 2.60
8/22/2017 envase blister tabletas (en00930) 2 1.00 2.00
8/22/2017 agua cielo sin gas x 625ml 1 1.00 1.00
8/22/2017 agua san mateo
lincoplus 500 mgxcápsula
600ml x 60 unid. medifarma caja 2 1.50 3.00
8/22/2017 envase
dalmatrol blister
plustabletas
325 (n16287)
mg 50
+ 37.5 1 2.50 2.50
doloaproxol dual forte mg +mg500tableta recubierta x 50
mg comprimido
8/22/2017 unid.
recubierto x 400 unid. markos caja envase(n23224)
iq farma caja envase blister tabletas blister 1 2.00 2.00
8/22/2017 comprimidos (n19093) 1 1.00 1.00
8/22/2017 aquarius manzana x 500ml 1 1.70 1.70
8/22/2017 electrolight fresa x 475ml 2 2.00 4.00
8/22/2017 aquarius naranja x 500ml 1 1.70 1.70
8/22/2017 aquarius naranja x 500ml 1 1.70 1.70
8/22/2017 aquarius pera x 500ml 2 1.70 3.40
8/22/2017 dento cepillo medio 1 2.50 2.50
8/22/2017 papel eliterelax
miofedrol celeste duo x2 2 1.10 2.20
doloaproxol dualplus comprimido
forte 50 mg + 500 recubierto x 100 unid.
mg comprimido
8/22/2017 markos caja envase blister comprimidos
recubierto x 400 unid. markos caja envase blister (n22404) 4 1.70 6.80
8/22/2017 comprimidos
ryna del 5 mg(n19093)
tableta recubierta x 100 unid. delfarma 2 1.00 2.00
8/22/2017 caja envase blister tabletas (n26181) 2 2.00 4.00
8/22/2017 sline limon x 500ml 1 1.20 1.20
8/22/2017 volt botella x 300ml 1 2.00 2.00
8/22/2017 agua vida sin gas x 625 ml 1 1.00 1.00
8/22/2017 fre tee limonx 500ml 1 1.50 1.50
8/22/2017 agua cielo sin gas x 625ml 3 1.00 3.00
8/22/2017 agua vida sin gas x 625 ml 2 1.00 2.00
8/22/2017 agua vitaminizada azul x 500ml 1 2.00 2.00
8/22/2017 agua vitaminizada azul x 500ml 6 2.00 12.00
8/22/2017 gasa esteril 10 x 10 x 5 5 2.00 10.00
8/22/2017 guantes de examen l par 2 0.50 1.00
8/22/2017 esparadrapo durapore 2 pulg x 5 yd 1 6.50 6.50
8/22/2017 dexametasona 4 mg tab x 100 1 1.00 1.00
8/22/2017 jeringa 5ml+aguja 21 x 1 1/2 12 0.50 6.00
8/22/2017 vaselina sin perfume x 7 gr 1 1.00 1.00
8/22/2017 ponds clarant grasa sachet x 20 1 1.00 1.00
8/22/2017 papel elite 10
loratadina ultra
mgmorado
tableta xx 2100 unid. naturgen caja 2 1.20 2.40
8/22/2017 envase blister tabletas (ng6371) 10 0.30 3.00
8/22/2017 agua san
vickzzz 50luis
mgsin gas xrecubierta
tableta 500ml x 40 unid. teva caja 1 1.00 1.00
8/22/2017 envase blister tabletas (en00769) 5 1.80 9.00
8/22/2017 paracetamol
magal 500 mgoral
tab xhersil
100 frasco x 200 ml 1 0.20 0.20
plidan dcompuesto
suspensión nf comprimido recubierto x 100
8/22/2017 (n18742)
unid. roe1mmers caja envase blister comprimidos 1 25.00 25.00
8/22/2017 (e10971)
ab broncol nf 1200 polvo para suspensión inyectable 3 1.30 3.90
8/22/2017 medifarma caja vial + solvente x 5 ml (n25382) 2 21.00 42.00
8/22/2017 jeringa 10ml+aguja 21 x 1 1/2 1 0.60 0.60
8/22/2017 aguja descartable
enalapril 20g x x1100
10 mg tableta 1/2 unid. induquimica caja 1 0.20 0.20
8/22/2017 envase blister tabletas (ng2298) 10 0.20 2.00
8/22/2017 schick 3 hojas xtreme 1 3.50 3.50
8/22/2017 plenitud pañal x 10 5 4.00 20.00
8/22/2017 baby test tiras x 1 1 5.00 5.00
8/22/2017 suave papel rindemax naranja x 2 1 1.00 1.00
8/22/2017 papel noble morado x 2 5 0.70 3.50
8/22/2017 bolsa descartable de 0.20 1 0.20 0.20
8/22/2017 agua vida sin gas x 625 ml 2 1.00 2.00
8/22/2017 nivea deso women invisible x 20 1 1.00 1.00
8/22/2017 bolsa descartable
lexflonor de 0.20x 100 unid. novartis caja
750 mg tableta 5 0.20 1.00
8/22/2017 envase
fluimax blister
600 mgtabletas
tableta(e22325)
efervescente elifarma caja tubo 10 6.00 60.00
8/22/2017 x 10 tabletas (ee02742) 1 32.00 32.00
8/22/2017 dolo meloxic tab x 60 3 1.50 4.50
8/22/2017 toallas ladysoft normal sueltas 1 0.50 0.50
8/22/2017 pañal babysec sueltos m 22 0.50 11.00
8/22/2017 vaso descartable 1 1.00 1.00
8/22/2017 pañal babysec sueltos m 10 0.60 6.00
8/22/2017 dolo meloxic tab x 60 4 1.50 6.00
electroral pediatrico sabor uva solución medifarma
8/22/2017 frasco
donamed x 1 lf (n20104)
2 mg tableta x 100 unid. medifarma caja 1 11.00 11.00
8/22/2017 envase blister
panadol antigripal tabletas (en01906)
nf tableta x 100 unid. gsk caja 2 1.00 2.00
8/22/2017 envase
urobioticblister
forte tabletas
400 (e20318)
mg 50
+ 100 1 2.30 2.30
doloaproxol dual forte mg mg cápsula
+ 500 x 100 unid.
mg comprimido
8/22/2017 siegfried caja envase blister tabletas (n19955)
recubierto x 400 unid. markos caja envase blister 2 1.50 3.00
8/22/2017 comprimidos (n19093) 2 1.00 2.00
8/22/2017 agua
apronax cielo
550sin mggas x 625ml
tableta 3 1.00 3.00
doloaproxol dual forte 50recubierta
mg + 500xmg 120comprimido
unid. bayer
8/22/2017 caja envase blister tabletas (en01992)
recubierto x 400 unid. markos caja envase blister 4 2.00 8.00
8/22/2017 comprimidos (n19093) 4 1.00 4.00
8/22/2017 colgate crema herbal x 90 gr 1 2.00 2.00
8/22/2017 schick 3 hojas xtreme 1 2.50 2.50
8/22/2017 colgate crema triple x 25 gr 1 1.50 1.50
8/22/2017 agua san luis sin gas x 625ml 2 1.00 2.00
8/22/2017 dentito
labopancrema
0.5 mgchicle x 90
tableta gr unid. keyfarm caja envase
x 100 1 2.50 2.50
8/22/2017 blister
pasumatabletas
nf 50 mg (n20543)
tableta recubierta x 10 unid. inti caja 1 1.00 1.00
8/22/2017 envase blister tabletas (ee02332) 2 3.00 6.00
8/22/2017 dentito cepillo galaxy 1 2.00 2.00
8/22/2017 dentito crema
cefalexina 500 chicle
mgfortex 90 grx 100 unid. farmindustria
cápsula 2 2.50 5.00
doloaproxol dual 50 mg + 500 mg comprimido
8/22/2017 caja envasexblister
recubierto tabletas
400 unid. markos(ng4488)
caja envase blister 1 0.50 0.50
8/22/2017 comprimidos (n19093)
aspirina 500 mg tableta x 100 unid. bayer caja envase 2 1.00 2.00
8/22/2017 blister
doproxtabletas
550 mg (e23170)
comprimido x 100 unid. andreu caja 5 0.60 3.00
8/22/2017 envase blister
cloranfenicol comprimidos
500 forte
mg cápsula (n17538) 1 1.00 1.00
doloaproxol dual 50 mg x+ 100
500 unid. naturgen caja
mg comprimido
8/22/2017 envase blister tabletas (ng3229)
recubierto x 400 unid. markos caja envase blister 1 0.80 0.80
8/22/2017 comprimidos
ketorolaco 10 (n19093)
mg tableta x 100 unid. naturgen caja 2 1.00 2.00
8/22/2017 envase blister tabletas (ng3166) 2 0.30 0.60
8/22/2017 pañal huggies recien nacido x 50 2 21.00 42.00
8/22/2017 kotex nocturna
enalapril 10 mg evolution x 8 unid. induquimica caja
tableta x 100 2 4.50 9.00
8/22/2017 envase
dolofenacblister
flex tabletas
tableta x(ng2298)
20 unid. medifarma caja 10 0.10 1.00
8/22/2017 envase blister tabletas (en02690)
labopan 0.5 mg tableta x 100 unid. keyfarm caja envase 2 2.00 4.00
8/22/2017 blister
nopramaxtabletas
550 mg(n20543)
tableta x 100 unid. roxfarma caja 4 0.80 3.20
8/22/2017 envase blister comprimidos (n27023) 2 1.00 2.00
TOTAL 814.90
FECHA PRODUCTO CANTIDAD PRECIO IMPORTE
8/23/2017 pañal babysec m x 22 und 1 12.00 12.00
8/23/2017 cuajo verde hansen x 100
droxilar 500 mg cápsula x 48 unid. sobres 1 1.00 1.00
8/23/2017 siegfried
peine
dolomax pescado
caja
plus envase
tabletablister capsulas
recubierta x 100 1 0.50 0.50
8/23/2017 (en01223)
unid. medifarma caja envase blister 2 3.00 6.00
8/23/2017 tabletas (en02654)
dolo benalgin forte tableta con cubierta 2 1.50 3.00
8/23/2017 entérica
toall humedas
clavoxilin xplus babysec
20 unid.
875 lusa+xcaja
mg 60 envase
125 mg blister 1 6.00 6.00
8/23/2017 tabletas (n26538)
comprimido recubierto x 16 unid. pharbal 1 2.50 2.50
8/23/2017 caja envase blister comprimido
eutirox 125 µg tableta x 50 unid. merck (e15824) 2 6.50 13.00
8/23/2017 caja envase blister tabletas (ee00354) 2 1.50 3.00
8/23/2017 vick vaporub x 100 gr 1 13.00 13.00
8/23/2017 ponds clarant grasa sachet x 20 1 1.00 1.00
8/23/2017 vick vaporub lata x 12
broadcef 1 g polvo para solucióngr 1 2.50 2.50
8/23/2017 alcohol 96 x 120ml
inyectable mks unidos caja vial + ampolla 2 1.50 3.00
8/23/2017 x 3.5 ml (ee01241) 4 14.00 56.00
8/23/2017 jeringa 10ml+aguja 21 x 1 1/2 1 0.60 0.60
8/23/2017 aguja descartable 21g x 1 1/2 1 1.40 1.40
8/23/2017 sline limon x 500ml 1 1.20 1.20
8/23/2017 power limalimon x 475 ml 1 2.00 2.00
8/23/2017 volt botella x 300ml 3 2.00 6.00
8/23/2017 jeringa 20ml+aguja 21 x 1 1/2
infectrim forte 800 mg + 160 mg tableta x 1 1.00 1.00
8/23/2017 tuinies
100 hisopos
unid.2hersil
donalab x
2 mg caja 50
tabletabolsa
envase
x 100blister
unid. vita 1 1.00 1.00
8/23/2017 pharma
tabletas caja
(n18860)
envase blister tabletas 2 1.20 2.40
8/23/2017 (en00930) 2 1.00 2.00
8/23/2017 colgate crema herbal x 90
lincoplus 500 mg cápsula x 60 unid. gr 1 2.50 2.50
8/23/2017 medifarma
bahia facesplus
dalmatrol spf90
caja sobres
envase
325 x 20 mg
mg +blister
37.5 tabletas
tableta 1 2.00 2.00
8/23/2017 (n16287)
recubierta x 50 unid. iq farma caja envase 24 2.50 60.00
8/23/2017 blister tabletas (n23224) 1 2.00 2.00
8/23/2017 fre tee vidrio x 450ml 1 2.00 2.00
8/23/2017 bolsa descartable de 0.20
panadol antigripal nf tableta x 100 unid. 2 0.20 0.40
8/23/2017 panadol
gsk caja envase
antigripal blister tabletasx 100
nf tableta (e20318)
unid. 1 2.30 2.30
8/23/2017 gsk caja envase blister tabletas (e20318) 1 2.30 2.30
8/23/2017 alcohol gel floresta puro x300ml 1 7.50 7.50
8/23/2017 dia
schick
plus3 1.5
hojasmgxtreme
tableta jc.robri caja 1 3.50 3.50
8/23/2017 envase blister tabletas (ee00494)
voxamine 50 mg tableta x 100 unid. e.s.c. 1 15.00 15.00
8/23/2017 pharmed
papel toalla scott
caja envasex 3 blister tabletas 3 2.50 7.50
8/23/2017 (en00904)
aspirina 500
nisoprex 20 mgmgcomprimido
tableta x 100x unid. bayer
100 unid. 8 1.00 8.00
8/23/2017 caja envase
elifarma
ryna del 5caja blister
mgenvase tabletas
tabletablister (e23170)
comprimidos
recubierta x 100 4 0.60 2.40
8/23/2017 unid.
(en00218)
delfarma
naproxeno 550 caja envase xblister
mg tableta tabletas
100 unid. 3 2.20 6.60
8/23/2017 (n26181)
induquimica caja mg envase 3 2.00 6.00
azo baccidal dual
doloaproxol 500 forte 50blister
+ 100 tabletas
mg+tableta
mg 500 mg
8/23/2017 (en01486)
recubierta
comprimido x 100 unid. e.s.c.
recubierto x 400pharmed
unid. caja 3 0.50 1.50
8/23/2017 markos
envase blister tabletas
caja envase (n24313)
blister comprimidos 4 2.00 8.00
8/23/2017 (n19093) 3 1.00 3.00
8/23/2017 magal
migradorixina
zaldiard37.5 mgtab
suspensión x 10
+ 325 oral hersil frasco x
mg comprimido 5 2.00 10.00
8/23/2017 200 ml (n18742)
recubierto x 60 unid. grunenthal caja 1 25.00 25.00
8/23/2017 envase blister comprimidos (e17534) 3 3.60 10.80
8/23/2017 papel nobele verde x 2 1 0.60 0.60
8/23/2017 papel noble morado x 2 2 0.70 1.40
8/23/2017 jabon carbolico campeon 1 2.00 2.00
8/23/2017 green tea x 20 te 1 1.00 1.00
8/23/2017 agua
ryna delcielo
5 mg sintableta
gas x 625ml
recubierta x 100 1 1.00 1.00
8/23/2017 unid.
greendelfarma
tea x 20 te caja envase blister tabletas 1 1.00 1.00
8/23/2017 (n26181) 1 2.00 2.00
8/23/2017 agua san luis x 2.5lt 1 3.50 3.50
8/23/2017 condon sensation liso x 3 3 1.00 3.00
8/23/2017 rexona deso men v8 sobres x 20 1 0.80 0.80
8/23/2017 laxofast sobres x 4 3 16.50 49.50
8/23/2017 papel elite celeste duo x 2 2 1.10 2.20
8/23/2017 cotidian toalla multiuso x 10 6 4.00 24.00
8/23/2017 frasco simple 1 1.00 1.00
8/23/2017 vaso descartable 2 0.10 0.20
8/23/2017 peine grande 1 1.00 1.00
8/23/2017 colgate crema herbal x 90 gr 1 2.50 2.50
8/23/2017 dento cepillo
lincoplus medio
500dualmg forte
cápsula 1 2.50 2.50
doloaproxol 50 xmg60+unid.
500 mg
8/23/2017 medifarma
protex jaboncaja
comprimido fresh x 75 gr
envase
recubierto blister tabletas
x 400 unid. 1 3.00 3.00
8/23/2017 (n16287)
markos caja envase blister comprimidos 2 2.00 4.00
8/23/2017 (n19093)
ranitidina 300 mg tableta recubierta x 100 2 1.00 2.00
8/23/2017 unid.
ism360 x 250mlcaja envase blister
naturgen 1 2.50 2.50
8/23/2017 tabletas (ng3160) 4 0.30 1.20
8/23/2017 agua vida sin gas x 1 lt 1 2.00 2.00
8/23/2017 papel nobele verde x 2 2 0.60 1.20
8/23/2017 vick vaporub
lincoplus lata
500dual x 12 gr x 60 unid.
mg forte
cápsula 2 2.50 5.00
doloaproxol 50 mg + 500 mg
8/23/2017 medifarma
agua san luis
comprimido conenvase
caja gas x 625ml
recubierto blister tabletas
x 400 unid. 1 1.30 1.30
8/23/2017 (n16287)
markos caja100
doxiciclina envase blister comprimidos
mg cápsula x 100 unid. 1 2.50 2.50
8/23/2017 (n19093)
naturgen caja envase blister tabletas 1 1.00 1.00
8/23/2017 (ng6057) 2 0.50 1.00
8/23/2017 pañal huggies recien nacido x 50 1 23.00 23.00
8/23/2017 acido poliglicolico 1 mr 25 5 10.00 50.00
8/23/2017 pañal huggies recien nacido x 20 1 9.50 9.50
8/23/2017 colgate crema triple x 25 gr 1 1.50 1.50
8/23/2017 vaso descartable 2 0.10 0.20
8/23/2017 agua san luis
miofedrol relaxsin gas xcomprimido
625ml 1 1.20 1.20
doloaproxol dualplus
forte 50 mg + 500 mg
8/23/2017 alcohol
recubierto 96
comprimidox 100 x 120ml unid. markos
recubierto caja envase
x 400 unid. 1 1.00 1.00
8/23/2017 markos
blister comprimidos
caja envase (n22404)
blister comprimidos
cloranfenicol 500 mg cápsula x 100 unid. 2 1.50 3.00
8/23/2017 (n19093)
naturgentableta
rynatan caja envase blistermedifarma
x 30 unid. tabletas 2 1.00 2.00
8/23/2017 caja
(ng3229)
envase blister tabletas (n4362) 2 0.50 1.00
8/23/2017 cloranfenicol 500 mg cápsula x 100 unid. 2 2.50 5.00
doloaproxol dual forte 50 mg + 500 mg
8/23/2017 babytest
naturgen
comprimido xcaja
cassette
envase blister
recubierto x 400tabletas
unid. 6 5.00 30.00
8/23/2017 markos
(ng3229)
rynatan tableta x 30 unid. comprimidos
caja envase blister medifarma 1 0.80 0.80
8/23/2017 (n19093)
caja envase blister tabletas (n4362) 1 1.00 1.00
8/23/2017 doxiciclina 100 mg cápsula x 100 unid. 1 2.00 2.00
8/23/2017 naturgen
tuinies
hemorrodiltetina
caja super
envase blister
compuesto tabletas x
nf supositorio 1 3.00 3.00
8/23/2017 (ng6057)
10 unid.5farmindustria
bikonor mg tableta decaja supositorio
liberación 6 0.40 2.40
8/23/2017 retardada
(n24256) x 100 unid. nordic caja envase 2 4.00 8.00
8/23/2017 blister
delfarma tabletas
enddol(e22350)
500 mg + 50 mg tableta 2 1.00 2.00
8/23/2017 condon
recubierta sensation
x 200
microser 16 mg tableta anillosx3
unid. delfarma
x 40 unid. caja 3 1.00 3.00
8/23/2017 grunenthal
envase blister cajatabletas
envase (n23492)
blister tabletas 1 1.00 1.00
doloaproxol dual forte 50 mg + 500 mg
8/23/2017 (ee02172)
comprimido recubierto x 400 unid. 2 3.30 6.60
8/23/2017 pañal
markosbabysec
caja envase m x 22 und comprimidos
blister 1 11.00 11.00
8/23/2017 (n19093) 3 1.00 3.00
ryna del 5 mg tableta recubierta x 100
unid. delfarma
loratadina 10 mg caja envase
tableta blister
x 100 tabletas
unid.
8/23/2017 (n26181)
naturgen caja envase blister tabletas 1 2.00 2.00
8/23/2017 (ng6371) 2 0.30 0.60
8/23/2017 pañal babysec m
fluconazol mgxforte
22 und x 100 unid. 1 11.00 11.00
doloaproxol150dual tableta
50 mg + 500 mg
8/23/2017 naturgen
guantes
comprimidoesteriles 8 blister
cajarecubierto
envase x 400tabletas
unid. 12 1.50 18.00
8/23/2017 (ng5260)
markos caja
urofurin 100envase blister
mg tableta comprimidos
x 120 unid. iq 2 1.00 2.00
8/23/2017 (n19093)
farma caja envase blister tabletas 1 1.00 1.00
8/23/2017 (en01957)
donalab 2 2 mg tableta x 100 unid. vita 1 2.00 2.00
8/23/2017 papel
pharma noble
cajamorado x 2 tabletas
envase blister 2 0.70 1.40
8/23/2017 (en00930)
neo silenai 40
pantocalm pediatrico
mg tabletajarabe elifarma
de liberación 1 1.00 1.00
8/23/2017 retardada
caja frascoxx14120 ml (en01050)
unid. iq farma caja envase 1 27.00 27.00
8/23/2017 blister
flatuzymtabletas
cápsula(n26979)
x 100 unid. iq farma 1 3.30 3.30
8/23/2017 caja envase blister tabletas (n26017) 6 1.00 6.00
8/23/2017 frasco simple 1 1.00 1.00
8/23/2017 frasco simple 1 1.00 1.00
8/23/2017 agua san luis
ab broncol nf sin
600gas x 500ml
polvo liofilizado para 1 1.00 1.00
8/23/2017 warmi capsulas x 90
solución inyectable medifarma caja vial + 13 1.30 16.90
8/23/2017 solvente x 5 ml (n25384) 1 23.00 23.00
8/23/2017 papel elite doble hoja x 2 6 0.90 5.40
8/23/2017 papel elite plus x 2 4 1.20 4.80
8/23/2017 agua san luis sin gas x 625ml 1 1.30 1.30
8/23/2017 frasco simple 1 1.00 1.00
8/23/2017 peine pescado 1 0.50 0.50
8/23/2017 aguja descartable
dexametasona 20g xml
4 mg/2 1 1/2
solución 1 0.20 0.20
8/23/2017 schick 2 hojas exacta
inyectable x 100benzatinica
bencilpenicilina unid. labot 1caja200ampolla
000 ui 1 2.50 2.50
8/23/2017 xpolvo
2ml (ee01141)
para suspensión inyectable x 25 2 1.00 2.00
8/23/2017 unid. dany caja vial (ee01636) 1 3.00 3.00
8/23/2017 vaso descartable
flatuzym cápsula x 100 unid. iq farma 4 0.10 0.40
8/23/2017 caja envase blister tabletas (n26017) 1 1.00 1.00
8/23/2017 condon sensation liso x 3 3 1.00 3.00
8/23/2017 pañal babysec chico x 26 und 1 12.00 12.00
8/23/2017 aguja descartable 21g x 1 1/2 6 0.20 1.20
8/23/2017 peine pescado 1 0.50 0.50
8/23/2017 vaso descartable 2 0.10 0.20
8/23/2017 pañuelos desechables elite x 10 1 0.50 0.50
8/23/2017 huggies pañal suelto xg 5 1.00 5.00
8/23/2017 dolo benalgin forte tableta con cubierta en 1 2.40 2.40
8/23/2017 urobiotic forte 400 mg + 100 mg cápsula x 1 1 1.50 1.50
8/23/2017 doloaproxol dual forte 50 mg + 500 mg com 1 1.00 1.00
8/23/2017 mantequilla de cacao x 100 1 0.30 0.30
8/23/2017 plenitud pañal x 10 6 4.00 24.00
8/23/2017 peine pescado 1 0.50 0.50
8/23/2017 kolynos cepillo master 1 2.50 2.50
8/23/2017 kolynos crema blanco x 25 gr 1 1.50 1.50
8/23/2017 h&s suave manejable x 18ml 6 1.00 6.00
8/23/2017 papel noble morado x 2 2 0.70 1.40
8/23/2017 jabon bea grape 1 1.60 1.60
TOTAL 830.90
FECHA amoval 500 mg tableta PRODUCTO
x 70 unid. farmaval caja CANTIDAD PRECIO IMPORTE
8/24/2017 envase
dolomax blister tabletas (e12942) 1 1.00 1.00
lexflonor 400
500 mg
500tableta
mg tabletax 120recubierta
unid. medifarma
x 10
8/24/2017 caja
unid.envase
nordic blister tabletas
caja envase (n16562)
blister tabletas 1 1.00 1.00
8/24/2017 panadol
(ee02651) 500 mg tableta x 50 unid. gsk caja 4 4.00 16.00
8/24/2017 envase blister tabletas (e14831)
labopan 0.5 mg tableta x 100 unid. keyfarm caja 1 1.50 1.50
8/24/2017 envase blister tabletas (n20543) 2 1.00 2.00
8/24/2017 papel toalla scott x 3 1 2.00 2.00
8/24/2017 jeringa 1ml+aguja 26gx12 2 0.50 1.00
8/24/2017 huggies pañal suelto xg 1 1.00 1.00
8/24/2017 aquarius manzana x 500ml 1 1.70 1.70
8/24/2017 agua
panadolsan luis sin gas x 625ml 2 1.30 2.60
dalmatrolantigripal
plus 325nf mgtableta
+ 37.5 xmg 100 unid. gsk
tableta
8/24/2017 caja envasex blister
recubierta 50 unid.tabletas
iq farma (e20318)
cajarecubierto
envase blister 2 2.30 4.60
miofedrol relax plus comprimido x
8/24/2017 100
tabletas
unid.(n23224)
markos caja envase blister 2 2.00 4.00
8/24/2017 comprimidos (n22404) 3 2.00 6.00
8/24/2017 vaso descartable 5 0.10 0.50
8/24/2017 agua san luis sin gas x 625ml 1 1.30 1.30
doloaproxol dual forte 50 mg + 500 mg
8/24/2017 pañal cotidian
comprimido clasico mxsueltos
recubierto 400 unid. markos caja 5 2.00 10.00
8/24/2017 envase blister comprimidos (n19093)
rapiler 5 mg tableta recubierta x 100 unid. teva 2 1.00 2.00
8/24/2017 caja envase blister tabletas (n22013) 2 3.50 7.00
8/24/2017 huggies pañal xg x 48 1 46.00 46.00
8/24/2017 plenitud pañal g sueltos 10 2.50 25.00
8/24/2017 kolynos crema blanco x 25 gr 1 1.50 1.50
8/24/2017 dento cepillo medio 1 2.50 2.50
8/24/2017 agua san mateo x 600ml 1 1.50 1.50
8/24/2017 fre tee vidrio x 450ml 1 2.00 2.00
8/24/2017 toallas humedas babysec ultra x 50 6 5.00 30.00
8/24/2017 rexona deso nutritive sobres x 20 1 1.00 1.00
8/24/2017 agua vitaminizada azul x 500ml 1 2.00 2.00
8/24/2017 agua san luis sin gas x 625ml 1 1.30 1.30
8/24/2017 papel elite ultra morado x 2 2 1.20 2.40
8/24/2017 aquarius pera x 500ml 1 1.70 1.70
8/24/2017 vaso descartable 1 0.10 0.10
8/24/2017 lorophyn
papel noble 150morado
mg ovulo x 2x 100 unid. medifarma 1 9.00 9.00
8/24/2017 caja envase blister ovulos (n19110)
gastroral 800 mg + 60 mg/10 ml suspensión oral 2 2.50 5.00
8/24/2017 iq farma nf
pasuma caja
50frasco x 200recubierta
mg tableta ml (n24602) x 10 unid.x 1 21.00 21.00
bikonor 5 mg tableta de liberación retardada
8/24/2017 inti
100 caja envase
unid.tableta blister
nordic xcaja tabletas
envase (ee02332)
blister tabletas 1 3.50 3.50
rynatan 30 unid. medifarma caja
8/24/2017 (e22350)
envase blister tabletas (n4362) 14 0.80 11.20
doloaproxol dual forte 50 mg + 500 mg
8/24/2017 comprimido recubierto x 400 unid. markos caja 2 2.50 5.00
exazol forte 800 mg + 160 mg comprimido x 100
8/24/2017 envase blistercaja
unid. andreu comprimidos
envase blister(n19093)
comprimidos 2 1.00 2.00
8/24/2017 (n25036)
furazolidona 100 mg tableta x 100 unid. 1 1.50 1.50
8/24/2017 naturgen caja envase blister tabletas (en00265) 1 0.50 0.50
8/24/2017 kolynos cepillo master 1 2.50 2.50
doloaproxol dual forte 50 mg + 500 mg
8/24/2017 pañal babysec g x 62
comprimido recubierto x 400 unid. markos caja 2 34.00 68.00
8/24/2017 envase
ryna delblister
5 mg comprimidos (n19093) 2 1.00 2.00
cefadroxilo 500tableta recubierta
mg tableta x 100xunid.
recubierta 100
8/24/2017 delfarma
unid. caja envase
farmindustria blister
caja50envase tabletas (n26181)
blister 2 1.50 3.00
doloaproxol dual forte mg + 500 mg
8/24/2017 comprimidos (ng3452) x 400 unid. markos caja
comprimido recubierto 1 1.00 1.00
8/24/2017 envase blister comprimidos (n19093) 1 1.00 1.00
neocortiprex 15 mg/5 ml solución oral teva caja
8/24/2017 frasco x 60 ml (n26184) 1 33.00 33.00
8/24/2017 ponds clarant grasa sachet x 20 2 1.00 2.00
8/24/2017 agua
pasuma sannfluis sin
mggas
50dual x 625ml
tableta 1 1.20 1.20
doloaproxol forte 50 recubierta
mg + 500 mg x 10 unid.
8/24/2017 inti
comprimido recubiertotabletas
caja envase blister (ee02332)
x 400 unid. markos caja 2 3.50 7.00
8/24/2017 envase blister
ketorolaco 10 mgcomprimidos
tableta x 100 (n19093)
unid. naturgen 1 1.00 1.00
8/24/2017 caja envase blister tabletas (ng3166)
loratadina 10 mg tableta x 100 unid. naturgen 1 0.30 0.30
8/24/2017 caja
ryna envase
del 5 mg blister tabletas (ng6371) 6 0.30 1.80
cefadroxilo 500tableta recubierta
mg tableta x 100xunid.
recubierta 100
8/24/2017 unid.
delfarma caja envase
farmindustria blister
caja envasetabletas
blister(n26181) 1 2.00 2.00
8/24/2017 comprimidos (ng3452) 1 1.00 1.00
8/24/2017 loratadina
condon sensation anillosx3 3 1.00 3.00
cefadroxilo10 500mgmg tableta
tabletax 100 unid. naturgen
recubierta x 100
8/24/2017 caja envase blister tabletas (ng6371)
unid. farmindustria caja envase blister 2 0.30 0.60
8/24/2017 comprimidos (ng3452) 2 1.00 2.00
8/24/2017 supositorio de glicerina niños 2 0.50 1.00
8/24/2017 agua
quilxibsan
200luis
mgsincápsula
gas x 625ml
x 100 5 1.20 6.00
doloaproxol dual forte 50 mg unid.
+ 500quimica
mg suiza
8/24/2017 caja envase blister
comprimido recubierto tabletas
x 400(n22553)
unid. markos caja 2 1.00 2.00
8/24/2017 envase
dia plusblister
mgcomprimidos
1.5 500 tableta (n19093)
jc.robri caja envase 2 1.00 2.00
cefadroxilo mg tableta recubierta x 100
8/24/2017 unid.
blisterfarmindustria
tabletas (ee00494) caja envase blister 2 14.00 28.00
8/24/2017 comprimidos
doprox 550 mg (ng3452)
comprimido x 100 unid. andreu 2 1.00 2.00
8/24/2017 caja envase blister comprimidos (n17538) 2 1.50 3.00
8/24/2017 agua oxigenada x 60ml 1 1.00 1.00
doloaproxol dual forte 50 mg + 500 mg
8/24/2017 red bull x 250ml
comprimido recubierto x 400 unid. markos caja 1 6.50 6.50
8/24/2017 envase
urofurin blister
100 mgcomprimidos
tableta (n19093) 3 1.00 3.00
doloaproxol dual forte 50x mg120 +unid.
500 mgiq farma
8/24/2017 caja envase blister tabletas (en01957)
comprimido recubierto x 400 unid. markos caja 3 1.50 4.50
8/24/2017 envase
labopan blister
0.5 mg comprimidos (n19093) 1 1.00 1.00
doloaproxol dualtableta
forte 50 x 100
mg +unid.
500 keyfarm
mg caja
8/24/2017 envase blister
comprimido tabletas
recubierto (n20543)
x 400 1 1.00 1.00
doloaproxol dual forte 50 mg +unid.
500 markos
mg caja
8/24/2017 comprimido
envase blisterrecubierto
comprimidos x 400 (n19093)
unid. markos caja 1 1.00 1.00
plidan compuesto nf comprimido recubierto x
8/24/2017 envase blister comprimidos (n19093)
100 unid. roe1mmers caja envase blister 1 1.00 1.00
8/24/2017 comprimidos (e10971) 1 1.30 1.30
8/24/2017 bahia
quilxibfaces
200 mgcolor spf90 xsobres
cápsula x 20 quimica suiza
100 unid. 2 2.50 5.00
8/24/2017 caja envase blister tabletas (n22553) 2 1.50 3.00
8/24/2017 suave papel150
fluconazol rindemax
mg tabletanaranja
x 100x 2unid. naturgen 2 1.00 2.00
8/24/2017 caja envase blister tabletas (ng5260) 2 1.00 2.00
8/24/2017 pantene shampoo
dia plus 1.5 mg tabletacuidaso clasico
jc.robri cajax 400ml
envase 1 18.00 18.00
8/24/2017 blister tabletas (ee00494) 1 15.00 15.00
8/24/2017 fre tee frutos rojos 500ml 1 1.50 1.50
8/24/2017 electrolight maracuya x 475ml 2 2.00 4.00
8/24/2017 agua san luis sin gas x 625ml 1 1.30 1.30
8/24/2017 agua san luis sin gas x 1lt 2 2.50 5.00
8/24/2017 papel noble15
meloxicam morado x 2 x 100 unid. naturgen
mg tableta 1 0.70 0.70
8/24/2017 caja envase blister tabletas
carbamazepina 200 mg tableta (ng6196)
x 200 unid. teva 4 0.50 2.00
8/24/2017 caja envase blister tabletas (en00996) 100 0.20 20.00
8/24/2017 agua san luis sin gas x 1lt 1 2.50 2.50
8/24/2017 agua san luis sin gas x 1lt 2 2.50 5.00
8/24/2017 papel elite ultra morado x 2 1 1.30 1.30
8/24/2017 jeringa 1ml+aguja 26gx12 3 0.50 1.50
8/24/2017 suave papel rindemax naranja x 2 1 1.00 1.00
omepra n 40 mg polvo liofilizado para solución
8/24/2017 frasco simple
inyectable x 20 unid. nordic caja ampolla 1 1.00 1.00
8/24/2017 (e19614) 1 8.50 8.50
miofedrol relax plus comprimido recubierto x
100 unid. markos caja envase blister
8/24/2017 comprimidos (n22404) 20 1.70 34.00
dolomax plus tableta recubierta x 100 unid.
8/24/2017 electrolight
medifarma cajafresaenvase
x 475mlblister tabletas 1 2.00 2.00
8/24/2017 (en02654) 3 1.50 4.50
8/24/2017 frasco simple 2 1.00 2.00
8/24/2017 suave papel rindemax naranja x 2 2 1.00 2.00
8/24/2017 peine pescado 6 0.50 3.00
8/24/2017 protex jabon limpieza profunda x 75 gr 1 2.50 2.50
8/24/2017 h&s suave manejable x 18ml 2 1.00 2.00
8/24/2017 frasco simple 1 1.00 1.00
8/24/2017 aguja descartable 20g x 1 1/2 12 0.20 2.40
8/24/2017 dento cepillo medio 1 2.50 2.50
8/24/2017 kolynos crema herbal x 90 gr 1 2.50 2.50
8/24/2017 suave papel rindemax naranja x 2 1 1.00 1.00
8/24/2017 alcohol 96 x 60 ml 1 1.00 1.00
8/24/2017 aceite de ricino x 30 ml 1 1.50 1.50
8/24/2017 gasa esteril
benalgin 10 xsolución
1000 10 x 5 para inyección lusa caja 2 2.00 4.00
8/24/2017 ampolla x 2 ml + accesorios (n19779) 4 15.00 60.00
8/24/2017 papel noble morado x 2 2 0.70 1.40
8/24/2017 lincoplus
desentin repair mgx forte
500dual 75 ml x 60 unid. medifarma
cápsula 2 25.00 50.00
doloaproxol 50 mg + 500 mg
8/24/2017 caja envase blister tabletas
comprimido recubierto x 400 (n16287)
unid. markos caja 4 2.50 10.00
8/24/2017 envase blister comprimidos (n19093) 4 1.00 4.00
8/24/2017 jeringa 1ml+aguja
urzac flex comprimido26gx12
x 100 unid. roemmers 2 0.50 1.00
8/24/2017 caja envase blister comprimidos
cefmark 500 mg cápsula x 100 unid. (e20492)
markos 1 3.00 3.00
8/24/2017 caja envase blister capsulas (ee01977) 9 2.50 22.50
doloaproxol dual forte 50 mg + 500 mg
8/24/2017 schick ultrabarba
comprimido x 1 x 400 unid. markos caja
recubierto 1 1.50 1.50
vimax 50 50 mg comprimido recubierto x 20
8/24/2017 unid.
envase blister comprimidos
roemmers caja envase(n19093)
blister comprimidos 6 1.00 6.00
8/24/2017 (e21003) 1 7.50 7.50
8/24/2017 pañal
dia plusbabysec
1.5 mgrntableta
x 20 jc.robri caja envase 1 10.00 10.00
8/24/2017 blister tabletas (ee00494) 1 15.00 15.00
doloaproxol dual forte 50 mg + 500 mg
8/24/2017 pinza con seguro
comprimido recubierto x 400 unid. markos caja 1 2.00 2.00
cefalexina 500 mg cápsula x 100 unid.
8/24/2017 envase blister caja
farmindustria comprimidos (n19093)
envase blister tabletas 5 1.00 5.00
8/24/2017 (ng4488) 5 0.50 2.50
8/24/2017 huggies pañal suelto xxg 6 1.10 6.60
8/24/2017 pañal babysec g x 62 1 35.00 35.00
dolomax plus tableta recubierta x 100 unid.
8/24/2017 medifarma
bismutol tabletas x80 blister tabletas
caja envase 2 1.30 2.60
8/24/2017 (en02654) 2 1.50 3.00
8/24/2017 papel noble morado
carbamazepina 200 mgx 2 tableta x 200 unid. teva 1 0.70 0.70
8/24/2017 caja envase blister tabletas (en00996) 50 0.20 10.00
8/24/2017 jeringa 1ml+aguja 26gx12 1 0.50 0.50
8/24/2017 ism360 x 250ml 1 2.50 2.50
8/24/2017 immuvit plus q 10 cap x 30 1 2.00 2.00
8/24/2017 cotidian toalla multiuso x 10 1 3.80 3.80
8/24/2017 toallas kotex normal tela x 10 6 3.50 21.00
8/24/2017 panadol
alcohol 96 x 120mlnf tableta x 100 unid. gsk
antigripal 1 1.50 1.50
8/24/2017 caja envase
carbamazepina blister
200tabletas (e20318)
mg tableta x 200 unid. teva 1 2.30 2.30
8/24/2017 caja envase blister tabletas (en00996)
ryna del 5 mg tableta recubierta x 100 unid. 35 0.20 7.00
8/24/2017 delfarma caja envase blister tabletas (n26181) 2 2.00 4.00
8/24/2017 pañal babysec sueltos g 2 0.70 1.40
8/24/2017 toallas kotex normal tela x 10 1 3.50 3.50
TOTAL 914.60
FECHA PRODUCTO CANTIDAD PRECIO IMPORTE
8/25/2017 electrolight naranja x 475ml 1 2.00 2.00
8/25/2017 nexium 40 mg comprimido x 14 unid. 8 9.00 72.00
astrazeneca
cinageron caja envase
cápsula x 60 blistergrunenthal
unid. comprimidos caja
8/25/2017 (e18943) 30 2.60 78.00
envase
plenitud blister
pañal tabletas
x 10 (e16901)
8/25/2017 1 4.00 4.00
8/25/2017 papel elite ultra morado x 2 2 1.20 2.40
8/25/2017 frasco simple 1 1.00 1.00
8/25/2017 aguja descartable 20g x 1 1/2 2 0.20 0.40
8/25/2017 jeringa 5ml+aguja 21 x 1 1/2 1 0.50 0.50
8/25/2017 h&s limpieza x 18ml 3 1.00 3.00
8/25/2017 bahia faces spf90 sobres x 20 1 2.50 2.50
8/25/2017 bahia faces spf90 sobres x 20 1 2.50 2.50
8/25/2017 esika probador beless 1 3.50 3.50
8/25/2017 nylon azul 3-0 mr 30 2 5.00 10.00
8/25/2017 alcohol 96 x 60 ml 1 1.00 1.00
8/25/2017 labopan 0.5 mg tableta x 100 unid. keyfarm 3 1.00 3.00
caja envase blister
doloaproxol dual tabletas
forte 50 mg(n20543)
+ 500 mg
8/25/2017 2 1.00 2.00
comprimido
power recubierto
multifrutas x 473mlx 400 unid. markos caja
8/25/2017 envase blister comprimidos (n19093) 1 2.00 2.00
8/25/2017 geslutin pnm 200 mg cápsula blanda x 10 unid. 2 7.00 14.00
tecnofarma
quilxib 200 cajacápsula
mg envasexblister
100 tabletas
unid. quimica
8/25/2017 (e16520) 1 1.50 1.50
suiza caja envase
doloaproxol dual blister50tabletas
forte mg + (n22553)
500 mg
8/25/2017 1 1.00 1.00
comprimido recubierto x 400 unid. markos caja
8/25/2017 condon sensation anillosx3
envase blister comprimidos (n19093) 3 1.00 3.00
8/25/2017 vick vaporub lata x 12 gr 1 2.50 2.50
8/25/2017 mantequilla de cacao x 100 3 0.30 0.90
8/25/2017 aquarius naranja x 500ml 1 1.70 1.70
8/25/2017 suave papel rindemax naranja x 2 1 1.00 1.00
8/25/2017 pañal babysec sueltos g 3 0.70 2.10
8/25/2017 suave papel rindemax naranja x 2 2 1.00 2.00
8/25/2017 miofedrol relax plus comprimido recubierto x 2 1.50 3.00
100
powerunid. markos caja
multifrutas x envase blister
473ml
8/25/2017 comprimidos (n22404) 1 2.00 2.00
8/25/2017 labopan 0.5 mg tableta x 100 unid. keyfarm 1 5.00 5.00
caja
agua envase
san luisblister
sin gas tabletas
x 500ml (n20543)
8/25/2017 1 5.00 5.00
8/25/2017 tioctan forte gragea x 100 unid. farmindustria 2 2.00 4.00
caja
papelgrageas
elite (n4664)
naranja doble hoja x 2
8/25/2017 1 0.90 0.90
8/25/2017 frasco simple 1 1.00 1.00
8/25/2017 pañal babysec g x 18 1 12.00 12.00
8/25/2017 toallas kotex normal tela x 10 1 3.50 3.50
8/25/2017 papel noble verde x 2 1 0.60 0.60
8/25/2017 bikonor 5 mg tableta de liberación retardada x 6 1.00 6.00
100 unid. nordic caja envase blister tabletas
8/25/2017 papel elite celeste duo x 2
(e22350) 2 1.10 2.20
8/25/2017 ceftrex 1 g polvo para solución inyectable mks 1 14.00 14.00
unidos
tinidazolcaja
500 vial
mg x tableta
1 g (e21215)
recubierta x 8 unid.
8/25/2017 6 1.50 9.00
genfar
frasco caja envase blister tabletas (eg531)
simple
8/25/2017 1 1.00 1.00
8/25/2017 cefadroxilo 500 mg tableta recubierta x 100 1 1.00 1.00
unid. farmindustria caja50envase blister
8/25/2017 doloaproxol
comprimidos
dual forte
(ng3452)
mg + 500 mg 1 1.00 1.00
comprimido recubierto x 400 unid. markos caja
8/25/2017 dexametasona 4 mg tab x 100
envase blister comprimidos (n19093) 1 0.50 0.50
8/25/2017 rapiler 5 mg tableta recubierta x 100 unid. teva 2 3.50 7.00
caja envase blister tabletas (n22013)
8/25/2017 doloaproxol dual forte 50 mg + 500 mg 2 1.00 2.00
comprimido recubierto
4 mg tabxx400100unid. markos caja
8/25/2017 dexametasona
envase blister comprimidos (n19093) 2 0.50 1.00
8/25/2017 paracetamol 500 mg tab x 100 10 0.10 1.00
8/25/2017 doloparamidol 25 mg + 500 mg tableta 2 1.00 2.00
recubierta
papelx rindemax
200 unid. verde
markosrosado
caja envase
8/25/2017 suave
blister tabletas (n22554)
x2 2 1.10 2.20
8/25/2017 aguja descartable 20g x 1 1/2 1 0.20 0.20
8/25/2017 frasco simple 3 1.00 3.00
8/25/2017 alcohol 96 x 60 ml 1 1.00 1.00
8/25/2017 agua oxigenada x 60ml 1 1.00 1.00
8/25/2017 condon sensation anillosx3 3 1.00 3.00
8/25/2017 pañal babysec sueltos xg 3 0.80 2.40
8/25/2017 zafin 325 mg + 37.5 mg comprimido recubierto 1 2.00 2.00
x 70 unid. farmaval caja50envase blister
8/25/2017 doloaproxol
comprimidos
dual forte
(e18957)
mg + 500 mg 1 1.00 1.00
comprimido recubierto x 400 unid. markos caja
8/25/2017 doloaproxol
envase
dual forte 50 mg + 500 mg
blister comprimidos (n19093) 1 1.00 1.00
comprimido recubierto x 400 unid. markos caja
8/25/2017 bolsa de colostomia coloplast
envase blister comprimidos (n19093) 5 13.00 65.00
8/25/2017 esika aretes x par 1 6.00 6.00
8/25/2017 bronco amoxiclin 500 mg tab x 100 2 1.00 2.00
8/25/2017 repriman tab 2 0.50 1.00
8/25/2017 papel elite celeste duo x 2 2 1.10 2.20
8/25/2017 pañal babysec g x 62 1 35.00 35.00
8/25/2017 plidan compuesto nf comprimido recubierto x 2 1.30 2.60
100 unid. roe1mmers caja envase blister
8/25/2017 cefadroxilo
comprimidos
500 mg tableta
(e10971)
recubierta x 100 2 1.00 2.00
unid. farmindustria caja envase blister
8/25/2017 dexametasona 4 mg tab x 100
comprimidos (ng3452) 2 0.50 1.00
8/25/2017 quemacuran l pomada inti tubo x 30 g 1 13.00 13.00
(e19204)
8/25/2017 agua vitaminizada azul x 500ml 1 2.00 2.00
8/25/2017 huggies pañal suelto g 3 0.90 2.70
8/25/2017 aspirina 500 mg tableta x 100 unid. bayer caja 3 0.60 1.80
envase blister tabletas (e23170)
8/25/2017 papel elite celeste duo x 2 1 1.10 1.10
8/25/2017 urofurin 100 mg tableta x 120 unid. iq farma 9 2.00 18.00
caja envase blister tabletas (en01957)
8/25/2017 doloaproxol dual forte 50 mg + 500 mg 9 1.00 9.00
comprimido recubierto
soluciónx para
400 unid. markosx 2 caja
8/25/2017 miofedrol
envase
relax
blister comprimidos
inyección
(n19093) 1 13.00 13.00
unid. markos caja ampolla x 3 ml + ampolla x 2
8/25/2017 jeringa 10ml+aguja
ml (e21355)
21 x 1 1/2 1 0.60 0.60
8/25/2017 dia plus 1.5 mg tableta jc.robri caja envase 5 15.00 75.00
blister tabletas (ee00494)
8/25/2017 cefalexina 250 mg/5 ml polvo para suspensión 1 8.00 8.00
oral genfar frasco x 60 ml (ee00710)
8/25/2017 bikonor 5 mg tableta de liberación retardada x 5 1.00 5.00
100 unid. nordic caja envase blister tabletas
8/25/2017 cureband
(e22350) 10 0.10 1.00
8/25/2017 pañal babysec g x 18 1 12.00 12.00
8/25/2017 agua san luis con gas x 625ml 1 1.30 1.30
8/25/2017 pañal babysec m x 72 1 35.00 35.00
8/25/2017 sildenafilo 100mg tab x 1 10 2.50 25.00
8/25/2017 bronco amoxiclin 500 mg tab x 100 1 1.00 1.00
8/25/2017 nastizol junior tabletas x 150 4 0.80 3.20
8/25/2017 ryna del 5 mg tableta recubierta x 100 unid. 1 2.00 2.00
delfarma caja envase blister tabletas (n26181)
8/25/2017 zafin 325 mg + 37.5 mg comprimido recubierto 2 2.50 5.00
x 70 unid. farmaval caja envase
10 blister
8/25/2017 escopolamina
comprimidos
butil bromuro
(e18957)
mg tableta x 2 1.00 2.00
100 unid. induquimica caja envase blister
8/25/2017 pañal babysec sueltos g
tabletas (en03734) 4 0.70 2.80
8/25/2017 tuinies mordedor osito 6 6.50 39.00
8/25/2017 pinza con seguro 3 2.00 6.00
8/25/2017 aquarius pera x 500ml 1 1.70 1.70
8/25/2017 huggies toalla limpx 48 1 7.50 7.50
8/25/2017 mantequilla de cacao x 100 3 0.30 0.90
8/25/2017 ponds clarant grasa sachet x 20 1 1.00 1.00
8/25/2017 pañal babysec sueltos g 1 0.70 0.70
8/25/2017 quilxib 200 mg cápsula x 100 unid. quimica 10 1.50 15.00
suiza caja envase blister tabletas (n22553)
8/25/2017 jeringa 5ml+aguja 21 x 1 1/2 1 0.50 0.50
8/25/2017 lipsaliv mantequilla de cacao 1 4.50 4.50
8/25/2017 esika probador devos magnetic 1 3.50 3.50
8/25/2017 toallas ladysoft normal sueltas 1 0.50 0.50
8/25/2017 laxofast sobres x 4 2 16.00 32.00
8/25/2017 megacilina oral 1 000 000 ui comprimido x 120 1 2.00 2.00
unid. grunenthal caja envase
50 mg +blister tabletas
8/25/2017 doloaproxol
(en03092)
dual forte 500 mg 1 1.00 1.00
comprimido recubierto
hum x 60x 400 unid. markos caja
8/25/2017 babysec toalla
envase blister comprimidos (n19093) 1 6.00 6.00
8/25/2017 migradorixina tab x 10 1 2.00 2.00
8/25/2017 paracetamol 500 mg tab x 100 1 0.10 0.10
8/25/2017 urobiotic forte 400 mg + 100 mg cápsula x 100 2 2.00 4.00
unid. siegfried40caja
mgenvase
tab x 30blister tabletas
8/25/2017 esomeprazol
(n19955) 5 1.50 7.50
8/25/2017 plenitud pañal g x 20 2 43.00 86.00
8/25/2017 neurobion gragea x 100 unid. merck caja 2 2.00 4.00
grageas (n4007)
8/25/2017 doloaproxol dual forte 50 mg + 500 mg 2 1.00 2.00
comprimido recubierto
4 mg tabxx400
100unid. markos caja
8/25/2017 dexametasona
envase blister comprimidos (n19093) 2 0.50 1.00
8/25/2017 sildenafilo 100mg tab x 1 1 3.00 3.00
8/25/2017 donalab 2 2 mg tableta x 100 unid. vita pharma 2 1.00 2.00
caja envase blister tabletas (en00930)
8/25/2017 nylon azul 3-0 mr 30 1 5.00 5.00
8/25/2017 crema conha nacarx18gr 2 3.00 6.00
8/25/2017 agua san luis con gas x 625ml 1 1.30 1.30
8/25/2017 ginedazol ovulo vaginal x 100 unid. teva caja 4 2.50 10.00
envase folio ovulo (ee02168)
8/25/2017 clotrimazol 500 mg tableta vaginal x 50 unid. 3 1.00 3.00
naturgen caja envase blister tabletas (ng3394)
8/25/2017 gentamicina 160 mg x 10 1 2.00 2.00
8/25/2017 jeringa 3 ml+aguja 21 x 1 1/2 1 0.50 0.50
8/25/2017 vick vitapyrena forte sobres x 50 1 2.50 2.50
8/25/2017 infectrin balsamico fco x 50ml 1 11.00 11.00
8/25/2017 alcohol 96 x 120ml 1 1.50 1.50
8/25/2017 dolo benalgin forte tableta con cubierta 2 2.40 4.80
entérica x500
20 unid. lusa caja envase
unid. blister
8/25/2017 lincoplus
tabletas
mg cápsula
(n26538)
x 60 medifarma 1 2.50 2.50
caja envase blister tabletas (n16287)
8/25/2017 doloaproxol dual forte 50 mg + 500 mg 1 1.00 1.00
comprimido 500recubierto x 400
x 60unid.
unid.markos caja
8/25/2017 lincoplus
envase blister
mg cápsula
comprimidos (n19093)
medifarma 1 2.50 2.50
caja envase blister tabletas (n16287)
8/25/2017 doloaproxol dual forte 50 mg + 500 mg 1 1.00 1.00
comprimido recubierto
4 mg tabxx400100unid. markos caja
8/25/2017 dexametasona
envase blister comprimidos (n19093) 2 0.50 1.00
8/25/2017 assis 400 400 mg + 30 mg/5 ml suspensión oral 1 30.00 30.00
elifarma caja frasco
500 mgx 220
tab xml+
100accesorios
8/25/2017 levofloxacino
(en03301) 2 3.00 6.00
8/25/2017 esika aretes x par 1 6.00 6.00
8/25/2017 doloaproxol dual forte 50 mg + 500 mg 2 1.00 2.00
comprimido
botella xrecubierto x 400 unid. markos caja
8/25/2017 volt 300ml
envase blister comprimidos (n19093) 1 2.00 2.00
8/25/2017 dalmatrol plus 325 mg + 37.5 mg tableta 1 2.00 2.00
recubierta x 50 unid. iq farma caja envase
8/25/2017 power multifrutas x 473ml
blister tabletas (n23224) 1 2.00 2.00
8/25/2017 power mandarina x 473ml 2 2.00 4.00
8/25/2017 dolo benalgin forte tableta con cubierta 1 2.40 2.40
entérica96x 20
x 1unid.
lt lusa caja envase blister
8/25/2017 alcohol
tabletas (n26538) 1 7.00 7.00
8/25/2017 crema lechuga x 18gr 1 3.00 3.00
8/25/2017 ism360 x 250ml 1 2.50 2.50
TOTAL 1,035.20
FECHA PRODUCTO CANTIDAD PRECIO IMPORTE
8/26/2017 aspirina 100 100 mg tableta x 140 unid. 4 0.50 2.00
8/26/2017 bayer caja
broncopulmoxil envase blister
cápsula tabletas
x 100 unid.(e7139)
markos 1 1.50 1.50
8/26/2017 caja envase blister
doloaproxol tabletas
dual forte 50 mg (n23389)
+ 500 mg 6 1.00 6.00
comprimido recubierto x 400
8/26/2017 glidiabet 5 mg comprimido x 100 unid. albisunid. markos 1 1.20 1.20
caja envase
envase blister
blister comprimidos
comprimidos (n12347) (n19093)
8/26/2017 caja
pañal babysec m x 72 1 35.00 35.00
8/26/2017 toallas kotex teens x 10 1 3.50 3.50
8/26/2017 secnidazol 500 mg tableta recubierta x 4 4 1.50 6.00
8/26/2017 unid. genfar
dia plus 1.5 mgcajatableta
envasejc.robri
blister tabletas
caja envase 1 12.00 12.00
(eg655)
blister tabletas (ee00494)
8/26/2017 agua san luis sin gas x 500ml 1 1.00 1.00
8/26/2017 dolo benalgin forte tableta con cubierta 2 2.50 5.00
8/26/2017 entérica
plenitud x 20
pañal unid.
g lusa
sueltos caja envase blister 2 2.50 5.00
tabletas (n26538)
8/26/2017 huggies toalla limpx 48 2 7.50 15.00
8/26/2017 huggies pañal recien nacido x 20 2 10.00 20.00
8/26/2017 vaso descartable 2 0.10 0.20
8/26/2017 vaso descartable 1 0.50 0.50
8/26/2017 pañal babysec g x 62 1 35.00 35.00
8/26/2017 pañal babysec xg x 52 1 35.00 35.00
8/26/2017 huggies toallitas recien nacidos x 48 3 9.00 27.00
8/26/2017 morado
pañal babysec g x 62 1 35.00 35.00
8/26/2017 bolsa de colostomia coloplast 2 13.00 26.00
8/26/2017 prostasil 0.5 mg cápsula blanda x 30 unid. 4 5.00 20.00
hersil caja envase
8/26/2017 violeta genciana x 30 ml blister tabletas (e21376) 1 1.50 1.50
8/26/2017 lopid 600 mg tableta recubierta x 20 unid. 2 4.00 8.00
pfizer caja envase blister
8/26/2017 cuajo azul marschall x 100 sobres tabletas (e22328) 1 1.00 1.00
8/26/2017 oxacilina 1 g polvo para solución inyectable 4 5.00 20.00
8/26/2017 xpañal
50 unid. pharmagen
babysec sueltos vialxxg (eg5855) 1 0.90 0.90
8/26/2017 diagrin flex polvo oral x 30 unid. iq farma 7 3.20 22.40
8/26/2017 caja
aguasobre
san luis (n25405)
sin gas x 1lt 1 2.50 2.50
8/26/2017 benalgin 1000 cápsula x 24 unid. lusa 10 2.20 22.00
8/26/2017 envase blister
suave papel capsulasnaranja
rindemax (n18157) x2 1 1.00 1.00
8/26/2017 supramotin 5 mg tableta recubierta x 30 1 3.00 3.00
8/26/2017 unid. iq farma tabletas
espasmosedil caja envase blister tabletas 1 1.00 1.00
(n27268)
8/26/2017 agua san luis sin gas x 500ml 1 1.00 1.00
8/26/2017 micolis 1 % crema roemmers caja tubo x 30 1 30.00 30.00
8/26/2017 gfluconazol
(ee01907)150 mg tableta x 100 unid. 4 1.00 4.00
8/26/2017 naturgen
bahia facescaja envase
color spf90 blister
sobres tabletas
x 20 1 2.50 2.50
(ng5260)
8/26/2017 pañal babysec sueltos g 17 0.60 10.20
8/26/2017 pañal babysec sueltos g 1 1.80 1.80
8/26/2017 pañal babysec sueltos m 35 0.50 17.50
8/26/2017 pañal babysec sueltos m 1 0.60 0.60
8/26/2017 johnson sachet amarillo x 24 1 0.70 0.70
8/26/2017 dicloxacilina 500 mg cápsula x 100 unid. 4 0.50 2.00
8/26/2017 caja envase
panadol folio
forte tab cápsulas
x 24 sobres(en02864) 2 2.00 4.00
8/26/2017 fluimax 600 mg tableta efervescente 1 32.00 32.00
8/26/2017 elifarma
clenbuvent caja tubo x
expectorante 10 tabletas
jarabe (ee02742)
elifarma 2 27.00 54.00
8/26/2017 frasco x 120100mg
sildenafilo ml (n20931)
tab x 1 1 3.00 3.00
8/26/2017 cuajo verde hansen x 100 sobres 4 1.00 4.00
8/26/2017 levonelle 500 mg tableta recubierta x 7 7 5.50 38.50
8/26/2017 unid.
cuajo iq farma
azul caja envase
marschall x 100 blister
sobres tabletas 2 1.00 2.00
(n25086)
8/26/2017 panadol antigripal nf tableta x 100 unid. 2 2.30 4.60
8/26/2017 gsk caja jarabe
tusilexil envase blister tabletas (e20318) 2 32.00 64.00
8/26/2017 depo provera 150 mg/ml suspensión para 1 30.00 30.00
8/26/2017 inyección
bahia facespfizer
spf90caja vial xx 20
sobres 1 ml (e2507) 1 2.50 2.50
8/26/2017 buscapina compositun n x 100 1 1.20 1.20
8/26/2017 bahia sunblock spf70 sobres x 20 1 2.00 2.00
8/26/2017 buscapina compositun n x 100 4 1.20 4.80
8/26/2017 dia plus 1.5 mg tableta jc.robri caja envase 1 15.00 15.00
8/26/2017 blister
buscapinatabletas (ee00494)
compositun n x 100 1 1.20 1.20
8/26/2017 plenitud pañal x 10 1 4.00 4.00
8/26/2017 frasco simple 1 1.00 1.00
8/26/2017 aguja descartable 20g x 1 1/2 1 0.20 0.20
8/26/2017 jeringa 5ml+aguja 21 x 1 1/2 1 0.50 0.50
8/26/2017 ginedazol ovulo vaginal x 100 unid. teva 2 3.00 6.00
8/26/2017 caja envase
lipsaliv folio ovulo (ee02168)
naranja 1 4.50 4.50
8/26/2017 cetriler 5 ml comp rec x 100 1 3.00 3.00
8/26/2017 dolomarket forte 50 mg + 500 mg tableta 12 1.00 12.00
8/26/2017 recubierta x 200forte
vick vitapyrena unid.sobres
brandxand 50 marketing 1 2.50 2.50
caja envase blister tabletas (n25115)
8/26/2017 espasmosedil tabletas 2 1.00 2.00
8/26/2017 repriman 250 mg/5 ml jarabe quimica 1 11.00 11.00
8/26/2017 suiza
jeringafrasco x 50 ml
5ml+aguja 21(n20371)
x 1 1/2 1 0.50 0.50
8/26/2017 donamed f 2 mg tableta x 100 unid. 2 1.00 2.00
8/26/2017 medifarma
cefadroxilo caja envase
500 mg blister
tableta tabletasx 100
recubierta 1 1.00 1.00
(en01906)
unid. farmindustria caja envase blister
8/26/2017 doloaproxol dual forte 50 mg + 500 mg 1 1.00 1.00
comprimidos
comprimido (ng3452)
recubierto x 400 unid. markos
8/26/2017 quemiciclina s 125 mg tableta x 100 unid. 1 1.00 1.00
caja envase blister comprimidos (n25489)
(n19093)
8/26/2017 teva caja
jeringa envase
5ml+aguja blister
21 x 1tabletas
1/2 6 0.50 3.00
8/26/2017 venda elastica 2" x 5 yd 4 1.00 4.00
8/26/2017 azoflox 400 mg + 50 mg cápsula x 100 unid. 2 2.00 4.00
8/26/2017 hersil caja envase
doloaproxol blister
dual forte 50tabletas
mg + 500 (n20155)
mg 2 1.00 2.00
comprimido recubierto
8/26/2017 dento menta natural x 25ml x 400 unid. markos 1 1.50 1.50
caja envase blister comprimidos (n19093)
8/26/2017 guantes esteriles 6 1/2 1 1.50 1.50
8/26/2017 dolo benalgin forte tableta con cubierta 12 2.40 28.80
8/26/2017 entérica
frasco hecesx 20 unid. lusa caja envase blister 2 1.00 2.00
tabletas (n26538)
8/26/2017 mica 1 1.00 1.00
8/26/2017 peine pescado 1 0.50 0.50
8/26/2017 miofedrol relax plus comprimido 2 2.00 4.00
8/26/2017 recubierto
toallas kotex x 100 unid.tela
normal markos
x 10 caja envase 1 3.50 3.50
blister comprimidos (n22404)
TOTAL 816.30
FECHA PRODUCTO CANTIDAD PRECIO IMPORTE
8/27/2017 escopolamina butil bromuro 10 mg tableta x 3 1.00 3.00
8/27/2017 100
suave unid. induquimica
papel caja envase
rindemax naranja x 2 blister 2 1.00 2.00
tabletas
peine (en03734)
grande
8/27/2017 1 1.00 1.00
8/27/2017 protex jabon fresh x 75 gr 2 2.50 5.00
8/27/2017 h&s suave manejable x 18ml 1 1.00 1.00
8/27/2017 vaso descartable 4 0.10 0.40
8/27/2017 frasco simple 1 1.00 1.00
8/27/2017 aguja descartable 20g x 1 1/2 1 0.20 0.20
8/27/2017 ketorolaco 10 mg tableta x 100 unid. naturgen 4 0.30 1.20
8/27/2017 caja envase
magnesol blister tabletas
efervescente limon(ng3166)
caja x 33 sobres x 1 1.30 1.30
8/27/2017 5g
jeringa 1ml+aguja 26gx12 1 0.50 0.50
8/27/2017 papel toalla scott x 3 3 2.50 7.50
8/27/2017 equipo venoclisis 1 2.50 2.50
8/27/2017 esparadrapo durapore 2 pulg x 5 yd 1 6.50 6.50
8/27/2017 jeringa 10ml+aguja 21 x 1 1/2 1 0.60 0.60
8/27/2017 huggies pañal recien nacido x 50 1 23.00 23.00
8/27/2017 filartros 20 mg tableta x 30 unid. teva caja 12 7.30 87.60
8/27/2017 envase
doxiplusblister
100 mg tabletas
cápsula (e19370)
x 100 unid. quimica 10 1.50 15.00
8/27/2017 suiza caja
mantequilla envase
de blister
cacao x cápsulas
100 (en00158) 3 0.30 0.90
8/27/2017 vodravol 50 mg tableta x 100 unid. vita pharma 1 1.00 1.00
8/27/2017 caja envase
huggies blister
pañal recientabletas
nacido(n24107)
x 20 1 10.00 10.00
8/27/2017 pinza con seguro 4 2.00 8.00
8/27/2017 frasco simple 1 1.00 1.00
8/27/2017 toallas kotex teens x 10 1 3.50 3.50
8/27/2017 papel toalla scott x 3 1 2.50 2.50
8/27/2017 papel elite ultra morado x 2 2 1.20 2.40
8/27/2017 mantequilla de cacao x 100 3 0.30 0.90
8/27/2017 suave papel rindemax naranja x 2 2 1.00 2.00
8/27/2017 vaso descartable 2 0.10 0.20
8/27/2017 kolynos crema herbal x 90 gr 1 2.50 2.50
8/27/2017 agua vida sin gas x 625 ml 1 1.00 1.00
8/27/2017 nexium 40 mg comprimido x 14 unid. 12 10.00 120.00
8/27/2017 astrazeneca caja envase
plidan compuesto blister comprimidos
nf comprimido recubierto x 8 1.30 10.40
(e18943)
100 unid. roe1mmers caja envase blister
8/27/2017 bahia faces spf90 sobres x 20 1 2.00 2.00
comprimidos
jeringa (e10971)
5ml+aguja 21 x 1 1/2
8/27/2017 1 0.50 0.50
8/27/2017 cefadroxilo 500 mg tableta recubierta x 100 5 1.00 5.00
unid. farmindustria
8/27/2017 doloaproxol dual fortecaja50envase
mg + 500blister
mg 10 1.50 15.00
8/27/2017 comprimidos
comprimido
pañal babysec (ng3452)
recubierto
sueltos g x 400 unid. markos caja 5 0.70 3.50
8/27/2017 agua san luis sin gas x 500ml(n19093)
envase blister comprimidos 1 2.00 2.00
8/27/2017 doloaproxol dual forte 50 mg + 500 mg 2 1.00 2.00
comprimido recubierto x 400 unid.
8/27/2017 plidan compuesto nf comprimido recubierto x markos caja 2 1.50 3.00
envase blister comprimidos (n19093)
8/27/2017 100 unid.
doloaproxol roe1mmers
dual fortecaja
50 mgenvase
+ 500blister
mg 12 1.00 12.00
8/27/2017 comprimidos
comprimido
condon sensation (e10971)
recubierto x 400 unid. markos caja
anillosx3 8 1.00 8.00
envase blister comprimidos (n19093)
8/27/2017 venda elastica 2" x 5 yd 4 1.00 4.00
8/27/2017 condon sensation pun chocx3 3 1.00 3.00
8/27/2017 guantes de examen l par 1 0.50 0.50
8/27/2017 mascarilla simple sueltos 1 0.50 0.50
8/27/2017 mascarilla simple sueltos 6 0.50 3.00
8/27/2017 h&s suave manejable x 18ml 3 1.00 3.00
8/27/2017 glancin 0.4 0.4 mg cápsula de liberación 3 2.00 6.00
8/27/2017 prolongada
dolfenex sr 100x 30100unid.mgnordic
tableta caja
deenvase blister
liberación 2 2.00 4.00
tabletas
prolongada (e23201)
x 30 unid. iq farma caja envase
8/27/2017 heno de pravia jabon x 85 gr 1 3.00 3.00
8/27/2017 blister
zafin 325tabletas
mg + 37.5(en00120)
mg comprimido recubierto 1 2.00 2.00
x 70 unid. farmaval caja
8/27/2017 toallas ladysoft normal sueltas envase blister 2 0.50 1.00
comprimidos (e18957)
8/27/2017 papel nobele verde x 2 2 0.60 1.20
8/27/2017 peine pescado 1 0.50 0.50
8/27/2017 jabon bea coconut 1 2.00 2.00
8/27/2017 h&s limpieza x 18ml 2 1.00 2.00
8/27/2017 vaso descartable 4 0.10 0.40
8/27/2017 frasco simple 4 1.00 4.00
8/27/2017 aguja descartable 20g x 1 1/2 1 0.20 0.20
8/27/2017 plenitud pañal g sueltos 4 2.50 10.00
8/27/2017 kolynos cepillo master 1 2.50 2.50
8/27/2017 pañal babysec rn x 20 2 10.00 20.00
8/27/2017 kolynos crema herbal x 90 gr 1 2.50 2.50
8/27/2017 colgate cepillo premier 3 2.50 7.50
8/27/2017 dia plus 1.5 mg tableta jc.robri caja envase 1 15.00 15.00
8/27/2017 blister tabletasverde
papel nobele (ee00494)
x2 1 0.60 0.60
8/27/2017 jabon johnson baby avena x 75 gr 1 2.50 2.50
8/27/2017 cotidian toalla multiuso x 10 4 4.00 16.00
8/27/2017 pañal babysec rn x 20 1 10.00 10.00
8/27/2017 papel toalla scott x 3 2 2.00 4.00
8/27/2017 suave papel rindemax naranja x 2 7 1.00 7.00
8/27/2017 baby test tiras x 1 1 5.00 5.00
8/27/2017 dolomax plus tableta recubierta x 100 unid. 2 1.50 3.00
8/27/2017 medifarma
pañal cotidian cajaclasico
envaseg blister
sueltostabletas 4 2.50 10.00
(en02654)
8/27/2017 tuinies biberon transparente x 8oz 1 10.50 10.50
8/27/2017 condon sensation pun fresx3 3 1.00 3.00
8/27/2017 dolomax plus tableta recubierta x 100 unid. 1 1.50 1.50
8/27/2017 medifarma
norfloxacinocaja 400envase blisterrecubierta
mg tableta tabletas x 10 1 0.50 0.50
(en02654)
8/27/2017 evacuol enema medifarma frascotabletas
unid. medrock caja envase blister x 130 ml 4 25.00 100.00
8/27/2017 (ng2628)
(n13702)
dexametasona 4 mg tab x 100 2 0.50 1.00
8/27/2017 dolomax plus tableta recubierta x 100 unid. 2 1.50 3.00
8/27/2017 medifarma
dexametasona caja4envase
mg tabblister
x 100 tabletas 12 0.50 6.00
(en02654)
8/27/2017 dolomax plus tableta recubierta x 100 unid. 1 1.50 1.50
8/27/2017 medifarma
dolo benalgin caja envase
forte blister
tableta contabletas
cubierta 12 2.40 28.80
(en02654)
8/27/2017 entérica x 20 unid.
pañal babysec lusaund
m x 22 caja envase blister 1 12.00 12.00
8/27/2017 tabletas
paracetamol(n26538)
100 mg/ml solución portugal 1 2.00 2.00
8/27/2017 frasco
nexiumx 40 10 mg
ml (en00670)
comprimido x 14 unid. 10 10.00 100.00
astrazeneca
8/27/2017 plidan caja envase
compuesto blister comprimidos
nf comprimido recubierto x 6 1.30 7.80
(e18943)
100 unid. roe1mmers caja envase blister
8/27/2017 flatuzym cápsula x 100 unid. iq farma caja 15 1.00 15.00
comprimidos
blister(e10971)
8/27/2017 envase
toallas ladysoft tabletas
normal(n26017)
x 10 1 4.50 4.50
8/27/2017 aspirina 500 mg tableta x 100 unid. bayer caja 1 0.60 0.60
envase blister tabletas (e23170) TOTAL 832.20
FECHA PRODUCTO CANTIDAD PRECIO IMPORTE
8/28/2017 agua cielo sin gas x 625ml 1 1.00 1.00
8/28/2017 cefadroxilo 500 mg tableta recubierta x 100 unid. 2 1.00 2.00
farmindustria caja envase blister comprimidos (ng3452)
8/28/2017 doloaproxol dual forte 50 mg + 500 mg comprimido 2 1.00 2.00
recubierto
alcohol 96 x 120ml
x 400 unid. markos caja envase blister
8/28/2017 comprimidos (n19093) 1 1.50 1.50
8/28/2017 ponds clarant grasa sachet x 20 2 1.00 2.00
8/28/2017 suave papel rindemax verde rosado x2 2 1.10 2.20
8/28/2017 kolynos cepillo master 1 2.50 2.50
8/28/2017 kolynos crema herbal x 90 gr 1 2.50 2.50
8/28/2017 suave papel rindemax naranja x 2 1 1.00 1.00
8/28/2017 cuajo verde hansen x 100 sobres 12 1.00 12.00
8/28/2017 nivea deso women invisible x 20 1 1.00 1.00
8/28/2017 agua cielo sin gas x 2.5lt 1 3.50 3.50
8/28/2017 azoflox 400 mg + 50 mg cápsula x 100 unid. hersil caja 1 2.00 2.00
envase blister tabletas (n20155)
8/28/2017 doloaproxol dual forte 50 mg + 500 mg comprimido 1 1.00 1.00
recubierto x 400 unid. markos caja envase blister
8/28/2017 cotidian toalla multiuso x 10
comprimidos (n19093) 2 4.00 8.00
8/28/2017 pañal babysec m x 72 1 36.00 36.00
8/28/2017 bronco amoxiclin 500 mg tab x 100 3 1.00 3.00
8/28/2017 doloaproxol dual forte 50 mg + 500 mg comprimido 3 1.00 3.00
recubierto x 400 unid. markos caja envase blister
8/28/2017 huggies pañal recien nacido x 20
comprimidos (n19093) 6 10.00 60.00
8/28/2017 tuinies biberon transparente x 8oz 1 10.50 10.50
8/28/2017 bahia faces color spf90 sobres x 20 3 2.50 7.50
8/28/2017 droxilar 500 mg cápsula x 48 unid. siegfried caja envase 1 3.00 3.00
blister capsulas (en01223)
8/28/2017 h&s limpieza x 18ml 1 1.00 1.00
8/28/2017 cuajo verde hansen x 100 sobres 2 1.00 2.00
8/28/2017 mejoral 500 mg + 30 mg tableta x 200 unid. medifarma 12 0.30 3.60
caja envase blister tabletas (n759)
8/28/2017 dalmatrol plus 325 mg + 37.5 mg tableta recubierta x 50 1 2.00 2.00
unid. iq farma caja envase blister tabletas (n23224)
8/28/2017 toallas ladysoft normal x 10 1 3.50 3.50
8/28/2017 voxamine 50 mg tableta x 100 unid. e.s.c. pharmed caja 2 1.00 2.00
envase
algodón blister
sterilabtabletas
x 25 (en00904)
gr
8/28/2017 1 1.50 1.50
8/28/2017 micolis 1 % crema roemmers caja tubo x 30 g 15 30.00 450.00
(ee01907)
8/28/2017 fluconazol 150 mg tableta x 100 unid. naturgen caja 4 1.00 4.00
envase
cuajo blister
azul tabletas
marschall x (ng5260)
100 sobres
8/28/2017 2 1.00 2.00
8/28/2017 venda elastica 2" x 5 yd 1 1.00 1.00
8/28/2017 llave de triple via 1 2.50 2.50
8/28/2017 naproxeno 550 mg tableta x 100 unid. induquimica caja 9 0.50 4.50
envase
plidan blister tabletas
compuesto nf (en01486) recubierto x 100
comprimido
8/28/2017 2 1.30 2.60
unid. roe1mmers
sildenafilo 100mg caja
tab envase
x 1 blister comprimidos
8/28/2017 (e10971) 3 3.00 9.00
8/28/2017 doprox 550 mg comprimido x 100 unid. andreu caja 2 1.50 3.00
envase blister comprimidos (n17538)
8/28/2017 toallas kotex malla x 10 1 4.00 4.00
8/28/2017 doloparamidol 25 mg + 500 mg tableta recubierta x 200 2 1.00 2.00
unid. markos
urobiotic fortecaja
400 envase
mg + blister
100 mg tabletas
cápsula (n22554)
x 100 unid.
8/28/2017 4 1.50 6.00
siegfried caja envase blister tabletas (n19955)
8/28/2017 doloaproxol dual forte 50 mg + 500 mg comprimido 2 1.00 2.00
recubierto x 400 unid. markos caja envase blister
8/28/2017 doloaproxol
comprimidos
dual forte 50 mg + 500 mg comprimido
(n19093) 2 1.00 2.00
recubierto
dia plus 1.5 xmg
400 unid. markos
tableta jc.robri caja
caja envase
envase blister
blister
8/28/2017 comprimidos (n19093) 1 15.00 15.00
tabletas (ee00494)
8/28/2017 cetirizina 10 mg tab x 100 naturgen 3 0.30 0.90
8/28/2017 bronco amoxiclin 500 mg tab x 100 2 1.00 2.00
8/28/2017 plenitud pañal m sueltos 2 2.50 5.00
8/28/2017 doloaproxol dual forte 50 mg + 500 mg comprimido 3 1.00 3.00
recubierto x 400 unid. markosxcaja
100 envase blister
8/28/2017 panadol antigripal
comprimidos
nf tableta
(n19093)
unid. gsk caja 1 2.30 2.30
envase blister tabletas (e20318)
8/28/2017 nonpiron platan0 x 60ml 1 11.00 11.00
8/28/2017 dolomax plus tableta recubierta x 100 unid. medifarma 6 1.50 9.00
caja envase blister tabletas (en02654)
8/28/2017 huggies pañal recien nacido x 20 1 10.00 10.00
8/28/2017 urobiotic forte 400 mg + 100 mg cápsula x 100 unid. 1 1.50 1.50
siegfried caja envase blister tabletas (n19955)
8/28/2017 exazol forte 800 mg + 160 mg comprimido x 100 unid. 2 1.50 3.00
andreu caja envase blister comprimidos (n25036)
8/28/2017 escopolamina butil bromuro 10 mg tableta x 100 unid. 2 1.00 2.00
induquimica caja envase blister tabletas (en03734)
8/28/2017 cefmark 500 mg cápsula x 100 unid. markos caja 24 2.50 60.00
envase blister capsulas (ee01977)
8/28/2017 doloaproxol dual forte 50 mg + 500 mg comprimido 3 1.00 3.00
recubierto x 400 unid. markos caja envase blister
8/28/2017 agua san luis sin gas
comprimidos (n19093)
x 500ml 1 1.00 1.00
8/28/2017 migradorixina tab x 10 2 2.00 4.00
8/28/2017 cipromax 500 mg comprimido recubierto x 100 unid. 4 2.00 8.00
markos caja envase blister comprimidos (en19517)
8/28/2017 cetriler 5 ml comp rec x 100 2 3.50 7.00
8/28/2017 doloaproxol dual forte 50 mg + 500 mg comprimido 2 1.00 2.00
recubierto
96 xx 500ml
400 unid. markos caja envase blister
8/28/2017 alcohol
comprimidos (n19093) 1 3.50 3.50
8/28/2017 cinarizina 75 mg tableta x 100 unid. farmindustria caja 10 0.20 2.00
envase blister tabletas (ng5346)
8/28/2017 doloaproxol dual forte 50 mg + 500 mg comprimido 24 1.00 24.00
recubierto
papelx rindemax
400 unid. naranja
markos caja
x 2 envase blister
8/28/2017 suave
comprimidos (n19093) 2 1.00 2.00
8/28/2017 peine pescado 1 0.50 0.50
8/28/2017 heno de pravia jabon x 85 gr 1 2.50 2.50
8/28/2017 h&s suave manejable x 18ml 2 1.00 2.00
8/28/2017 vaso descartable 4 0.10 0.40
8/28/2017 frasco simple 1 1.00 1.00
8/28/2017 aguja descartable 20g x 1 1/2 1 0.20 0.20
8/28/2017 dento cepillo medio 1 2.50 2.50
8/28/2017 colgate crema herbal x 90 gr 1 2.50 2.50
8/28/2017 corta uña grande 1 2.50 2.50
8/28/2017 schick 3 hojas xtreme 1 3.50 3.50
8/28/2017 plenitud pañal m sueltos 6 2.50 15.00
8/28/2017 toallas humedas babysec ultra x 50 1 5.00 5.00
8/28/2017 cefalexina 500 mg cápsula x 100 unid. farmindustria 12 1.00 12.00
caja envase blister tabletas (ng4488)
8/28/2017 doloaproxol dual forte 50 mg + 500 mg comprimido 2 1.00 2.00
recubierto x 400
x 60unid.
unid.markos caja envase blisterblister
8/28/2017 infor cápsula
comprimidos (n19093)
qualipharm caja envase 12 1.50 18.00
tabletas (e11643)
8/28/2017 mantequilla de cacao x 100 1 0.30 0.30
8/28/2017 peine grande 1 1.00 1.00
8/28/2017 plidan compuesto nf comprimido recubierto x 100 6 1.50 9.00
unid. 400
roe1mmers
400 mg +caja30 envase
mg/5 mlblister comprimidos
8/28/2017 assis
(e10971)
suspensión oral 1 33.00 33.00
elifarma caja frasco x 220 ml+ accesorios (en03301)
8/28/2017 esika deso roll bravio x 50ml 1 8.50 8.50
8/28/2017 bahia faces spf90 sobres x 20 1 2.50 2.50
8/28/2017 ponds clarant seca sachet x 20 1 1.00 1.00
8/28/2017 tosalbron infantil 28 mg/5 ml jarabe iq farma caja 1 20.60 20.60
frasco x 100 ml (en01886)
8/28/2017 peine pescado 1 0.50 0.50
8/28/2017 ketorolaco 10 mg tableta x 100 unid. naturgen caja 4 0.30 1.20
envase blister tabletas (ng3166)
8/28/2017 dalmatrol plus 325 mg + 37.5 mg tableta recubierta x 50 2 2.00 4.00
unid. iq farma caja envase blister tabletas (n23224)
8/28/2017 agua san luis sin gas x 500ml 1 1.00 1.00
8/28/2017 mantequilla de cacao x 100 3 0.30 0.90
8/28/2017 electrolight naranja x 475ml 1 2.00 2.00
8/28/2017 condon sensation pun fresx3 3 1.00 3.00
8/28/2017 panadol forte tab x 24 sobres 1 2.00 2.00
8/28/2017 toall humedas hugg onex48 1 9.50 9.50
8/28/2017 pañal babysec m x 72 1 36.00 36.00
8/28/2017 quemiciclina s 125 mg tableta x 100 unid. teva caja 2 1.00 2.00
envase blister tabletas (n25489)
8/28/2017 bahia defensa spf60 sobres x 20 1 2.00 2.00
8/28/2017 flatuzym cápsula x 100 unid. iq farma caja envase 1 1.00 1.00
blister tabletas (n26017)
8/28/2017 power limalimon x 475 ml 1 2.00 2.00
8/28/2017 sal de andrews polvo efervescente x 100 unid. 1 0.50 0.50
medifarma caja sobre (n4133)
8/28/2017 mantequilla de cacao x 100 3 0.30 0.90
8/28/2017 plidan compuesto nf comprimido recubierto x 100 10 1.30 13.00
unid. roe1mmers caja xenvase
100 blister comprimidos
8/28/2017 mantequilla
(e10971)
de cacao 1 0.30 0.30
8/28/2017 plenitud pañal g x 20 1 44.00 44.00
8/28/2017 prostal capsulas x 100 7 2.20 15.40
TOTAL 1,145.30
FECHA PRODUCTO CANTIDAD PRECIO IMPORTE
8/29/2017 condon sensation anillosx3 3 3.00 9.00
8/29/2017 vaso descartable 5 0.20 1.00
8/29/2017 jeringa 50 ml con pico 1 3.50 3.50
8/29/2017 vaso descartable 4 0.10 0.40
8/29/2017 kolynos crema herbal x 90 gr 1 3.00 3.00
8/29/2017 corta uña grande 1 2.50 2.50
8/29/2017 peine pescado 1 0.50 0.50
8/29/2017 sedal sh+ac ceramidas 2 1.00 2.00
8/29/2017 vaso descartable 5 0.10 0.50
8/29/2017 cotidian toalla multiuso x 10 12 4.00 48.00
8/29/2017 norfloxacino 400 mg tableta x 14 unid. genfar caja 10 0.80 8.00
envase blister tabletas
8/29/2017 dexametasona 4 mg tab x 100 (eg646) 1 0.50 0.50
8/29/2017 nastiflux 60 sobres 2 1.50 3.00
8/29/2017 lincoplus 500 mg cápsula x 60 unid. medifarma caja 2 2.50 5.00
8/29/2017 envase
agua vidablister tabletas
sin gas x 625 (n16287)
ml 1 1.00 1.00
8/29/2017 lincoplus 500 mg cápsula x 60 unid. medifarma caja 2 2.50 5.00
envase blister tabletas (n16287)
8/29/2017 doloaproxol dual forte 50 mg + 500 mg comprimido 2 1.00 2.00
8/29/2017 recubierto x 400
dalmatrol plus unid.
325 mg markos
+ 37.5 mgcajatableta
envaserecubierta
blister x 50 1 2.00 2.00
8/29/2017 comprimidos
unid. iq farma
agua vida (n19093)
cajax 625
sin gas envaseml blister tabletas (n23224) 1 1.00 1.00
8/29/2017 toallas kotex teens x 10 4 3.50 14.00
8/29/2017 pañal babysec rn x 20 3 10.00 30.00
8/29/2017 agua san luis sin gas x 1lt 1 2.50 2.50
8/29/2017 huggies pañal suelto xg 3 1.00 3.00
8/29/2017 dolo neurobion forte dc solución inyectable x 3 unid. 1 36.00 36.00
merck caja jeringa
8/29/2017 sporade tropical x 475ml prellenada doble cámara x 3 ml + 1 2.00 2.00
8/29/2017 accesorio (ee03297)
cyzone colonia deso so closed x 150ml 1 16.00 16.00
8/29/2017 dento herbal x 180 gr+cepillo 1 5.00 5.00
8/29/2017 miodolfenex 50 mg + 50 mg cápsula x 30 unid. iq farma 12 2.00 24.00
8/29/2017 caja
babyenvase blister
test tiras x 1 tabletas (n21750) 1 5.00 5.00
8/29/2017 ponds clarant seca sachet x 20 1 1.00 1.00
8/29/2017 urobiotic forte 400 mg + 100 mg cápsula x 100 unid. 1 1.50 1.50
siegfried cajadual
8/29/2017 doloaproxol envase
forteblister
50 mgtabletas
+ 500 mg(n19955)
comprimido 6 1.50 9.00
recubierto x 400 unid. markos caja envase blister
8/29/2017 biolactol probiotico acidophilus solución bebible x 25 1 4.50 4.50
comprimidos
8/29/2017 unid.
flatuzym (n19093)
lmb cápsula
h.colichon ampolla
x 100 x 10
unid. iq ml (bn00018)
farma caja envase 1 1.00 1.00
blisterde
8/29/2017 heno tabletas
pravia (n26017)
jabon x 85 gr 1 3.00 3.00
8/29/2017 escopolamina butil bromuro 10 mg tableta x 100 unid. 3 1.00 3.00
induquimica
8/29/2017 donamed f 2 caja envase xblister
mg tableta tabletas
100 unid. (en03734)
medifarma caja 1 1.50 1.50
envase blister tabletas (en01906)
8/29/2017 panadol antigripal nf tableta x 100 unid. gsk caja 4 2.30 9.20
8/29/2017 envase
donamed blister
f 2 mgtabletas
tableta(e20318)
x 100 unid. medifarma caja 2 1.00 2.00
envaseforte
8/29/2017 exazol blister
800tabletas
mg + 160 (en01906)
mg comprimido x 100 unid. 2 1.50 3.00
andreu caja envase blister comprimidos (n25036)
8/29/2017 dolo benalgin forte tableta con cubierta entérica x 20 2 2.50 5.00
8/29/2017 unid.
kolynoslusa caja envase
crema blanco xblister
25 gr tabletas (n26538) 1 1.50 1.50
8/29/2017 kolynos cepillo master 1 2.50 2.50
8/29/2017 protex jabon limpieza profunda x 75 gr 1 2.50 2.50
8/29/2017 sedal sh+ac ceramidas 2 1.00 2.00
8/29/2017 suave papel rindemax naranja x 2 2 1.00 2.00
8/29/2017 sildenafilo 100mg tab x 1 10 2.50 25.00
8/29/2017 lactulosa 3.33 g/5 ml solución oral farmindustria frasco 1 11.00 11.00
x 100 ml (en00247)
8/29/2017 amoxicilina 500 capsulas x 100 21 0.50 10.50
8/29/2017 ketorolaco 10 mg tableta x 100 unid. naturgen caja 9 0.30 2.70
8/29/2017 envase
clinominblister tabletas
solución para(ng3166)
inyección unidas del peru vial x 1 15.00 15.00
1 ml (e20775)
8/29/2017 jeringa 3 ml+aguja 21 x 1 1/2 1 0.50 0.50
8/29/2017 pamezone 40 40 mg cápsula gastrorresistente x 28 unid. 12 5.50 66.00
8/29/2017 roemmers caja envase
flatuzym cápsula x 100blister
unid. iqtabletas
farma (e20896)
caja envase 1 1.50 1.50
8/29/2017 blister
johnson tabletas
aceite x(n26017)
300ml 2 23.00 46.00
8/29/2017 dorixina relax 125 mg + 5 mg comprimido recubierto x 1 3.00 3.00
8/29/2017 100 unid. roemmers
quemacuran l pomada cajainti
envase
tubo blister
x 30 g comprimidos
(e19204) 1 13.00 13.00
(e10848)
8/29/2017 evadol 500 mg cápsula x 104 unid. teva caja envase 10 2.10 21.00
8/29/2017 blister
dextro tabletas
lusa 33.3(n24641)
% solución para inyección x 25 unid. 1 3.00 3.00
lusa caja ampolla x 20
8/29/2017 jeringa 20ml+aguja 21 ml
x 1(n587)
1/2 1 1.00 1.00
8/29/2017 clorfenamina 4 mg tab induquimica 5 0.20 1.00
8/29/2017 complejo b forte cap blandas sherfarma 4 0.50 2.00
8/29/2017 piel preservativo 1 3.50 3.50
8/29/2017 ponds sachets 4 1.00 4.00
8/29/2017 agua san carlos x 630 ml 1 1.00 1.00
8/29/2017 cielo x625ml 2 1.00 2.00
8/29/2017 diclofenaco gel genfar al 1% 1 8.00 8.00
8/29/2017 levonogestrel x 0.75 mg x 50 tab 5 10.00 50.00
8/29/2017 aciclav amoxicilna /acido clavulanico 10 2.50 25.00
8/29/2017 axe aer sprayx 152 ml 1 12.50 12.50
8/29/2017 clinda c 300mg capsulas 2 1.50 3.00
8/29/2017 meloxican tab 15mg 1 0.50 0.50
8/29/2017 sifen x 50 mg 1 0.50 0.50
8/29/2017 dolo benalgin forte tableta con cubierta entérica x 20 2 2.50 5.00
8/29/2017 unid. lusapañal
plenitud caja envase blister tabletas (n26538)
g sueltos 2 2.50 5.00
8/29/2017 huggies toalla limpx 48 2 7.50 15.00
8/29/2017 huggies pañal recien nacido x 20 2 10.00 20.00
8/29/2017 vaso descartable 2 0.10 0.20
8/29/2017 vaso descartable 1 0.50 0.50
8/29/2017 pañal babysec g x 62 1 35.00 35.00
8/29/2017 pañal babysec xg x 52 1 35.00 35.00
8/29/2017 huggies toallitas recien nacidos x 48 morado 3 9.00 27.00
8/29/2017 hojas de bisturi nº 11 2 0.50 1.00
8/29/2017 frasco simple 1 1.00 1.00
8/29/2017 h&s limpieza x 18ml 3 1.00 3.00
8/29/2017 guantes esteriles 7 12 1.50 18.00
8/29/2017 aquarius manzana x 500ml 1 1.70 1.70
8/29/2017 aquarius naranja x 500ml 2 1.70 3.40
8/29/2017 pañal babysec sueltos xg 4 0.80 3.20
8/29/2017 frasco vidrio 34 2.00 68.00
8/29/2017 babytest x cassette 1 8.00 8.00
8/29/2017 dia plus 1.5 mg tableta jc.robri caja envase blister table 4 15.00 60.00
8/29/2017 ketorolaco 10 mg tableta x 100 unid. naturgen caja envase 12 0.30 3.60
8/29/2017 quilxib 200 mg cápsula x 100 unid. quimica suiza caja env 24 1.50 36.00
8/29/2017 agua esteril para inyeccion solución para inyección x 1 1 0.50 0.50
8/29/2017 jeringa 10ml+aguja 21 x 1 1/2 3 0.60 1.80
8/29/2017 aguja descartable 21g x 1 1/2 18 0.20 3.60
8/29/2017 rapiler 5 mg tableta recubierta x 100 unid. teva caja enva 2 3.50 7.00
8/29/2017 condon sensation anillosx3 3 1.00 3.00
8/29/2017 doloparamidol 25 mg + 500 mg tableta recubierta x 200 un 1 1.00 1.00
8/29/2017 dicloxacilina 500 mg cápsula x 100 unid. naturgen caja e 1 0.40 0.40
8/29/2017 crema blanqueadora faz sobres x 20 2 1.00 2.00
8/29/2017 kolynos crema blanco x 25 gr 1 1.50 1.50
8/29/2017 ab broncol nf 600 polvo liofilizado para solución inyecta 5 20.00 100.00
8/29/2017 dexametasona 4 mg/2 ml solución inyectable x 100 unid. 12 1.00 12.00
8/29/2017 jeringa 10ml+aguja 21 x 1 1/2 1 0.60 0.60
TOTAL 1,104.80
FECHA PRODUCTO CANTIDAD PRECIO IMPORTE
8/30/2017 vodravol 50 mg tableta x 100 unid. vita pharma caja 2 1.00 2.00
envase blister tabletas (n24107)
8/30/2017 flatuzym cápsula x 100 unid. iq farma caja envase 2 1.00 2.00
blister tabletas (n26017)
8/30/2017 dia plus 1.5 mg tableta jc.robri caja envase blister 3 15.00 45.00
tabletas
power (ee00494)
mora x 473ml
8/30/2017 1 2.00 2.00
8/30/2017 dolo benalgin forte tableta con cubierta entérica x 20 2 2.40 4.80
unid. lusa caja envase blister tabletas (n26538)
8/30/2017 ponds clarant grasa sachet x 20 1 1.00 1.00
8/30/2017 schick 3 hojas xtreme 1 3.00 3.00
8/30/2017 zafin 325 mg + 37.5 mg comprimido recubierto x 70 2 2.00 4.00
unid. farmaval
doloaproxol dualcaja envase
forte 50 blister
mg + 500 comprimidos
mg comprimido
8/30/2017 (e18957) 12 1.00 12.00
recubierto x de 400cacao
unid.xmarkos
100 caja envase blister
8/30/2017 mantequilla
comprimidos (n19093) 3 0.30 0.90
8/30/2017 ab broncol nf 1200 polvo para suspensión inyectable 4 21.00 84.00
medifarma
diclofenaco caja vial + solvente x 5 ml (n25382)
ampolla
8/30/2017 1 1.00 1.00
8/30/2017 jeringa 10ml+aguja 21 x 1 1/2 1 0.60 0.60
8/30/2017 aguja descartable 21g 34 0.20 6.80
8/30/2017 johnson hilo expansion plus x 50mt 1 8.00 8.00
8/30/2017 schick ultrabarba x 1 1 1.50 1.50
8/30/2017 agua san luis sin gas x 1lt 1 2.50 2.50
8/30/2017 suave papel rindemax verde rosado x2 2 1.10 2.20
8/30/2017 mantequilla de cacao x 100 6 0.30 1.80
8/30/2017 sporade tropical x 475ml 1 2.00 2.00
8/30/2017 medicortil solución medifarma caja frasco gotero x 2.5 1 12.00 12.00
ml (en01487)
8/30/2017 panadol forte tab x 24 sobres 2 2.00 4.00
8/30/2017 mantequilla de cacao x 100 3 0.30 0.90
8/30/2017 vodravol 50 mg tableta x 100 unid. vita pharma caja 2 1.00 2.00
envase
aquarius blister
pera tabletas
x 500ml (n24107)
8/30/2017 1 1.70 1.70
8/30/2017 condon sensation pun fresx3 3 1.00 3.00
8/30/2017 papel noble morado x 2 2 0.70 1.40
8/30/2017 ryna del 5 mg tableta recubierta x 100 unid. delfarma 2 2.00 4.00
caja envase blister
doloaproxol dual tabletas
forte 50 mg(n26181)
+ 500 mg comprimido
8/30/2017 2 1.00 2.00
recubierto x500 400mg unid. markos caja envasex 100blister
8/30/2017 cefadroxilo
comprimidos (n19093)
tableta recubierta unid. 1 1.00 1.00
farmindustria caja envase blister comprimidos (ng3452)
8/30/2017 doloaproxol dual forte 50 mg + 500 mg comprimido 1 1.00 1.00
recubierto
furazolidona x 400
100 unid.
mg markos
tableta x caja unid.
100 envase blister caja
naturgen
8/30/2017 comprimidos (n19093) 1 0.50 0.50
envase
exazol blister
forte 800tabletas
mg + (en00265)
160 mg comprimido x 100 unid.
8/30/2017 1 1.50 1.50
andreu caja envase blister comprimidos (n25036)
8/30/2017 toall humedas hugg onex48 1 9.50 9.50
8/30/2017 betametasona crema 0.05% farmindustria 1 3.00 3.00
8/30/2017 alcohol 96 x 1 lt 2 7.50 15.00
8/30/2017 ryna del 5 mg tableta recubierta x 100 unid. delfarma 2 2.00 4.00
caja envase blister tabletas (n26181)
8/30/2017 pañal babysec sueltos g 2 0.70 1.40
8/30/2017 toallas kotex normal tela x 10 1 3.50 3.50
8/30/2017 tusilexil gotas roemmers frasco x 25 ml (e15371) 2 30.00 60.00
8/30/2017 cuajo azul marschall x 100 sobres 2 1.00 2.00
8/30/2017 miofedrol relax plus comprimido recubierto x 100 unid. 1 2.00 2.00
markos caja envase blister comprimidos (n22404)
8/30/2017 apronax 550 mg tableta recubierta x 120 unid. bayer 1 2.00 2.00
caja envase
schick 3 hojasblister
xtreme tabletas (en01992)
8/30/2017 1 3.00 3.00
8/30/2017 cefasabal polvo x 400 gr 1 58.00 58.00
8/30/2017 tuinies biberon transparente x 4oz 1 8.50 8.50
8/30/2017 pañal cotidian clasico g sueltos 3 2.50 7.50
8/30/2017 power multifrutas x 473ml 1 2.00 2.00
8/30/2017 infectrin 200mg/4 mg x 60ml 1 13.00 13.00
8/30/2017 huggies pañal suelto xg 2 1.00 2.00
8/30/2017 mantequilla de cacao x 100 3 0.30 0.90
8/30/2017 labopan 0.5 mg tableta x 100 unid. keyfarm caja envase 1 1.00 1.00
blister tabletas (n20543)
8/30/2017 dia plus 1.5 mg tableta jc.robri caja envase blister 3 15.00 45.00
tabletas (ee00494)
8/30/2017 violeta genciana x 30 ml 1 2.00 2.00
8/30/2017 tinizol ovulo x 100 unid. hersil caja envase blister ovulos 2 3.30 6.60
(e22066)
8/30/2017 exazol forte 800 mg + 160 mg comprimido x 100 unid. 1 1.50 1.50
andreu caja envase blister comprimidos (n25036)
8/30/2017 donalab 2 2 mg tableta x 100 unid. vita pharma caja 1 1.00 1.00
envase blister tabletas (en00930)
8/30/2017 vaso descartable 2 0.10 0.20
8/30/2017 bahia faces spf90 sobres x 20 1 2.50 2.50
8/30/2017 toall humedas babysec x 60 1 6.00 6.00
8/30/2017 doloaproxol dual forte 50 mg + 500 mg comprimido 2 1.00 2.00
recubierto500
x 400
mgunid. markos caja envasexblister
8/30/2017 cipromax
comprimidos
comprimido
(n19093)
recubierto 100 unid. 2 2.20 4.40
markos caja envase blister comprimidos (en19517)
8/30/2017 prostal capsulas x 100 2 2.20 4.40
8/30/2017 sporade tropical x 475ml 1 2.00 2.00
8/30/2017 mantequilla de cacao x 100 3 0.30 0.90
8/30/2017 vaso descartable 1 0.10 0.10
8/30/2017 exazol forte 800 mg + 160 mg comprimido x 100 unid. 1 1.50 1.50
andreu caja envase blister comprimidos (n25036)
8/30/2017 vodravol 50 mg tableta x 100 unid. vita pharma caja 1 1.00 1.00
envase blister tabletas (n24107)
8/30/2017 panadol 500 mg tableta x 50 unid. gsk caja envase 1 1.50 1.50
blister tabletas (e14831)
8/30/2017 asepxia toallitas x 10 1 10.00 10.00
8/30/2017 paracetamol 500 mg tab x 100 12 0.10 1.20
8/30/2017 cetriler 5 ml comp rec x 100 2 3.40 6.80
8/30/2017 doloaproxol dual forte 50 mg + 500 mg comprimido 2 1.00 2.00
recubierto x 400 cápsula
unid. markos
x 100 caja
unid.envase
markosblister
8/30/2017 broncopulmoxil
comprimidos (n19093)
caja envase 2 1.50 3.00
blister tabletas (n23389)
8/30/2017 reumafrost crema x 90 gr 1 9.00 9.00
8/30/2017 mantequilla de cacao x 100 3 0.30 0.90
8/30/2017 ab broncol nf 1200 polvo para suspensión inyectable 1 21.00 21.00
medifarma caja vial + solvente x 5 ml (n25382)
8/30/2017 diclofenaco ampolla 1 1.00 1.00
8/30/2017 jeringa 10ml+aguja 21 x 1 1/2 1 0.60 0.60
8/30/2017 aguja descartable 21g 1 0.20 0.20
8/30/2017 cuajo verde hansen x 100 sobres 2 1.00 2.00
8/30/2017 huggies pañal p x 42 1 23.00 23.00
8/30/2017 pañal babysec m x 72 1 35.00 35.00
8/30/2017 n acetilcisteina 200 mg granulos para solución x 30 unid. 2 1.50 3.00
quimica suiza caja sobre x 3 g (eg6528)
8/30/2017 droxilar 500 mg cápsula x 48 unid. siegfried caja envase 2 3.00 6.00
blister capsulas (en01223)
8/30/2017 tuinies biberon acint sonaja x 4oz 1 11.50 11.50
8/30/2017 plenitud pañal g x 20 1 44.00 44.00
8/30/2017 plenitud pañal x 10 1 4.00 4.00
8/30/2017 colgate cepillo premier 1 2.50 2.50
8/30/2017 toallas ladysoft normal sueltas 2 0.50 1.00
8/30/2017 toallas humedas babysec ultra x 50 6 5.00 30.00
8/30/2017 rexona deso nutritive sobres x 20 1 1.00 1.00
8/30/2017 agua vitaminizada azul x 500ml 1 2.00 2.00
8/30/2017 agua san luis sin gas x 625ml 1 1.30 1.30
8/30/2017 papel elite ultra morado x 2 2 1.20 2.40
8/30/2017 aquarius pera x 500ml 1 1.70 1.70
8/30/2017 vaso descartable 1 0.10 0.10
8/30/2017 papel noble morado x 2 1 9.00 9.00
8/30/2017 lorophyn 150 mg ovulo x 100 unid. medifarma caja 2 2.50 5.00
envase blister ovulos (n19110)
8/30/2017 gastroral 800 mg + 60 mg/10 ml suspensión oral iq 2 21.00 42.00
farma caja frasco x 200 ml (n24602)
8/30/2017 pasuma nf 50 mg tableta recubierta x 10 unid. inti caja 1 3.50 3.50
envase blister tabletas (ee02332)
8/30/2017 bikonor 5 mg tableta de liberación retardada x 100 unid. 14 0.80 11.20
nordic caja envase blister tabletas (e22350)
8/30/2017 rynatan tableta x 30 unid. medifarma caja envase 2 2.50 5.00
blister tabletas (n4362)
8/30/2017 doloaproxol dual forte 50 mg + 500 mg comprimido 2 1.00 2.00
recubierto
fortex 800
400 mg
unid. markos caja envase blister
8/30/2017 exazol
comprimidos
+ 160
(n19093)
mg comprimido x 100 unid. 5 1.50 7.50
andreu caja envase blister comprimidos (n25036)
TOTAL 814.40
FECHA PRODUCTO CANTIDAD PRECIO IMPORTE
8/31/2017 roxtrim forte 800 mg + 160 mg comprimido x 100 unid. 1 1.50 1.50
roxfarma caja envase blister
8/31/2017 vaselina reuter perfumadax8gr comprimidos (n24822) 1 1.00 1.00
8/31/2017 aspirina 500 mg tableta x 100 unid. bayer caja envase 1 0.60 0.60
8/31/2017 blister
toallas tabletas
kotex teens(e23170)
x 10 2 3.50 7.00
8/31/2017 vaselina reuter perfumadax8gr 1 1.00 1.00
8/31/2017 reumo dol forte unguento x 30 gr 1 6.00 6.00
8/31/2017 doloaproxol dual forte 50 mg + 500 mg comprimido 2 1.00 2.00
8/31/2017 recubierto
nisoprex 20xmg 400comprimido
unid. markos cajaunid.
x 100 envase blister caja
elifarma 3 2.20 6.60
comprimidos
envase blister (n19093)
comprimidos (en00218)
8/31/2017 doloaproxol dual forte 50 mg + 500 mg comprimido 3 1.00 3.00
recubierto x 400 unid. markos
8/31/2017 jabon protex complete b 12 x 75 gr caja envase blister 1 2.50 2.50
comprimidos (n19093)
8/31/2017 eliton forte jarabe elifarma frasco x 340 ml + accesorio 1 32.00 32.00
8/31/2017 (en02670)
dolomax plus tableta recubierta x 100 unid. medifarma 2 1.50 3.00
caja envase blister tabletas
8/31/2017 bronco amoxiclin 500 mg tab x 100 (en02654) 2 1.00 2.00
8/31/2017 plidan compuesto nf comprimido recubierto x 100 unid. 2 1.30 2.60
roe1mmers caja envase
8/31/2017 omeprazol 20 mg caps x 100 blister comprimidos (e10971) 10 0.30 3.00
8/31/2017 padrax 1.65 g/sobre polvo para solución oral x 60 unid. 6 1.00 6.00
medifarma caja sobre x 1.845 g (en02789)
8/31/2017 urobiotic forte 400 mg + 100 mg cápsula x 100 unid. 3 1.50 4.50
siegfried caja envase blister tabletas (n19955)
8/31/2017 tinizol ovulo x 100 unid. hersil caja envase blister ovulos 2 3.30 6.60
(e22066)
8/31/2017 broadcef 1 g polvo para solución inyectable mks unidos 1 14.00 14.00
8/31/2017 caja vial5ml+aguja
jeringa + ampolla21 x 3.5
x 1ml1/2(ee01241) 1 0.50 0.50
8/31/2017 aguja descartable 20g x 1 1/2 1 0.20 0.20
8/31/2017 tuinies biberon transparente x 8oz 1 10.50 10.50
8/31/2017 tuinies tetina n2 1 3.00 3.00
8/31/2017 huggies pañal suelto xxg 12 1.10 13.20
8/31/2017 paracetamol 500 mg tab x 100 14 0.10 1.40
8/31/2017 pañal babysec sueltos m 22 0.60 13.20
8/31/2017 crema lechuga x 18gr 2 3.50 7.00
8/31/2017 uronolab tabletas x 100 2 1.50 3.00
8/31/2017 esika shampoo vital 2 en 1 x 1 lt 1 24.00 24.00
8/31/2017 vaselina reuter perfumadax8gr 1 1.00 1.00
8/31/2017 bahia faces color spf90 sobres x 20 1 2.50 2.50
8/31/2017 panadol antigripal nf tableta x 100 unid. gsk caja envase 2 2.30 4.60
blister tabletas (e20318)
8/31/2017 sporade tropical x 475ml 2 2.00 4.00
8/31/2017 kolynos cepillo master 1 2.50 2.50
8/31/2017 doloaproxol dual forte 50 mg + 500 mg comprimido 2 1.00 2.00
8/31/2017 recubierto x 400 unid.
condon sensation markos caja envase blister
anillosx3 2 1.00 2.00
comprimidos (n19093)
8/31/2017 suave papel rindemax naranja x 2 1 1.00 1.00
8/31/2017 doloaproxol dual forte 50 mg + 500 mg comprimido 2 1.00 2.00
recubierto x 400
8/31/2017 alcohol 96 x 120ml unid. markos caja envase blister 1 1.50 1.50
comprimidos (n19093)
8/31/2017 algodón sterilab x 25 gr 1 1.50 1.50
8/31/2017 jeringa 5ml+aguja 21 x 1 1/2 3 0.50 1.50
8/31/2017 gentamicina 160 mg x 10 1 2.00 2.00
8/31/2017 jeringa 5ml+aguja 21 x 1 1/2 1 0.50 0.50
8/31/2017 electrolight naranja x 475ml 1 2.00 2.00
8/31/2017 nexium 40 mg comprimido x 14 unid. astrazeneca caja 8 9.00 72.00
8/31/2017 envase
cinageronblister comprimidos
cápsula x 60 unid.(e18943)
grunenthal caja envase 24 2.60 62.40
blister tabletas
8/31/2017 plenitud pañal x 10(e16901) 1 4.00 4.00
8/31/2017 papel elite ultra morado x 2 2 1.20 2.40
8/31/2017 frasco simple 1 1.00 1.00
8/31/2017 aguja descartable 20g x 1 1/2 2 0.20 0.40
8/31/2017 jeringa 5ml+aguja 21 x 1 1/2 1 0.50 0.50
8/31/2017 h&s limpieza x 18ml 3 1.00 3.00
8/31/2017 bahia faces spf90 sobres x 20 1 2.50 2.50
8/31/2017 bahia faces spf90 sobres x 20 1 2.50 2.50
8/31/2017 esika probador beless 1 3.50 3.50
8/31/2017 nylon azul 3-0 mr 30 2 5.00 10.00
8/31/2017 alcohol 96 x 60 ml 1 1.00 1.00
8/31/2017 labopan 0.5 mg tableta x 100 unid. keyfarm caja envase 3 1.00 3.00
8/31/2017 blister
jeringatabletas
10ml+aguja(n20543)
21 x 1 1/2 1 0.60 0.60
8/31/2017 huggies pañal recien nacido x 50 1 23.00 23.00
8/31/2017 filartros 20 mg tableta x 30 unid. teva caja envase blister 5 7.30 36.50
8/31/2017 tabletas
doxiplus (e19370)
100 mg cápsula x 100 unid. quimica suiza caja 8 1.50 12.00
8/31/2017 mantequilla decápsulas
envase blister cacao x (en00158)
100 3 0.30 0.90
8/31/2017 vodravol 50 mg tableta x 100 unid. vita pharma caja 1 1.00 1.00
8/31/2017 envase
huggiesblister
pañal tabletas (n24107)
recien nacido x 20 1 10.00 10.00
8/31/2017 pinza con seguro 4 2.00 8.00
8/31/2017 frasco simple 1 1.00 1.00
8/31/2017 toallas kotex teens x 10 1 3.50 3.50
8/31/2017 papel toalla scott x 3 1 2.50 2.50
8/31/2017 papel elite ultra morado x 2 2 1.20 2.40
8/31/2017 mantequilla de cacao x 100 3 0.30 0.90
8/31/2017 suave papel rindemax naranja x 2 2 1.00 2.00
8/31/2017 panadol antigripal nf tableta x 100 unid. gsk caja envase 1 2.30 2.30
8/31/2017 blister
droxilartabletas
500 mg(e20318)
cápsula x 48 unid. siegfried caja envase 3 3.00 9.00
blister capsulas (en01223)
8/31/2017 panadol forte tab x 24 sobres 2 2.00 4.00
8/31/2017 diclofenaco ampolla 1 1.00 1.00
8/31/2017 cefadroxilo 500 mg tableta recubierta x 100 unid. 1 1.00 1.00
8/31/2017 farmindustria caja envase
panadol antigripal blister
nf tableta comprimidos
x 100 (ng3452)
unid. gsk caja envase 1 2.30 2.30
blister tabletas (e20318)
8/31/2017 espasmosedil tabletas 2 1.00 2.00
8/31/2017 donamed f 2 mg tableta x 100 unid. medifarma caja 2 1.00 2.00
8/31/2017 envase blister tabletas
pañal babysec sueltos g(en01906) 2 0.70 1.40
8/31/2017 panadol antigripal nf tableta x 100 unid. gsk caja envase 2 2.30 4.60
8/31/2017 blister
jeringatabletas
1ml+aguja (e20318)
26gx12 4 0.50 2.00
8/31/2017 power mora x 473ml 1 2.00 2.00
8/31/2017 papel toalla scott x 3 1 2.00 2.00
8/31/2017 huggies pañal suelto xg 2 1.00 2.00
8/31/2017 megacilina oral 1 000 000 ui comprimido x 120 unid. 2 2.00 4.00
8/31/2017 grunenthal
doloaproxol caja
dualenvase
forte 50blister
mg + tabletas (en03092)
500 mg comprimido 2 1.00 2.00
recubierto x 400 unid. markos caja envase
8/31/2017 panadol antigripal nf tableta x 100 unid. gsk blister
caja envase 1 2.30 2.30
comprimidos (n19093)
blister tabletas (e20318)
8/31/2017 cefadroxilo 500 mg tableta recubierta x 100 unid. 1 1.00 1.00
8/31/2017 farmindustria
exazol forte 800 caja
mgenvase
+ 160 blister comprimidos
mg comprimido (ng3452)
x 100 unid. 4 1.50 6.00
andreu caja envase blister comprimidos (n25036)
8/31/2017 donamed f 2 mg tableta x 100 unid. medifarma caja 4 1.00 4.00
8/31/2017 envase
huggiesblister
pañal tabletas
suelto xg(en01906) 4 1.00 4.00
8/31/2017 gentamicina 160 mg x 10 1 2.00 2.00
8/31/2017 jeringa 5ml+aguja 21 x 1 1/2 1 0.50 0.50
8/31/2017 tioctan forte gragea x 100 unid. farmindustria caja 2 1.60 3.20
8/31/2017 grageas
urofurin(n4664)
100 mg tableta x 120 unid. iq farma caja envase 6 2.00 12.00
8/31/2017 blister tabletas
doloaproxol dual(en01957)
forte 50 mg + 500 mg comprimido 6 1.00 6.00
recubierto x 400 unid. markos cajarecubierto
8/31/2017 miofedrol relax plus comprimido envase blister
x 100 unid. 4 1.70 6.80
comprimidos
markos caja (n19093)
envase blister comprimidos (n22404)
8/31/2017 agua esteril para inyeccion solución para inyección x 2 0.50 1.00
8/31/2017 100 unid.
jeringa pharmagen
10ml+aguja 21caja ampolla x 5 ml (ee01600)
x 1 1/2 1 0.60 0.60
8/31/2017 jeringa 5ml+aguja 21 x 1 1/2 7 0.50 3.50
8/31/2017 aguja descartable 21g x 1 1/2 1 0.20 0.20
8/31/2017 metamizol sodico 1 g/2 ml solución inyectable iv x 100 1 1.50 1.50
8/31/2017 unid. sanderson caja ampolla (eg2005)
vaso descartable 2 0.10 0.20
8/31/2017 asepxia jabon azufre x 100 gr 1 10.00 10.00
8/31/2017 miofedrol relax plus comprimido recubierto x 100 unid. 1 1.70 1.70
8/31/2017 markos caja envase blister comprimidos (n22404)
vaso descartable 3 0.10 0.30
8/31/2017 panadol antigripal nf tableta x 100 unid. gsk caja envase 1 2.30 2.30
8/31/2017 blister
condontabletas
sensation(e20318)
pun chocx3 3 3.00 9.00
8/31/2017 dolo benalgin solución para inyección lusa caja ampolla 2 21.00 42.00
8/31/2017 imeloxicam
x 1 ml + ampolla
15 mg iitableta
x 2 mlx(n23586)
100 unid. naturgen caja 1 0.50 0.50
envase blister tabletas
8/31/2017 gorro enfermera sueltos (ng6196) 4 0.50 2.00
8/31/2017 suero fisiologico 9 ‰ solución para inyección 1 7.00 7.00
8/31/2017 medifarma
gasa esteril frasco
10 x 10x x1l5(n3169) 3 2.00 6.00
8/31/2017 cetriler 5 ml comp rec x 100 1 3.00 3.00
8/31/2017 doloaproxol dual forte 50 mg + 500 mg comprimido 2 1.00 2.00
8/31/2017 recubierto x 400
pañal babysec g xunid.
62 markos caja envase blister 1 35.00 35.00
comprimidos (n19093)
8/31/2017 pañal babysec g x 62 1 35.00 35.00
8/31/2017 toall humedas hugg onex48 1 9.50 9.50
8/31/2017 broncopulmoxil cápsula x 100 unid. markos caja envase 3 1.50 4.50
8/31/2017 blister tabletas
loratadina 10 mg (n23389)
tableta x 100 unid. naturgen caja 3 0.30 0.90
envase blister tabletas
8/31/2017 doloaproxol dual forte 50 (ng6371)
mg + 500 mg comprimido 3 1.00 3.00
8/31/2017 suave papel rindemax naranja caja
recubierto x 400 unid. markos x 2 envase blister 1 1.00 1.00
comprimidos (n19093)
8/31/2017 pañal babysec g x 18 1 12.00 12.00
8/31/2017 panadol forte tab x 24 sobres 2 2.00 4.00
8/31/2017 esika talco momentos x 140 gr 1 13.00 13.00
8/31/2017 venda elastica 2" x 5 yd 1 1.00 1.00
8/31/2017 ketorolaco 10 mg tableta x 100 unid. naturgen caja 6 0.30 1.80
8/31/2017 envase
vodravolblister
50 mgtabletas
tableta(ng3166)
x 100 unid. vita pharma caja 1 1.00 1.00
envase blister tabletas
8/31/2017 papel noble morado x 2 (n24107) 2 0.70 1.40
8/31/2017 miofedrol relax solución para inyección x 2 unid. markos 1 13.00 13.00
8/31/2017 caja ampolla
jeringa x 3 ml 21
10ml+aguja + ampolla
x 1 1/2 x 2 ml (e21355) 1 0.60 0.60
8/31/2017 exazol forte 800 mg + 160 mg comprimido x 100 unid. 4 1.50 6.00
andreu caja envase blister comprimidos (n25036)
8/31/2017 donalab 2 2 mg tableta x 100 unid. vita pharma caja 4 1.00 4.00
8/31/2017 envase
gentagramblister
160tabletas
mg/2 ml (en00930)
solución inyectable lusa caja 1 20.00 20.00
ampolla x 1 ml (en00730)
8/31/2017 jeringa 5ml+aguja 21 x 1 1/2 1 0.50 0.50
8/31/2017 estomaliv fco x 30ml 1 1.50 1.50
8/31/2017 cetriler 5 ml comp rec x 100 1 3.50 3.50
8/31/2017 dexametasona 4 mg tab x 100 1 0.50 0.50
8/31/2017 cefadroxilo 500 mg tableta recubierta x 100 unid. 1 1.00 1.00
8/31/2017 farmindustria caja envase
toallas kotex teens x 10 blister comprimidos (ng3452) 1 3.50 3.50
8/31/2017 cuajo azul marschall x 100 sobres 5 1.00 5.00
8/31/2017 cetriler 5 ml comp rec x 100 4 3.50 14.00
8/31/2017 bronco amoxiclin 500 mg tab x 100 4 1.00 4.00
8/31/2017 esika colonia comando aromax x 100ml 1 14.00 14.00
8/31/2017 miofedrol relax plus comprimido recubierto x 100 unid. 2 1.70 3.40
8/31/2017 markos caja 800
exazol forte envase
mg blister comprimidos
+ 160 mg comprimido(n22404)
x 100 unid. 2 1.50 3.00
andreu caja envase blister comprimidos (n25036)
8/31/2017 furazolidona 100 mg tableta x 100 unid. naturgen caja 2 0.50 1.00
8/31/2017 envase
flatuzymblister tabletas
cápsula x 100(en00265)
unid. iq farma caja envase blister 10 0.90 9.00
tabletas (n26017)
8/31/2017 mejoral 500 mg + 30 mg tableta x 200 unid. medifarma 100 0.30 30.00
8/31/2017 caja envase
nastiflux 60 blister
sobres tabletas (n759) 38 1.30 49.40
8/31/2017 aspirina 500 mg tableta x 100 unid. bayer caja envase 10 0.50 5.00
8/31/2017 blister tabletasg(e23170)
pañal babysec x 62 1 35.00 35.00
TOTAL 1,018.20